<?xml version="1.0" encoding="UTF-8"?>
<gpx creator="Garmin Connect" version="1.1"
  xsi:schemaLocation="http://www.topografix.com/GPX/1/1 http://www.topografix.com/GPX/11.xsd"
  xmlns="http://www.topografix.com/GPX/1/1"
  xmlns:ns3="http://www.garmin.com/xmlschemas/TrackPointExtension/v1"
  xmlns:ns2="http://www.garmin.com/xmlschemas/GpxExtensions/v3" xmlns:xsi="http://www.w3.org/2001/XMLSchema-instance">
  <metadata>
    <link href="connect.garmin.com">
      <text>Garmin Connect</text>
    </link>
    <time>2017-01-03T15:30:59.000Z</time>
  </metadata>
  <trk>
    <name>Отрадное Езда на велосипеде</name>
    <type>cycling</type>
    <trkseg>
      <trkpt lat="51.69491984881460666656494140625" lon="39.26609552465379238128662109375">
        <ele>106</ele>
        <time>2017-01-03T15:30:59.000Z</time>
        <extensions>
          <ns3:TrackPointExtension/>
        </extensions>
      </trkpt>
      <trkpt lat="51.694918759167194366455078125" lon="39.26609686575829982757568359375">
        <ele>106</ele>
        <time>2017-01-03T15:31:00.000Z</time>
        <extensions>
          <ns3:TrackPointExtension/>
        </extensions>
      </trkpt>
      <trkpt lat="51.69489763677120208740234375" lon="39.26614296622574329376220703125">
        <ele>106</ele>
        <time>2017-01-03T15:31:29.000Z</time>
        <extensions>
          <ns3:TrackPointExtension/>
        </extensions>
      </trkpt>
      <trkpt lat="51.695197038352489471435546875" lon="39.26617314107716083526611328125">
        <ele>106.40000152587890625</ele>
        <time>2017-01-15T05:16:41.000Z</time>
        <extensions>
          <ns3:TrackPointExtension/>
        </extensions>
      </trkpt>
      <trkpt lat="51.6951972059905529022216796875" lon="39.266173057258129119873046875">
        <ele>106.40000152587890625</ele>
        <time>2017-01-15T05:16:42.000Z</time>
        <extensions>
          <ns3:TrackPointExtension/>
        </extensions>
      </trkpt>
      <trkpt lat="51.69521606527268886566162109375" lon="39.266171045601367950439453125">
        <ele>106.40000152587890625</ele>
        <time>2017-01-15T05:16:56.000Z</time>
        <extensions>
          <ns3:TrackPointExtension/>
        </extensions>
      </trkpt>
      <trkpt lat="51.6950791887938976287841796875" lon="39.26634714938700199127197265625">
        <ele>106.59999847412109375</ele>
        <time>2017-01-15T05:17:07.000Z</time>
        <extensions>
          <ns3:TrackPointExtension/>
        </extensions>
      </trkpt>
      <trkpt lat="51.6950552165508270263671875" lon="39.2663490772247314453125">
        <ele>106.40000152587890625</ele>
        <time>2017-01-15T05:17:08.000Z</time>
        <extensions>
          <ns3:TrackPointExtension/>
        </extensions>
      </trkpt>
      <trkpt lat="51.6950292326509952545166015625" lon="39.26635301671922206878662109375">
        <ele>106.40000152587890625</ele>
        <time>2017-01-15T05:17:09.000Z</time>
        <extensions>
          <ns3:TrackPointExtension/>
        </extensions>
      </trkpt>
      <trkpt lat="51.69499444775283336639404296875" lon="39.26635569892823696136474609375">
        <ele>106.40000152587890625</ele>
        <time>2017-01-15T05:17:10.000Z</time>
        <extensions>
          <ns3:TrackPointExtension/>
        </extensions>
      </trkpt>
      <trkpt lat="51.6949199326336383819580078125" lon="39.26638461649417877197265625">
        <ele>106.1999969482421875</ele>
        <time>2017-01-15T05:17:15.000Z</time>
        <extensions>
          <ns3:TrackPointExtension/>
        </extensions>
      </trkpt>
      <trkpt lat="51.694907359778881072998046875" lon="39.2664085887372493743896484375">
        <ele>106</ele>
        <time>2017-01-15T05:17:16.000Z</time>
        <extensions>
          <ns3:TrackPointExtension/>
        </extensions>
      </trkpt>
      <trkpt lat="51.69489067979156970977783203125" lon="39.2664320580661296844482421875">
        <ele>106</ele>
        <time>2017-01-15T05:17:17.000Z</time>
        <extensions>
          <ns3:TrackPointExtension/>
        </extensions>
      </trkpt>
      <trkpt lat="51.69487073086202144622802734375" lon="39.2664528451859951019287109375">
        <ele>106</ele>
        <time>2017-01-15T05:17:18.000Z</time>
        <extensions>
          <ns3:TrackPointExtension/>
        </extensions>
      </trkpt>
      <trkpt lat="51.69484675861895084381103515625" lon="39.26647338084876537322998046875">
        <ele>106</ele>
        <time>2017-01-15T05:17:19.000Z</time>
        <extensions>
          <ns3:TrackPointExtension/>
        </extensions>
      </trkpt>
      <trkpt lat="51.694763861596584320068359375" lon="39.266527779400348663330078125">
        <ele>105.8000030517578125</ele>
        <time>2017-01-15T05:17:23.000Z</time>
        <extensions>
          <ns3:TrackPointExtension/>
        </extensions>
      </trkpt>
      <trkpt lat="51.69474902562797069549560546875" lon="39.2665569484233856201171875">
        <ele>105.8000030517578125</ele>
        <time>2017-01-15T05:17:24.000Z</time>
        <extensions>
          <ns3:TrackPointExtension/>
        </extensions>
      </trkpt>
      <trkpt lat="51.69473628513514995574951171875" lon="39.2665913142263889312744140625">
        <ele>105.8000030517578125</ele>
        <time>2017-01-15T05:17:25.000Z</time>
        <extensions>
          <ns3:TrackPointExtension/>
        </extensions>
      </trkpt>
      <trkpt lat="51.69472387991845607757568359375" lon="39.2666241712868213653564453125">
        <ele>105.8000030517578125</ele>
        <time>2017-01-15T05:17:26.000Z</time>
        <extensions>
          <ns3:TrackPointExtension/>
        </extensions>
      </trkpt>
      <trkpt lat="51.69471046887338161468505859375" lon="39.26665954291820526123046875">
        <ele>105.8000030517578125</ele>
        <time>2017-01-15T05:17:27.000Z</time>
        <extensions>
          <ns3:TrackPointExtension/>
        </extensions>
      </trkpt>
      <trkpt lat="51.69469655491411685943603515625" lon="39.266692735254764556884765625">
        <ele>105.8000030517578125</ele>
        <time>2017-01-15T05:17:28.000Z</time>
        <extensions>
          <ns3:TrackPointExtension/>
        </extensions>
      </trkpt>
      <trkpt lat="51.69468280859291553497314453125" lon="39.26672684960067272186279296875">
        <ele>105.8000030517578125</ele>
        <time>2017-01-15T05:17:29.000Z</time>
        <extensions>
          <ns3:TrackPointExtension/>
        </extensions>
      </trkpt>
      <trkpt lat="51.69453713111579418182373046875" lon="39.26714426837861537933349609375">
        <ele>105.40000152587890625</ele>
        <time>2017-01-15T05:17:41.000Z</time>
        <extensions>
          <ns3:TrackPointExtension/>
        </extensions>
      </trkpt>
      <trkpt lat="51.69438072480261325836181640625" lon="39.267628155648708343505859375">
        <ele>105.59999847412109375</ele>
        <time>2017-01-15T05:17:53.000Z</time>
        <extensions>
          <ns3:TrackPointExtension/>
        </extensions>
      </trkpt>
      <trkpt lat="51.6941813193261623382568359375" lon="39.268406331539154052734375">
        <ele>106</ele>
        <time>2017-01-15T05:18:09.000Z</time>
        <extensions>
          <ns3:TrackPointExtension/>
        </extensions>
      </trkpt>
      <trkpt lat="51.69409423135221004486083984375" lon="39.26883749663829803466796875">
        <ele>106.40000152587890625</ele>
        <time>2017-01-15T05:18:19.000Z</time>
        <extensions>
          <ns3:TrackPointExtension/>
        </extensions>
      </trkpt>
      <trkpt lat="51.6940106637775897979736328125" lon="39.26917050965130329132080078125">
        <ele>106.59999847412109375</ele>
        <time>2017-01-15T05:18:27.000Z</time>
        <extensions>
          <ns3:TrackPointExtension/>
        </extensions>
      </trkpt>
      <trkpt lat="51.69401653110980987548828125" lon="39.2691950686275959014892578125">
        <ele>106.59999847412109375</ele>
        <time>2017-01-15T05:18:28.000Z</time>
        <extensions>
          <ns3:TrackPointExtension/>
        </extensions>
      </trkpt>
      <trkpt lat="51.69402751140296459197998046875" lon="39.26921577192842960357666015625">
        <ele>106.8000030517578125</ele>
        <time>2017-01-15T05:18:29.000Z</time>
        <extensions>
          <ns3:TrackPointExtension/>
        </extensions>
      </trkpt>
      <trkpt lat="51.69408652000129222869873046875" lon="39.26931568421423435211181640625">
        <ele>106.8000030517578125</ele>
        <time>2017-01-15T05:18:33.000Z</time>
        <extensions>
          <ns3:TrackPointExtension/>
        </extensions>
      </trkpt>
      <trkpt lat="51.6944089718163013458251953125" lon="39.2695031873881816864013671875">
        <ele>107.40000152587890625</ele>
        <time>2017-01-15T05:18:45.000Z</time>
        <extensions>
          <ns3:TrackPointExtension/>
        </extensions>
      </trkpt>
      <trkpt lat="51.69482094235718250274658203125" lon="39.26975690759718418121337890625">
        <ele>108</ele>
        <time>2017-01-15T05:18:58.000Z</time>
        <extensions>
          <ns3:TrackPointExtension/>
        </extensions>
      </trkpt>
      <trkpt lat="51.69525546021759510040283203125" lon="39.270093441009521484375">
        <ele>108</ele>
        <time>2017-01-15T05:19:12.000Z</time>
        <extensions>
          <ns3:TrackPointExtension/>
        </extensions>
      </trkpt>
      <trkpt lat="51.69566265307366847991943359375" lon="39.270394854247570037841796875">
        <ele>108.40000152587890625</ele>
        <time>2017-01-15T05:19:25.000Z</time>
        <extensions>
          <ns3:TrackPointExtension/>
        </extensions>
      </trkpt>
      <trkpt lat="51.69619943015277385711669921875" lon="39.2707584612071514129638671875">
        <ele>109.8000030517578125</ele>
        <time>2017-01-15T05:19:42.000Z</time>
        <extensions>
          <ns3:TrackPointExtension/>
        </extensions>
      </trkpt>
      <trkpt lat="51.6965936310589313507080078125" lon="39.27098804153501987457275390625">
        <ele>111</ele>
        <time>2017-01-15T05:19:54.000Z</time>
        <extensions>
          <ns3:TrackPointExtension/>
        </extensions>
      </trkpt>
      <trkpt lat="51.69706796295940876007080078125" lon="39.2712935619056224822998046875">
        <ele>111.59999847412109375</ele>
        <time>2017-01-15T05:20:07.000Z</time>
        <extensions>
          <ns3:TrackPointExtension/>
        </extensions>
      </trkpt>
      <trkpt lat="51.69758118689060211181640625" lon="39.27167938090860843658447265625">
        <ele>111.40000152587890625</ele>
        <time>2017-01-15T05:20:21.000Z</time>
        <extensions>
          <ns3:TrackPointExtension/>
        </extensions>
      </trkpt>
      <trkpt lat="51.69786038808524608612060546875" lon="39.2718383856117725372314453125">
        <ele>110.8000030517578125</ele>
        <time>2017-01-15T05:20:28.000Z</time>
        <extensions>
          <ns3:TrackPointExtension/>
        </extensions>
      </trkpt>
      <trkpt lat="51.69799751602113246917724609375" lon="39.27192530594766139984130859375">
        <ele>110.40000152587890625</ele>
        <time>2017-01-15T05:20:31.000Z</time>
        <extensions>
          <ns3:TrackPointExtension/>
        </extensions>
      </trkpt>
      <trkpt lat="51.69804311357438564300537109375" lon="39.2719476856291294097900390625">
        <ele>110.40000152587890625</ele>
        <time>2017-01-15T05:20:32.000Z</time>
        <extensions>
          <ns3:TrackPointExtension/>
        </extensions>
      </trkpt>
      <trkpt lat="51.6986498795449733734130859375" lon="39.2723433114588260650634765625">
        <ele>110.59999847412109375</ele>
        <time>2017-01-15T05:20:46.000Z</time>
        <extensions>
          <ns3:TrackPointExtension/>
        </extensions>
      </trkpt>
      <trkpt lat="51.6993871517479419708251953125" lon="39.272833652794361114501953125">
        <ele>110.1999969482421875</ele>
        <time>2017-01-15T05:21:03.000Z</time>
        <extensions>
          <ns3:TrackPointExtension/>
        </extensions>
      </trkpt>
      <trkpt lat="51.69992946088314056396484375" lon="39.2732043005526065826416015625">
        <ele>108.59999847412109375</ele>
        <time>2017-01-15T05:21:17.000Z</time>
        <extensions>
          <ns3:TrackPointExtension/>
        </extensions>
      </trkpt>
      <trkpt lat="51.7003101669251918792724609375" lon="39.273448549211025238037109375">
        <ele>108.1999969482421875</ele>
        <time>2017-01-15T05:21:28.000Z</time>
        <extensions>
          <ns3:TrackPointExtension/>
        </extensions>
      </trkpt>
      <trkpt lat="51.70068123377859592437744140625" lon="39.27372506819665431976318359375">
        <ele>108</ele>
        <time>2017-01-15T05:21:39.000Z</time>
        <extensions>
          <ns3:TrackPointExtension/>
        </extensions>
      </trkpt>
      <trkpt lat="51.70068760402500629425048828125" lon="39.2737531475722789764404296875">
        <ele>108</ele>
        <time>2017-01-15T05:21:40.000Z</time>
        <extensions>
          <ns3:TrackPointExtension/>
        </extensions>
      </trkpt>
      <trkpt lat="51.7006856761872768402099609375" lon="39.2738473601639270782470703125">
        <ele>108</ele>
        <time>2017-01-15T05:21:48.000Z</time>
        <extensions>
          <ns3:TrackPointExtension/>
        </extensions>
      </trkpt>
      <trkpt lat="51.70064804144203662872314453125" lon="39.27398406900465488433837890625">
        <ele>108</ele>
        <time>2017-01-15T05:22:27.000Z</time>
        <extensions>
          <ns3:TrackPointExtension/>
        </extensions>
      </trkpt>
      <trkpt lat="51.7006186209619045257568359375" lon="39.27411331795156002044677734375">
        <ele>108</ele>
        <time>2017-01-15T05:22:32.000Z</time>
        <extensions>
          <ns3:TrackPointExtension/>
        </extensions>
      </trkpt>
      <trkpt lat="51.700670421123504638671875" lon="39.27424885332584381103515625">
        <ele>108</ele>
        <time>2017-01-15T05:22:45.000Z</time>
        <extensions>
          <ns3:TrackPointExtension/>
        </extensions>
      </trkpt>
      <trkpt lat="51.700700931251049041748046875" lon="39.2742553912103176116943359375">
        <ele>108</ele>
        <time>2017-01-15T05:22:47.000Z</time>
        <extensions>
          <ns3:TrackPointExtension/>
        </extensions>
      </trkpt>
      <trkpt lat="51.70126109384000301361083984375" lon="39.27456225268542766571044921875">
        <ele>109.8000030517578125</ele>
        <time>2017-01-15T05:23:02.000Z</time>
        <extensions>
          <ns3:TrackPointExtension/>
        </extensions>
      </trkpt>
      <trkpt lat="51.70179971493780612945556640625" lon="39.2749051563441753387451171875">
        <ele>109.59999847412109375</ele>
        <time>2017-01-15T05:23:14.000Z</time>
        <extensions>
          <ns3:TrackPointExtension/>
        </extensions>
      </trkpt>
      <trkpt lat="51.70184724032878875732421875" lon="39.27492988295853137969970703125">
        <ele>109.40000152587890625</ele>
        <time>2017-01-15T05:23:15.000Z</time>
        <extensions>
          <ns3:TrackPointExtension/>
        </extensions>
      </trkpt>
      <trkpt lat="51.7018933407962322235107421875" lon="39.27495821379125118255615234375">
        <ele>109.1999969482421875</ele>
        <time>2017-01-15T05:23:16.000Z</time>
        <extensions>
          <ns3:TrackPointExtension/>
        </extensions>
      </trkpt>
      <trkpt lat="51.7019406147301197052001953125" lon="39.27498604170978069305419921875">
        <ele>109</ele>
        <time>2017-01-15T05:23:17.000Z</time>
        <extensions>
          <ns3:TrackPointExtension/>
        </extensions>
      </trkpt>
      <trkpt lat="51.70198931358754634857177734375" lon="39.27501219324767589569091796875">
        <ele>108.8000030517578125</ele>
        <time>2017-01-15T05:23:18.000Z</time>
        <extensions>
          <ns3:TrackPointExtension/>
        </extensions>
      </trkpt>
      <trkpt lat="51.7021389305591583251953125" lon="39.27507488988339900970458984375">
        <ele>108</ele>
        <time>2017-01-15T05:23:21.000Z</time>
        <extensions>
          <ns3:TrackPointExtension/>
        </extensions>
      </trkpt>
      <trkpt lat="51.7021793313324451446533203125" lon="39.27509450353682041168212890625">
        <ele>108</ele>
        <time>2017-01-15T05:23:22.000Z</time>
        <extensions>
          <ns3:TrackPointExtension/>
        </extensions>
      </trkpt>
      <trkpt lat="51.70266824774444103240966796875" lon="39.27528594620525836944580078125">
        <ele>106.59999847412109375</ele>
        <time>2017-01-15T05:23:33.000Z</time>
        <extensions>
          <ns3:TrackPointExtension/>
        </extensions>
      </trkpt>
      <trkpt lat="51.70270546339452266693115234375" lon="39.27531377412378787994384765625">
        <ele>106.59999847412109375</ele>
        <time>2017-01-15T05:23:34.000Z</time>
        <extensions>
          <ns3:TrackPointExtension/>
        </extensions>
      </trkpt>
      <trkpt lat="51.70274284668266773223876953125" lon="39.27535182796418666839599609375">
        <ele>106.59999847412109375</ele>
        <time>2017-01-15T05:23:35.000Z</time>
        <extensions>
          <ns3:TrackPointExtension/>
        </extensions>
      </trkpt>
      <trkpt lat="51.70277704484760761260986328125" lon="39.27539692260324954986572265625">
        <ele>106.59999847412109375</ele>
        <time>2017-01-15T05:23:36.000Z</time>
        <extensions>
          <ns3:TrackPointExtension/>
        </extensions>
      </trkpt>
      <trkpt lat="51.70281023718416690826416015625" lon="39.27544780075550079345703125">
        <ele>106.40000152587890625</ele>
        <time>2017-01-15T05:23:37.000Z</time>
        <extensions>
          <ns3:TrackPointExtension/>
        </extensions>
      </trkpt>
      <trkpt lat="51.70284569263458251953125" lon="39.27550370804965496063232421875">
        <ele>106.40000152587890625</ele>
        <time>2017-01-15T05:23:38.000Z</time>
        <extensions>
          <ns3:TrackPointExtension/>
        </extensions>
      </trkpt>
      <trkpt lat="51.70293085277080535888671875" lon="39.27569548599421977996826171875">
        <ele>106.40000152587890625</ele>
        <time>2017-01-15T05:23:41.000Z</time>
        <extensions>
          <ns3:TrackPointExtension/>
        </extensions>
      </trkpt>
      <trkpt lat="51.70295138843357563018798828125" lon="39.2757644690573215484619140625">
        <ele>106.1999969482421875</ele>
        <time>2017-01-15T05:23:42.000Z</time>
        <extensions>
          <ns3:TrackPointExtension/>
        </extensions>
      </trkpt>
      <trkpt lat="51.70296798460185527801513671875" lon="39.275836050510406494140625">
        <ele>106.1999969482421875</ele>
        <time>2017-01-15T05:23:43.000Z</time>
        <extensions>
          <ns3:TrackPointExtension/>
        </extensions>
      </trkpt>
      <trkpt lat="51.70298181474208831787109375" lon="39.27591073326766490936279296875">
        <ele>106.1999969482421875</ele>
        <time>2017-01-15T05:23:44.000Z</time>
        <extensions>
          <ns3:TrackPointExtension/>
        </extensions>
      </trkpt>
      <trkpt lat="51.70299279503524303436279296875" lon="39.2759917862713336944580078125">
        <ele>106.40000152587890625</ele>
        <time>2017-01-15T05:23:45.000Z</time>
        <extensions>
          <ns3:TrackPointExtension/>
        </extensions>
      </trkpt>
      <trkpt lat="51.70299715362489223480224609375" lon="39.2760752700269222259521484375">
        <ele>106.40000152587890625</ele>
        <time>2017-01-15T05:23:46.000Z</time>
        <extensions>
          <ns3:TrackPointExtension/>
        </extensions>
      </trkpt>
      <trkpt lat="51.7029972374439239501953125" lon="39.27615481428802013397216796875">
        <ele>106.59999847412109375</ele>
        <time>2017-01-15T05:23:47.000Z</time>
        <extensions>
          <ns3:TrackPointExtension/>
        </extensions>
      </trkpt>
      <trkpt lat="51.70299413613975048065185546875" lon="39.27623678930103778839111328125">
        <ele>106.59999847412109375</ele>
        <time>2017-01-15T05:23:48.000Z</time>
        <extensions>
          <ns3:TrackPointExtension/>
        </extensions>
      </trkpt>
      <trkpt lat="51.70298986136913299560546875" lon="39.27632044069468975067138671875">
        <ele>106.8000030517578125</ele>
        <time>2017-01-15T05:23:49.000Z</time>
        <extensions>
          <ns3:TrackPointExtension/>
        </extensions>
      </trkpt>
      <trkpt lat="51.7028857581317424774169921875" lon="39.27734169177711009979248046875">
        <ele>107.8000030517578125</ele>
        <time>2017-01-15T05:24:01.000Z</time>
        <extensions>
          <ns3:TrackPointExtension/>
        </extensions>
      </trkpt>
      <trkpt lat="51.70285818167030811309814453125" lon="39.27758325822651386260986328125">
        <ele>107.8000030517578125</ele>
        <time>2017-01-15T05:24:04.000Z</time>
        <extensions>
          <ns3:TrackPointExtension/>
        </extensions>
      </trkpt>
      <trkpt lat="51.7027737759053707122802734375" lon="39.2790387757122516632080078125">
        <ele>108.59999847412109375</ele>
        <time>2017-01-15T05:24:21.000Z</time>
        <extensions>
          <ns3:TrackPointExtension/>
        </extensions>
      </trkpt>
      <trkpt lat="51.70271468348801136016845703125" lon="39.279745034873485565185546875">
        <ele>109.59999847412109375</ele>
        <time>2017-01-15T05:24:31.000Z</time>
        <extensions>
          <ns3:TrackPointExtension/>
        </extensions>
      </trkpt>
      <trkpt lat="51.702603287994861602783203125" lon="39.281157553195953369140625">
        <ele>111.40000152587890625</ele>
        <time>2017-01-15T05:24:50.000Z</time>
        <extensions>
          <ns3:TrackPointExtension/>
        </extensions>
      </trkpt>
      <trkpt lat="51.7024800740182399749755859375" lon="39.28255657665431499481201171875">
        <ele>112.8000030517578125</ele>
        <time>2017-01-15T05:25:08.000Z</time>
        <extensions>
          <ns3:TrackPointExtension/>
        </extensions>
      </trkpt>
      <trkpt lat="51.7023419402539730072021484375" lon="39.2841688357293605804443359375">
        <ele>112.1999969482421875</ele>
        <time>2017-01-15T05:25:27.000Z</time>
        <extensions>
          <ns3:TrackPointExtension/>
        </extensions>
      </trkpt>
      <trkpt lat="51.70222266577184200286865234375" lon="39.2856279574334621429443359375">
        <ele>114.1999969482421875</ele>
        <time>2017-01-15T05:25:45.000Z</time>
        <extensions>
          <ns3:TrackPointExtension/>
        </extensions>
      </trkpt>
      <trkpt lat="51.7021112702786922454833984375" lon="39.28697383962571620941162109375">
        <ele>114.8000030517578125</ele>
        <time>2017-01-15T05:26:01.000Z</time>
        <extensions>
          <ns3:TrackPointExtension/>
        </extensions>
      </trkpt>
      <trkpt lat="51.702060140669345855712890625" lon="39.288606382906436920166015625">
        <ele>114.1999969482421875</ele>
        <time>2017-01-15T05:26:20.000Z</time>
        <extensions>
          <ns3:TrackPointExtension/>
        </extensions>
      </trkpt>
      <trkpt lat="51.70230011455714702606201171875" lon="39.2896281369030475616455078125">
        <ele>113.8000030517578125</ele>
        <time>2017-01-15T05:26:33.000Z</time>
        <extensions>
          <ns3:TrackPointExtension/>
        </extensions>
      </trkpt>
      <trkpt lat="51.7023989371955394744873046875" lon="39.28982787765562534332275390625">
        <ele>113.8000030517578125</ele>
        <time>2017-01-15T05:26:36.000Z</time>
        <extensions>
          <ns3:TrackPointExtension/>
        </extensions>
      </trkpt>
      <trkpt lat="51.7024351470172405242919921875" lon="39.2898881435394287109375">
        <ele>113.8000030517578125</ele>
        <time>2017-01-15T05:26:37.000Z</time>
        <extensions>
          <ns3:TrackPointExtension/>
        </extensions>
      </trkpt>
      <trkpt lat="51.70272742398083209991455078125" lon="39.29023540578782558441162109375">
        <ele>114</ele>
        <time>2017-01-15T05:26:44.000Z</time>
        <extensions>
          <ns3:TrackPointExtension/>
        </extensions>
      </trkpt>
      <trkpt lat="51.70277369208633899688720703125" lon="39.29027329199016094207763671875">
        <ele>114</ele>
        <time>2017-01-15T05:26:45.000Z</time>
        <extensions>
          <ns3:TrackPointExtension/>
        </extensions>
      </trkpt>
      <trkpt lat="51.70281643979251384735107421875" lon="39.29031469859182834625244140625">
        <ele>114</ele>
        <time>2017-01-15T05:26:46.000Z</time>
        <extensions>
          <ns3:TrackPointExtension/>
        </extensions>
      </trkpt>
      <trkpt lat="51.70286052860319614410400390625" lon="39.2903536744415760040283203125">
        <ele>114.1999969482421875</ele>
        <time>2017-01-15T05:26:47.000Z</time>
        <extensions>
          <ns3:TrackPointExtension/>
        </extensions>
      </trkpt>
      <trkpt lat="51.7029095627367496490478515625" lon="39.290386699140071868896484375">
        <ele>114.1999969482421875</ele>
        <time>2017-01-15T05:26:48.000Z</time>
        <extensions>
          <ns3:TrackPointExtension/>
        </extensions>
      </trkpt>
      <trkpt lat="51.70296094380319118499755859375" lon="39.2904140241444110870361328125">
        <ele>114.1999969482421875</ele>
        <time>2017-01-15T05:26:49.000Z</time>
        <extensions>
          <ns3:TrackPointExtension/>
        </extensions>
      </trkpt>
      <trkpt lat="51.70301341451704502105712890625" lon="39.2904408462345600128173828125">
        <ele>114.40000152587890625</ele>
        <time>2017-01-15T05:26:50.000Z</time>
        <extensions>
          <ns3:TrackPointExtension/>
        </extensions>
      </trkpt>
      <trkpt lat="51.7030634544789791107177734375" lon="39.2904715240001678466796875">
        <ele>114.40000152587890625</ele>
        <time>2017-01-15T05:26:51.000Z</time>
        <extensions>
          <ns3:TrackPointExtension/>
        </extensions>
      </trkpt>
      <trkpt lat="51.70311399735510349273681640625" lon="39.29049893282353878021240234375">
        <ele>114.40000152587890625</ele>
        <time>2017-01-15T05:26:52.000Z</time>
        <extensions>
          <ns3:TrackPointExtension/>
        </extensions>
      </trkpt>
      <trkpt lat="51.70396056957542896270751953125" lon="39.29071267135441303253173828125">
        <ele>115</ele>
        <time>2017-01-15T05:27:07.000Z</time>
        <extensions>
          <ns3:TrackPointExtension/>
        </extensions>
      </trkpt>
      <trkpt lat="51.70401982963085174560546875" lon="39.2907236516475677490234375">
        <ele>115</ele>
        <time>2017-01-15T05:27:08.000Z</time>
        <extensions>
          <ns3:TrackPointExtension/>
        </extensions>
      </trkpt>
      <trkpt lat="51.70407003723084926605224609375" lon="39.29074653424322605133056640625">
        <ele>115.1999969482421875</ele>
        <time>2017-01-15T05:27:09.000Z</time>
        <extensions>
          <ns3:TrackPointExtension/>
        </extensions>
      </trkpt>
      <trkpt lat="51.70412820763885974884033203125" lon="39.2907680757343769073486328125">
        <ele>115.1999969482421875</ele>
        <time>2017-01-15T05:27:10.000Z</time>
        <extensions>
          <ns3:TrackPointExtension/>
        </extensions>
      </trkpt>
      <trkpt lat="51.70418051071465015411376953125" lon="39.29078525863587856292724609375">
        <ele>115.1999969482421875</ele>
        <time>2017-01-15T05:27:11.000Z</time>
        <extensions>
          <ns3:TrackPointExtension/>
        </extensions>
      </trkpt>
      <trkpt lat="51.7050633765757083892822265625" lon="39.2909752763807773590087890625">
        <ele>114.8000030517578125</ele>
        <time>2017-01-15T05:27:26.000Z</time>
        <extensions>
          <ns3:TrackPointExtension/>
        </extensions>
      </trkpt>
      <trkpt lat="51.70512297190725803375244140625" lon="39.29099296219646930694580078125">
        <ele>114.8000030517578125</ele>
        <time>2017-01-15T05:27:27.000Z</time>
        <extensions>
          <ns3:TrackPointExtension/>
        </extensions>
      </trkpt>
      <trkpt lat="51.7058006487786769866943359375" lon="39.291149787604808807373046875">
        <ele>114</ele>
        <time>2017-01-15T05:27:39.000Z</time>
        <extensions>
          <ns3:TrackPointExtension/>
        </extensions>
      </trkpt>
      <trkpt lat="51.7068933136761188507080078125" lon="39.29142161272466182708740234375">
        <ele>113.59999847412109375</ele>
        <time>2017-01-15T05:27:58.000Z</time>
        <extensions>
          <ns3:TrackPointExtension/>
        </extensions>
      </trkpt>
      <trkpt lat="51.70774935744702816009521484375" lon="39.2916525341570377349853515625">
        <ele>113.40000152587890625</ele>
        <time>2017-01-15T05:28:13.000Z</time>
        <extensions>
          <ns3:TrackPointExtension/>
        </extensions>
      </trkpt>
      <trkpt lat="51.70877446420490741729736328125" lon="39.29192058742046356201171875">
        <ele>112.40000152587890625</ele>
        <time>2017-01-15T05:28:31.000Z</time>
        <extensions>
          <ns3:TrackPointExtension/>
        </extensions>
      </trkpt>
      <trkpt lat="51.709899567067623138427734375" lon="39.2922050692141056060791015625">
        <ele>112</ele>
        <time>2017-01-15T05:28:51.000Z</time>
        <extensions>
          <ns3:TrackPointExtension/>
        </extensions>
      </trkpt>
      <trkpt lat="51.71018480323255062103271484375" lon="39.2922687716782093048095703125">
        <ele>111</ele>
        <time>2017-01-15T05:28:56.000Z</time>
        <extensions>
          <ns3:TrackPointExtension/>
        </extensions>
      </trkpt>
      <trkpt lat="51.7102420516312122344970703125" lon="39.29228243418037891387939453125">
        <ele>110.8000030517578125</ele>
        <time>2017-01-15T05:28:57.000Z</time>
        <extensions>
          <ns3:TrackPointExtension/>
        </extensions>
      </trkpt>
      <trkpt lat="51.71029812656342983245849609375" lon="39.2922986112534999847412109375">
        <ele>110.8000030517578125</ele>
        <time>2017-01-15T05:28:58.000Z</time>
        <extensions>
          <ns3:TrackPointExtension/>
        </extensions>
      </trkpt>
      <trkpt lat="51.71161584556102752685546875" lon="39.29263296537101268768310546875">
        <ele>110.59999847412109375</ele>
        <time>2017-01-15T05:29:21.000Z</time>
        <extensions>
          <ns3:TrackPointExtension/>
        </extensions>
      </trkpt>
      <trkpt lat="51.71267992816865444183349609375" lon="39.29292633198201656341552734375">
        <ele>110</ele>
        <time>2017-01-15T05:29:39.000Z</time>
        <extensions>
          <ns3:TrackPointExtension/>
        </extensions>
      </trkpt>
      <trkpt lat="51.71316222287714481353759765625" lon="39.2930459417402744293212890625">
        <ele>109.59999847412109375</ele>
        <time>2017-01-15T05:29:47.000Z</time>
        <extensions>
          <ns3:TrackPointExtension/>
        </extensions>
      </trkpt>
      <trkpt lat="51.71322190202772617340087890625" lon="39.2930633760988712310791015625">
        <ele>109.59999847412109375</ele>
        <time>2017-01-15T05:29:48.000Z</time>
        <extensions>
          <ns3:TrackPointExtension/>
        </extensions>
      </trkpt>
      <trkpt lat="51.71328124590218067169189453125" lon="39.29308307357132434844970703125">
        <ele>109.40000152587890625</ele>
        <time>2017-01-15T05:29:49.000Z</time>
        <extensions>
          <ns3:TrackPointExtension/>
        </extensions>
      </trkpt>
      <trkpt lat="51.71382036991417407989501953125" lon="39.29321215488016605377197265625">
        <ele>109.40000152587890625</ele>
        <time>2017-01-15T05:29:58.000Z</time>
        <extensions>
          <ns3:TrackPointExtension/>
        </extensions>
      </trkpt>
      <trkpt lat="51.71388206072151660919189453125" lon="39.29322321899235248565673828125">
        <ele>109.59999847412109375</ele>
        <time>2017-01-15T05:29:59.000Z</time>
        <extensions>
          <ns3:TrackPointExtension/>
        </extensions>
      </trkpt>
      <trkpt lat="51.71446301043033599853515625" lon="39.2933647893369197845458984375">
        <ele>110.1999969482421875</ele>
        <time>2017-01-15T05:30:09.000Z</time>
        <extensions>
          <ns3:TrackPointExtension/>
        </extensions>
      </trkpt>
      <trkpt lat="51.714520342648029327392578125" lon="39.29337836802005767822265625">
        <ele>110.1999969482421875</ele>
        <time>2017-01-15T05:30:10.000Z</time>
        <extensions>
          <ns3:TrackPointExtension/>
        </extensions>
      </trkpt>
      <trkpt lat="51.7145822010934352874755859375" lon="39.2933983169496059417724609375">
        <ele>110.1999969482421875</ele>
        <time>2017-01-15T05:30:11.000Z</time>
        <extensions>
          <ns3:TrackPointExtension/>
        </extensions>
      </trkpt>
      <trkpt lat="51.71516030095517635345458984375" lon="39.29352496750652790069580078125">
        <ele>110.59999847412109375</ele>
        <time>2017-01-15T05:30:21.000Z</time>
        <extensions>
          <ns3:TrackPointExtension/>
        </extensions>
      </trkpt>
      <trkpt lat="51.7153895460069179534912109375" lon="39.2935880832374095916748046875">
        <ele>110.8000030517578125</ele>
        <time>2017-01-15T05:30:25.000Z</time>
        <extensions>
          <ns3:TrackPointExtension/>
        </extensions>
      </trkpt>
      <trkpt lat="51.71544930897653102874755859375" lon="39.2936123907566070556640625">
        <ele>110.8000030517578125</ele>
        <time>2017-01-15T05:30:26.000Z</time>
        <extensions>
          <ns3:TrackPointExtension/>
        </extensions>
      </trkpt>
      <trkpt lat="51.71550764702260494232177734375" lon="39.293640218675136566162109375">
        <ele>110.8000030517578125</ele>
        <time>2017-01-15T05:30:27.000Z</time>
        <extensions>
          <ns3:TrackPointExtension/>
        </extensions>
      </trkpt>
      <trkpt lat="51.71650710515677928924560546875" lon="39.2938861437141895294189453125">
        <ele>112.1999969482421875</ele>
        <time>2017-01-15T05:30:44.000Z</time>
        <extensions>
          <ns3:TrackPointExtension/>
        </extensions>
      </trkpt>
      <trkpt lat="51.71656544320285320281982421875" lon="39.293905757367610931396484375">
        <ele>112.1999969482421875</ele>
        <time>2017-01-15T05:30:45.000Z</time>
        <extensions>
          <ns3:TrackPointExtension/>
        </extensions>
      </trkpt>
      <trkpt lat="51.71687037684023380279541015625" lon="39.2939692921936511993408203125">
        <ele>112</ele>
        <time>2017-01-15T05:30:50.000Z</time>
        <extensions>
          <ns3:TrackPointExtension/>
        </extensions>
      </trkpt>
      <trkpt lat="51.71692871488630771636962890625" lon="39.2939897440373897552490234375">
        <ele>112</ele>
        <time>2017-01-15T05:30:51.000Z</time>
        <extensions>
          <ns3:TrackPointExtension/>
        </extensions>
      </trkpt>
      <trkpt lat="51.71804568730294704437255859375" lon="39.294298700988292694091796875">
        <ele>111.59999847412109375</ele>
        <time>2017-01-15T05:31:10.000Z</time>
        <extensions>
          <ns3:TrackPointExtension/>
        </extensions>
      </trkpt>
      <trkpt lat="51.7181034386157989501953125" lon="39.294318817555904388427734375">
        <ele>111.8000030517578125</ele>
        <time>2017-01-15T05:31:11.000Z</time>
        <extensions>
          <ns3:TrackPointExtension/>
        </extensions>
      </trkpt>
      <trkpt lat="51.71920440159738063812255859375" lon="39.2946056462824344635009765625">
        <ele>108.1999969482421875</ele>
        <time>2017-01-15T05:31:30.000Z</time>
        <extensions>
          <ns3:TrackPointExtension/>
        </extensions>
      </trkpt>
      <trkpt lat="51.72010512091219425201416015625" lon="39.2948503978550434112548828125">
        <ele>107.59999847412109375</ele>
        <time>2017-01-15T05:31:47.000Z</time>
        <extensions>
          <ns3:TrackPointExtension/>
        </extensions>
      </trkpt>
      <trkpt lat="51.7215395160019397735595703125" lon="39.295199252665042877197265625">
        <ele>106.8000030517578125</ele>
        <time>2017-01-15T05:32:11.000Z</time>
        <extensions>
          <ns3:TrackPointExtension/>
        </extensions>
      </trkpt>
      <trkpt lat="51.723016910254955291748046875" lon="39.29560569114983081817626953125">
        <ele>109</ele>
        <time>2017-01-15T05:32:36.000Z</time>
        <extensions>
          <ns3:TrackPointExtension/>
        </extensions>
      </trkpt>
      <trkpt lat="51.72318697907030582427978515625" lon="39.29564039222896099090576171875">
        <ele>108.8000030517578125</ele>
        <time>2017-01-15T05:32:39.000Z</time>
        <extensions>
          <ns3:TrackPointExtension/>
        </extensions>
      </trkpt>
      <trkpt lat="51.723242215812206268310546875" lon="39.29564743302762508392333984375">
        <ele>108.8000030517578125</ele>
        <time>2017-01-15T05:32:40.000Z</time>
        <extensions>
          <ns3:TrackPointExtension/>
        </extensions>
      </trkpt>
      <trkpt lat="51.72428182326257228851318359375" lon="39.2959485948085784912109375">
        <ele>107.8000030517578125</ele>
        <time>2017-01-15T05:32:58.000Z</time>
        <extensions>
          <ns3:TrackPointExtension/>
        </extensions>
      </trkpt>
      <trkpt lat="51.725300811231136322021484375" lon="39.2962099425494670867919921875">
        <ele>108.8000030517578125</ele>
        <time>2017-01-15T05:33:16.000Z</time>
        <extensions>
          <ns3:TrackPointExtension/>
        </extensions>
      </trkpt>
      <trkpt lat="51.7261224053800106048583984375" lon="39.29642560891807079315185546875">
        <ele>110.40000152587890625</ele>
        <time>2017-01-15T05:33:30.000Z</time>
        <extensions>
          <ns3:TrackPointExtension/>
        </extensions>
      </trkpt>
      <trkpt lat="51.7261730320751667022705078125" lon="39.29643868468701839447021484375">
        <ele>110.40000152587890625</ele>
        <time>2017-01-15T05:33:31.000Z</time>
        <extensions>
          <ns3:TrackPointExtension/>
        </extensions>
      </trkpt>
      <trkpt lat="51.7262296937406063079833984375" lon="39.29645846597850322723388671875">
        <ele>110.59999847412109375</ele>
        <time>2017-01-15T05:33:32.000Z</time>
        <extensions>
          <ns3:TrackPointExtension/>
        </extensions>
      </trkpt>
      <trkpt lat="51.72746828757226467132568359375" lon="39.29679944179952144622802734375">
        <ele>112.59999847412109375</ele>
        <time>2017-01-15T05:33:54.000Z</time>
        <extensions>
          <ns3:TrackPointExtension/>
        </extensions>
      </trkpt>
      <trkpt lat="51.727745644748210906982421875" lon="39.29693707264959812164306640625">
        <ele>112.59999847412109375</ele>
        <time>2017-01-15T05:34:00.000Z</time>
        <extensions>
          <ns3:TrackPointExtension/>
        </extensions>
      </trkpt>
      <trkpt lat="51.72777925617992877960205078125" lon="39.2969918064773082733154296875">
        <ele>112.59999847412109375</ele>
        <time>2017-01-15T05:34:01.000Z</time>
        <extensions>
          <ns3:TrackPointExtension/>
        </extensions>
      </trkpt>
      <trkpt lat="51.7277996242046356201171875" lon="39.2970602028071880340576171875">
        <ele>112.59999847412109375</ele>
        <time>2017-01-15T05:34:02.000Z</time>
        <extensions>
          <ns3:TrackPointExtension/>
        </extensions>
      </trkpt>
      <trkpt lat="51.72781848348677158355712890625" lon="39.2972174473106861114501953125">
        <ele>112.8000030517578125</ele>
        <time>2017-01-15T05:34:04.000Z</time>
        <extensions>
          <ns3:TrackPointExtension/>
        </extensions>
      </trkpt>
      <trkpt lat="51.7278584651648998260498046875" lon="39.2990557663142681121826171875">
        <ele>115</ele>
        <time>2017-01-15T05:34:26.000Z</time>
        <extensions>
          <ns3:TrackPointExtension/>
        </extensions>
      </trkpt>
      <trkpt lat="51.7277350835502147674560546875" lon="39.30120245553553104400634765625">
        <ele>114.8000030517578125</ele>
        <time>2017-01-15T05:34:52.000Z</time>
        <extensions>
          <ns3:TrackPointExtension/>
        </extensions>
      </trkpt>
      <trkpt lat="51.727582700550556182861328125" lon="39.302762411534786224365234375">
        <ele>114.8000030517578125</ele>
        <time>2017-01-15T05:35:11.000Z</time>
        <extensions>
          <ns3:TrackPointExtension/>
        </extensions>
      </trkpt>
      <trkpt lat="51.72742838971316814422607421875" lon="39.3044037558138370513916015625">
        <ele>115.1999969482421875</ele>
        <time>2017-01-15T05:35:33.000Z</time>
        <extensions>
          <ns3:TrackPointExtension/>
        </extensions>
      </trkpt>
      <trkpt lat="51.72726846300065517425537109375" lon="39.30609899573028087615966796875">
        <ele>116.40000152587890625</ele>
        <time>2017-01-15T05:35:56.000Z</time>
        <extensions>
          <ns3:TrackPointExtension/>
        </extensions>
      </trkpt>
      <trkpt lat="51.727100908756256103515625" lon="39.3077726103365421295166015625">
        <ele>118</ele>
        <time>2017-01-15T05:36:19.000Z</time>
        <extensions>
          <ns3:TrackPointExtension/>
        </extensions>
      </trkpt>
      <trkpt lat="51.72697207890450954437255859375" lon="39.30911731906235218048095703125">
        <ele>116.40000152587890625</ele>
        <time>2017-01-15T05:36:37.000Z</time>
        <extensions>
          <ns3:TrackPointExtension/>
        </extensions>
      </trkpt>
      <trkpt lat="51.72680142335593700408935546875" lon="39.31088472716510295867919921875">
        <ele>112.59999847412109375</ele>
        <time>2017-01-15T05:36:59.000Z</time>
        <extensions>
          <ns3:TrackPointExtension/>
        </extensions>
      </trkpt>
      <trkpt lat="51.72665121965110301971435546875" lon="39.31244258768856525421142578125">
        <ele>111.1999969482421875</ele>
        <time>2017-01-15T05:37:18.000Z</time>
        <extensions>
          <ns3:TrackPointExtension/>
        </extensions>
      </trkpt>
      <trkpt lat="51.726623475551605224609375" lon="39.3127548135817050933837890625">
        <ele>111.1999969482421875</ele>
        <time>2017-01-15T05:37:22.000Z</time>
        <extensions>
          <ns3:TrackPointExtension/>
        </extensions>
      </trkpt>
      <trkpt lat="51.7265820689499378204345703125" lon="39.31323450990021228790283203125">
        <ele>111.59999847412109375</ele>
        <time>2017-01-15T05:37:28.000Z</time>
        <extensions>
          <ns3:TrackPointExtension/>
        </extensions>
      </trkpt>
      <trkpt lat="51.7265767045319080352783203125" lon="39.3133184127509593963623046875">
        <ele>111.8000030517578125</ele>
        <time>2017-01-15T05:37:29.000Z</time>
        <extensions>
          <ns3:TrackPointExtension/>
        </extensions>
      </trkpt>
      <trkpt lat="51.72641417942941188812255859375" lon="39.3148744292557239532470703125">
        <ele>114</ele>
        <time>2017-01-15T05:37:48.000Z</time>
        <extensions>
          <ns3:TrackPointExtension/>
        </extensions>
      </trkpt>
      <trkpt lat="51.72629825770854949951171875" lon="39.31610874831676483154296875">
        <ele>114.59999847412109375</ele>
        <time>2017-01-15T05:38:02.000Z</time>
        <extensions>
          <ns3:TrackPointExtension/>
        </extensions>
      </trkpt>
      <trkpt lat="51.72627973370254039764404296875" lon="39.3162851035594940185546875">
        <ele>114.40000152587890625</ele>
        <time>2017-01-15T05:38:04.000Z</time>
        <extensions>
          <ns3:TrackPointExtension/>
        </extensions>
      </trkpt>
      <trkpt lat="51.7261747084558010101318359375" lon="39.3174044229090213775634765625">
        <ele>113.40000152587890625</ele>
        <time>2017-01-15T05:38:17.000Z</time>
        <extensions>
          <ns3:TrackPointExtension/>
        </extensions>
      </trkpt>
      <trkpt lat="51.7261327989399433135986328125" lon="39.31785830296576023101806640625">
        <ele>112.40000152587890625</ele>
        <time>2017-01-15T05:38:23.000Z</time>
        <extensions>
          <ns3:TrackPointExtension/>
        </extensions>
      </trkpt>
      <trkpt lat="51.72612248919904232025146484375" lon="39.31793206371366977691650390625">
        <ele>112.40000152587890625</ele>
        <time>2017-01-15T05:38:24.000Z</time>
        <extensions>
          <ns3:TrackPointExtension/>
        </extensions>
      </trkpt>
      <trkpt lat="51.72611410729587078094482421875" lon="39.31826733984053134918212890625">
        <ele>111.8000030517578125</ele>
        <time>2017-01-15T05:38:33.000Z</time>
        <extensions>
          <ns3:TrackPointExtension/>
        </extensions>
      </trkpt>
      <trkpt lat="51.72636975534260272979736328125" lon="39.31842751801013946533203125">
        <ele>112</ele>
        <time>2017-01-15T05:38:41.000Z</time>
        <extensions>
          <ns3:TrackPointExtension/>
        </extensions>
      </trkpt>
      <trkpt lat="51.72650923021137714385986328125" lon="39.31845274753868579864501953125">
        <ele>112.1999969482421875</ele>
        <time>2017-01-15T05:38:44.000Z</time>
        <extensions>
          <ns3:TrackPointExtension/>
        </extensions>
      </trkpt>
      <trkpt lat="51.7265617847442626953125" lon="39.318463392555713653564453125">
        <ele>112.1999969482421875</ele>
        <time>2017-01-15T05:38:45.000Z</time>
        <extensions>
          <ns3:TrackPointExtension/>
        </extensions>
      </trkpt>
      <trkpt lat="51.7275501787662506103515625" lon="39.3186615407466888427734375">
        <ele>113</ele>
        <time>2017-01-15T05:39:03.000Z</time>
        <extensions>
          <ns3:TrackPointExtension/>
        </extensions>
      </trkpt>
      <trkpt lat="51.728566400706768035888671875" lon="39.31887234561145305633544921875">
        <ele>112.59999847412109375</ele>
        <time>2017-01-15T05:39:20.000Z</time>
        <extensions>
          <ns3:TrackPointExtension/>
        </extensions>
      </trkpt>
      <trkpt lat="51.72978579998016357421875" lon="39.3191374652087688446044921875">
        <ele>111.1999969482421875</ele>
        <time>2017-01-15T05:39:40.000Z</time>
        <extensions>
          <ns3:TrackPointExtension/>
        </extensions>
      </trkpt>
      <trkpt lat="51.7309104837477207183837890625" lon="39.31941079907119274139404296875">
        <ele>109.40000152587890625</ele>
        <time>2017-01-15T05:39:59.000Z</time>
        <extensions>
          <ns3:TrackPointExtension/>
        </extensions>
      </trkpt>
      <trkpt lat="51.73152328468859195709228515625" lon="39.31996216066181659698486328125">
        <ele>106.40000152587890625</ele>
        <time>2017-01-15T05:40:11.000Z</time>
        <extensions>
          <ns3:TrackPointExtension/>
        </extensions>
      </trkpt>
      <trkpt lat="51.73185403458774089813232421875" lon="39.32073530741035938262939453125">
        <ele>103.8000030517578125</ele>
        <time>2017-01-15T05:40:21.000Z</time>
        <extensions>
          <ns3:TrackPointExtension/>
        </extensions>
      </trkpt>
      <trkpt lat="51.73190801404416561126708984375" lon="39.32119421660900115966796875">
        <ele>102.40000152587890625</ele>
        <time>2017-01-15T05:40:26.000Z</time>
        <extensions>
          <ns3:TrackPointExtension/>
        </extensions>
      </trkpt>
      <trkpt lat="51.7319087684154510498046875" lon="39.32128809392452239990234375">
        <ele>102.1999969482421875</ele>
        <time>2017-01-15T05:40:27.000Z</time>
        <extensions>
          <ns3:TrackPointExtension/>
        </extensions>
      </trkpt>
      <trkpt lat="51.7319082655012607574462890625" lon="39.32138205505907535552978515625">
        <ele>101.8000030517578125</ele>
        <time>2017-01-15T05:40:28.000Z</time>
        <extensions>
          <ns3:TrackPointExtension/>
        </extensions>
      </trkpt>
      <trkpt lat="51.731741130352020263671875" lon="39.323295056819915771484375">
        <ele>100.59999847412109375</ele>
        <time>2017-01-15T05:40:49.000Z</time>
        <extensions>
          <ns3:TrackPointExtension/>
        </extensions>
      </trkpt>
      <trkpt lat="51.73164046369493007659912109375" lon="39.32438847608864307403564453125">
        <ele>100.59999847412109375</ele>
        <time>2017-01-15T05:41:01.000Z</time>
        <extensions>
          <ns3:TrackPointExtension/>
        </extensions>
      </trkpt>
      <trkpt lat="51.73162956722080707550048828125" lon="39.3244804255664348602294921875">
        <ele>100.59999847412109375</ele>
        <time>2017-01-15T05:41:02.000Z</time>
        <extensions>
          <ns3:TrackPointExtension/>
        </extensions>
      </trkpt>
      <trkpt lat="51.7315424792468547821044921875" lon="39.325831420719623565673828125">
        <ele>100</ele>
        <time>2017-01-15T05:41:17.000Z</time>
        <extensions>
          <ns3:TrackPointExtension/>
        </extensions>
      </trkpt>
      <trkpt lat="51.731529571115970611572265625" lon="39.32592102326452732086181640625">
        <ele>100</ele>
        <time>2017-01-15T05:41:18.000Z</time>
        <extensions>
          <ns3:TrackPointExtension/>
        </extensions>
      </trkpt>
      <trkpt lat="51.73149964772164821624755859375" lon="39.32646215893328189849853515625">
        <ele>100</ele>
        <time>2017-01-15T05:41:24.000Z</time>
        <extensions>
          <ns3:TrackPointExtension/>
        </extensions>
      </trkpt>
      <trkpt lat="51.73149797134101390838623046875" lon="39.32655016891658306121826171875">
        <ele>100</ele>
        <time>2017-01-15T05:41:25.000Z</time>
        <extensions>
          <ns3:TrackPointExtension/>
        </extensions>
      </trkpt>
      <trkpt lat="51.73138179816305637359619140625" lon="39.32774324901401996612548828125">
        <ele>100.59999847412109375</ele>
        <time>2017-01-15T05:41:38.000Z</time>
        <extensions>
          <ns3:TrackPointExtension/>
        </extensions>
      </trkpt>
      <trkpt lat="51.73136151395738124847412109375" lon="39.3278429098427295684814453125">
        <ele>100.8000030517578125</ele>
        <time>2017-01-15T05:41:39.000Z</time>
        <extensions>
          <ns3:TrackPointExtension/>
        </extensions>
      </trkpt>
      <trkpt lat="51.7313466779887676239013671875" lon="39.32792865671217441558837890625">
        <ele>101</ele>
        <time>2017-01-15T05:41:40.000Z</time>
        <extensions>
          <ns3:TrackPointExtension/>
        </extensions>
      </trkpt>
      <trkpt lat="51.7312940396368503570556640625" lon="39.32818866334855556488037109375">
        <ele>101.1999969482421875</ele>
        <time>2017-01-15T05:41:43.000Z</time>
        <extensions>
          <ns3:TrackPointExtension/>
        </extensions>
      </trkpt>
      <trkpt lat="51.73127266578376293182373046875" lon="39.32827382348477840423583984375">
        <ele>101.1999969482421875</ele>
        <time>2017-01-15T05:41:44.000Z</time>
        <extensions>
          <ns3:TrackPointExtension/>
        </extensions>
      </trkpt>
      <trkpt lat="51.7312517948448657989501953125" lon="39.3283602409064769744873046875">
        <ele>101.40000152587890625</ele>
        <time>2017-01-15T05:41:45.000Z</time>
        <extensions>
          <ns3:TrackPointExtension/>
        </extensions>
      </trkpt>
      <trkpt lat="51.7309010960161685943603515625" lon="39.32906113564968109130859375">
        <ele>103.40000152587890625</ele>
        <time>2017-01-15T05:41:55.000Z</time>
        <extensions>
          <ns3:TrackPointExtension/>
        </extensions>
      </trkpt>
      <trkpt lat="51.7308588512241840362548828125" lon="39.32912710122764110565185546875">
        <ele>103.59999847412109375</ele>
        <time>2017-01-15T05:41:56.000Z</time>
        <extensions>
          <ns3:TrackPointExtension/>
        </extensions>
      </trkpt>
      <trkpt lat="51.73082238994538784027099609375" lon="39.3291920609772205352783203125">
        <ele>104</ele>
        <time>2017-01-15T05:41:57.000Z</time>
        <extensions>
          <ns3:TrackPointExtension/>
        </extensions>
      </trkpt>
      <trkpt lat="51.7304471321403980255126953125" lon="39.3297449313104152679443359375">
        <ele>104.40000152587890625</ele>
        <time>2017-01-15T05:42:06.000Z</time>
        <extensions>
          <ns3:TrackPointExtension/>
        </extensions>
      </trkpt>
      <trkpt lat="51.73040798865258693695068359375" lon="39.32981081306934356689453125">
        <ele>104.40000152587890625</ele>
        <time>2017-01-15T05:42:07.000Z</time>
        <extensions>
          <ns3:TrackPointExtension/>
        </extensions>
      </trkpt>
      <trkpt lat="51.73037362284958362579345703125" lon="39.32988298125565052032470703125">
        <ele>104.40000152587890625</ele>
        <time>2017-01-15T05:42:08.000Z</time>
        <extensions>
          <ns3:TrackPointExtension/>
        </extensions>
      </trkpt>
      <trkpt lat="51.72999258153140544891357421875" lon="39.33100548572838306427001953125">
        <ele>104.1999969482421875</ele>
        <time>2017-01-15T05:42:22.000Z</time>
        <extensions>
          <ns3:TrackPointExtension/>
        </extensions>
      </trkpt>
      <trkpt lat="51.72997766174376010894775390625" lon="39.3310910649597644805908203125">
        <ele>104.40000152587890625</ele>
        <time>2017-01-15T05:42:23.000Z</time>
        <extensions>
          <ns3:TrackPointExtension/>
        </extensions>
      </trkpt>
      <trkpt lat="51.7297360114753246307373046875" lon="39.33226712979376316070556640625">
        <ele>104.59999847412109375</ele>
        <time>2017-01-15T05:42:37.000Z</time>
        <extensions>
          <ns3:TrackPointExtension/>
        </extensions>
      </trkpt>
      <trkpt lat="51.72972821630537509918212890625" lon="39.33235748670995235443115234375">
        <ele>104.8000030517578125</ele>
        <time>2017-01-15T05:42:38.000Z</time>
        <extensions>
          <ns3:TrackPointExtension/>
        </extensions>
      </trkpt>
      <trkpt lat="51.7297286354005336761474609375" lon="39.33244876563549041748046875">
        <ele>105</ele>
        <time>2017-01-15T05:42:39.000Z</time>
        <extensions>
          <ns3:TrackPointExtension/>
        </extensions>
      </trkpt>
      <trkpt lat="51.7297158949077129364013671875" lon="39.33271690271794795989990234375">
        <ele>105.40000152587890625</ele>
        <time>2017-01-15T05:42:42.000Z</time>
        <extensions>
          <ns3:TrackPointExtension/>
        </extensions>
      </trkpt>
      <trkpt lat="51.7297152243554592132568359375" lon="39.3328080140054225921630859375">
        <ele>105.59999847412109375</ele>
        <time>2017-01-15T05:42:43.000Z</time>
        <extensions>
          <ns3:TrackPointExtension/>
        </extensions>
      </trkpt>
      <trkpt lat="51.72971782274544239044189453125" lon="39.3329002149403095245361328125">
        <ele>105.8000030517578125</ele>
        <time>2017-01-15T05:42:44.000Z</time>
        <extensions>
          <ns3:TrackPointExtension/>
        </extensions>
      </trkpt>
      <trkpt lat="51.72977180220186710357666015625" lon="39.33382666669785976409912109375">
        <ele>109</ele>
        <time>2017-01-15T05:42:54.000Z</time>
        <extensions>
          <ns3:TrackPointExtension/>
        </extensions>
      </trkpt>
      <trkpt lat="51.7297764122486114501953125" lon="39.33392037637531757354736328125">
        <ele>109</ele>
        <time>2017-01-15T05:42:55.000Z</time>
        <extensions>
          <ns3:TrackPointExtension/>
        </extensions>
      </trkpt>
      <trkpt lat="51.72978521324694156646728515625" lon="39.3340153433382511138916015625">
        <ele>109</ele>
        <time>2017-01-15T05:42:56.000Z</time>
        <extensions>
          <ns3:TrackPointExtension/>
        </extensions>
      </trkpt>
      <trkpt lat="51.72979778610169887542724609375" lon="39.33439596556127071380615234375">
        <ele>109.1999969482421875</ele>
        <time>2017-01-15T05:43:00.000Z</time>
        <extensions>
          <ns3:TrackPointExtension/>
        </extensions>
      </trkpt>
      <trkpt lat="51.72980013303458690643310546875" lon="39.33449395000934600830078125">
        <ele>109.1999969482421875</ele>
        <time>2017-01-15T05:43:01.000Z</time>
        <extensions>
          <ns3:TrackPointExtension/>
        </extensions>
      </trkpt>
      <trkpt lat="51.72980465926229953765869140625" lon="39.3345947004854679107666015625">
        <ele>109.1999969482421875</ele>
        <time>2017-01-15T05:43:02.000Z</time>
        <extensions>
          <ns3:TrackPointExtension/>
        </extensions>
      </trkpt>
      <trkpt lat="51.7297863028943538665771484375" lon="39.33498881757259368896484375">
        <ele>109</ele>
        <time>2017-01-15T05:43:06.000Z</time>
        <extensions>
          <ns3:TrackPointExtension/>
        </extensions>
      </trkpt>
      <trkpt lat="51.72977984882891178131103515625" lon="39.33508747257292270660400390625">
        <ele>109</ele>
        <time>2017-01-15T05:43:07.000Z</time>
        <extensions>
          <ns3:TrackPointExtension/>
        </extensions>
      </trkpt>
      <trkpt lat="51.72977574169635772705078125" lon="39.33518688194453716278076171875">
        <ele>109</ele>
        <time>2017-01-15T05:43:08.000Z</time>
        <extensions>
          <ns3:TrackPointExtension/>
        </extensions>
      </trkpt>
      <trkpt lat="51.7297665216028690338134765625" lon="39.33527841232717037200927734375">
        <ele>108.8000030517578125</ele>
        <time>2017-01-15T05:43:09.000Z</time>
        <extensions>
          <ns3:TrackPointExtension/>
        </extensions>
      </trkpt>
      <trkpt lat="51.72975520603358745574951171875" lon="39.335369355976581573486328125">
        <ele>108.8000030517578125</ele>
        <time>2017-01-15T05:43:10.000Z</time>
        <extensions>
          <ns3:TrackPointExtension/>
        </extensions>
      </trkpt>
      <trkpt lat="51.7297226004302501678466796875" lon="39.33554562740027904510498046875">
        <ele>108.40000152587890625</ele>
        <time>2017-01-15T05:43:12.000Z</time>
        <extensions>
          <ns3:TrackPointExtension/>
        </extensions>
      </trkpt>
      <trkpt lat="51.72970558516681194305419921875" lon="39.3356337212026119232177734375">
        <ele>108.1999969482421875</ele>
        <time>2017-01-15T05:43:13.000Z</time>
        <extensions>
          <ns3:TrackPointExtension/>
        </extensions>
      </trkpt>
      <trkpt lat="51.72968856990337371826171875" lon="39.33572198264300823211669921875">
        <ele>108</ele>
        <time>2017-01-15T05:43:14.000Z</time>
        <extensions>
          <ns3:TrackPointExtension/>
        </extensions>
      </trkpt>
      <trkpt lat="51.7292361147701740264892578125" lon="39.33690450154244899749755859375">
        <ele>107</ele>
        <time>2017-01-15T05:43:29.000Z</time>
        <extensions>
          <ns3:TrackPointExtension/>
        </extensions>
      </trkpt>
      <trkpt lat="51.7292079515755176544189453125" lon="39.33698329143226146697998046875">
        <ele>107</ele>
        <time>2017-01-15T05:43:30.000Z</time>
        <extensions>
          <ns3:TrackPointExtension/>
        </extensions>
      </trkpt>
      <trkpt lat="51.7291858233511447906494140625" lon="39.33706350624561309814453125">
        <ele>107</ele>
        <time>2017-01-15T05:43:31.000Z</time>
        <extensions>
          <ns3:TrackPointExtension/>
        </extensions>
      </trkpt>
      <trkpt lat="51.7291006632149219512939453125" lon="39.33731454424560070037841796875">
        <ele>106.8000030517578125</ele>
        <time>2017-01-15T05:43:34.000Z</time>
        <extensions>
          <ns3:TrackPointExtension/>
        </extensions>
      </trkpt>
      <trkpt lat="51.72907543368637561798095703125" lon="39.33738964609801769256591796875">
        <ele>106.8000030517578125</ele>
        <time>2017-01-15T05:43:35.000Z</time>
        <extensions>
          <ns3:TrackPointExtension/>
        </extensions>
      </trkpt>
      <trkpt lat="51.72905062325298786163330078125" lon="39.33747547678649425506591796875">
        <ele>106.59999847412109375</ele>
        <time>2017-01-15T05:43:36.000Z</time>
        <extensions>
          <ns3:TrackPointExtension/>
        </extensions>
      </trkpt>
      <trkpt lat="51.72903972677886486053466796875" lon="39.33757203631103038787841796875">
        <ele>106.8000030517578125</ele>
        <time>2017-01-15T05:43:37.000Z</time>
        <extensions>
          <ns3:TrackPointExtension/>
        </extensions>
      </trkpt>
      <trkpt lat="51.7290282435715198516845703125" lon="39.3376708589494228363037109375">
        <ele>106.8000030517578125</ele>
        <time>2017-01-15T05:43:38.000Z</time>
        <extensions>
          <ns3:TrackPointExtension/>
        </extensions>
      </trkpt>
      <trkpt lat="51.729023046791553497314453125" lon="39.33777219615876674652099609375">
        <ele>106.8000030517578125</ele>
        <time>2017-01-15T05:43:39.000Z</time>
        <extensions>
          <ns3:TrackPointExtension/>
        </extensions>
      </trkpt>
      <trkpt lat="51.7290198616683483123779296875" lon="39.3378716893494129180908203125">
        <ele>107</ele>
        <time>2017-01-15T05:43:40.000Z</time>
        <extensions>
          <ns3:TrackPointExtension/>
        </extensions>
      </trkpt>
      <trkpt lat="51.72912589274346828460693359375" lon="39.3395993672311305999755859375">
        <ele>109.40000152587890625</ele>
        <time>2017-01-15T05:43:58.000Z</time>
        <extensions>
          <ns3:TrackPointExtension/>
        </extensions>
      </trkpt>
      <trkpt lat="51.72922463156282901763916015625" lon="39.3414641730487346649169921875">
        <ele>109.40000152587890625</ele>
        <time>2017-01-15T05:44:18.000Z</time>
        <extensions>
          <ns3:TrackPointExtension/>
        </extensions>
      </trkpt>
      <trkpt lat="51.729303337633609771728515625" lon="39.34293217957019805908203125">
        <ele>108.8000030517578125</ele>
        <time>2017-01-15T05:44:34.000Z</time>
        <extensions>
          <ns3:TrackPointExtension/>
        </extensions>
      </trkpt>
      <trkpt lat="51.72938682138919830322265625" lon="39.34399106539785861968994140625">
        <ele>109</ele>
        <time>2017-01-15T05:44:47.000Z</time>
        <extensions>
          <ns3:TrackPointExtension/>
        </extensions>
      </trkpt>
      <trkpt lat="51.72942881472408771514892578125" lon="39.34428761713206768035888671875">
        <ele>109.40000152587890625</ele>
        <time>2017-01-15T05:44:51.000Z</time>
        <extensions>
          <ns3:TrackPointExtension/>
        </extensions>
      </trkpt>
      <trkpt lat="51.7294399626553058624267578125" lon="39.34445139952003955841064453125">
        <ele>109.40000152587890625</ele>
        <time>2017-01-15T05:44:53.000Z</time>
        <extensions>
          <ns3:TrackPointExtension/>
        </extensions>
      </trkpt>
      <trkpt lat="51.72954507172107696533203125" lon="39.3456564657390117645263671875">
        <ele>110</ele>
        <time>2017-01-15T05:45:07.000Z</time>
        <extensions>
          <ns3:TrackPointExtension/>
        </extensions>
      </trkpt>
      <trkpt lat="51.7295744083821773529052734375" lon="39.3459236808121204376220703125">
        <ele>109.8000030517578125</ele>
        <time>2017-01-15T05:45:10.000Z</time>
        <extensions>
          <ns3:TrackPointExtension/>
        </extensions>
      </trkpt>
      <trkpt lat="51.7295858077704906463623046875" lon="39.3460125289857387542724609375">
        <ele>109.59999847412109375</ele>
        <time>2017-01-15T05:45:11.000Z</time>
        <extensions>
          <ns3:TrackPointExtension/>
        </extensions>
      </trkpt>
      <trkpt lat="51.72960852272808551788330078125" lon="39.3462556041777133941650390625">
        <ele>109.40000152587890625</ele>
        <time>2017-01-15T05:45:14.000Z</time>
        <extensions>
          <ns3:TrackPointExtension/>
        </extensions>
      </trkpt>
      <trkpt lat="51.72968161292374134063720703125" lon="39.3472661264240741729736328125">
        <ele>109.59999847412109375</ele>
        <time>2017-01-15T05:45:26.000Z</time>
        <extensions>
          <ns3:TrackPointExtension/>
        </extensions>
      </trkpt>
      <trkpt lat="51.72980281524360179901123046875" lon="39.34818654321134090423583984375">
        <ele>109.40000152587890625</ele>
        <time>2017-01-15T05:45:37.000Z</time>
        <extensions>
          <ns3:TrackPointExtension/>
        </extensions>
      </trkpt>
      <trkpt lat="51.7302365787327289581298828125" lon="39.34920787811279296875">
        <ele>107.59999847412109375</ele>
        <time>2017-01-15T05:45:52.000Z</time>
        <extensions>
          <ns3:TrackPointExtension/>
        </extensions>
      </trkpt>
      <trkpt lat="51.73047102056443691253662109375" lon="39.34955128468573093414306640625">
        <ele>107</ele>
        <time>2017-01-15T05:45:58.000Z</time>
        <extensions>
          <ns3:TrackPointExtension/>
        </extensions>
      </trkpt>
      <trkpt lat="51.7310811392962932586669921875" lon="39.34999703429639339447021484375">
        <ele>106.8000030517578125</ele>
        <time>2017-01-15T05:46:11.000Z</time>
        <extensions>
          <ns3:TrackPointExtension/>
        </extensions>
      </trkpt>
      <trkpt lat="51.731875240802764892578125" lon="39.3501471541821956634521484375">
        <ele>105.40000152587890625</ele>
        <time>2017-01-15T05:46:25.000Z</time>
        <extensions>
          <ns3:TrackPointExtension/>
        </extensions>
      </trkpt>
      <trkpt lat="51.7319262027740478515625" lon="39.3501746468245983123779296875">
        <ele>105.1999969482421875</ele>
        <time>2017-01-15T05:46:26.000Z</time>
        <extensions>
          <ns3:TrackPointExtension/>
        </extensions>
      </trkpt>
      <trkpt lat="51.7319749854505062103271484375" lon="39.3502177298069000244140625">
        <ele>105.1999969482421875</ele>
        <time>2017-01-15T05:46:27.000Z</time>
        <extensions>
          <ns3:TrackPointExtension/>
        </extensions>
      </trkpt>
      <trkpt lat="51.73201597295701503753662109375" lon="39.3502748943865299224853515625">
        <ele>105.1999969482421875</ele>
        <time>2017-01-15T05:46:28.000Z</time>
        <extensions>
          <ns3:TrackPointExtension/>
        </extensions>
      </trkpt>
      <trkpt lat="51.7320561222732067108154296875" lon="39.350340776145458221435546875">
        <ele>105.1999969482421875</ele>
        <time>2017-01-15T05:46:29.000Z</time>
        <extensions>
          <ns3:TrackPointExtension/>
        </extensions>
      </trkpt>
      <trkpt lat="51.73208923079073429107666015625" lon="39.3504140339791774749755859375">
        <ele>105.1999969482421875</ele>
        <time>2017-01-15T05:46:30.000Z</time>
        <extensions>
          <ns3:TrackPointExtension/>
        </extensions>
      </trkpt>
      <trkpt lat="51.73211504705250263214111328125" lon="39.350490979850292205810546875">
        <ele>105.1999969482421875</ele>
        <time>2017-01-15T05:46:31.000Z</time>
        <extensions>
          <ns3:TrackPointExtension/>
        </extensions>
      </trkpt>
      <trkpt lat="51.7321372590959072113037109375" lon="39.3505704402923583984375">
        <ele>105.1999969482421875</ele>
        <time>2017-01-15T05:46:32.000Z</time>
        <extensions>
          <ns3:TrackPointExtension/>
        </extensions>
      </trkpt>
      <trkpt lat="51.73222602345049381256103515625" lon="39.3509927205741405487060546875">
        <ele>105.40000152587890625</ele>
        <time>2017-01-15T05:46:37.000Z</time>
        <extensions>
          <ns3:TrackPointExtension/>
        </extensions>
      </trkpt>
      <trkpt lat="51.7322432063519954681396484375" lon="39.351082742214202880859375">
        <ele>105.40000152587890625</ele>
        <time>2017-01-15T05:46:38.000Z</time>
        <extensions>
          <ns3:TrackPointExtension/>
        </extensions>
      </trkpt>
      <trkpt lat="51.7322680167853832244873046875" lon="39.35138943605124950408935546875">
        <ele>106</ele>
        <time>2017-01-15T05:46:42.000Z</time>
        <extensions>
          <ns3:TrackPointExtension/>
        </extensions>
      </trkpt>
      <trkpt lat="51.73226642422378063201904296875" lon="39.3514778651297092437744140625">
        <ele>106.1999969482421875</ele>
        <time>2017-01-15T05:46:43.000Z</time>
        <extensions>
          <ns3:TrackPointExtension/>
        </extensions>
      </trkpt>
      <trkpt lat="51.732280589640140533447265625" lon="39.35155724175274372100830078125">
        <ele>106.40000152587890625</ele>
        <time>2017-01-15T05:46:44.000Z</time>
        <extensions>
          <ns3:TrackPointExtension/>
        </extensions>
      </trkpt>
      <trkpt lat="51.7324594594538211822509765625" lon="39.3526734597980976104736328125">
        <ele>107.40000152587890625</ele>
        <time>2017-01-15T05:46:58.000Z</time>
        <extensions>
          <ns3:TrackPointExtension/>
        </extensions>
      </trkpt>
      <trkpt lat="51.73246356658637523651123046875" lon="39.352760799229145050048828125">
        <ele>107.59999847412109375</ele>
        <time>2017-01-15T05:46:59.000Z</time>
        <extensions>
          <ns3:TrackPointExtension/>
        </extensions>
      </trkpt>
      <trkpt lat="51.732476055622100830078125" lon="39.352847971022129058837890625">
        <ele>107.59999847412109375</ele>
        <time>2017-01-15T05:47:00.000Z</time>
        <extensions>
          <ns3:TrackPointExtension/>
        </extensions>
      </trkpt>
      <trkpt lat="51.732499860227108001708984375" lon="39.353010915219783782958984375">
        <ele>107.59999847412109375</ele>
        <time>2017-01-15T05:47:02.000Z</time>
        <extensions>
          <ns3:TrackPointExtension/>
        </extensions>
      </trkpt>
      <trkpt lat="51.73251519910991191864013671875" lon="39.35308878310024738311767578125">
        <ele>107.59999847412109375</ele>
        <time>2017-01-15T05:47:03.000Z</time>
        <extensions>
          <ns3:TrackPointExtension/>
        </extensions>
      </trkpt>
      <trkpt lat="51.73253347165882587432861328125" lon="39.3531703390181064605712890625">
        <ele>107.59999847412109375</ele>
        <time>2017-01-15T05:47:04.000Z</time>
        <extensions>
          <ns3:TrackPointExtension/>
        </extensions>
      </trkpt>
      <trkpt lat="51.73254839144647121429443359375" lon="39.3532541580498218536376953125">
        <ele>107.59999847412109375</ele>
        <time>2017-01-15T05:47:05.000Z</time>
        <extensions>
          <ns3:TrackPointExtension/>
        </extensions>
      </trkpt>
      <trkpt lat="51.7325654067099094390869140625" lon="39.35333370231091976165771484375">
        <ele>107.8000030517578125</ele>
        <time>2017-01-15T05:47:06.000Z</time>
        <extensions>
          <ns3:TrackPointExtension/>
        </extensions>
      </trkpt>
      <trkpt lat="51.73258745111525058746337890625" lon="39.3534838221967220306396484375">
        <ele>107.8000030517578125</ele>
        <time>2017-01-15T05:47:08.000Z</time>
        <extensions>
          <ns3:TrackPointExtension/>
        </extensions>
      </trkpt>
      <trkpt lat="51.732608489692211151123046875" lon="39.353574179112911224365234375">
        <ele>107.8000030517578125</ele>
        <time>2017-01-15T05:47:09.000Z</time>
        <extensions>
          <ns3:TrackPointExtension/>
        </extensions>
      </trkpt>
      <trkpt lat="51.73266707919538021087646484375" lon="39.3539009056985378265380859375">
        <ele>107.8000030517578125</ele>
        <time>2017-01-15T05:47:13.000Z</time>
        <extensions>
          <ns3:TrackPointExtension/>
        </extensions>
      </trkpt>
      <trkpt lat="51.7326839268207550048828125" lon="39.35398950241506099700927734375">
        <ele>107.8000030517578125</ele>
        <time>2017-01-15T05:47:14.000Z</time>
        <extensions>
          <ns3:TrackPointExtension/>
        </extensions>
      </trkpt>
      <trkpt lat="51.73292859457433223724365234375" lon="39.355491958558559417724609375">
        <ele>108.40000152587890625</ele>
        <time>2017-01-15T05:47:33.000Z</time>
        <extensions>
          <ns3:TrackPointExtension/>
        </extensions>
      </trkpt>
      <trkpt lat="51.73294921405613422393798828125" lon="39.355584494769573211669921875">
        <ele>108.40000152587890625</ele>
        <time>2017-01-15T05:47:34.000Z</time>
        <extensions>
          <ns3:TrackPointExtension/>
        </extensions>
      </trkpt>
      <trkpt lat="51.7330103181302547454833984375" lon="39.3559846468269824981689453125">
        <ele>108.40000152587890625</ele>
        <time>2017-01-15T05:47:39.000Z</time>
        <extensions>
          <ns3:TrackPointExtension/>
        </extensions>
      </trkpt>
      <trkpt lat="51.733020879328250885009765625" lon="39.356066286563873291015625">
        <ele>108.40000152587890625</ele>
        <time>2017-01-15T05:47:40.000Z</time>
        <extensions>
          <ns3:TrackPointExtension/>
        </extensions>
      </trkpt>
      <trkpt lat="51.7330659739673137664794921875" lon="39.3563655205070972442626953125">
        <ele>108.1999969482421875</ele>
        <time>2017-01-15T05:47:44.000Z</time>
        <extensions>
          <ns3:TrackPointExtension/>
        </extensions>
      </trkpt>
      <trkpt lat="51.73313244245946407318115234375" lon="39.35686491429805755615234375">
        <ele>107.40000152587890625</ele>
        <time>2017-01-15T05:47:50.000Z</time>
        <extensions>
          <ns3:TrackPointExtension/>
        </extensions>
      </trkpt>
      <trkpt lat="51.7331514693796634674072265625" lon="39.35710337944328784942626953125">
        <ele>107.40000152587890625</ele>
        <time>2017-01-15T05:47:53.000Z</time>
        <extensions>
          <ns3:TrackPointExtension/>
        </extensions>
      </trkpt>
      <trkpt lat="51.7331910319626331329345703125" lon="39.3572751246392726898193359375">
        <ele>107.1999969482421875</ele>
        <time>2017-01-15T05:47:55.000Z</time>
        <extensions>
          <ns3:TrackPointExtension/>
        </extensions>
      </trkpt>
      <trkpt lat="51.73321508802473545074462890625" lon="39.35774208046495914459228515625">
        <ele>107</ele>
        <time>2017-01-15T05:48:01.000Z</time>
        <extensions>
          <ns3:TrackPointExtension/>
        </extensions>
      </trkpt>
      <trkpt lat="51.73322665505111217498779296875" lon="39.35782246291637420654296875">
        <ele>107</ele>
        <time>2017-01-15T05:48:02.000Z</time>
        <extensions>
          <ns3:TrackPointExtension/>
        </extensions>
      </trkpt>
      <trkpt lat="51.73323386348783969879150390625" lon="39.357897900044918060302734375">
        <ele>106.8000030517578125</ele>
        <time>2017-01-15T05:48:03.000Z</time>
        <extensions>
          <ns3:TrackPointExtension/>
        </extensions>
      </trkpt>
      <trkpt lat="51.7332433350384235382080078125" lon="39.3579714931547641754150390625">
        <ele>106.59999847412109375</ele>
        <time>2017-01-15T05:48:04.000Z</time>
        <extensions>
          <ns3:TrackPointExtension/>
        </extensions>
      </trkpt>
      <trkpt lat="51.73325666226446628570556640625" lon="39.35805313289165496826171875">
        <ele>106.59999847412109375</ele>
        <time>2017-01-15T05:48:05.000Z</time>
        <extensions>
          <ns3:TrackPointExtension/>
        </extensions>
      </trkpt>
      <trkpt lat="51.733466796576976776123046875" lon="39.35888252221047878265380859375">
        <ele>105</ele>
        <time>2017-01-15T05:48:17.000Z</time>
        <extensions>
          <ns3:TrackPointExtension/>
        </extensions>
      </trkpt>
      <trkpt lat="51.73349403776228427886962890625" lon="39.358931891620159149169921875">
        <ele>105</ele>
        <time>2017-01-15T05:48:18.000Z</time>
        <extensions>
          <ns3:TrackPointExtension/>
        </extensions>
      </trkpt>
      <trkpt lat="51.73351943492889404296875" lon="39.3589699454605579376220703125">
        <ele>104.8000030517578125</ele>
        <time>2017-01-15T05:48:19.000Z</time>
        <extensions>
          <ns3:TrackPointExtension/>
        </extensions>
      </trkpt>
      <trkpt lat="51.7335475981235504150390625" lon="39.35899794101715087890625">
        <ele>104.8000030517578125</ele>
        <time>2017-01-15T05:48:20.000Z</time>
        <extensions>
          <ns3:TrackPointExtension/>
        </extensions>
      </trkpt>
      <trkpt lat="51.73357986845076084136962890625" lon="39.35901713557541370391845703125">
        <ele>104.59999847412109375</ele>
        <time>2017-01-15T05:48:21.000Z</time>
        <extensions>
          <ns3:TrackPointExtension/>
        </extensions>
      </trkpt>
      <trkpt lat="51.73361800611019134521484375" lon="39.35902669094502925872802734375">
        <ele>104.59999847412109375</ele>
        <time>2017-01-15T05:48:22.000Z</time>
        <extensions>
          <ns3:TrackPointExtension/>
        </extensions>
      </trkpt>
      <trkpt lat="51.73365748487412929534912109375" lon="39.3590234220027923583984375">
        <ele>104.40000152587890625</ele>
        <time>2017-01-15T05:48:23.000Z</time>
        <extensions>
          <ns3:TrackPointExtension/>
        </extensions>
      </trkpt>
      <trkpt lat="51.7336996458470821380615234375" lon="39.35900623910129070281982421875">
        <ele>104.1999969482421875</ele>
        <time>2017-01-15T05:48:24.000Z</time>
        <extensions>
          <ns3:TrackPointExtension/>
        </extensions>
      </trkpt>
      <trkpt lat="51.7337422259151935577392578125" lon="39.35897648334503173828125">
        <ele>104</ele>
        <time>2017-01-15T05:48:25.000Z</time>
        <extensions>
          <ns3:TrackPointExtension/>
        </extensions>
      </trkpt>
      <trkpt lat="51.73378254286944866180419921875" lon="39.3589374236762523651123046875">
        <ele>104</ele>
        <time>2017-01-15T05:48:26.000Z</time>
        <extensions>
          <ns3:TrackPointExtension/>
        </extensions>
      </trkpt>
      <trkpt lat="51.73382210545241832733154296875" lon="39.3588946759700775146484375">
        <ele>103.8000030517578125</ele>
        <time>2017-01-15T05:48:27.000Z</time>
        <extensions>
          <ns3:TrackPointExtension/>
        </extensions>
      </trkpt>
      <trkpt lat="51.734159477055072784423828125" lon="39.358521513640880584716796875">
        <ele>103.40000152587890625</ele>
        <time>2017-01-15T05:48:35.000Z</time>
        <extensions>
          <ns3:TrackPointExtension/>
        </extensions>
      </trkpt>
      <trkpt lat="51.734209097921848297119140625" lon="39.3584727309644222259521484375">
        <ele>103.59999847412109375</ele>
        <time>2017-01-15T05:48:36.000Z</time>
        <extensions>
          <ns3:TrackPointExtension/>
        </extensions>
      </trkpt>
      <trkpt lat="51.73516094684600830078125" lon="39.357616938650608062744140625">
        <ele>105.40000152587890625</ele>
        <time>2017-01-15T05:48:56.000Z</time>
        <extensions>
          <ns3:TrackPointExtension/>
        </extensions>
      </trkpt>
      <trkpt lat="51.73615135252475738525390625" lon="39.3568027205765247344970703125">
        <ele>104.1999969482421875</ele>
        <time>2017-01-15T05:49:16.000Z</time>
        <extensions>
          <ns3:TrackPointExtension/>
        </extensions>
      </trkpt>
      <trkpt lat="51.7370559275150299072265625" lon="39.356051869690418243408203125">
        <ele>103.59999847412109375</ele>
        <time>2017-01-15T05:49:34.000Z</time>
        <extensions>
          <ns3:TrackPointExtension/>
        </extensions>
      </trkpt>
      <trkpt lat="51.7379817925393581390380859375" lon="39.355282746255397796630859375">
        <ele>102.1999969482421875</ele>
        <time>2017-01-15T05:49:54.000Z</time>
        <extensions>
          <ns3:TrackPointExtension/>
        </extensions>
      </trkpt>
      <trkpt lat="51.7383180744946002960205078125" lon="39.35502081178128719329833984375">
        <ele>101.8000030517578125</ele>
        <time>2017-01-15T05:50:02.000Z</time>
        <extensions>
          <ns3:TrackPointExtension/>
        </extensions>
      </trkpt>
      <trkpt lat="51.7383589781820774078369140625" lon="39.35500572435557842254638671875">
        <ele>101.8000030517578125</ele>
        <time>2017-01-15T05:50:03.000Z</time>
        <extensions>
          <ns3:TrackPointExtension/>
        </extensions>
      </trkpt>
      <trkpt lat="51.7383968643844127655029296875" lon="39.3550029583275318145751953125">
        <ele>101.8000030517578125</ele>
        <time>2017-01-15T05:50:04.000Z</time>
        <extensions>
          <ns3:TrackPointExtension/>
        </extensions>
      </trkpt>
      <trkpt lat="51.738431565463542938232421875" lon="39.3550170399248600006103515625">
        <ele>102</ele>
        <time>2017-01-15T05:50:05.000Z</time>
        <extensions>
          <ns3:TrackPointExtension/>
        </extensions>
      </trkpt>
      <trkpt lat="51.7384629137814044952392578125" lon="39.3550512380897998809814453125">
        <ele>102</ele>
        <time>2017-01-15T05:50:06.000Z</time>
        <extensions>
          <ns3:TrackPointExtension/>
        </extensions>
      </trkpt>
      <trkpt lat="51.73849082551896572113037109375" lon="39.35510144568979740142822265625">
        <ele>102</ele>
        <time>2017-01-15T05:50:07.000Z</time>
        <extensions>
          <ns3:TrackPointExtension/>
        </extensions>
      </trkpt>
      <trkpt lat="51.7385150492191314697265625" lon="39.35515961609780788421630859375">
        <ele>102.1999969482421875</ele>
        <time>2017-01-15T05:50:08.000Z</time>
        <extensions>
          <ns3:TrackPointExtension/>
        </extensions>
      </trkpt>
      <trkpt lat="51.738537847995758056640625" lon="39.355222396552562713623046875">
        <ele>102.1999969482421875</ele>
        <time>2017-01-15T05:50:09.000Z</time>
        <extensions>
          <ns3:TrackPointExtension/>
        </extensions>
      </trkpt>
      <trkpt lat="51.73855888657271862030029296875" lon="39.35529104433953762054443359375">
        <ele>102.40000152587890625</ele>
        <time>2017-01-15T05:50:10.000Z</time>
        <extensions>
          <ns3:TrackPointExtension/>
        </extensions>
      </trkpt>
      <trkpt lat="51.7385789193212985992431640625" lon="39.35536195524036884307861328125">
        <ele>102.40000152587890625</ele>
        <time>2017-01-15T05:50:11.000Z</time>
        <extensions>
          <ns3:TrackPointExtension/>
        </extensions>
      </trkpt>
      <trkpt lat="51.73867665231227874755859375" lon="39.3557338602840900421142578125">
        <ele>102.59999847412109375</ele>
        <time>2017-01-15T05:50:16.000Z</time>
        <extensions>
          <ns3:TrackPointExtension/>
        </extensions>
      </trkpt>
      <trkpt lat="51.73869945108890533447265625" lon="39.3558119796216487884521484375">
        <ele>102.59999847412109375</ele>
        <time>2017-01-15T05:50:17.000Z</time>
        <extensions>
          <ns3:TrackPointExtension/>
        </extensions>
      </trkpt>
      <trkpt lat="51.73888997174799442291259765625" lon="39.35650507919490337371826171875">
        <ele>103</ele>
        <time>2017-01-15T05:50:26.000Z</time>
        <extensions>
          <ns3:TrackPointExtension/>
        </extensions>
      </trkpt>
      <trkpt lat="51.73910287208855152130126953125" lon="39.3572620488703250885009765625">
        <ele>103</ele>
        <time>2017-01-15T05:50:36.000Z</time>
        <extensions>
          <ns3:TrackPointExtension/>
        </extensions>
      </trkpt>
      <trkpt lat="51.73912516795098781585693359375" lon="39.35734100639820098876953125">
        <ele>103</ele>
        <time>2017-01-15T05:50:37.000Z</time>
        <extensions>
          <ns3:TrackPointExtension/>
        </extensions>
      </trkpt>
      <trkpt lat="51.73922910355031490325927734375" lon="39.3577200360596179962158203125">
        <ele>103</ele>
        <time>2017-01-15T05:50:42.000Z</time>
        <extensions>
          <ns3:TrackPointExtension/>
        </extensions>
      </trkpt>
      <trkpt lat="51.73924972303211688995361328125" lon="39.35779538936913013458251953125">
        <ele>103</ele>
        <time>2017-01-15T05:50:43.000Z</time>
        <extensions>
          <ns3:TrackPointExtension/>
        </extensions>
      </trkpt>
      <trkpt lat="51.739403195679187774658203125" lon="39.35837776400148868560791015625">
        <ele>102.8000030517578125</ele>
        <time>2017-01-15T05:50:51.000Z</time>
        <extensions>
          <ns3:TrackPointExtension/>
        </extensions>
      </trkpt>
      <trkpt lat="51.7394201271235942840576171875" lon="39.35845009982585906982421875">
        <ele>102.8000030517578125</ele>
        <time>2017-01-15T05:50:52.000Z</time>
        <extensions>
          <ns3:TrackPointExtension/>
        </extensions>
      </trkpt>
      <trkpt lat="51.73944217152893543243408203125" lon="39.3585203401744365692138671875">
        <ele>102.8000030517578125</ele>
        <time>2017-01-15T05:50:53.000Z</time>
        <extensions>
          <ns3:TrackPointExtension/>
        </extensions>
      </trkpt>
      <trkpt lat="51.739597655832767486572265625" lon="39.35908603481948375701904296875">
        <ele>103.1999969482421875</ele>
        <time>2017-01-15T05:51:01.000Z</time>
        <extensions>
          <ns3:TrackPointExtension/>
        </extensions>
      </trkpt>
      <trkpt lat="51.73961601220071315765380859375" lon="39.359158538281917572021484375">
        <ele>103.1999969482421875</ele>
        <time>2017-01-15T05:51:02.000Z</time>
        <extensions>
          <ns3:TrackPointExtension/>
        </extensions>
      </trkpt>
      <trkpt lat="51.73963822424411773681640625" lon="39.35923196375370025634765625">
        <ele>103.1999969482421875</ele>
        <time>2017-01-15T05:51:03.000Z</time>
        <extensions>
          <ns3:TrackPointExtension/>
        </extensions>
      </trkpt>
      <trkpt lat="51.73983938992023468017578125" lon="39.35996353626251220703125">
        <ele>103.59999847412109375</ele>
        <time>2017-01-15T05:51:13.000Z</time>
        <extensions>
          <ns3:TrackPointExtension/>
        </extensions>
      </trkpt>
      <trkpt lat="51.7398613505065441131591796875" lon="39.36003855429589748382568359375">
        <ele>103.59999847412109375</ele>
        <time>2017-01-15T05:51:14.000Z</time>
        <extensions>
          <ns3:TrackPointExtension/>
        </extensions>
      </trkpt>
      <trkpt lat="51.74000057391822338104248046875" lon="39.3605346791446208953857421875">
        <ele>104.59999847412109375</ele>
        <time>2017-01-15T05:51:21.000Z</time>
        <extensions>
          <ns3:TrackPointExtension/>
        </extensions>
      </trkpt>
      <trkpt lat="51.74002178013324737548828125" lon="39.36060684733092784881591796875">
        <ele>104.8000030517578125</ele>
        <time>2017-01-15T05:51:22.000Z</time>
        <extensions>
          <ns3:TrackPointExtension/>
        </extensions>
      </trkpt>
      <trkpt lat="51.7400465905666351318359375" lon="39.36067960225045680999755859375">
        <ele>104.8000030517578125</ele>
        <time>2017-01-15T05:51:23.000Z</time>
        <extensions>
          <ns3:TrackPointExtension/>
        </extensions>
      </trkpt>
      <trkpt lat="51.7401067726314067840576171875" lon="39.3608857132494449615478515625">
        <ele>105.40000152587890625</ele>
        <time>2017-01-15T05:51:26.000Z</time>
        <extensions>
          <ns3:TrackPointExtension/>
        </extensions>
      </trkpt>
      <trkpt lat="51.740124709904193878173828125" lon="39.36095687560737133026123046875">
        <ele>105.59999847412109375</ele>
        <time>2017-01-15T05:51:27.000Z</time>
        <extensions>
          <ns3:TrackPointExtension/>
        </extensions>
      </trkpt>
      <trkpt lat="51.740305423736572265625" lon="39.36157755553722381591796875">
        <ele>106.59999847412109375</ele>
        <time>2017-01-15T05:51:36.000Z</time>
        <extensions>
          <ns3:TrackPointExtension/>
        </extensions>
      </trkpt>
      <trkpt lat="51.74059443175792694091796875" lon="39.36263275332748889923095703125">
        <ele>107.1999969482421875</ele>
        <time>2017-01-15T05:51:51.000Z</time>
        <extensions>
          <ns3:TrackPointExtension/>
        </extensions>
      </trkpt>
      <trkpt lat="51.74061362631618976593017578125" lon="39.36270416714251041412353515625">
        <ele>107.1999969482421875</ele>
        <time>2017-01-15T05:51:52.000Z</time>
        <extensions>
          <ns3:TrackPointExtension/>
        </extensions>
      </trkpt>
      <trkpt lat="51.7406366765499114990234375" lon="39.36277792789041996002197265625">
        <ele>107.1999969482421875</ele>
        <time>2017-01-15T05:51:53.000Z</time>
        <extensions>
          <ns3:TrackPointExtension/>
        </extensions>
      </trkpt>
      <trkpt lat="51.74071823246777057647705078125" lon="39.363072216510772705078125">
        <ele>107.40000152587890625</ele>
        <time>2017-01-15T05:51:57.000Z</time>
        <extensions>
          <ns3:TrackPointExtension/>
        </extensions>
      </trkpt>
      <trkpt lat="51.74102953635156154632568359375" lon="39.364149458706378936767578125">
        <ele>108</ele>
        <time>2017-01-15T05:52:11.000Z</time>
        <extensions>
          <ns3:TrackPointExtension/>
        </extensions>
      </trkpt>
      <trkpt lat="51.74138291738927364349365234375" lon="39.36555384658277034759521484375">
        <ele>107.59999847412109375</ele>
        <time>2017-01-15T05:52:29.000Z</time>
        <extensions>
          <ns3:TrackPointExtension/>
        </extensions>
      </trkpt>
      <trkpt lat="51.74144913442432880401611328125" lon="39.36595684848725795745849609375">
        <ele>108</ele>
        <time>2017-01-15T05:52:34.000Z</time>
        <extensions>
          <ns3:TrackPointExtension/>
        </extensions>
      </trkpt>
      <trkpt lat="51.741577126085758209228515625" lon="39.36671935021877288818359375">
        <ele>109.40000152587890625</ele>
        <time>2017-01-15T05:52:44.000Z</time>
        <extensions>
          <ns3:TrackPointExtension/>
        </extensions>
      </trkpt>
      <trkpt lat="51.7415863461792469024658203125" lon="39.3667939491569995880126953125">
        <ele>109.59999847412109375</ele>
        <time>2017-01-15T05:52:45.000Z</time>
        <extensions>
          <ns3:TrackPointExtension/>
        </extensions>
      </trkpt>
      <trkpt lat="51.741787679493427276611328125" lon="39.3678752146661281585693359375">
        <ele>111</ele>
        <time>2017-01-15T05:53:02.000Z</time>
        <extensions>
          <ns3:TrackPointExtension/>
        </extensions>
      </trkpt>
      <trkpt lat="51.74180586822330951690673828125" lon="39.3679325468838214874267578125">
        <ele>110.8000030517578125</ele>
        <time>2017-01-15T05:53:03.000Z</time>
        <extensions>
          <ns3:TrackPointExtension/>
        </extensions>
      </trkpt>
      <trkpt lat="51.74186554737389087677001953125" lon="39.36818744055926799774169921875">
        <ele>110.8000030517578125</ele>
        <time>2017-01-15T05:53:07.000Z</time>
        <extensions>
          <ns3:TrackPointExtension/>
        </extensions>
      </trkpt>
      <trkpt lat="51.74198272638022899627685546875" lon="39.3685640394687652587890625">
        <ele>111.1999969482421875</ele>
        <time>2017-01-15T05:53:13.000Z</time>
        <extensions>
          <ns3:TrackPointExtension/>
        </extensions>
      </trkpt>
      <trkpt lat="51.74201809801161289215087890625" lon="39.36868004500865936279296875">
        <ele>111.40000152587890625</ele>
        <time>2017-01-15T05:53:15.000Z</time>
        <extensions>
          <ns3:TrackPointExtension/>
        </extensions>
      </trkpt>
      <trkpt lat="51.742043830454349517822265625" lon="39.36874634586274623870849609375">
        <ele>111.40000152587890625</ele>
        <time>2017-01-15T05:53:16.000Z</time>
        <extensions>
          <ns3:TrackPointExtension/>
        </extensions>
      </trkpt>
      <trkpt lat="51.742346920073032379150390625" lon="39.36961202882230281829833984375">
        <ele>111.40000152587890625</ele>
        <time>2017-01-15T05:53:31.000Z</time>
        <extensions>
          <ns3:TrackPointExtension/>
        </extensions>
      </trkpt>
      <trkpt lat="51.74243484623730182647705078125" lon="39.3696471489965915679931640625">
        <ele>111.1999969482421875</ele>
        <time>2017-01-15T05:53:40.000Z</time>
        <extensions>
          <ns3:TrackPointExtension/>
        </extensions>
      </trkpt>
      <trkpt lat="51.7425598204135894775390625" lon="39.36977572739124298095703125">
        <ele>111.1999969482421875</ele>
        <time>2017-01-15T05:53:53.000Z</time>
        <extensions>
          <ns3:TrackPointExtension/>
        </extensions>
      </trkpt>
      <trkpt lat="51.742566861212253570556640625" lon="39.36981269158422946929931640625">
        <ele>111.40000152587890625</ele>
        <time>2017-01-15T05:53:58.000Z</time>
        <extensions>
          <ns3:TrackPointExtension/>
        </extensions>
      </trkpt>
      <trkpt lat="51.74258060753345489501953125" lon="39.3699757196009159088134765625">
        <ele>111.59999847412109375</ele>
        <time>2017-01-15T05:56:26.000Z</time>
        <extensions>
          <ns3:TrackPointExtension/>
        </extensions>
      </trkpt>
      <trkpt lat="51.7425418831408023834228515625" lon="39.37015215866267681121826171875">
        <ele>112.1999969482421875</ele>
        <time>2017-01-15T05:56:33.000Z</time>
        <extensions>
          <ns3:TrackPointExtension/>
        </extensions>
      </trkpt>
      <trkpt lat="51.7425502650439739227294921875" lon="39.37018702737987041473388671875">
        <ele>112.1999969482421875</ele>
        <time>2017-01-15T05:56:34.000Z</time>
        <extensions>
          <ns3:TrackPointExtension/>
        </extensions>
      </trkpt>
      <trkpt lat="51.74256375990808010101318359375" lon="39.37022524885833263397216796875">
        <ele>112.40000152587890625</ele>
        <time>2017-01-15T05:56:35.000Z</time>
        <extensions>
          <ns3:TrackPointExtension/>
        </extensions>
      </trkpt>
      <trkpt lat="51.7425785958766937255859375" lon="39.3702674098312854766845703125">
        <ele>112.40000152587890625</ele>
        <time>2017-01-15T05:56:36.000Z</time>
        <extensions>
          <ns3:TrackPointExtension/>
        </extensions>
      </trkpt>
      <trkpt lat="51.7425925098359584808349609375" lon="39.37031577341258525848388671875">
        <ele>112.40000152587890625</ele>
        <time>2017-01-15T05:56:37.000Z</time>
        <extensions>
          <ns3:TrackPointExtension/>
        </extensions>
      </trkpt>
      <trkpt lat="51.74260499887168407440185546875" lon="39.370369501411914825439453125">
        <ele>112.59999847412109375</ele>
        <time>2017-01-15T05:56:38.000Z</time>
        <extensions>
          <ns3:TrackPointExtension/>
        </extensions>
      </trkpt>
      <trkpt lat="51.74261857755482196807861328125" lon="39.37042239122092723846435546875">
        <ele>112.59999847412109375</ele>
        <time>2017-01-15T05:56:39.000Z</time>
        <extensions>
          <ns3:TrackPointExtension/>
        </extensions>
      </trkpt>
      <trkpt lat="51.74290574155747890472412109375" lon="39.3713557161390781402587890625">
        <ele>112.8000030517578125</ele>
        <time>2017-01-15T05:56:54.000Z</time>
        <extensions>
          <ns3:TrackPointExtension/>
        </extensions>
      </trkpt>
      <trkpt lat="51.742963492870330810546875" lon="39.3715531937777996063232421875">
        <ele>113.1999969482421875</ele>
        <time>2017-01-15T05:56:57.000Z</time>
        <extensions>
          <ns3:TrackPointExtension/>
        </extensions>
      </trkpt>
      <trkpt lat="51.74298436380922794342041015625" lon="39.371622093021869659423828125">
        <ele>113.40000152587890625</ele>
        <time>2017-01-15T05:56:58.000Z</time>
        <extensions>
          <ns3:TrackPointExtension/>
        </extensions>
      </trkpt>
      <trkpt lat="51.7430052347481250762939453125" lon="39.3716896511614322662353515625">
        <ele>113.59999847412109375</ele>
        <time>2017-01-15T05:56:59.000Z</time>
        <extensions>
          <ns3:TrackPointExtension/>
        </extensions>
      </trkpt>
      <trkpt lat="51.74302627332508563995361328125" lon="39.37175695784389972686767578125">
        <ele>113.59999847412109375</ele>
        <time>2017-01-15T05:57:00.000Z</time>
        <extensions>
          <ns3:TrackPointExtension/>
        </extensions>
      </trkpt>
      <trkpt lat="51.74304974265396595001220703125" lon="39.3718227557837963104248046875">
        <ele>113.8000030517578125</ele>
        <time>2017-01-15T05:57:01.000Z</time>
        <extensions>
          <ns3:TrackPointExtension/>
        </extensions>
      </trkpt>
      <trkpt lat="51.743441261351108551025390625" lon="39.37298926524817943572998046875">
        <ele>114.8000030517578125</ele>
        <time>2017-01-15T05:57:18.000Z</time>
        <extensions>
          <ns3:TrackPointExtension/>
        </extensions>
      </trkpt>
      <trkpt lat="51.74374795518815517425537109375" lon="39.373956955969333648681640625">
        <ele>114.8000030517578125</ele>
        <time>2017-01-15T05:57:32.000Z</time>
        <extensions>
          <ns3:TrackPointExtension/>
        </extensions>
      </trkpt>
      <trkpt lat="51.7441659606993198394775390625" lon="39.375178031623363494873046875">
        <ele>114.1999969482421875</ele>
        <time>2017-01-15T05:57:50.000Z</time>
        <extensions>
          <ns3:TrackPointExtension/>
        </extensions>
      </trkpt>
      <trkpt lat="51.74447919242084026336669921875" lon="39.37612778507173061370849609375">
        <ele>115.59999847412109375</ele>
        <time>2017-01-15T05:58:04.000Z</time>
        <extensions>
          <ns3:TrackPointExtension/>
        </extensions>
      </trkpt>
      <trkpt lat="51.74499065615236759185791015625" lon="39.3776138126850128173828125">
        <ele>116.59999847412109375</ele>
        <time>2017-01-15T05:58:25.000Z</time>
        <extensions>
          <ns3:TrackPointExtension/>
        </extensions>
      </trkpt>
      <trkpt lat="51.7453977651894092559814453125" lon="39.37886363826692104339599609375">
        <ele>118.1999969482421875</ele>
        <time>2017-01-15T05:58:43.000Z</time>
        <extensions>
          <ns3:TrackPointExtension/>
        </extensions>
      </trkpt>
      <trkpt lat="51.7458510585129261016845703125" lon="39.38024103641510009765625">
        <ele>119.59999847412109375</ele>
        <time>2017-01-15T05:59:02.000Z</time>
        <extensions>
          <ns3:TrackPointExtension/>
        </extensions>
      </trkpt>
      <trkpt lat="51.74608223140239715576171875" lon="39.38093430362641811370849609375">
        <ele>118.59999847412109375</ele>
        <time>2017-01-15T05:59:12.000Z</time>
        <extensions>
          <ns3:TrackPointExtension/>
        </extensions>
      </trkpt>
      <trkpt lat="51.74612070433795452117919921875" lon="39.3810658156871795654296875">
        <ele>118.59999847412109375</ele>
        <time>2017-01-15T05:59:14.000Z</time>
        <extensions>
          <ns3:TrackPointExtension/>
        </extensions>
      </trkpt>
      <trkpt lat="51.74650928936898708343505859375" lon="39.38219611532986164093017578125">
        <ele>116.40000152587890625</ele>
        <time>2017-01-15T05:59:30.000Z</time>
        <extensions>
          <ns3:TrackPointExtension/>
        </extensions>
      </trkpt>
      <trkpt lat="51.74684406258165836334228515625" lon="39.38333001919090747833251953125">
        <ele>118.1999969482421875</ele>
        <time>2017-01-15T05:59:45.000Z</time>
        <extensions>
          <ns3:TrackPointExtension/>
        </extensions>
      </trkpt>
      <trkpt lat="51.74689200706779956817626953125" lon="39.38348181545734405517578125">
        <ele>118.59999847412109375</ele>
        <time>2017-01-15T05:59:47.000Z</time>
        <extensions>
          <ns3:TrackPointExtension/>
        </extensions>
      </trkpt>
      <trkpt lat="51.74721278250217437744140625" lon="39.38473784364759922027587890625">
        <ele>119</ele>
        <time>2017-01-15T06:00:03.000Z</time>
        <extensions>
          <ns3:TrackPointExtension/>
        </extensions>
      </trkpt>
      <trkpt lat="51.74757697619497776031494140625" lon="39.3861340172588825225830078125">
        <ele>119.40000152587890625</ele>
        <time>2017-01-15T06:00:21.000Z</time>
        <extensions>
          <ns3:TrackPointExtension/>
        </extensions>
      </trkpt>
      <trkpt lat="51.74789196811616420745849609375" lon="39.38734528608620166778564453125">
        <ele>119.8000030517578125</ele>
        <time>2017-01-15T06:00:37.000Z</time>
        <extensions>
          <ns3:TrackPointExtension/>
        </extensions>
      </trkpt>
      <trkpt lat="51.74818198196589946746826171875" lon="39.3884216062724590301513671875">
        <ele>120.8000030517578125</ele>
        <time>2017-01-15T06:00:52.000Z</time>
        <extensions>
          <ns3:TrackPointExtension/>
        </extensions>
      </trkpt>
      <trkpt lat="51.74851910211145877838134765625" lon="39.3896316178143024444580078125">
        <ele>120.59999847412109375</ele>
        <time>2017-01-15T06:01:08.000Z</time>
        <extensions>
          <ns3:TrackPointExtension/>
        </extensions>
      </trkpt>
      <trkpt lat="51.74882152117788791656494140625" lon="39.39076091162860393524169921875">
        <ele>120.1999969482421875</ele>
        <time>2017-01-15T06:01:23.000Z</time>
        <extensions>
          <ns3:TrackPointExtension/>
        </extensions>
      </trkpt>
      <trkpt lat="51.748982705175876617431640625" lon="39.39137027598917484283447265625">
        <ele>120.40000152587890625</ele>
        <time>2017-01-15T06:01:31.000Z</time>
        <extensions>
          <ns3:TrackPointExtension/>
        </extensions>
      </trkpt>
      <trkpt lat="51.74917624332010746002197265625" lon="39.39208257012069225311279296875">
        <ele>120.8000030517578125</ele>
        <time>2017-01-15T06:01:42.000Z</time>
        <extensions>
          <ns3:TrackPointExtension/>
        </extensions>
      </trkpt>
      <trkpt lat="51.74919761717319488525390625" lon="39.3921554088592529296875">
        <ele>120.8000030517578125</ele>
        <time>2017-01-15T06:01:43.000Z</time>
        <extensions>
          <ns3:TrackPointExtension/>
        </extensions>
      </trkpt>
      <trkpt lat="51.749218404293060302734375" lon="39.3922273255884647369384765625">
        <ele>120.8000030517578125</ele>
        <time>2017-01-15T06:01:44.000Z</time>
        <extensions>
          <ns3:TrackPointExtension/>
        </extensions>
      </trkpt>
      <trkpt lat="51.7494435422122478485107421875" lon="39.39316886477172374725341796875">
        <ele>119.59999847412109375</ele>
        <time>2017-01-15T06:01:56.000Z</time>
        <extensions>
          <ns3:TrackPointExtension/>
        </extensions>
      </trkpt>
      <trkpt lat="51.7494468949735164642333984375" lon="39.3932515941560268402099609375">
        <ele>119.40000152587890625</ele>
        <time>2017-01-15T06:01:57.000Z</time>
        <extensions>
          <ns3:TrackPointExtension/>
        </extensions>
      </trkpt>
      <trkpt lat="51.74944915808737277984619140625" lon="39.3934214115142822265625">
        <ele>119</ele>
        <time>2017-01-15T06:01:59.000Z</time>
        <extensions>
          <ns3:TrackPointExtension/>
        </extensions>
      </trkpt>
      <trkpt lat="51.74944228492677211761474609375" lon="39.39350766129791736602783203125">
        <ele>118.8000030517578125</ele>
        <time>2017-01-15T06:02:00.000Z</time>
        <extensions>
          <ns3:TrackPointExtension/>
        </extensions>
      </trkpt>
      <trkpt lat="51.74942937679588794708251953125" lon="39.3935930728912353515625">
        <ele>118.59999847412109375</ele>
        <time>2017-01-15T06:02:01.000Z</time>
        <extensions>
          <ns3:TrackPointExtension/>
        </extensions>
      </trkpt>
      <trkpt lat="51.74933910369873046875" lon="39.3941742740571498870849609375">
        <ele>119.59999847412109375</ele>
        <time>2017-01-15T06:02:08.000Z</time>
        <extensions>
          <ns3:TrackPointExtension/>
        </extensions>
      </trkpt>
      <trkpt lat="51.74933851696550846099853515625" lon="39.39426287077367305755615234375">
        <ele>119.8000030517578125</ele>
        <time>2017-01-15T06:02:09.000Z</time>
        <extensions>
          <ns3:TrackPointExtension/>
        </extensions>
      </trkpt>
      <trkpt lat="51.74934404902160167694091796875" lon="39.3943529762327671051025390625">
        <ele>120</ele>
        <time>2017-01-15T06:02:10.000Z</time>
        <extensions>
          <ns3:TrackPointExtension/>
        </extensions>
      </trkpt>
      <trkpt lat="51.749356873333454132080078125" lon="39.39444039948284626007080078125">
        <ele>120.1999969482421875</ele>
        <time>2017-01-15T06:02:11.000Z</time>
        <extensions>
          <ns3:TrackPointExtension/>
        </extensions>
      </trkpt>
      <trkpt lat="51.74937522970139980316162109375" lon="39.39452321268618106842041015625">
        <ele>120.40000152587890625</ele>
        <time>2017-01-15T06:02:12.000Z</time>
        <extensions>
          <ns3:TrackPointExtension/>
        </extensions>
      </trkpt>
      <trkpt lat="51.749395430088043212890625" lon="39.39460753463208675384521484375">
        <ele>120.8000030517578125</ele>
        <time>2017-01-15T06:02:13.000Z</time>
        <extensions>
          <ns3:TrackPointExtension/>
        </extensions>
      </trkpt>
      <trkpt lat="51.7494173906743526458740234375" lon="39.39468850381672382354736328125">
        <ele>121</ele>
        <time>2017-01-15T06:02:14.000Z</time>
        <extensions>
          <ns3:TrackPointExtension/>
        </extensions>
      </trkpt>
      <trkpt lat="51.74995265901088714599609375" lon="39.39595115371048450469970703125">
        <ele>123</ele>
        <time>2017-01-15T06:02:32.000Z</time>
        <extensions>
          <ns3:TrackPointExtension/>
        </extensions>
      </trkpt>
      <trkpt lat="51.75043922848999500274658203125" lon="39.397074244916439056396484375">
        <ele>123.59999847412109375</ele>
        <time>2017-01-15T06:02:48.000Z</time>
        <extensions>
          <ns3:TrackPointExtension/>
        </extensions>
      </trkpt>
      <trkpt lat="51.75084491260349750518798828125" lon="39.39804512076079845428466796875">
        <ele>123</ele>
        <time>2017-01-15T06:03:01.000Z</time>
        <extensions>
          <ns3:TrackPointExtension/>
        </extensions>
      </trkpt>
      <trkpt lat="51.751381270587444305419921875" lon="39.39950407482683658599853515625">
        <ele>120.59999847412109375</ele>
        <time>2017-01-15T06:03:20.000Z</time>
        <extensions>
          <ns3:TrackPointExtension/>
        </extensions>
      </trkpt>
      <trkpt lat="51.751876808702945709228515625" lon="39.400746524333953857421875">
        <ele>120</ele>
        <time>2017-01-15T06:03:37.000Z</time>
        <extensions>
          <ns3:TrackPointExtension/>
        </extensions>
      </trkpt>
      <trkpt lat="51.75190589390695095062255859375" lon="39.40081986598670482635498046875">
        <ele>119.8000030517578125</ele>
        <time>2017-01-15T06:03:38.000Z</time>
        <extensions>
          <ns3:TrackPointExtension/>
        </extensions>
      </trkpt>
      <trkpt lat="51.7519286088645458221435546875" lon="39.40089396201074123382568359375">
        <ele>119.8000030517578125</ele>
        <time>2017-01-15T06:03:39.000Z</time>
        <extensions>
          <ns3:TrackPointExtension/>
        </extensions>
      </trkpt>
      <trkpt lat="51.7524700798094272613525390625" lon="39.40219223499298095703125">
        <ele>118.1999969482421875</ele>
        <time>2017-01-15T06:03:57.000Z</time>
        <extensions>
          <ns3:TrackPointExtension/>
        </extensions>
      </trkpt>
      <trkpt lat="51.752798818051815032958984375" lon="39.40297250635921955108642578125">
        <ele>118.59999847412109375</ele>
        <time>2017-01-15T06:04:08.000Z</time>
        <extensions>
          <ns3:TrackPointExtension/>
        </extensions>
      </trkpt>
      <trkpt lat="51.752833686769008636474609375" lon="39.403043501079082489013671875">
        <ele>118.40000152587890625</ele>
        <time>2017-01-15T06:04:09.000Z</time>
        <extensions>
          <ns3:TrackPointExtension/>
        </extensions>
      </trkpt>
      <trkpt lat="51.752955056726932525634765625" lon="39.40332907252013683319091796875">
        <ele>117.40000152587890625</ele>
        <time>2017-01-15T06:04:13.000Z</time>
        <extensions>
          <ns3:TrackPointExtension/>
        </extensions>
      </trkpt>
      <trkpt lat="51.75298313610255718231201171875" lon="39.40340300090610980987548828125">
        <ele>117.1999969482421875</ele>
        <time>2017-01-15T06:04:14.000Z</time>
        <extensions>
          <ns3:TrackPointExtension/>
        </extensions>
      </trkpt>
      <trkpt lat="51.7530048452317714691162109375" lon="39.403477013111114501953125">
        <ele>117</ele>
        <time>2017-01-15T06:04:15.000Z</time>
        <extensions>
          <ns3:TrackPointExtension/>
        </extensions>
      </trkpt>
      <trkpt lat="51.75309562124311923980712890625" lon="39.4036894105374813079833984375">
        <ele>117</ele>
        <time>2017-01-15T06:04:18.000Z</time>
        <extensions>
          <ns3:TrackPointExtension/>
        </extensions>
      </trkpt>
      <trkpt lat="51.753127388656139373779296875" lon="39.40376057289540767669677734375">
        <ele>117</ele>
        <time>2017-01-15T06:04:19.000Z</time>
        <extensions>
          <ns3:TrackPointExtension/>
        </extensions>
      </trkpt>
      <trkpt lat="51.753246076405048370361328125" lon="39.4040474854409694671630859375">
        <ele>117.59999847412109375</ele>
        <time>2017-01-15T06:04:23.000Z</time>
        <extensions>
          <ns3:TrackPointExtension/>
        </extensions>
      </trkpt>
      <trkpt lat="51.75328220240771770477294921875" lon="39.40411495976150035858154296875">
        <ele>118</ele>
        <time>2017-01-15T06:04:24.000Z</time>
        <extensions>
          <ns3:TrackPointExtension/>
        </extensions>
      </trkpt>
      <trkpt lat="51.753683947026729583740234375" lon="39.40519739873707294464111328125">
        <ele>120.1999969482421875</ele>
        <time>2017-01-15T06:04:39.000Z</time>
        <extensions>
          <ns3:TrackPointExtension/>
        </extensions>
      </trkpt>
      <trkpt lat="51.7537069134414196014404296875" lon="39.4052695669233798980712890625">
        <ele>120.40000152587890625</ele>
        <time>2017-01-15T06:04:40.000Z</time>
        <extensions>
          <ns3:TrackPointExtension/>
        </extensions>
      </trkpt>
      <trkpt lat="51.753934733569622039794921875" lon="39.40584247000515460968017578125">
        <ele>119.59999847412109375</ele>
        <time>2017-01-15T06:04:48.000Z</time>
        <extensions>
          <ns3:TrackPointExtension/>
        </extensions>
      </trkpt>
      <trkpt lat="51.753968931734561920166015625" lon="39.40591539256274700164794921875">
        <ele>119.40000152587890625</ele>
        <time>2017-01-15T06:04:49.000Z</time>
        <extensions>
          <ns3:TrackPointExtension/>
        </extensions>
      </trkpt>
      <trkpt lat="51.7541243322193622589111328125" lon="39.40634974278509616851806640625">
        <ele>119.40000152587890625</ele>
        <time>2017-01-15T06:04:55.000Z</time>
        <extensions>
          <ns3:TrackPointExtension/>
        </extensions>
      </trkpt>
      <trkpt lat="51.754145957529544830322265625" lon="39.4064235873520374298095703125">
        <ele>119.40000152587890625</ele>
        <time>2017-01-15T06:04:56.000Z</time>
        <extensions>
          <ns3:TrackPointExtension/>
        </extensions>
      </trkpt>
      <trkpt lat="51.754471845924854278564453125" lon="39.40750745125114917755126953125">
        <ele>120.1999969482421875</ele>
        <time>2017-01-15T06:05:10.000Z</time>
        <extensions>
          <ns3:TrackPointExtension/>
        </extensions>
      </trkpt>
      <trkpt lat="51.75469874404370784759521484375" lon="39.40914510749280452728271484375">
        <ele>119.59999847412109375</ele>
        <time>2017-01-15T06:05:30.000Z</time>
        <extensions>
          <ns3:TrackPointExtension/>
        </extensions>
      </trkpt>
      <trkpt lat="51.75471249036490917205810546875" lon="39.4092248193919658660888671875">
        <ele>119.59999847412109375</ele>
        <time>2017-01-15T06:05:31.000Z</time>
        <extensions>
          <ns3:TrackPointExtension/>
        </extensions>
      </trkpt>
      <trkpt lat="51.75479672849178314208984375" lon="39.40962530672550201416015625">
        <ele>119.59999847412109375</ele>
        <time>2017-01-15T06:05:36.000Z</time>
        <extensions>
          <ns3:TrackPointExtension/>
        </extensions>
      </trkpt>
      <trkpt lat="51.75510392524302005767822265625" lon="39.41093967296183109283447265625">
        <ele>121.1999969482421875</ele>
        <time>2017-01-15T06:05:53.000Z</time>
        <extensions>
          <ns3:TrackPointExtension/>
        </extensions>
      </trkpt>
      <trkpt lat="51.7554872296750545501708984375" lon="39.4126409478485584259033203125">
        <ele>120.40000152587890625</ele>
        <time>2017-01-15T06:06:14.000Z</time>
        <extensions>
          <ns3:TrackPointExtension/>
        </extensions>
      </trkpt>
      <trkpt lat="51.7555992119014263153076171875" lon="39.41311494447290897369384765625">
        <ele>119.59999847412109375</ele>
        <time>2017-01-15T06:06:20.000Z</time>
        <extensions>
          <ns3:TrackPointExtension/>
        </extensions>
      </trkpt>
      <trkpt lat="51.7556194961071014404296875" lon="39.41319356672465801239013671875">
        <ele>119.59999847412109375</ele>
        <time>2017-01-15T06:06:21.000Z</time>
        <extensions>
          <ns3:TrackPointExtension/>
        </extensions>
      </trkpt>
      <trkpt lat="51.755704320967197418212890625" lon="39.41359707154333591461181640625">
        <ele>119</ele>
        <time>2017-01-15T06:06:26.000Z</time>
        <extensions>
          <ns3:TrackPointExtension/>
        </extensions>
      </trkpt>
      <trkpt lat="51.75571764819324016571044921875" lon="39.41367669962346553802490234375">
        <ele>119</ele>
        <time>2017-01-15T06:06:27.000Z</time>
        <extensions>
          <ns3:TrackPointExtension/>
        </extensions>
      </trkpt>
      <trkpt lat="51.7557802610099315643310546875" lon="39.4139180146157741546630859375">
        <ele>119.40000152587890625</ele>
        <time>2017-01-15T06:06:30.000Z</time>
        <extensions>
          <ns3:TrackPointExtension/>
        </extensions>
      </trkpt>
      <trkpt lat="51.75580431707203388214111328125" lon="39.41399990580976009368896484375">
        <ele>119.59999847412109375</ele>
        <time>2017-01-15T06:06:31.000Z</time>
        <extensions>
          <ns3:TrackPointExtension/>
        </extensions>
      </trkpt>
      <trkpt lat="51.75587229430675506591796875" lon="39.4143243692815303802490234375">
        <ele>120</ele>
        <time>2017-01-15T06:06:35.000Z</time>
        <extensions>
          <ns3:TrackPointExtension/>
        </extensions>
      </trkpt>
      <trkpt lat="51.7558905668556690216064453125" lon="39.41440458409488201141357421875">
        <ele>120.1999969482421875</ele>
        <time>2017-01-15T06:06:36.000Z</time>
        <extensions>
          <ns3:TrackPointExtension/>
        </extensions>
      </trkpt>
      <trkpt lat="51.7559743858873844146728515625" lon="39.41480356268584728240966796875">
        <ele>120</ele>
        <time>2017-01-15T06:06:41.000Z</time>
        <extensions>
          <ns3:TrackPointExtension/>
        </extensions>
      </trkpt>
      <trkpt lat="51.7561242543160915374755859375" lon="39.41568802110850811004638671875">
        <ele>120.59999847412109375</ele>
        <time>2017-01-15T06:06:52.000Z</time>
        <extensions>
          <ns3:TrackPointExtension/>
        </extensions>
      </trkpt>
      <trkpt lat="51.75613204948604106903076171875" lon="39.41577536053955554962158203125">
        <ele>120.40000152587890625</ele>
        <time>2017-01-15T06:06:53.000Z</time>
        <extensions>
          <ns3:TrackPointExtension/>
        </extensions>
      </trkpt>
      <trkpt lat="51.75624436698853969573974609375" lon="39.41693575121462345123291015625">
        <ele>119.40000152587890625</ele>
        <time>2017-01-15T06:07:07.000Z</time>
        <extensions>
          <ns3:TrackPointExtension/>
        </extensions>
      </trkpt>
      <trkpt lat="51.75627253018319606781005859375" lon="39.41737580113112926483154296875">
        <ele>118.8000030517578125</ele>
        <time>2017-01-15T06:07:12.000Z</time>
        <extensions>
          <ns3:TrackPointExtension/>
        </extensions>
      </trkpt>
      <trkpt lat="51.756276302039623260498046875" lon="39.4174642302095890045166015625">
        <ele>118.8000030517578125</ele>
        <time>2017-01-15T06:07:13.000Z</time>
        <extensions>
          <ns3:TrackPointExtension/>
        </extensions>
      </trkpt>
      <trkpt lat="51.75630547106266021728515625" lon="39.41917204298079013824462890625">
        <ele>117.40000152587890625</ele>
        <time>2017-01-15T06:07:33.000Z</time>
        <extensions>
          <ns3:TrackPointExtension/>
        </extensions>
      </trkpt>
      <trkpt lat="51.75634008832275867462158203125" lon="39.4204659573733806610107421875">
        <ele>117.40000152587890625</ele>
        <time>2017-01-15T06:07:48.000Z</time>
        <extensions>
          <ns3:TrackPointExtension/>
        </extensions>
      </trkpt>
      <trkpt lat="51.75634193234145641326904296875" lon="39.42055237479507923126220703125">
        <ele>117.1999969482421875</ele>
        <time>2017-01-15T06:07:49.000Z</time>
        <extensions>
          <ns3:TrackPointExtension/>
        </extensions>
      </trkpt>
      <trkpt lat="51.75638258457183837890625" lon="39.4211291335523128509521484375">
        <ele>116.8000030517578125</ele>
        <time>2017-01-15T06:07:56.000Z</time>
        <extensions>
          <ns3:TrackPointExtension/>
        </extensions>
      </trkpt>
      <trkpt lat="51.75655466504395008087158203125" lon="39.42207369022071361541748046875">
        <ele>116</ele>
        <time>2017-01-15T06:08:08.000Z</time>
        <extensions>
          <ns3:TrackPointExtension/>
        </extensions>
      </trkpt>
      <trkpt lat="51.7565651424229145050048828125" lon="39.4221510551869869232177734375">
        <ele>116.1999969482421875</ele>
        <time>2017-01-15T06:08:09.000Z</time>
        <extensions>
          <ns3:TrackPointExtension/>
        </extensions>
      </trkpt>
      <trkpt lat="51.75661233253777027130126953125" lon="39.42282839678227901458740234375">
        <ele>116.59999847412109375</ele>
        <time>2017-01-15T06:08:18.000Z</time>
        <extensions>
          <ns3:TrackPointExtension/>
        </extensions>
      </trkpt>
      <trkpt lat="51.756614930927753448486328125" lon="39.42308169789612293243408203125">
        <ele>117</ele>
        <time>2017-01-15T06:08:21.000Z</time>
        <extensions>
          <ns3:TrackPointExtension/>
        </extensions>
      </trkpt>
      <trkpt lat="51.75663731060922145843505859375" lon="39.424114935100078582763671875">
        <ele>117.40000152587890625</ele>
        <time>2017-01-15T06:08:33.000Z</time>
        <extensions>
          <ns3:TrackPointExtension/>
        </extensions>
      </trkpt>
      <trkpt lat="51.75665172748267650604248046875" lon="39.42444560118019580841064453125">
        <ele>117</ele>
        <time>2017-01-15T06:08:37.000Z</time>
        <extensions>
          <ns3:TrackPointExtension/>
        </extensions>
      </trkpt>
      <trkpt lat="51.75665155984461307525634765625" lon="39.42452824674546718597412109375">
        <ele>117</ele>
        <time>2017-01-15T06:08:38.000Z</time>
        <extensions>
          <ns3:TrackPointExtension/>
        </extensions>
      </trkpt>
      <trkpt lat="51.7566486261785030364990234375" lon="39.42461374215781688690185546875">
        <ele>116.8000030517578125</ele>
        <time>2017-01-15T06:08:39.000Z</time>
        <extensions>
          <ns3:TrackPointExtension/>
        </extensions>
      </trkpt>
      <trkpt lat="51.756626330316066741943359375" lon="39.42502814345061779022216796875">
        <ele>116.1999969482421875</ele>
        <time>2017-01-15T06:08:44.000Z</time>
        <extensions>
          <ns3:TrackPointExtension/>
        </extensions>
      </trkpt>
      <trkpt lat="51.75661786459386348724365234375" lon="39.4251132197678089141845703125">
        <ele>116</ele>
        <time>2017-01-15T06:08:45.000Z</time>
        <extensions>
          <ns3:TrackPointExtension/>
        </extensions>
      </trkpt>
      <trkpt lat="51.756511665880680084228515625" lon="39.426179230213165283203125">
        <ele>115</ele>
        <time>2017-01-15T06:08:58.000Z</time>
        <extensions>
          <ns3:TrackPointExtension/>
        </extensions>
      </trkpt>
      <trkpt lat="51.75647352822124958038330078125" lon="39.42657443694770336151123046875">
        <ele>115</ele>
        <time>2017-01-15T06:09:03.000Z</time>
        <extensions>
          <ns3:TrackPointExtension/>
        </extensions>
      </trkpt>
      <trkpt lat="51.75643631257116794586181640625" lon="39.4269713200628757476806640625">
        <ele>114.8000030517578125</ele>
        <time>2017-01-15T06:09:08.000Z</time>
        <extensions>
          <ns3:TrackPointExtension/>
        </extensions>
      </trkpt>
      <trkpt lat="51.7563515715301036834716796875" lon="39.4279188103973865509033203125">
        <ele>114.8000030517578125</ele>
        <time>2017-01-15T06:09:20.000Z</time>
        <extensions>
          <ns3:TrackPointExtension/>
        </extensions>
      </trkpt>
      <trkpt lat="51.75632248632609844207763671875" lon="39.42823455668985843658447265625">
        <ele>114.8000030517578125</ele>
        <time>2017-01-15T06:09:24.000Z</time>
        <extensions>
          <ns3:TrackPointExtension/>
        </extensions>
      </trkpt>
      <trkpt lat="51.756314523518085479736328125" lon="39.42831695079803466796875">
        <ele>114.8000030517578125</ele>
        <time>2017-01-15T06:09:25.000Z</time>
        <extensions>
          <ns3:TrackPointExtension/>
        </extensions>
      </trkpt>
      <trkpt lat="51.7562570236623287200927734375" lon="39.42902094684541225433349609375">
        <ele>115</ele>
        <time>2017-01-15T06:09:34.000Z</time>
        <extensions>
          <ns3:TrackPointExtension/>
        </extensions>
      </trkpt>
      <trkpt lat="51.75622073002159595489501953125" lon="39.42941389046609401702880859375">
        <ele>115</ele>
        <time>2017-01-15T06:09:39.000Z</time>
        <extensions>
          <ns3:TrackPointExtension/>
        </extensions>
      </trkpt>
      <trkpt lat="51.756149232387542724609375" lon="39.43022693507373332977294921875">
        <ele>115</ele>
        <time>2017-01-15T06:09:50.000Z</time>
        <extensions>
          <ns3:TrackPointExtension/>
        </extensions>
      </trkpt>
      <trkpt lat="51.755907498300075531005859375" lon="39.43130199797451496124267578125">
        <ele>116.59999847412109375</ele>
        <time>2017-01-15T06:10:06.000Z</time>
        <extensions>
          <ns3:TrackPointExtension/>
        </extensions>
      </trkpt>
      <trkpt lat="51.75553224049508571624755859375" lon="39.4324118457734584808349609375">
        <ele>117.59999847412109375</ele>
        <time>2017-01-15T06:10:23.000Z</time>
        <extensions>
          <ns3:TrackPointExtension/>
        </extensions>
      </trkpt>
      <trkpt lat="51.755239963531494140625" lon="39.4332051090896129608154296875">
        <ele>117.8000030517578125</ele>
        <time>2017-01-15T06:10:35.000Z</time>
        <extensions>
          <ns3:TrackPointExtension/>
        </extensions>
      </trkpt>
      <trkpt lat="51.754679717123508453369140625" lon="39.43471762351691722869873046875">
        <ele>118.1999969482421875</ele>
        <time>2017-01-15T06:10:58.000Z</time>
        <extensions>
          <ns3:TrackPointExtension/>
        </extensions>
      </trkpt>
      <trkpt lat="51.754172109067440032958984375" lon="39.43589511327445507049560546875">
        <ele>119</ele>
        <time>2017-01-15T06:11:16.000Z</time>
        <extensions>
          <ns3:TrackPointExtension/>
        </extensions>
      </trkpt>
      <trkpt lat="51.7536458931863307952880859375" lon="39.436905048787593841552734375">
        <ele>119.40000152587890625</ele>
        <time>2017-01-15T06:11:33.000Z</time>
        <extensions>
          <ns3:TrackPointExtension/>
        </extensions>
      </trkpt>
      <trkpt lat="51.75292865373194217681884765625" lon="39.4381604902446269989013671875">
        <ele>120</ele>
        <time>2017-01-15T06:11:56.000Z</time>
        <extensions>
          <ns3:TrackPointExtension/>
        </extensions>
      </trkpt>
      <trkpt lat="51.752307303249835968017578125" lon="39.43952783010900020599365234375">
        <ele>121</ele>
        <time>2017-01-15T06:12:19.000Z</time>
        <extensions>
          <ns3:TrackPointExtension/>
        </extensions>
      </trkpt>
      <trkpt lat="51.75185744650661945343017578125" lon="39.4412175379693508148193359375">
        <ele>121.40000152587890625</ele>
        <time>2017-01-15T06:12:43.000Z</time>
        <extensions>
          <ns3:TrackPointExtension/>
        </extensions>
      </trkpt>
      <trkpt lat="51.7515574581921100616455078125" lon="39.44265671074390411376953125">
        <ele>122.8000030517578125</ele>
        <time>2017-01-15T06:13:02.000Z</time>
        <extensions>
          <ns3:TrackPointExtension/>
        </extensions>
      </trkpt>
      <trkpt lat="51.751203238964080810546875" lon="39.44442956708371639251708984375">
        <ele>125.1999969482421875</ele>
        <time>2017-01-15T06:13:24.000Z</time>
        <extensions>
          <ns3:TrackPointExtension/>
        </extensions>
      </trkpt>
      <trkpt lat="51.75090626813471317291259765625" lon="39.4464377872645854949951171875">
        <ele>126.8000030517578125</ele>
        <time>2017-01-15T06:13:48.000Z</time>
        <extensions>
          <ns3:TrackPointExtension/>
        </extensions>
      </trkpt>
      <trkpt lat="51.75072404555976390838623046875" lon="39.4478358887135982513427734375">
        <ele>127.1999969482421875</ele>
        <time>2017-01-15T06:14:05.000Z</time>
        <extensions>
          <ns3:TrackPointExtension/>
        </extensions>
      </trkpt>
      <trkpt lat="51.75062455236911773681640625" lon="39.44852312095463275909423828125">
        <ele>128</ele>
        <time>2017-01-15T06:14:14.000Z</time>
        <extensions>
          <ns3:TrackPointExtension/>
        </extensions>
      </trkpt>
      <trkpt lat="51.75060619600117206573486328125" lon="39.448586069047451019287109375">
        <ele>128</ele>
        <time>2017-01-15T06:14:15.000Z</time>
        <extensions>
          <ns3:TrackPointExtension/>
        </extensions>
      </trkpt>
      <trkpt lat="51.75058297812938690185546875" lon="39.44864206016063690185546875">
        <ele>127.8000030517578125</ele>
        <time>2017-01-15T06:14:16.000Z</time>
        <extensions>
          <ns3:TrackPointExtension/>
        </extensions>
      </trkpt>
      <trkpt lat="51.75055070780217647552490234375" lon="39.44868765771389007568359375">
        <ele>127.40000152587890625</ele>
        <time>2017-01-15T06:14:17.000Z</time>
        <extensions>
          <ns3:TrackPointExtension/>
        </extensions>
      </trkpt>
      <trkpt lat="51.7505097202956676483154296875" lon="39.44871238432824611663818359375">
        <ele>127</ele>
        <time>2017-01-15T06:14:18.000Z</time>
        <extensions>
          <ns3:TrackPointExtension/>
        </extensions>
      </trkpt>
      <trkpt lat="51.75046361982822418212890625" lon="39.44871925748884677886962890625">
        <ele>126.59999847412109375</ele>
        <time>2017-01-15T06:14:19.000Z</time>
        <extensions>
          <ns3:TrackPointExtension/>
        </extensions>
      </trkpt>
      <trkpt lat="51.75041525624692440032958984375" lon="39.4487136416137218475341796875">
        <ele>126.1999969482421875</ele>
        <time>2017-01-15T06:14:20.000Z</time>
        <extensions>
          <ns3:TrackPointExtension/>
        </extensions>
      </trkpt>
      <trkpt lat="51.75036781467497348785400390625" lon="39.44869327358901500701904296875">
        <ele>125.59999847412109375</ele>
        <time>2017-01-15T06:14:21.000Z</time>
        <extensions>
          <ns3:TrackPointExtension/>
        </extensions>
      </trkpt>
      <trkpt lat="51.7503209598362445831298828125" lon="39.448668546974658966064453125">
        <ele>125.1999969482421875</ele>
        <time>2017-01-15T06:14:22.000Z</time>
        <extensions>
          <ns3:TrackPointExtension/>
        </extensions>
      </trkpt>
      <trkpt lat="51.74948084168136119842529296875" lon="39.4483133219182491302490234375">
        <ele>124</ele>
        <time>2017-01-15T06:14:39.000Z</time>
        <extensions>
          <ns3:TrackPointExtension/>
        </extensions>
      </trkpt>
      <trkpt lat="51.7494314722716808319091796875" lon="39.448322542011737823486328125">
        <ele>124.59999847412109375</ele>
        <time>2017-01-15T06:14:40.000Z</time>
        <extensions>
          <ns3:TrackPointExtension/>
        </extensions>
      </trkpt>
      <trkpt lat="51.74938394688069820404052734375" lon="39.4483418203890323638916015625">
        <ele>125.1999969482421875</ele>
        <time>2017-01-15T06:14:41.000Z</time>
        <extensions>
          <ns3:TrackPointExtension/>
        </extensions>
      </trkpt>
      <trkpt lat="51.749338097870349884033203125" lon="39.4483719952404499053955078125">
        <ele>125.8000030517578125</ele>
        <time>2017-01-15T06:14:42.000Z</time>
        <extensions>
          <ns3:TrackPointExtension/>
        </extensions>
      </trkpt>
      <trkpt lat="51.74929543398320674896240234375" lon="39.448413737118244171142578125">
        <ele>126.40000152587890625</ele>
        <time>2017-01-15T06:14:43.000Z</time>
        <extensions>
          <ns3:TrackPointExtension/>
        </extensions>
      </trkpt>
      <trkpt lat="51.7492572963237762451171875" lon="39.44846503436565399169921875">
        <ele>127</ele>
        <time>2017-01-15T06:14:44.000Z</time>
        <extensions>
          <ns3:TrackPointExtension/>
        </extensions>
      </trkpt>
      <trkpt lat="51.74922452308237552642822265625" lon="39.44852630607783794403076171875">
        <ele>127.59999847412109375</ele>
        <time>2017-01-15T06:14:45.000Z</time>
        <extensions>
          <ns3:TrackPointExtension/>
        </extensions>
      </trkpt>
      <trkpt lat="51.74919753335416316986083984375" lon="39.44859302602708339691162109375">
        <ele>128</ele>
        <time>2017-01-15T06:14:46.000Z</time>
        <extensions>
          <ns3:TrackPointExtension/>
        </extensions>
      </trkpt>
      <trkpt lat="51.749174483120441436767578125" lon="39.448662512004375457763671875">
        <ele>128.600006103515625</ele>
        <time>2017-01-15T06:14:47.000Z</time>
        <extensions>
          <ns3:TrackPointExtension/>
        </extensions>
      </trkpt>
      <trkpt lat="51.749155037105083465576171875" lon="39.44873417727649211883544921875">
        <ele>129</ele>
        <time>2017-01-15T06:14:48.000Z</time>
        <extensions>
          <ns3:TrackPointExtension/>
        </extensions>
      </trkpt>
      <trkpt lat="51.7491381056606769561767578125" lon="39.44880927912890911102294921875">
        <ele>129.399993896484375</ele>
        <time>2017-01-15T06:14:49.000Z</time>
        <extensions>
          <ns3:TrackPointExtension/>
        </extensions>
      </trkpt>
      <trkpt lat="51.7488578148186206817626953125" lon="39.4502626173198223114013671875">
        <ele>134.1999969482421875</ele>
        <time>2017-01-15T06:15:08.000Z</time>
        <extensions>
          <ns3:TrackPointExtension/>
        </extensions>
      </trkpt>
      <trkpt lat="51.748619936406612396240234375" lon="39.451505653560161590576171875">
        <ele>135.399993896484375</ele>
        <time>2017-01-15T06:15:24.000Z</time>
        <extensions>
          <ns3:TrackPointExtension/>
        </extensions>
      </trkpt>
      <trkpt lat="51.748432181775569915771484375" lon="39.4525279104709625244140625">
        <ele>136.1999969482421875</ele>
        <time>2017-01-15T06:15:38.000Z</time>
        <extensions>
          <ns3:TrackPointExtension/>
        </extensions>
      </trkpt>
      <trkpt lat="51.7483431659638881683349609375" lon="39.45291993208229541778564453125">
        <ele>136.1999969482421875</ele>
        <time>2017-01-15T06:15:43.000Z</time>
        <extensions>
          <ns3:TrackPointExtension/>
        </extensions>
      </trkpt>
      <trkpt lat="51.74814878962934017181396484375" lon="39.4539409317076206207275390625">
        <ele>136</ele>
        <time>2017-01-15T06:15:56.000Z</time>
        <extensions>
          <ns3:TrackPointExtension/>
        </extensions>
      </trkpt>
      <trkpt lat="51.74800244159996509552001953125" lon="39.45473134517669677734375">
        <ele>136</ele>
        <time>2017-01-15T06:16:06.000Z</time>
        <extensions>
          <ns3:TrackPointExtension/>
        </extensions>
      </trkpt>
      <trkpt lat="51.747785098850727081298828125" lon="39.45586650632321834564208984375">
        <ele>135.399993896484375</ele>
        <time>2017-01-15T06:16:20.000Z</time>
        <extensions>
          <ns3:TrackPointExtension/>
        </extensions>
      </trkpt>
      <trkpt lat="51.747481338679790496826171875" lon="39.45752562023699283599853515625">
        <ele>135.1999969482421875</ele>
        <time>2017-01-15T06:16:40.000Z</time>
        <extensions>
          <ns3:TrackPointExtension/>
        </extensions>
      </trkpt>
      <trkpt lat="51.7471924982964992523193359375" lon="39.45905414409935474395751953125">
        <ele>136.1999969482421875</ele>
        <time>2017-01-15T06:16:59.000Z</time>
        <extensions>
          <ns3:TrackPointExtension/>
        </extensions>
      </trkpt>
      <trkpt lat="51.74687323160469532012939453125" lon="39.46067444980144500732421875">
        <ele>139.1999969482421875</ele>
        <time>2017-01-15T06:17:20.000Z</time>
        <extensions>
          <ns3:TrackPointExtension/>
        </extensions>
      </trkpt>
      <trkpt lat="51.74662403762340545654296875" lon="39.46195964701473712921142578125">
        <ele>134.600006103515625</ele>
        <time>2017-01-15T06:17:37.000Z</time>
        <extensions>
          <ns3:TrackPointExtension/>
        </extensions>
      </trkpt>
      <trkpt lat="51.7463846504688262939453125" lon="39.46321374736726284027099609375">
        <ele>135.1999969482421875</ele>
        <time>2017-01-15T06:17:53.000Z</time>
        <extensions>
          <ns3:TrackPointExtension/>
        </extensions>
      </trkpt>
      <trkpt lat="51.74634031020104885101318359375" lon="39.46343184448778629302978515625">
        <ele>135.399993896484375</ele>
        <time>2017-01-15T06:17:56.000Z</time>
        <extensions>
          <ns3:TrackPointExtension/>
        </extensions>
      </trkpt>
      <trkpt lat="51.74622304737567901611328125" lon="39.46400449611246585845947265625">
        <ele>136.399993896484375</ele>
        <time>2017-01-15T06:18:04.000Z</time>
        <extensions>
          <ns3:TrackPointExtension/>
        </extensions>
      </trkpt>
      <trkpt lat="51.7462054453790187835693359375" lon="39.46407557465136051177978515625">
        <ele>136.600006103515625</ele>
        <time>2017-01-15T06:18:05.000Z</time>
        <extensions>
          <ns3:TrackPointExtension/>
        </extensions>
      </trkpt>
      <trkpt lat="51.7461512982845306396484375" lon="39.46428336203098297119140625">
        <ele>137</ele>
        <time>2017-01-15T06:18:08.000Z</time>
        <extensions>
          <ns3:TrackPointExtension/>
        </extensions>
      </trkpt>
      <trkpt lat="51.7461008392274379730224609375" lon="39.464416801929473876953125">
        <ele>137.1999969482421875</ele>
        <time>2017-01-15T06:18:10.000Z</time>
        <extensions>
          <ns3:TrackPointExtension/>
        </extensions>
      </trkpt>
      <trkpt lat="51.7460733465850353240966796875" lon="39.46447941474616527557373046875">
        <ele>137.399993896484375</ele>
        <time>2017-01-15T06:18:11.000Z</time>
        <extensions>
          <ns3:TrackPointExtension/>
        </extensions>
      </trkpt>
      <trkpt lat="51.74604241736233234405517578125" lon="39.46453641168773174285888671875">
        <ele>137.600006103515625</ele>
        <time>2017-01-15T06:18:12.000Z</time>
        <extensions>
          <ns3:TrackPointExtension/>
        </extensions>
      </trkpt>
      <trkpt lat="51.74600570462644100189208984375" lon="39.4645898044109344482421875">
        <ele>137.8000030517578125</ele>
        <time>2017-01-15T06:18:13.000Z</time>
        <extensions>
          <ns3:TrackPointExtension/>
        </extensions>
      </trkpt>
      <trkpt lat="51.7459627054631710052490234375" lon="39.4646399281919002532958984375">
        <ele>137.8000030517578125</ele>
        <time>2017-01-15T06:18:14.000Z</time>
        <extensions>
          <ns3:TrackPointExtension/>
        </extensions>
      </trkpt>
      <trkpt lat="51.7459214664995670318603515625" lon="39.46468292735517024993896484375">
        <ele>138</ele>
        <time>2017-01-15T06:18:15.000Z</time>
        <extensions>
          <ns3:TrackPointExtension/>
        </extensions>
      </trkpt>
      <trkpt lat="51.74550748430192470550537109375" lon="39.46513052098453044891357421875">
        <ele>138.1999969482421875</ele>
        <time>2017-01-15T06:18:25.000Z</time>
        <extensions>
          <ns3:TrackPointExtension/>
        </extensions>
      </trkpt>
      <trkpt lat="51.7449240200221538543701171875" lon="39.46573653258383274078369140625">
        <ele>137.600006103515625</ele>
        <time>2017-01-15T06:18:40.000Z</time>
        <extensions>
          <ns3:TrackPointExtension/>
        </extensions>
      </trkpt>
      <trkpt lat="51.74424617551267147064208984375" lon="39.4663783349096775054931640625">
        <ele>137.1999969482421875</ele>
        <time>2017-01-15T06:18:57.000Z</time>
        <extensions>
          <ns3:TrackPointExtension/>
        </extensions>
      </trkpt>
      <trkpt lat="51.74345768988132476806640625" lon="39.46719967760145664215087890625">
        <ele>137</ele>
        <time>2017-01-15T06:19:18.000Z</time>
        <extensions>
          <ns3:TrackPointExtension/>
        </extensions>
      </trkpt>
      <trkpt lat="51.74311528913676738739013671875" lon="39.46765548549592494964599609375">
        <ele>138</ele>
        <time>2017-01-15T06:19:28.000Z</time>
        <extensions>
          <ns3:TrackPointExtension/>
        </extensions>
      </trkpt>
      <trkpt lat="51.74308829940855503082275390625" lon="39.467718265950679779052734375">
        <ele>138</ele>
        <time>2017-01-15T06:19:29.000Z</time>
        <extensions>
          <ns3:TrackPointExtension/>
        </extensions>
      </trkpt>
      <trkpt lat="51.7430659197270870208740234375" lon="39.46778423152863979339599609375">
        <ele>137.8000030517578125</ele>
        <time>2017-01-15T06:19:30.000Z</time>
        <extensions>
          <ns3:TrackPointExtension/>
        </extensions>
      </trkpt>
      <trkpt lat="51.7430501617491245269775390625" lon="39.4678528793156147003173828125">
        <ele>137.600006103515625</ele>
        <time>2017-01-15T06:19:31.000Z</time>
        <extensions>
          <ns3:TrackPointExtension/>
        </extensions>
      </trkpt>
      <trkpt lat="51.743039600551128387451171875" lon="39.46792311966419219970703125">
        <ele>137.399993896484375</ele>
        <time>2017-01-15T06:19:32.000Z</time>
        <extensions>
          <ns3:TrackPointExtension/>
        </extensions>
      </trkpt>
      <trkpt lat="51.743034906685352325439453125" lon="39.46799478493630886077880859375">
        <ele>137.399993896484375</ele>
        <time>2017-01-15T06:19:33.000Z</time>
        <extensions>
          <ns3:TrackPointExtension/>
        </extensions>
      </trkpt>
      <trkpt lat="51.74303649924695491790771484375" lon="39.46806795895099639892578125">
        <ele>137.399993896484375</ele>
        <time>2017-01-15T06:19:34.000Z</time>
        <extensions>
          <ns3:TrackPointExtension/>
        </extensions>
      </trkpt>
      <trkpt lat="51.743041612207889556884765625" lon="39.468142725527286529541015625">
        <ele>137.1999969482421875</ele>
        <time>2017-01-15T06:19:35.000Z</time>
        <extensions>
          <ns3:TrackPointExtension/>
        </extensions>
      </trkpt>
      <trkpt lat="51.743049658834934234619140625" lon="39.468218497931957244873046875">
        <ele>137.1999969482421875</ele>
        <time>2017-01-15T06:19:36.000Z</time>
        <extensions>
          <ns3:TrackPointExtension/>
        </extensions>
      </trkpt>
      <trkpt lat="51.74318284727632999420166015625" lon="39.4696828164160251617431640625">
        <ele>137</ele>
        <time>2017-01-15T06:19:55.000Z</time>
        <extensions>
          <ns3:TrackPointExtension/>
        </extensions>
      </trkpt>
      <trkpt lat="51.74331695772707462310791015625" lon="39.4710001163184642791748046875">
        <ele>136.399993896484375</ele>
        <time>2017-01-15T06:20:12.000Z</time>
        <extensions>
          <ns3:TrackPointExtension/>
        </extensions>
      </trkpt>
      <trkpt lat="51.74351133406162261962890625" lon="39.47256208397448062896728515625">
        <ele>134.600006103515625</ele>
        <time>2017-01-15T06:20:33.000Z</time>
        <extensions>
          <ns3:TrackPointExtension/>
        </extensions>
      </trkpt>
      <trkpt lat="51.74341251142323017120361328125" lon="39.47305259294807910919189453125">
        <ele>134.600006103515625</ele>
        <time>2017-01-15T06:20:40.000Z</time>
        <extensions>
          <ns3:TrackPointExtension/>
        </extensions>
      </trkpt>
      <trkpt lat="51.74338661134243011474609375" lon="39.4731113500893115997314453125">
        <ele>134.600006103515625</ele>
        <time>2017-01-15T06:20:41.000Z</time>
        <extensions>
          <ns3:TrackPointExtension/>
        </extensions>
      </trkpt>
      <trkpt lat="51.74326599575579166412353515625" lon="39.47331033647060394287109375">
        <ele>135.399993896484375</ele>
        <time>2017-01-15T06:20:45.000Z</time>
        <extensions>
          <ns3:TrackPointExtension/>
        </extensions>
      </trkpt>
      <trkpt lat="51.74323162995278835296630859375" lon="39.47334964759647846221923828125">
        <ele>135.600006103515625</ele>
        <time>2017-01-15T06:20:46.000Z</time>
        <extensions>
          <ns3:TrackPointExtension/>
        </extensions>
      </trkpt>
      <trkpt lat="51.74252805300056934356689453125" lon="39.4737252406775951385498046875">
        <ele>137</ele>
        <time>2017-01-15T06:21:05.000Z</time>
        <extensions>
          <ns3:TrackPointExtension/>
        </extensions>
      </trkpt>
      <trkpt lat="51.7422803677618503570556640625" lon="39.4737119972705841064453125">
        <ele>137</ele>
        <time>2017-01-15T06:21:11.000Z</time>
        <extensions>
          <ns3:TrackPointExtension/>
        </extensions>
      </trkpt>
      <trkpt lat="51.74152113497257232666015625" lon="39.47316759265959262847900390625">
        <ele>137.600006103515625</ele>
        <time>2017-01-15T06:21:31.000Z</time>
        <extensions>
          <ns3:TrackPointExtension/>
        </extensions>
      </trkpt>
      <trkpt lat="51.74148014746606349945068359375" lon="39.4731576181948184967041015625">
        <ele>137.600006103515625</ele>
        <time>2017-01-15T06:21:32.000Z</time>
        <extensions>
          <ns3:TrackPointExtension/>
        </extensions>
      </trkpt>
      <trkpt lat="51.741438321769237518310546875" lon="39.47315501980483531951904296875">
        <ele>137.600006103515625</ele>
        <time>2017-01-15T06:21:33.000Z</time>
        <extensions>
          <ns3:TrackPointExtension/>
        </extensions>
      </trkpt>
      <trkpt lat="51.74139834009110927581787109375" lon="39.473159797489643096923828125">
        <ele>137.600006103515625</ele>
        <time>2017-01-15T06:21:34.000Z</time>
        <extensions>
          <ns3:TrackPointExtension/>
        </extensions>
      </trkpt>
      <trkpt lat="51.74135928042232990264892578125" lon="39.4731727056205272674560546875">
        <ele>137.600006103515625</ele>
        <time>2017-01-15T06:21:35.000Z</time>
        <extensions>
          <ns3:TrackPointExtension/>
        </extensions>
      </trkpt>
      <trkpt lat="51.7413201369345188140869140625" lon="39.47319307364523410797119140625">
        <ele>137.600006103515625</ele>
        <time>2017-01-15T06:21:36.000Z</time>
        <extensions>
          <ns3:TrackPointExtension/>
        </extensions>
      </trkpt>
      <trkpt lat="51.74128250218927860260009765625" lon="39.47322224266827106475830078125">
        <ele>137.600006103515625</ele>
        <time>2017-01-15T06:21:37.000Z</time>
        <extensions>
          <ns3:TrackPointExtension/>
        </extensions>
      </trkpt>
      <trkpt lat="51.7412482202053070068359375" lon="39.47326004505157470703125">
        <ele>137.399993896484375</ele>
        <time>2017-01-15T06:21:38.000Z</time>
        <extensions>
          <ns3:TrackPointExtension/>
        </extensions>
      </trkpt>
      <trkpt lat="51.7412173748016357421875" lon="39.4733069837093353271484375">
        <ele>137.399993896484375</ele>
        <time>2017-01-15T06:21:39.000Z</time>
        <extensions>
          <ns3:TrackPointExtension/>
        </extensions>
      </trkpt>
      <trkpt lat="51.7411890439689159393310546875" lon="39.47335660457611083984375">
        <ele>137.399993896484375</ele>
        <time>2017-01-15T06:21:40.000Z</time>
        <extensions>
          <ns3:TrackPointExtension/>
        </extensions>
      </trkpt>
      <trkpt lat="51.74075880087912082672119140625" lon="39.4742430746555328369140625">
        <ele>137</ele>
        <time>2017-01-15T06:21:58.000Z</time>
        <extensions>
          <ns3:TrackPointExtension/>
        </extensions>
      </trkpt>
      <trkpt lat="51.740840859711170196533203125" lon="39.47467423975467681884765625">
        <ele>136.600006103515625</ele>
        <time>2017-01-15T06:22:08.000Z</time>
        <extensions>
          <ns3:TrackPointExtension/>
        </extensions>
      </trkpt>
      <trkpt lat="51.7408432066440582275390625" lon="39.4746737368404865264892578125">
        <ele>136.600006103515625</ele>
        <time>2017-01-15T06:22:12.000Z</time>
        <extensions>
          <ns3:TrackPointExtension/>
        </extensions>
      </trkpt>
      <trkpt lat="51.74091185443103313446044921875" lon="39.47466024197638034820556640625">
        <ele>136.600006103515625</ele>
        <time>2017-01-15T06:25:30.000Z</time>
        <extensions>
          <ns3:TrackPointExtension/>
        </extensions>
      </trkpt>
      <trkpt lat="51.74111201427876949310302734375" lon="39.47517891414463520050048828125">
        <ele>135.600006103515625</ele>
        <time>2017-01-15T06:25:41.000Z</time>
        <extensions>
          <ns3:TrackPointExtension/>
        </extensions>
      </trkpt>
      <trkpt lat="51.74164460040628910064697265625" lon="39.47694548405706882476806640625">
        <ele>134.8000030517578125</ele>
        <time>2017-01-15T06:26:04.000Z</time>
        <extensions>
          <ns3:TrackPointExtension/>
        </extensions>
      </trkpt>
      <trkpt lat="51.7420614324510097503662109375" lon="39.47865036316215991973876953125">
        <ele>133.399993896484375</ele>
        <time>2017-01-15T06:26:24.000Z</time>
        <extensions>
          <ns3:TrackPointExtension/>
        </extensions>
      </trkpt>
      <trkpt lat="51.7425920069217681884765625" lon="39.4802349619567394256591796875">
        <ele>133</ele>
        <time>2017-01-15T06:26:44.000Z</time>
        <extensions>
          <ns3:TrackPointExtension/>
        </extensions>
      </trkpt>
      <trkpt lat="51.74335903488099575042724609375" lon="39.48150909505784511566162109375">
        <ele>133.399993896484375</ele>
        <time>2017-01-15T06:27:03.000Z</time>
        <extensions>
          <ns3:TrackPointExtension/>
        </extensions>
      </trkpt>
      <trkpt lat="51.7440590076148509979248046875" lon="39.483187906444072723388671875">
        <ele>135.8000030517578125</ele>
        <time>2017-01-15T06:27:26.000Z</time>
        <extensions>
          <ns3:TrackPointExtension/>
        </extensions>
      </trkpt>
      <trkpt lat="51.74472981132566928863525390625" lon="39.48484718799591064453125">
        <ele>138.1999969482421875</ele>
        <time>2017-01-15T06:27:50.000Z</time>
        <extensions>
          <ns3:TrackPointExtension/>
        </extensions>
      </trkpt>
      <trkpt lat="51.74543171189725399017333984375" lon="39.4866541586816310882568359375">
        <ele>140.600006103515625</ele>
        <time>2017-01-15T06:28:17.000Z</time>
        <extensions>
          <ns3:TrackPointExtension/>
        </extensions>
      </trkpt>
      <trkpt lat="51.7461296729743480682373046875" lon="39.48839751072227954864501953125">
        <ele>142.600006103515625</ele>
        <time>2017-01-15T06:28:43.000Z</time>
        <extensions>
          <ns3:TrackPointExtension/>
        </extensions>
      </trkpt>
      <trkpt lat="51.7468247003853321075439453125" lon="39.49009736068546772003173828125">
        <ele>144</ele>
        <time>2017-01-15T06:29:08.000Z</time>
        <extensions>
          <ns3:TrackPointExtension/>
        </extensions>
      </trkpt>
      <trkpt lat="51.747370027005672454833984375" lon="39.49138113297522068023681640625">
        <ele>144.1999969482421875</ele>
        <time>2017-01-15T06:29:27.000Z</time>
        <extensions>
          <ns3:TrackPointExtension/>
        </extensions>
      </trkpt>
      <trkpt lat="51.74740280024707317352294921875" lon="39.491444416344165802001953125">
        <ele>144.399993896484375</ele>
        <time>2017-01-15T06:29:28.000Z</time>
        <extensions>
          <ns3:TrackPointExtension/>
        </extensions>
      </trkpt>
      <trkpt lat="51.7478828318417072296142578125" lon="39.49264713563024997711181640625">
        <ele>144.399993896484375</ele>
        <time>2017-01-15T06:29:45.000Z</time>
        <extensions>
          <ns3:TrackPointExtension/>
        </extensions>
      </trkpt>
      <trkpt lat="51.74861951731145381927490234375" lon="39.49449065141379833221435546875">
        <ele>143.600006103515625</ele>
        <time>2017-01-15T06:30:11.000Z</time>
        <extensions>
          <ns3:TrackPointExtension/>
        </extensions>
      </trkpt>
      <trkpt lat="51.7493178136646747589111328125" lon="39.496207349002361297607421875">
        <ele>143.1999969482421875</ele>
        <time>2017-01-15T06:30:33.000Z</time>
        <extensions>
          <ns3:TrackPointExtension/>
        </extensions>
      </trkpt>
      <trkpt lat="51.75014586187899112701416015625" lon="39.49822411872446537017822265625">
        <ele>140.8000030517578125</ele>
        <time>2017-01-15T06:30:58.000Z</time>
        <extensions>
          <ns3:TrackPointExtension/>
        </extensions>
      </trkpt>
      <trkpt lat="51.75097684375941753387451171875" lon="39.50024767778813838958740234375">
        <ele>140.600006103515625</ele>
        <time>2017-01-15T06:31:24.000Z</time>
        <extensions>
          <ns3:TrackPointExtension/>
        </extensions>
      </trkpt>
      <trkpt lat="51.75172962248325347900390625" lon="39.50214182026684284210205078125">
        <ele>138.600006103515625</ele>
        <time>2017-01-15T06:31:48.000Z</time>
        <extensions>
          <ns3:TrackPointExtension/>
        </extensions>
      </trkpt>
      <trkpt lat="51.75249011255800724029541015625" lon="39.504099749028682708740234375">
        <ele>137.8000030517578125</ele>
        <time>2017-01-15T06:32:13.000Z</time>
        <extensions>
          <ns3:TrackPointExtension/>
        </extensions>
      </trkpt>
      <trkpt lat="51.75323861651122570037841796875" lon="39.50586556456983089447021484375">
        <ele>138</ele>
        <time>2017-01-15T06:32:37.000Z</time>
        <extensions>
          <ns3:TrackPointExtension/>
        </extensions>
      </trkpt>
      <trkpt lat="51.75404436886310577392578125" lon="39.50754110701382160186767578125">
        <ele>137</ele>
        <time>2017-01-15T06:33:01.000Z</time>
        <extensions>
          <ns3:TrackPointExtension/>
        </extensions>
      </trkpt>
      <trkpt lat="51.75475649535655975341796875" lon="39.5090006478130817413330078125">
        <ele>135.1999969482421875</ele>
        <time>2017-01-15T06:33:22.000Z</time>
        <extensions>
          <ns3:TrackPointExtension/>
        </extensions>
      </trkpt>
      <trkpt lat="51.7556327395141124725341796875" lon="39.51079730875790119171142578125">
        <ele>136</ele>
        <time>2017-01-15T06:33:48.000Z</time>
        <extensions>
          <ns3:TrackPointExtension/>
        </extensions>
      </trkpt>
      <trkpt lat="51.7565166950225830078125" lon="39.51260008849203586578369140625">
        <ele>137</ele>
        <time>2017-01-15T06:34:15.000Z</time>
        <extensions>
          <ns3:TrackPointExtension/>
        </extensions>
      </trkpt>
      <trkpt lat="51.75706294365227222442626953125" lon="39.5137233473360538482666015625">
        <ele>138.600006103515625</ele>
        <time>2017-01-15T06:34:33.000Z</time>
        <extensions>
          <ns3:TrackPointExtension/>
        </extensions>
      </trkpt>
      <trkpt lat="51.757915131747722625732421875" lon="39.5154312439262866973876953125">
        <ele>139.600006103515625</ele>
        <time>2017-01-15T06:35:00.000Z</time>
        <extensions>
          <ns3:TrackPointExtension/>
        </extensions>
      </trkpt>
      <trkpt lat="51.7588342912495136260986328125" lon="39.5172678865492343902587890625">
        <ele>139</ele>
        <time>2017-01-15T06:35:29.000Z</time>
        <extensions>
          <ns3:TrackPointExtension/>
        </extensions>
      </trkpt>
      <trkpt lat="51.7595615051686763763427734375" lon="39.5186899602413177490234375">
        <ele>140</ele>
        <time>2017-01-15T06:35:52.000Z</time>
        <extensions>
          <ns3:TrackPointExtension/>
        </extensions>
      </trkpt>
      <trkpt lat="51.7603956721723079681396484375" lon="39.52033725567162036895751953125">
        <ele>140.399993896484375</ele>
        <time>2017-01-15T06:36:18.000Z</time>
        <extensions>
          <ns3:TrackPointExtension/>
        </extensions>
      </trkpt>
      <trkpt lat="51.76119941286742687225341796875" lon="39.52193199656903743743896484375">
        <ele>141.399993896484375</ele>
        <time>2017-01-15T06:36:43.000Z</time>
        <extensions>
          <ns3:TrackPointExtension/>
        </extensions>
      </trkpt>
      <trkpt lat="51.76208437420427799224853515625" lon="39.523725807666778564453125">
        <ele>143</ele>
        <time>2017-01-15T06:37:11.000Z</time>
        <extensions>
          <ns3:TrackPointExtension/>
        </extensions>
      </trkpt>
      <trkpt lat="51.7626990191638469696044921875" lon="39.52483691275119781494140625">
        <ele>143.600006103515625</ele>
        <time>2017-01-15T06:37:30.000Z</time>
        <extensions>
          <ns3:TrackPointExtension/>
        </extensions>
      </trkpt>
      <trkpt lat="51.762778647243976593017578125" lon="39.52498585917055606842041015625">
        <ele>143.600006103515625</ele>
        <time>2017-01-15T06:37:39.000Z</time>
        <extensions>
          <ns3:TrackPointExtension/>
        </extensions>
      </trkpt>
      <trkpt lat="51.7627798207104206085205078125" lon="39.52498585917055606842041015625">
        <ele>143.600006103515625</ele>
        <time>2017-01-15T06:37:40.000Z</time>
        <extensions>
          <ns3:TrackPointExtension/>
        </extensions>
      </trkpt>
      <trkpt lat="51.76283304579555988311767578125" lon="39.5250519923865795135498046875">
        <ele>143.600006103515625</ele>
        <time>2017-01-15T06:37:44.000Z</time>
        <extensions>
          <ns3:TrackPointExtension/>
        </extensions>
      </trkpt>
      <trkpt lat="51.76285483874380588531494140625" lon="39.52510354109108448028564453125">
        <ele>143.600006103515625</ele>
        <time>2017-01-15T06:37:45.000Z</time>
        <extensions>
          <ns3:TrackPointExtension/>
        </extensions>
      </trkpt>
      <trkpt lat="51.76292516291141510009765625" lon="39.52529422938823699951171875">
        <ele>143.600006103515625</ele>
        <time>2017-01-15T06:37:48.000Z</time>
        <extensions>
          <ns3:TrackPointExtension/>
        </extensions>
      </trkpt>
      <trkpt lat="51.76362915895879268646240234375" lon="39.526715464890003204345703125">
        <ele>143</ele>
        <time>2017-01-15T06:38:11.000Z</time>
        <extensions>
          <ns3:TrackPointExtension/>
        </extensions>
      </trkpt>
      <trkpt lat="51.76448880694806575775146484375" lon="39.5283591561019420623779296875">
        <ele>143.600006103515625</ele>
        <time>2017-01-15T06:38:37.000Z</time>
        <extensions>
          <ns3:TrackPointExtension/>
        </extensions>
      </trkpt>
      <trkpt lat="51.76540142856538295745849609375" lon="39.52989815734326839447021484375">
        <ele>143.8000030517578125</ele>
        <time>2017-01-15T06:39:03.000Z</time>
        <extensions>
          <ns3:TrackPointExtension/>
        </extensions>
      </trkpt>
      <trkpt lat="51.76634472794830799102783203125" lon="39.531334899365901947021484375">
        <ele>144</ele>
        <time>2017-01-15T06:39:29.000Z</time>
        <extensions>
          <ns3:TrackPointExtension/>
        </extensions>
      </trkpt>
      <trkpt lat="51.7668923176825046539306640625" lon="39.53218071721494197845458984375">
        <ele>144</ele>
        <time>2017-01-15T06:39:47.000Z</time>
        <extensions>
          <ns3:TrackPointExtension/>
        </extensions>
      </trkpt>
      <trkpt lat="51.76729070954024791717529296875" lon="39.53208625316619873046875">
        <ele>144</ele>
        <time>2017-01-15T06:40:00.000Z</time>
        <extensions>
          <ns3:TrackPointExtension/>
        </extensions>
      </trkpt>
      <trkpt lat="51.767519451677799224853515625" lon="39.53243535943329334259033203125">
        <ele>144</ele>
        <time>2017-01-15T06:40:11.000Z</time>
        <extensions>
          <ns3:TrackPointExtension/>
        </extensions>
      </trkpt>
      <trkpt lat="51.7678572423756122589111328125" lon="39.53323599882423877716064453125">
        <ele>144.399993896484375</ele>
        <time>2017-01-15T06:40:26.000Z</time>
        <extensions>
          <ns3:TrackPointExtension/>
        </extensions>
      </trkpt>
      <trkpt lat="51.7683115415275096893310546875" lon="39.53426144085824489593505859375">
        <ele>145</ele>
        <time>2017-01-15T06:40:45.000Z</time>
        <extensions>
          <ns3:TrackPointExtension/>
        </extensions>
      </trkpt>
      <trkpt lat="51.7687926627695560455322265625" lon="39.53531496226787567138671875">
        <ele>145.600006103515625</ele>
        <time>2017-01-15T06:41:05.000Z</time>
        <extensions>
          <ns3:TrackPointExtension/>
        </extensions>
      </trkpt>
      <trkpt lat="51.76931443624198436737060546875" lon="39.53635993413627147674560546875">
        <ele>146.1999969482421875</ele>
        <time>2017-01-15T06:41:26.000Z</time>
        <extensions>
          <ns3:TrackPointExtension/>
        </extensions>
      </trkpt>
      <trkpt lat="51.769796647131443023681640625" lon="39.53727557323873043060302734375">
        <ele>147</ele>
        <time>2017-01-15T06:41:44.000Z</time>
        <extensions>
          <ns3:TrackPointExtension/>
        </extensions>
      </trkpt>
      <trkpt lat="51.77013401873409748077392578125" lon="39.53791175968945026397705078125">
        <ele>147</ele>
        <time>2017-01-15T06:42:00.000Z</time>
        <extensions>
          <ns3:TrackPointExtension/>
        </extensions>
      </trkpt>
      <trkpt lat="51.77041984163224697113037109375" lon="39.53836639411747455596923828125">
        <ele>147.600006103515625</ele>
        <time>2017-01-15T06:42:14.000Z</time>
        <extensions>
          <ns3:TrackPointExtension/>
        </extensions>
      </trkpt>
      <trkpt lat="51.77082234062254428863525390625" lon="39.53910358250141143798828125">
        <ele>148.1999969482421875</ele>
        <time>2017-01-15T06:42:34.000Z</time>
        <extensions>
          <ns3:TrackPointExtension/>
        </extensions>
      </trkpt>
      <trkpt lat="51.7712076567113399505615234375" lon="39.53981495462357997894287109375">
        <ele>149.399993896484375</ele>
        <time>2017-01-15T06:42:51.000Z</time>
        <extensions>
          <ns3:TrackPointExtension/>
        </extensions>
      </trkpt>
      <trkpt lat="51.7715714313089847564697265625" lon="39.5403908751904964447021484375">
        <ele>151</ele>
        <time>2017-01-15T06:43:08.000Z</time>
        <extensions>
          <ns3:TrackPointExtension/>
        </extensions>
      </trkpt>
      <trkpt lat="51.7719690687954425811767578125" lon="39.54108380712568759918212890625">
        <ele>150</ele>
        <time>2017-01-15T06:43:25.000Z</time>
        <extensions>
          <ns3:TrackPointExtension/>
        </extensions>
      </trkpt>
      <trkpt lat="51.77244943566620349884033203125" lon="39.54181663691997528076171875">
        <ele>149.8000030517578125</ele>
        <time>2017-01-15T06:43:45.000Z</time>
        <extensions>
          <ns3:TrackPointExtension/>
        </extensions>
      </trkpt>
      <trkpt lat="51.772877164185047149658203125" lon="39.542378894984722137451171875">
        <ele>150.600006103515625</ele>
        <time>2017-01-15T06:44:03.000Z</time>
        <extensions>
          <ns3:TrackPointExtension/>
        </extensions>
      </trkpt>
      <trkpt lat="51.7733393423259258270263671875" lon="39.5430060289800167083740234375">
        <ele>151</ele>
        <time>2017-01-15T06:44:22.000Z</time>
        <extensions>
          <ns3:TrackPointExtension/>
        </extensions>
      </trkpt>
      <trkpt lat="51.77386111579835414886474609375" lon="39.5436534471809864044189453125">
        <ele>150.8000030517578125</ele>
        <time>2017-01-15T06:44:44.000Z</time>
        <extensions>
          <ns3:TrackPointExtension/>
        </extensions>
      </trkpt>
      <trkpt lat="51.773967482149600982666015625" lon="39.54378613270819187164306640625">
        <ele>150.8000030517578125</ele>
        <time>2017-01-15T06:44:54.000Z</time>
        <extensions>
          <ns3:TrackPointExtension/>
        </extensions>
      </trkpt>
      <trkpt lat="51.7738841660320758819580078125" lon="39.543674401938915252685546875">
        <ele>150.8000030517578125</ele>
        <time>2017-01-15T06:45:11.000Z</time>
        <extensions>
          <ns3:TrackPointExtension/>
        </extensions>
      </trkpt>
      <trkpt lat="51.773567162454128265380859375" lon="39.54331188462674617767333984375">
        <ele>150.8000030517578125</ele>
        <time>2017-01-15T06:45:27.000Z</time>
        <extensions>
          <ns3:TrackPointExtension/>
        </extensions>
      </trkpt>
      <trkpt lat="51.77314748056232929229736328125" lon="39.5427723415195941925048828125">
        <ele>151</ele>
        <time>2017-01-15T06:45:47.000Z</time>
        <extensions>
          <ns3:TrackPointExtension/>
        </extensions>
      </trkpt>
      <trkpt lat="51.77276945672929286956787109375" lon="39.54225090332329273223876953125">
        <ele>150.399993896484375</ele>
        <time>2017-01-15T06:46:04.000Z</time>
        <extensions>
          <ns3:TrackPointExtension/>
        </extensions>
      </trkpt>
      <trkpt lat="51.7725527845323085784912109375" lon="39.54194672405719757080078125">
        <ele>150.1999969482421875</ele>
        <time>2017-01-15T06:46:17.000Z</time>
        <extensions>
          <ns3:TrackPointExtension/>
        </extensions>
      </trkpt>
      <trkpt lat="51.7721705697476863861083984375" lon="39.54136996529996395111083984375">
        <ele>149.8000030517578125</ele>
        <time>2017-01-15T06:46:36.000Z</time>
        <extensions>
          <ns3:TrackPointExtension/>
        </extensions>
      </trkpt>
      <trkpt lat="51.7717169411480426788330078125" lon="39.54066052101552486419677734375">
        <ele>150.600006103515625</ele>
        <time>2017-01-15T06:46:58.000Z</time>
        <extensions>
          <ns3:TrackPointExtension/>
        </extensions>
      </trkpt>
      <trkpt lat="51.7713927291333675384521484375" lon="39.54009373672306537628173828125">
        <ele>150.1999969482421875</ele>
        <time>2017-01-15T06:47:16.000Z</time>
        <extensions>
          <ns3:TrackPointExtension/>
        </extensions>
      </trkpt>
      <trkpt lat="51.77114588208496570587158203125" lon="39.5396985299885272979736328125">
        <ele>149</ele>
        <time>2017-01-15T06:47:30.000Z</time>
        <extensions>
          <ns3:TrackPointExtension/>
        </extensions>
      </trkpt>
      <trkpt lat="51.7707858793437480926513671875" lon="39.53904884867370128631591796875">
        <ele>148</ele>
        <time>2017-01-15T06:47:49.000Z</time>
        <extensions>
          <ns3:TrackPointExtension/>
        </extensions>
      </trkpt>
      <trkpt lat="51.7704294808208942413330078125" lon="39.5384003408253192901611328125">
        <ele>147.600006103515625</ele>
        <time>2017-01-15T06:48:09.000Z</time>
        <extensions>
          <ns3:TrackPointExtension/>
        </extensions>
      </trkpt>
      <trkpt lat="51.77020845003426074981689453125" lon="39.53797227703034877777099609375">
        <ele>147.1999969482421875</ele>
        <time>2017-01-15T06:48:24.000Z</time>
        <extensions>
          <ns3:TrackPointExtension/>
        </extensions>
      </trkpt>
      <trkpt lat="51.76994693465530872344970703125" lon="39.537608921527862548828125">
        <ele>147</ele>
        <time>2017-01-15T06:48:38.000Z</time>
        <extensions>
          <ns3:TrackPointExtension/>
        </extensions>
      </trkpt>
      <trkpt lat="51.7696382291615009307861328125" lon="39.53685513697564601898193359375">
        <ele>146.8000030517578125</ele>
        <time>2017-01-15T06:48:53.000Z</time>
        <extensions>
          <ns3:TrackPointExtension/>
        </extensions>
      </trkpt>
      <trkpt lat="51.76920077763497829437255859375" lon="39.536177627742290496826171875">
        <ele>146</ele>
        <time>2017-01-15T06:49:09.000Z</time>
        <extensions>
          <ns3:TrackPointExtension/>
        </extensions>
      </trkpt>
      <trkpt lat="51.7687443830072879791259765625" lon="39.53515537083148956298828125">
        <ele>145.600006103515625</ele>
        <time>2017-01-15T06:49:28.000Z</time>
        <extensions>
          <ns3:TrackPointExtension/>
        </extensions>
      </trkpt>
      <trkpt lat="51.76822721958160400390625" lon="39.53400294296443462371826171875">
        <ele>145</ele>
        <time>2017-01-15T06:49:49.000Z</time>
        <extensions>
          <ns3:TrackPointExtension/>
        </extensions>
      </trkpt>
      <trkpt lat="51.7677268199622631072998046875" lon="39.532884545624256134033203125">
        <ele>144</ele>
        <time>2017-01-15T06:50:10.000Z</time>
        <extensions>
          <ns3:TrackPointExtension/>
        </extensions>
      </trkpt>
      <trkpt lat="51.76752355881035327911376953125" lon="39.53246922232210636138916015625">
        <ele>144</ele>
        <time>2017-01-15T06:50:23.000Z</time>
        <extensions>
          <ns3:TrackPointExtension/>
        </extensions>
      </trkpt>
      <trkpt lat="51.76751584745943546295166015625" lon="39.53245430253446102142333984375">
        <ele>144</ele>
        <time>2017-01-15T06:50:29.000Z</time>
        <extensions>
          <ns3:TrackPointExtension/>
        </extensions>
      </trkpt>
      <trkpt lat="51.76751174032688140869140625" lon="39.532393030822277069091796875">
        <ele>144</ele>
        <time>2017-01-15T06:52:16.000Z</time>
        <extensions>
          <ns3:TrackPointExtension/>
        </extensions>
      </trkpt>
      <trkpt lat="51.767306216061115264892578125" lon="39.5320917852222919464111328125">
        <ele>144</ele>
        <time>2017-01-15T06:52:28.000Z</time>
        <extensions>
          <ns3:TrackPointExtension/>
        </extensions>
      </trkpt>
      <trkpt lat="51.76687873899936676025390625" lon="39.53223603777587413787841796875">
        <ele>144</ele>
        <time>2017-01-15T06:52:42.000Z</time>
        <extensions>
          <ns3:TrackPointExtension/>
        </extensions>
      </trkpt>
      <trkpt lat="51.76647867076098918914794921875" lon="39.53282947652041912078857421875">
        <ele>144</ele>
        <time>2017-01-15T06:52:56.000Z</time>
        <extensions>
          <ns3:TrackPointExtension/>
        </extensions>
      </trkpt>
      <trkpt lat="51.76561365835368633270263671875" lon="39.53396690078079700469970703125">
        <ele>144.1999969482421875</ele>
        <time>2017-01-15T06:53:22.000Z</time>
        <extensions>
          <ns3:TrackPointExtension/>
        </extensions>
      </trkpt>
      <trkpt lat="51.76503446884453296661376953125" lon="39.5346908457577228546142578125">
        <ele>144.8000030517578125</ele>
        <time>2017-01-15T06:53:39.000Z</time>
        <extensions>
          <ns3:TrackPointExtension/>
        </extensions>
      </trkpt>
      <trkpt lat="51.76415587775409221649169921875" lon="39.5357419364154338836669921875">
        <ele>146.8000030517578125</ele>
        <time>2017-01-15T06:54:04.000Z</time>
        <extensions>
          <ns3:TrackPointExtension/>
        </extensions>
      </trkpt>
      <trkpt lat="51.76317326724529266357421875" lon="39.536822699010372161865234375">
        <ele>148.8000030517578125</ele>
        <time>2017-01-15T06:54:32.000Z</time>
        <extensions>
          <ns3:TrackPointExtension/>
        </extensions>
      </trkpt>
      <trkpt lat="51.76222988404333591461181640625" lon="39.53783649019896984100341796875">
        <ele>148</ele>
        <time>2017-01-15T06:54:58.000Z</time>
        <extensions>
          <ns3:TrackPointExtension/>
        </extensions>
      </trkpt>
      <trkpt lat="51.761533431708812713623046875" lon="39.53885019756853580474853515625">
        <ele>149</ele>
        <time>2017-01-15T06:55:20.000Z</time>
        <extensions>
          <ns3:TrackPointExtension/>
        </extensions>
      </trkpt>
      <trkpt lat="51.7608650587499141693115234375" lon="39.540366567671298980712890625">
        <ele>148</ele>
        <time>2017-01-15T06:55:46.000Z</time>
        <extensions>
          <ns3:TrackPointExtension/>
        </extensions>
      </trkpt>
      <trkpt lat="51.7602543532848358154296875" lon="39.54179090447723865509033203125">
        <ele>147.1999969482421875</ele>
        <time>2017-01-15T06:56:10.000Z</time>
        <extensions>
          <ns3:TrackPointExtension/>
        </extensions>
      </trkpt>
      <trkpt lat="51.75954968668520450592041015625" lon="39.5434306561946868896484375">
        <ele>146.8000030517578125</ele>
        <time>2017-01-15T06:56:37.000Z</time>
        <extensions>
          <ns3:TrackPointExtension/>
        </extensions>
      </trkpt>
      <trkpt lat="51.75889103673398494720458984375" lon="39.54495926387608051300048828125">
        <ele>147.399993896484375</ele>
        <time>2017-01-15T06:57:03.000Z</time>
        <extensions>
          <ns3:TrackPointExtension/>
        </extensions>
      </trkpt>
      <trkpt lat="51.7581064067780971527099609375" lon="39.54681082628667354583740234375">
        <ele>147.600006103515625</ele>
        <time>2017-01-15T06:57:33.000Z</time>
        <extensions>
          <ns3:TrackPointExtension/>
        </extensions>
      </trkpt>
      <trkpt lat="51.7573892511427402496337890625" lon="39.548507742583751678466796875">
        <ele>145</ele>
        <time>2017-01-15T06:58:00.000Z</time>
        <extensions>
          <ns3:TrackPointExtension/>
        </extensions>
      </trkpt>
      <trkpt lat="51.756740324199199676513671875" lon="39.55000164918601512908935546875">
        <ele>145</ele>
        <time>2017-01-15T06:58:25.000Z</time>
        <extensions>
          <ns3:TrackPointExtension/>
        </extensions>
      </trkpt>
      <trkpt lat="51.756360791623592376708984375" lon="39.550894238054752349853515625">
        <ele>144.8000030517578125</ele>
        <time>2017-01-15T06:58:40.000Z</time>
        <extensions>
          <ns3:TrackPointExtension/>
        </extensions>
      </trkpt>
      <trkpt lat="51.7563384957611560821533203125" lon="39.550953917205333709716796875">
        <ele>144.8000030517578125</ele>
        <time>2017-01-15T06:58:41.000Z</time>
        <extensions>
          <ns3:TrackPointExtension/>
        </extensions>
      </trkpt>
      <trkpt lat="51.75628602504730224609375" lon="39.55112926661968231201171875">
        <ele>144.600006103515625</ele>
        <time>2017-01-15T06:58:44.000Z</time>
        <extensions>
          <ns3:TrackPointExtension/>
        </extensions>
      </trkpt>
      <trkpt lat="51.75626984797418117523193359375" lon="39.551188945770263671875">
        <ele>144.600006103515625</ele>
        <time>2017-01-15T06:58:45.000Z</time>
        <extensions>
          <ns3:TrackPointExtension/>
        </extensions>
      </trkpt>
      <trkpt lat="51.75597949884831905364990234375" lon="39.5524963550269603729248046875">
        <ele>143.600006103515625</ele>
        <time>2017-01-15T06:59:04.000Z</time>
        <extensions>
          <ns3:TrackPointExtension/>
        </extensions>
      </trkpt>
      <trkpt lat="51.75583415664732456207275390625" lon="39.55405362881720066070556640625">
        <ele>142.1999969482421875</ele>
        <time>2017-01-15T06:59:26.000Z</time>
        <extensions>
          <ns3:TrackPointExtension/>
        </extensions>
      </trkpt>
      <trkpt lat="51.75570725463330745697021484375" lon="39.55569975078105926513671875">
        <ele>142</ele>
        <time>2017-01-15T06:59:49.000Z</time>
        <extensions>
          <ns3:TrackPointExtension/>
        </extensions>
      </trkpt>
      <trkpt lat="51.7555864714086055755615234375" lon="39.557296670973300933837890625">
        <ele>141.1999969482421875</ele>
        <time>2017-01-15T07:00:12.000Z</time>
        <extensions>
          <ns3:TrackPointExtension/>
        </extensions>
      </trkpt>
      <trkpt lat="51.7554714716970920562744140625" lon="39.558839611709117889404296875">
        <ele>140.600006103515625</ele>
        <time>2017-01-15T07:00:34.000Z</time>
        <extensions>
          <ns3:TrackPointExtension/>
        </extensions>
      </trkpt>
      <trkpt lat="51.755334846675395965576171875" lon="39.56057340838015079498291015625">
        <ele>141.8000030517578125</ele>
        <time>2017-01-15T07:00:59.000Z</time>
        <extensions>
          <ns3:TrackPointExtension/>
        </extensions>
      </trkpt>
      <trkpt lat="51.75521917641162872314453125" lon="39.56219027750194072723388671875">
        <ele>143.399993896484375</ele>
        <time>2017-01-15T07:01:22.000Z</time>
        <extensions>
          <ns3:TrackPointExtension/>
        </extensions>
      </trkpt>
      <trkpt lat="51.75510241650044918060302734375" lon="39.56375316716730594635009765625">
        <ele>142.1999969482421875</ele>
        <time>2017-01-15T07:01:44.000Z</time>
        <extensions>
          <ns3:TrackPointExtension/>
        </extensions>
      </trkpt>
      <trkpt lat="51.75500300712883472442626953125" lon="39.5651218481361865997314453125">
        <ele>142</ele>
        <time>2017-01-15T07:02:04.000Z</time>
        <extensions>
          <ns3:TrackPointExtension/>
        </extensions>
      </trkpt>
      <trkpt lat="51.7549102194607257843017578125" lon="39.566410146653652191162109375">
        <ele>142</ele>
        <time>2017-01-15T07:02:23.000Z</time>
        <extensions>
          <ns3:TrackPointExtension/>
        </extensions>
      </trkpt>
      <trkpt lat="51.75478826276957988739013671875" lon="39.5679592899978160858154296875">
        <ele>140.600006103515625</ele>
        <time>2017-01-15T07:02:45.000Z</time>
        <extensions>
          <ns3:TrackPointExtension/>
        </extensions>
      </trkpt>
      <trkpt lat="51.7546574212610721588134765625" lon="39.5696899853646755218505859375">
        <ele>138.1999969482421875</ele>
        <time>2017-01-15T07:03:08.000Z</time>
        <extensions>
          <ns3:TrackPointExtension/>
        </extensions>
      </trkpt>
      <trkpt lat="51.75452716648578643798828125" lon="39.5714756660163402557373046875">
        <ele>137.600006103515625</ele>
        <time>2017-01-15T07:03:31.000Z</time>
        <extensions>
          <ns3:TrackPointExtension/>
        </extensions>
      </trkpt>
      <trkpt lat="51.7543910443782806396484375" lon="39.57317107357084751129150390625">
        <ele>137.1999969482421875</ele>
        <time>2017-01-15T07:03:53.000Z</time>
        <extensions>
          <ns3:TrackPointExtension/>
        </extensions>
      </trkpt>
      <trkpt lat="51.75425332970917224884033203125" lon="39.5749318599700927734375">
        <ele>139</ele>
        <time>2017-01-15T07:04:16.000Z</time>
        <extensions>
          <ns3:TrackPointExtension/>
        </extensions>
      </trkpt>
      <trkpt lat="51.75403229892253875732421875" lon="39.57679674960672855377197265625">
        <ele>139.8000030517578125</ele>
        <time>2017-01-15T07:04:41.000Z</time>
        <extensions>
          <ns3:TrackPointExtension/>
        </extensions>
      </trkpt>
      <trkpt lat="51.75373733974993228912353515625" lon="39.57859969697892665863037109375">
        <ele>140.399993896484375</ele>
        <time>2017-01-15T07:05:05.000Z</time>
        <extensions>
          <ns3:TrackPointExtension/>
        </extensions>
      </trkpt>
      <trkpt lat="51.75350599922239780426025390625" lon="39.5805121958255767822265625">
        <ele>138</ele>
        <time>2017-01-15T07:05:29.000Z</time>
        <extensions>
          <ns3:TrackPointExtension/>
        </extensions>
      </trkpt>
      <trkpt lat="51.7533310689032077789306640625" lon="39.58236451260745525360107421875">
        <ele>135.1999969482421875</ele>
        <time>2017-01-15T07:05:52.000Z</time>
        <extensions>
          <ns3:TrackPointExtension/>
        </extensions>
      </trkpt>
      <trkpt lat="51.75333299674093723297119140625" lon="39.5836592651903629302978515625">
        <ele>133.399993896484375</ele>
        <time>2017-01-15T07:06:09.000Z</time>
        <extensions>
          <ns3:TrackPointExtension/>
        </extensions>
      </trkpt>
      <trkpt lat="51.75340038724243640899658203125" lon="39.58527688868343830108642578125">
        <ele>131.600006103515625</ele>
        <time>2017-01-15T07:06:29.000Z</time>
        <extensions>
          <ns3:TrackPointExtension/>
        </extensions>
      </trkpt>
      <trkpt lat="51.753225624561309814453125" lon="39.58674958907067775726318359375">
        <ele>130.399993896484375</ele>
        <time>2017-01-15T07:06:49.000Z</time>
        <extensions>
          <ns3:TrackPointExtension/>
        </extensions>
      </trkpt>
      <trkpt lat="51.7530816234648227691650390625" lon="39.58756045438349246978759765625">
        <ele>128.8000030517578125</ele>
        <time>2017-01-15T07:07:04.000Z</time>
        <extensions>
          <ns3:TrackPointExtension/>
        </extensions>
      </trkpt>
      <trkpt lat="51.75307416357100009918212890625" lon="39.58776765502989292144775390625">
        <ele>128.600006103515625</ele>
        <time>2017-01-15T07:07:15.000Z</time>
        <extensions>
          <ns3:TrackPointExtension/>
        </extensions>
      </trkpt>
      <trkpt lat="51.753104589879512786865234375" lon="39.587889611721038818359375">
        <ele>128.399993896484375</ele>
        <time>2017-01-15T07:07:20.000Z</time>
        <extensions>
          <ns3:TrackPointExtension/>
        </extensions>
      </trkpt>
      <trkpt lat="51.7531584016978740692138671875" lon="39.58795289508998394012451171875">
        <ele>128.600006103515625</ele>
        <time>2017-01-15T07:07:22.000Z</time>
        <extensions>
          <ns3:TrackPointExtension/>
        </extensions>
      </trkpt>
      <trkpt lat="51.75319536589086055755615234375" lon="39.5879628695547580718994140625">
        <ele>128.8000030517578125</ele>
        <time>2017-01-15T07:07:23.000Z</time>
        <extensions>
          <ns3:TrackPointExtension/>
        </extensions>
      </trkpt>
      <trkpt lat="51.7532351799309253692626953125" lon="39.58796580322086811065673828125">
        <ele>129</ele>
        <time>2017-01-15T07:07:24.000Z</time>
        <extensions>
          <ns3:TrackPointExtension/>
        </extensions>
      </trkpt>
      <trkpt lat="51.75420622341334819793701171875" lon="39.5880304276943206787109375">
        <ele>129.8000030517578125</ele>
        <time>2017-01-15T07:07:45.000Z</time>
        <extensions>
          <ns3:TrackPointExtension/>
        </extensions>
      </trkpt>
      <trkpt lat="51.75542495213449001312255859375" lon="39.58815255202353000640869140625">
        <ele>130.600006103515625</ele>
        <time>2017-01-15T07:08:10.000Z</time>
        <extensions>
          <ns3:TrackPointExtension/>
        </extensions>
      </trkpt>
      <trkpt lat="51.756794638931751251220703125" lon="39.588270820677280426025390625">
        <ele>131.1999969482421875</ele>
        <time>2017-01-15T07:08:36.000Z</time>
        <extensions>
          <ns3:TrackPointExtension/>
        </extensions>
      </trkpt>
      <trkpt lat="51.75809944979846477508544921875" lon="39.58833008073270320892333984375">
        <ele>129.8000030517578125</ele>
        <time>2017-01-15T07:09:00.000Z</time>
        <extensions>
          <ns3:TrackPointExtension/>
        </extensions>
      </trkpt>
      <trkpt lat="51.75945094786584377288818359375" lon="39.5883849821984767913818359375">
        <ele>126.1999969482421875</ele>
        <time>2017-01-15T07:09:24.000Z</time>
        <extensions>
          <ns3:TrackPointExtension/>
        </extensions>
      </trkpt>
      <trkpt lat="51.76076590083539485931396484375" lon="39.58843954838812351226806640625">
        <ele>123.59999847412109375</ele>
        <time>2017-01-15T07:09:46.000Z</time>
        <extensions>
          <ns3:TrackPointExtension/>
        </extensions>
      </trkpt>
      <trkpt lat="51.7620898224413394927978515625" lon="39.58850693888962268829345703125">
        <ele>123.40000152587890625</ele>
        <time>2017-01-15T07:10:08.000Z</time>
        <extensions>
          <ns3:TrackPointExtension/>
        </extensions>
      </trkpt>
      <trkpt lat="51.7634885944426059722900390625" lon="39.58856812678277492523193359375">
        <ele>122.8000030517578125</ele>
        <time>2017-01-15T07:10:31.000Z</time>
        <extensions>
          <ns3:TrackPointExtension/>
        </extensions>
      </trkpt>
      <trkpt lat="51.764784269034862518310546875" lon="39.5889720506966114044189453125">
        <ele>121.40000152587890625</ele>
        <time>2017-01-15T07:10:54.000Z</time>
        <extensions>
          <ns3:TrackPointExtension/>
        </extensions>
      </trkpt>
      <trkpt lat="51.765445768833160400390625" lon="39.5892805047333240509033203125">
        <ele>120.59999847412109375</ele>
        <time>2017-01-15T07:11:06.000Z</time>
        <extensions>
          <ns3:TrackPointExtension/>
        </extensions>
      </trkpt>
      <trkpt lat="51.765977852046489715576171875" lon="39.5895473845303058624267578125">
        <ele>120.1999969482421875</ele>
        <time>2017-01-15T07:11:19.000Z</time>
        <extensions>
          <ns3:TrackPointExtension/>
        </extensions>
      </trkpt>
      <trkpt lat="51.7665655910968780517578125" lon="39.58982876501977443695068359375">
        <ele>120.59999847412109375</ele>
        <time>2017-01-15T07:11:32.000Z</time>
        <extensions>
          <ns3:TrackPointExtension/>
        </extensions>
      </trkpt>
      <trkpt lat="51.7675581760704517364501953125" lon="39.58986036479473114013671875">
        <ele>119.40000152587890625</ele>
        <time>2017-01-15T07:11:50.000Z</time>
        <extensions>
          <ns3:TrackPointExtension/>
        </extensions>
      </trkpt>
      <trkpt lat="51.76839075051248073577880859375" lon="39.58935652859508991241455078125">
        <ele>122</ele>
        <time>2017-01-15T07:12:07.000Z</time>
        <extensions>
          <ns3:TrackPointExtension/>
        </extensions>
      </trkpt>
      <trkpt lat="51.76917898468673229217529296875" lon="39.588364027440547943115234375">
        <ele>124.40000152587890625</ele>
        <time>2017-01-15T07:12:26.000Z</time>
        <extensions>
          <ns3:TrackPointExtension/>
        </extensions>
      </trkpt>
      <trkpt lat="51.76921837963163852691650390625" lon="39.58830627612769603729248046875">
        <ele>124.40000152587890625</ele>
        <time>2017-01-15T07:12:27.000Z</time>
        <extensions>
          <ns3:TrackPointExtension/>
        </extensions>
      </trkpt>
      <trkpt lat="51.7694628797471523284912109375" lon="39.58797284401953220367431640625">
        <ele>125.1999969482421875</ele>
        <time>2017-01-15T07:12:33.000Z</time>
        <extensions>
          <ns3:TrackPointExtension/>
        </extensions>
      </trkpt>
      <trkpt lat="51.770209707319736480712890625" lon="39.5870197378098964691162109375">
        <ele>128.399993896484375</ele>
        <time>2017-01-15T07:12:52.000Z</time>
        <extensions>
          <ns3:TrackPointExtension/>
        </extensions>
      </trkpt>
      <trkpt lat="51.77089744247496128082275390625" lon="39.5862117223441600799560546875">
        <ele>130.399993896484375</ele>
        <time>2017-01-15T07:13:09.000Z</time>
        <extensions>
          <ns3:TrackPointExtension/>
        </extensions>
      </trkpt>
      <trkpt lat="51.7716948129236698150634765625" lon="39.585918523371219635009765625">
        <ele>132.399993896484375</ele>
        <time>2017-01-15T07:13:25.000Z</time>
        <extensions>
          <ns3:TrackPointExtension/>
        </extensions>
      </trkpt>
      <trkpt lat="51.772449016571044921875" lon="39.58538535051047801971435546875">
        <ele>134</ele>
        <time>2017-01-15T07:13:42.000Z</time>
        <extensions>
          <ns3:TrackPointExtension/>
        </extensions>
      </trkpt>
      <trkpt lat="51.77321637980639934539794921875" lon="39.5842806994915008544921875">
        <ele>137.1999969482421875</ele>
        <time>2017-01-15T07:14:03.000Z</time>
        <extensions>
          <ns3:TrackPointExtension/>
        </extensions>
      </trkpt>
      <trkpt lat="51.773923225700855255126953125" lon="39.58322701044380664825439453125">
        <ele>140</ele>
        <time>2017-01-15T07:14:22.000Z</time>
        <extensions>
          <ns3:TrackPointExtension/>
        </extensions>
      </trkpt>
      <trkpt lat="51.77484816871583461761474609375" lon="39.58248320035636425018310546875">
        <ele>141.8000030517578125</ele>
        <time>2017-01-15T07:14:42.000Z</time>
        <extensions>
          <ns3:TrackPointExtension/>
        </extensions>
      </trkpt>
      <trkpt lat="51.77589942701160907745361328125" lon="39.5816633664071559906005859375">
        <ele>142.600006103515625</ele>
        <time>2017-01-15T07:15:05.000Z</time>
        <extensions>
          <ns3:TrackPointExtension/>
        </extensions>
      </trkpt>
      <trkpt lat="51.7765315063297748565673828125" lon="39.58027708344161510467529296875">
        <ele>144.1999969482421875</ele>
        <time>2017-01-15T07:15:26.000Z</time>
        <extensions>
          <ns3:TrackPointExtension/>
        </extensions>
      </trkpt>
      <trkpt lat="51.7772166430950164794921875" lon="39.57922096364200115203857421875">
        <ele>145</ele>
        <time>2017-01-15T07:15:45.000Z</time>
        <extensions>
          <ns3:TrackPointExtension/>
        </extensions>
      </trkpt>
      <trkpt lat="51.778436712920665740966796875" lon="39.5776799507439136505126953125">
        <ele>149</ele>
        <time>2017-01-15T07:16:15.000Z</time>
        <extensions>
          <ns3:TrackPointExtension/>
        </extensions>
      </trkpt>
      <trkpt lat="51.77968720905482769012451171875" lon="39.57617615349590778350830078125">
        <ele>150.8000030517578125</ele>
        <time>2017-01-15T07:16:45.000Z</time>
        <extensions>
          <ns3:TrackPointExtension/>
        </extensions>
      </trkpt>
      <trkpt lat="51.78090509958565235137939453125" lon="39.5747539959847927093505859375">
        <ele>152.8000030517578125</ele>
        <time>2017-01-15T07:17:13.000Z</time>
        <extensions>
          <ns3:TrackPointExtension/>
        </extensions>
      </trkpt>
      <trkpt lat="51.78215769119560718536376953125" lon="39.5731952972710132598876953125">
        <ele>154.1999969482421875</ele>
        <time>2017-01-15T07:17:42.000Z</time>
        <extensions>
          <ns3:TrackPointExtension/>
        </extensions>
      </trkpt>
      <trkpt lat="51.78314440883696079254150390625" lon="39.5715678669512271881103515625">
        <ele>153.600006103515625</ele>
        <time>2017-01-15T07:18:08.000Z</time>
        <extensions>
          <ns3:TrackPointExtension/>
        </extensions>
      </trkpt>
      <trkpt lat="51.78398645482957363128662109375" lon="39.57017370499670505523681640625">
        <ele>153.1999969482421875</ele>
        <time>2017-01-15T07:18:30.000Z</time>
        <extensions>
          <ns3:TrackPointExtension/>
        </extensions>
      </trkpt>
      <trkpt lat="51.78477016277611255645751953125" lon="39.56888842396438121795654296875">
        <ele>151.600006103515625</ele>
        <time>2017-01-15T07:18:49.000Z</time>
        <extensions>
          <ns3:TrackPointExtension/>
        </extensions>
      </trkpt>
      <trkpt lat="51.7858293838798999786376953125" lon="39.567137025296688079833984375">
        <ele>153.1999969482421875</ele>
        <time>2017-01-15T07:19:16.000Z</time>
        <extensions>
          <ns3:TrackPointExtension/>
        </extensions>
      </trkpt>
      <trkpt lat="51.78648895584046840667724609375" lon="39.56600974313914775848388671875">
        <ele>153</ele>
        <time>2017-01-15T07:19:34.000Z</time>
        <extensions>
          <ns3:TrackPointExtension/>
        </extensions>
      </trkpt>
      <trkpt lat="51.787159927189350128173828125" lon="39.56484683789312839508056640625">
        <ele>153.8000030517578125</ele>
        <time>2017-01-15T07:19:51.000Z</time>
        <extensions>
          <ns3:TrackPointExtension/>
        </extensions>
      </trkpt>
      <trkpt lat="51.78823448717594146728515625" lon="39.5629318244755268096923828125">
        <ele>153.1999969482421875</ele>
        <time>2017-01-15T07:20:20.000Z</time>
        <extensions>
          <ns3:TrackPointExtension/>
        </extensions>
      </trkpt>
      <trkpt lat="51.7889179475605487823486328125" lon="39.56171301193535327911376953125">
        <ele>151.600006103515625</ele>
        <time>2017-01-15T07:20:41.000Z</time>
        <extensions>
          <ns3:TrackPointExtension/>
        </extensions>
      </trkpt>
      <trkpt lat="51.789328493177890777587890625" lon="39.5610609836876392364501953125">
        <ele>151.600006103515625</ele>
        <time>2017-01-15T07:20:54.000Z</time>
        <extensions>
          <ns3:TrackPointExtension/>
        </extensions>
      </trkpt>
      <trkpt lat="51.7893668822944164276123046875" lon="39.561025612056255340576171875">
        <ele>151.8000030517578125</ele>
        <time>2017-01-15T07:20:55.000Z</time>
        <extensions>
          <ns3:TrackPointExtension/>
        </extensions>
      </trkpt>
      <trkpt lat="51.78940619342029094696044921875" lon="39.56099635921418666839599609375">
        <ele>151.8000030517578125</ele>
        <time>2017-01-15T07:20:56.000Z</time>
        <extensions>
          <ns3:TrackPointExtension/>
        </extensions>
      </trkpt>
      <trkpt lat="51.78944709710776805877685546875" lon="39.56097473390400409698486328125">
        <ele>152</ele>
        <time>2017-01-15T07:20:57.000Z</time>
        <extensions>
          <ns3:TrackPointExtension/>
        </extensions>
      </trkpt>
      <trkpt lat="51.78948766551911830902099609375" lon="39.56095998175442218780517578125">
        <ele>152</ele>
        <time>2017-01-15T07:20:58.000Z</time>
        <extensions>
          <ns3:TrackPointExtension/>
        </extensions>
      </trkpt>
      <trkpt lat="51.7895284853875637054443359375" lon="39.56095227040350437164306640625">
        <ele>152.1999969482421875</ele>
        <time>2017-01-15T07:20:59.000Z</time>
        <extensions>
          <ns3:TrackPointExtension/>
        </extensions>
      </trkpt>
      <trkpt lat="51.78957031108438968658447265625" lon="39.56095562316477298736572265625">
        <ele>152.1999969482421875</ele>
        <time>2017-01-15T07:21:00.000Z</time>
        <extensions>
          <ns3:TrackPointExtension/>
        </extensions>
      </trkpt>
      <trkpt lat="51.789612472057342529296875" lon="39.56097297370433807373046875">
        <ele>152.399993896484375</ele>
        <time>2017-01-15T07:21:01.000Z</time>
        <extensions>
          <ns3:TrackPointExtension/>
        </extensions>
      </trkpt>
      <trkpt lat="51.7896545492112636566162109375" lon="39.561000801622867584228515625">
        <ele>152.399993896484375</ele>
        <time>2017-01-15T07:21:02.000Z</time>
        <extensions>
          <ns3:TrackPointExtension/>
        </extensions>
      </trkpt>
      <trkpt lat="51.789696626365184783935546875" lon="39.56103541888296604156494140625">
        <ele>152.600006103515625</ele>
        <time>2017-01-15T07:21:03.000Z</time>
        <extensions>
          <ns3:TrackPointExtension/>
        </extensions>
      </trkpt>
      <trkpt lat="51.7905229143798351287841796875" lon="39.56187696196138858795166015625">
        <ele>153</ele>
        <time>2017-01-15T07:21:21.000Z</time>
        <extensions>
          <ns3:TrackPointExtension/>
        </extensions>
      </trkpt>
      <trkpt lat="51.791814900934696197509765625" lon="39.5631641708314418792724609375">
        <ele>153</ele>
        <time>2017-01-15T07:21:48.000Z</time>
        <extensions>
          <ns3:TrackPointExtension/>
        </extensions>
      </trkpt>
      <trkpt lat="51.79318944923579692840576171875" lon="39.5644982345402240753173828125">
        <ele>154</ele>
        <time>2017-01-15T07:22:15.000Z</time>
        <extensions>
          <ns3:TrackPointExtension/>
        </extensions>
      </trkpt>
      <trkpt lat="51.79473138414323329925537109375" lon="39.565997757017612457275390625">
        <ele>152.600006103515625</ele>
        <time>2017-01-15T07:22:44.000Z</time>
        <extensions>
          <ns3:TrackPointExtension/>
        </extensions>
      </trkpt>
      <trkpt lat="51.79642385803163051605224609375" lon="39.567666091024875640869140625">
        <ele>152</ele>
        <time>2017-01-15T07:23:16.000Z</time>
        <extensions>
          <ns3:TrackPointExtension/>
        </extensions>
      </trkpt>
      <trkpt lat="51.79793201386928558349609375" lon="39.569136612117290496826171875">
        <ele>152.8000030517578125</ele>
        <time>2017-01-15T07:23:45.000Z</time>
        <extensions>
          <ns3:TrackPointExtension/>
        </extensions>
      </trkpt>
      <trkpt lat="51.79930924437940120697021484375" lon="39.5704289339482784271240234375">
        <ele>152.399993896484375</ele>
        <time>2017-01-15T07:24:11.000Z</time>
        <extensions>
          <ns3:TrackPointExtension/>
        </extensions>
      </trkpt>
      <trkpt lat="51.80075445212423801422119140625" lon="39.57135119475424289703369140625">
        <ele>154</ele>
        <time>2017-01-15T07:24:36.000Z</time>
        <extensions>
          <ns3:TrackPointExtension/>
        </extensions>
      </trkpt>
      <trkpt lat="51.80220544338226318359375" lon="39.5721063204109668731689453125">
        <ele>154.399993896484375</ele>
        <time>2017-01-15T07:25:01.000Z</time>
        <extensions>
          <ns3:TrackPointExtension/>
        </extensions>
      </trkpt>
      <trkpt lat="51.80385290645062923431396484375" lon="39.57281584851443767547607421875">
        <ele>153.1999969482421875</ele>
        <time>2017-01-15T07:25:29.000Z</time>
        <extensions>
          <ns3:TrackPointExtension/>
        </extensions>
      </trkpt>
      <trkpt lat="51.80537807755172252655029296875" lon="39.57325606606900691986083984375">
        <ele>152</ele>
        <time>2017-01-15T07:25:54.000Z</time>
        <extensions>
          <ns3:TrackPointExtension/>
        </extensions>
      </trkpt>
      <trkpt lat="51.80683334358036518096923828125" lon="39.573509953916072845458984375">
        <ele>152.8000030517578125</ele>
        <time>2017-01-15T07:26:18.000Z</time>
        <extensions>
          <ns3:TrackPointExtension/>
        </extensions>
      </trkpt>
      <trkpt lat="51.80830302648246288299560546875" lon="39.5737776719033718109130859375">
        <ele>151.8000030517578125</ele>
        <time>2017-01-15T07:26:42.000Z</time>
        <extensions>
          <ns3:TrackPointExtension/>
        </extensions>
      </trkpt>
      <trkpt lat="51.80971898138523101806640625" lon="39.57403130829334259033203125">
        <ele>150.1999969482421875</ele>
        <time>2017-01-15T07:27:06.000Z</time>
        <extensions>
          <ns3:TrackPointExtension/>
        </extensions>
      </trkpt>
      <trkpt lat="51.81136543862521648406982421875" lon="39.57430715672671794891357421875">
        <ele>151.1999969482421875</ele>
        <time>2017-01-15T07:27:34.000Z</time>
        <extensions>
          <ns3:TrackPointExtension/>
        </extensions>
      </trkpt>
      <trkpt lat="51.8128335289657115936279296875" lon="39.5746671594679355621337890625">
        <ele>151.399993896484375</ele>
        <time>2017-01-15T07:27:59.000Z</time>
        <extensions>
          <ns3:TrackPointExtension/>
        </extensions>
      </trkpt>
      <trkpt lat="51.81408419273793697357177734375" lon="39.575082398951053619384765625">
        <ele>152</ele>
        <time>2017-01-15T07:28:22.000Z</time>
        <extensions>
          <ns3:TrackPointExtension/>
        </extensions>
      </trkpt>
      <trkpt lat="51.814967729151248931884765625" lon="39.57534014247357845306396484375">
        <ele>152.1999969482421875</ele>
        <time>2017-01-15T07:28:40.000Z</time>
        <extensions>
          <ns3:TrackPointExtension/>
        </extensions>
      </trkpt>
      <trkpt lat="51.815857551991939544677734375" lon="39.57544022239744663238525390625">
        <ele>154</ele>
        <time>2017-01-15T07:28:58.000Z</time>
        <extensions>
          <ns3:TrackPointExtension/>
        </extensions>
      </trkpt>
      <trkpt lat="51.81648493744432926177978515625" lon="39.57540451548993587493896484375">
        <ele>154</ele>
        <time>2017-01-15T07:29:13.000Z</time>
        <extensions>
          <ns3:TrackPointExtension/>
        </extensions>
      </trkpt>
      <trkpt lat="51.81640681810677051544189453125" lon="39.574878215789794921875">
        <ele>154</ele>
        <time>2017-01-15T07:29:22.000Z</time>
        <extensions>
          <ns3:TrackPointExtension/>
        </extensions>
      </trkpt>
      <trkpt lat="51.81596073321998119354248046875" lon="39.57416080869734287261962890625">
        <ele>154</ele>
        <time>2017-01-15T07:29:37.000Z</time>
        <extensions>
          <ns3:TrackPointExtension/>
        </extensions>
      </trkpt>
      <trkpt lat="51.815771050751209259033203125" lon="39.57369242794811725616455078125">
        <ele>154</ele>
        <time>2017-01-15T07:29:49.000Z</time>
        <extensions>
          <ns3:TrackPointExtension/>
        </extensions>
      </trkpt>
      <trkpt lat="51.8158748187124729156494140625" lon="39.5729706622660160064697265625">
        <ele>154</ele>
        <time>2017-01-15T07:30:06.000Z</time>
        <extensions>
          <ns3:TrackPointExtension/>
        </extensions>
      </trkpt>
      <trkpt lat="51.816225349903106689453125" lon="39.57299672998487949371337890625">
        <ele>154.8000030517578125</ele>
        <time>2017-01-15T07:30:18.000Z</time>
        <extensions>
          <ns3:TrackPointExtension/>
        </extensions>
      </trkpt>
      <trkpt lat="51.8166419304907321929931640625" lon="39.57315162755548954010009765625">
        <ele>155.399993896484375</ele>
        <time>2017-01-15T07:30:31.000Z</time>
        <extensions>
          <ns3:TrackPointExtension/>
        </extensions>
      </trkpt>
      <trkpt lat="51.81729244999587535858154296875" lon="39.57331247627735137939453125">
        <ele>156</ele>
        <time>2017-01-15T07:30:48.000Z</time>
        <extensions>
          <ns3:TrackPointExtension/>
        </extensions>
      </trkpt>
      <trkpt lat="51.81789779104292392730712890625" lon="39.57341196946799755096435546875">
        <ele>157.1999969482421875</ele>
        <time>2017-01-15T07:31:05.000Z</time>
        <extensions>
          <ns3:TrackPointExtension/>
        </extensions>
      </trkpt>
      <trkpt lat="51.81849592365324497222900390625" lon="39.57365018315613269805908203125">
        <ele>157.8000030517578125</ele>
        <time>2017-01-15T07:31:22.000Z</time>
        <extensions>
          <ns3:TrackPointExtension/>
        </extensions>
      </trkpt>
      <trkpt lat="51.818981654942035675048828125" lon="39.5738547854125499725341796875">
        <ele>158.600006103515625</ele>
        <time>2017-01-15T07:31:36.000Z</time>
        <extensions>
          <ns3:TrackPointExtension/>
        </extensions>
      </trkpt>
      <trkpt lat="51.81956914253532886505126953125" lon="39.57395486533641815185546875">
        <ele>158</ele>
        <time>2017-01-15T07:31:53.000Z</time>
        <extensions>
          <ns3:TrackPointExtension/>
        </extensions>
      </trkpt>
      <trkpt lat="51.8199710547924041748046875" lon="39.57401119172573089599609375">
        <ele>157.600006103515625</ele>
        <time>2017-01-15T07:32:06.000Z</time>
        <extensions>
          <ns3:TrackPointExtension/>
        </extensions>
      </trkpt>
      <trkpt lat="51.81997038424015045166015625" lon="39.57401144318282604217529296875">
        <ele>157.600006103515625</ele>
        <time>2017-01-15T07:32:08.000Z</time>
        <extensions>
          <ns3:TrackPointExtension/>
        </extensions>
      </trkpt>
      <trkpt lat="51.8199806101620197296142578125" lon="39.5738819427788257598876953125">
        <ele>157.600006103515625</ele>
        <time>2017-01-15T07:32:32.000Z</time>
        <extensions>
          <ns3:TrackPointExtension/>
        </extensions>
      </trkpt>
      <trkpt lat="51.81999980472028255462646484375" lon="39.57385688088834285736083984375">
        <ele>157.600006103515625</ele>
        <time>2017-01-15T07:32:40.000Z</time>
        <extensions>
          <ns3:TrackPointExtension/>
        </extensions>
      </trkpt>
      <trkpt lat="51.8201482482254505157470703125" lon="39.573539793491363525390625">
        <ele>158</ele>
        <time>2017-01-15T07:33:12.000Z</time>
        <extensions>
          <ns3:TrackPointExtension/>
        </extensions>
      </trkpt>
      <trkpt lat="51.82022142224013805389404296875" lon="39.57288491539657115936279296875">
        <ele>159.600006103515625</ele>
        <time>2017-01-15T07:33:27.000Z</time>
        <extensions>
          <ns3:TrackPointExtension/>
        </extensions>
      </trkpt>
      <trkpt lat="51.82034782133996486663818359375" lon="39.57236154936254024505615234375">
        <ele>160.600006103515625</ele>
        <time>2017-01-15T07:33:41.000Z</time>
        <extensions>
          <ns3:TrackPointExtension/>
        </extensions>
      </trkpt>
      <trkpt lat="51.82045988738536834716796875" lon="39.5718380995094776153564453125">
        <ele>161.600006103515625</ele>
        <time>2017-01-15T07:33:54.000Z</time>
        <extensions>
          <ns3:TrackPointExtension/>
        </extensions>
      </trkpt>
      <trkpt lat="51.82061101309955120086669921875" lon="39.5713774301111698150634765625">
        <ele>163.1999969482421875</ele>
        <time>2017-01-15T07:34:07.000Z</time>
        <extensions>
          <ns3:TrackPointExtension/>
        </extensions>
      </trkpt>
      <trkpt lat="51.8209103308618068695068359375" lon="39.5714994706213474273681640625">
        <ele>163</ele>
        <time>2017-01-15T07:34:20.000Z</time>
        <extensions>
          <ns3:TrackPointExtension/>
        </extensions>
      </trkpt>
      <trkpt lat="51.821189783513545989990234375" lon="39.57174480892717838287353515625">
        <ele>162.600006103515625</ele>
        <time>2017-01-15T07:34:32.000Z</time>
        <extensions>
          <ns3:TrackPointExtension/>
        </extensions>
      </trkpt>
      <trkpt lat="51.82150888256728649139404296875" lon="39.571486897766590118408203125">
        <ele>163.8000030517578125</ele>
        <time>2017-01-15T07:34:42.000Z</time>
        <extensions>
          <ns3:TrackPointExtension/>
        </extensions>
      </trkpt>
      <trkpt lat="51.82190316729247570037841796875" lon="39.570874013006687164306640625">
        <ele>166.600006103515625</ele>
        <time>2017-01-15T07:34:51.000Z</time>
        <extensions>
          <ns3:TrackPointExtension/>
        </extensions>
      </trkpt>
      <trkpt lat="51.82193183340132236480712890625" lon="39.570806287229061126708984375">
        <ele>166.8000030517578125</ele>
        <time>2017-01-15T07:34:52.000Z</time>
        <extensions>
          <ns3:TrackPointExtension/>
        </extensions>
      </trkpt>
      <trkpt lat="51.82207231409847736358642578125" lon="39.56994831562042236328125">
        <ele>167.399993896484375</ele>
        <time>2017-01-15T07:35:03.000Z</time>
        <extensions>
          <ns3:TrackPointExtension/>
        </extensions>
      </trkpt>
      <trkpt lat="51.82214221917092800140380859375" lon="39.5694972015917301177978515625">
        <ele>167.1999969482421875</ele>
        <time>2017-01-15T07:35:08.000Z</time>
        <extensions>
          <ns3:TrackPointExtension/>
        </extensions>
      </trkpt>
      <trkpt lat="51.82225587777793407440185546875" lon="39.5686549879610538482666015625">
        <ele>167.1999969482421875</ele>
        <time>2017-01-15T07:35:19.000Z</time>
        <extensions>
          <ns3:TrackPointExtension/>
        </extensions>
      </trkpt>
      <trkpt lat="51.82238982059061527252197265625" lon="39.56773775629699230194091796875">
        <ele>164.8000030517578125</ele>
        <time>2017-01-15T07:35:30.000Z</time>
        <extensions>
          <ns3:TrackPointExtension/>
        </extensions>
      </trkpt>
      <trkpt lat="51.82241580449044704437255859375" lon="39.56727758981287479400634765625">
        <ele>164.1999969482421875</ele>
        <time>2017-01-15T07:35:35.000Z</time>
        <extensions>
          <ns3:TrackPointExtension/>
        </extensions>
      </trkpt>
      <trkpt lat="51.82241898961365222930908203125" lon="39.56693845801055431365966796875">
        <ele>164</ele>
        <time>2017-01-15T07:35:40.000Z</time>
        <extensions>
          <ns3:TrackPointExtension/>
        </extensions>
      </trkpt>
      <trkpt lat="51.82240717113018035888671875" lon="39.56681859679520130157470703125">
        <ele>164.1999969482421875</ele>
        <time>2017-01-15T07:35:44.000Z</time>
        <extensions>
          <ns3:TrackPointExtension/>
        </extensions>
      </trkpt>
      <trkpt lat="51.82241714559495449066162109375" lon="39.56621878780424594879150390625">
        <ele>165</ele>
        <time>2017-01-15T07:35:54.000Z</time>
        <extensions>
          <ns3:TrackPointExtension/>
        </extensions>
      </trkpt>
      <trkpt lat="51.8225166387856006622314453125" lon="39.56557824276387691497802734375">
        <ele>165.600006103515625</ele>
        <time>2017-01-15T07:36:04.000Z</time>
        <extensions>
          <ns3:TrackPointExtension/>
        </extensions>
      </trkpt>
      <trkpt lat="51.8227157928049564361572265625" lon="39.56451617181301116943359375">
        <ele>165.8000030517578125</ele>
        <time>2017-01-15T07:36:16.000Z</time>
        <extensions>
          <ns3:TrackPointExtension/>
        </extensions>
      </trkpt>
      <trkpt lat="51.82285954244434833526611328125" lon="39.5636476390063762664794921875">
        <ele>166.8000030517578125</ele>
        <time>2017-01-15T07:36:27.000Z</time>
        <extensions>
          <ns3:TrackPointExtension/>
        </extensions>
      </trkpt>
      <trkpt lat="51.82287898845970630645751953125" lon="39.5635688491165637969970703125">
        <ele>166.8000030517578125</ele>
        <time>2017-01-15T07:36:28.000Z</time>
        <extensions>
          <ns3:TrackPointExtension/>
        </extensions>
      </trkpt>
      <trkpt lat="51.82290069758892059326171875" lon="39.56349022686481475830078125">
        <ele>167</ele>
        <time>2017-01-15T07:36:29.000Z</time>
        <extensions>
          <ns3:TrackPointExtension/>
        </extensions>
      </trkpt>
      <trkpt lat="51.822999604046344757080078125" lon="39.56306417472660541534423828125">
        <ele>167.399993896484375</ele>
        <time>2017-01-15T07:36:34.000Z</time>
        <extensions>
          <ns3:TrackPointExtension/>
        </extensions>
      </trkpt>
      <trkpt lat="51.82301326654851436614990234375" lon="39.56297784112393856048583984375">
        <ele>167.600006103515625</ele>
        <time>2017-01-15T07:36:35.000Z</time>
        <extensions>
          <ns3:TrackPointExtension/>
        </extensions>
      </trkpt>
      <trkpt lat="51.823130361735820770263671875" lon="39.562156833708286285400390625">
        <ele>167.8000030517578125</ele>
        <time>2017-01-15T07:36:45.000Z</time>
        <extensions>
          <ns3:TrackPointExtension/>
        </extensions>
      </trkpt>
      <trkpt lat="51.82324402034282684326171875" lon="39.56139542162418365478515625">
        <ele>168.8000030517578125</ele>
        <time>2017-01-15T07:36:56.000Z</time>
        <extensions>
          <ns3:TrackPointExtension/>
        </extensions>
      </trkpt>
      <trkpt lat="51.823292635381221771240234375" lon="39.56117036752402782440185546875">
        <ele>169</ele>
        <time>2017-01-15T07:36:59.000Z</time>
        <extensions>
          <ns3:TrackPointExtension/>
        </extensions>
      </trkpt>
      <trkpt lat="51.8233129195868968963623046875" lon="39.56109677441418170928955078125">
        <ele>169</ele>
        <time>2017-01-15T07:37:00.000Z</time>
        <extensions>
          <ns3:TrackPointExtension/>
        </extensions>
      </trkpt>
      <trkpt lat="51.82333496399223804473876953125" lon="39.56101915799081325531005859375">
        <ele>169.1999969482421875</ele>
        <time>2017-01-15T07:37:01.000Z</time>
        <extensions>
          <ns3:TrackPointExtension/>
        </extensions>
      </trkpt>
      <trkpt lat="51.82347779162228107452392578125" lon="39.5603391341865062713623046875">
        <ele>169.600006103515625</ele>
        <time>2017-01-15T07:37:10.000Z</time>
        <extensions>
          <ns3:TrackPointExtension/>
        </extensions>
      </trkpt>
      <trkpt lat="51.82355775497853755950927734375" lon="39.5598861761391162872314453125">
        <ele>169</ele>
        <time>2017-01-15T07:37:17.000Z</time>
        <extensions>
          <ns3:TrackPointExtension/>
        </extensions>
      </trkpt>
      <trkpt lat="51.82361324317753314971923828125" lon="39.559646286070346832275390625">
        <ele>168.600006103515625</ele>
        <time>2017-01-15T07:37:20.000Z</time>
        <extensions>
          <ns3:TrackPointExtension/>
        </extensions>
      </trkpt>
      <trkpt lat="51.82362950406968593597412109375" lon="39.559555761516094207763671875">
        <ele>168.600006103515625</ele>
        <time>2017-01-15T07:37:21.000Z</time>
        <extensions>
          <ns3:TrackPointExtension/>
        </extensions>
      </trkpt>
      <trkpt lat="51.82364928536117076873779296875" lon="39.5594633929431438446044921875">
        <ele>168.399993896484375</ele>
        <time>2017-01-15T07:37:22.000Z</time>
        <extensions>
          <ns3:TrackPointExtension/>
        </extensions>
      </trkpt>
      <trkpt lat="51.82366889901459217071533203125" lon="39.5593772269785404205322265625">
        <ele>168.399993896484375</ele>
        <time>2017-01-15T07:37:23.000Z</time>
        <extensions>
          <ns3:TrackPointExtension/>
        </extensions>
      </trkpt>
      <trkpt lat="51.823689937591552734375" lon="39.559291899204254150390625">
        <ele>168.1999969482421875</ele>
        <time>2017-01-15T07:37:24.000Z</time>
        <extensions>
          <ns3:TrackPointExtension/>
        </extensions>
      </trkpt>
      <trkpt lat="51.82389085181057453155517578125" lon="39.5583586581051349639892578125">
        <ele>166.8000030517578125</ele>
        <time>2017-01-15T07:37:35.000Z</time>
        <extensions>
          <ns3:TrackPointExtension/>
        </extensions>
      </trkpt>
      <trkpt lat="51.824024878442287445068359375" lon="39.557485096156597137451171875">
        <ele>166</ele>
        <time>2017-01-15T07:37:46.000Z</time>
        <extensions>
          <ns3:TrackPointExtension/>
        </extensions>
      </trkpt>
      <trkpt lat="51.824035942554473876953125" lon="39.5574068091809749603271484375">
        <ele>166</ele>
        <time>2017-01-15T07:37:47.000Z</time>
        <extensions>
          <ns3:TrackPointExtension/>
        </extensions>
      </trkpt>
      <trkpt lat="51.8242218531668186187744140625" lon="39.5562836341559886932373046875">
        <ele>166.600006103515625</ele>
        <time>2017-01-15T07:38:00.000Z</time>
        <extensions>
          <ns3:TrackPointExtension/>
        </extensions>
      </trkpt>
      <trkpt lat="51.824235431849956512451171875" lon="39.5561927743256092071533203125">
        <ele>166.399993896484375</ele>
        <time>2017-01-15T07:38:01.000Z</time>
        <extensions>
          <ns3:TrackPointExtension/>
        </extensions>
      </trkpt>
      <trkpt lat="51.8242493458092212677001953125" lon="39.55610769800841808319091796875">
        <ele>166.399993896484375</ele>
        <time>2017-01-15T07:38:02.000Z</time>
        <extensions>
          <ns3:TrackPointExtension/>
        </extensions>
      </trkpt>
      <trkpt lat="51.8243935145437717437744140625" lon="39.55522206611931324005126953125">
        <ele>166</ele>
        <time>2017-01-15T07:38:13.000Z</time>
        <extensions>
          <ns3:TrackPointExtension/>
        </extensions>
      </trkpt>
      <trkpt lat="51.82451882399618625640869140625" lon="39.554833061993122100830078125">
        <ele>165</ele>
        <time>2017-01-15T07:38:17.000Z</time>
        <extensions>
          <ns3:TrackPointExtension/>
        </extensions>
      </trkpt>
      <trkpt lat="51.8246037326753139495849609375" lon="39.55446819774806499481201171875">
        <ele>164.8000030517578125</ele>
        <time>2017-01-15T07:38:21.000Z</time>
        <extensions>
          <ns3:TrackPointExtension/>
        </extensions>
      </trkpt>
      <trkpt lat="51.8246054090559482574462890625" lon="39.55439913086593151092529296875">
        <ele>164.600006103515625</ele>
        <time>2017-01-15T07:38:22.000Z</time>
        <extensions>
          <ns3:TrackPointExtension/>
        </extensions>
      </trkpt>
      <trkpt lat="51.82459912262856960296630859375" lon="39.5543365180492401123046875">
        <ele>164.399993896484375</ele>
        <time>2017-01-15T07:38:23.000Z</time>
        <extensions>
          <ns3:TrackPointExtension/>
        </extensions>
      </trkpt>
      <trkpt lat="51.82458571158349514007568359375" lon="39.5542709715664386749267578125">
        <ele>164</ele>
        <time>2017-01-15T07:38:24.000Z</time>
        <extensions>
          <ns3:TrackPointExtension/>
        </extensions>
      </trkpt>
      <trkpt lat="51.82456525973975658416748046875" lon="39.55420835874974727630615234375">
        <ele>163.8000030517578125</ele>
        <time>2017-01-15T07:38:25.000Z</time>
        <extensions>
          <ns3:TrackPointExtension/>
        </extensions>
      </trkpt>
      <trkpt lat="51.82451966218650341033935546875" lon="39.5536051131784915924072265625">
        <ele>163</ele>
        <time>2017-01-15T07:38:35.000Z</time>
        <extensions>
          <ns3:TrackPointExtension/>
        </extensions>
      </trkpt>
      <trkpt lat="51.82467070408165454864501953125" lon="39.55336463637650012969970703125">
        <ele>164.600006103515625</ele>
        <time>2017-01-15T07:38:40.000Z</time>
        <extensions>
          <ns3:TrackPointExtension/>
        </extensions>
      </trkpt>
      <trkpt lat="51.8248323909938335418701171875" lon="39.5530140213668346405029296875">
        <ele>165.600006103515625</ele>
        <time>2017-01-15T07:38:46.000Z</time>
        <extensions>
          <ns3:TrackPointExtension/>
        </extensions>
      </trkpt>
      <trkpt lat="51.8249975144863128662109375" lon="39.5522854663431644439697265625">
        <ele>166</ele>
        <time>2017-01-15T07:38:57.000Z</time>
        <extensions>
          <ns3:TrackPointExtension/>
        </extensions>
      </trkpt>
      <trkpt lat="51.82524360716342926025390625" lon="39.551234208047389984130859375">
        <ele>167</ele>
        <time>2017-01-15T07:39:11.000Z</time>
        <extensions>
          <ns3:TrackPointExtension/>
        </extensions>
      </trkpt>
      <trkpt lat="51.82535500265657901763916015625" lon="39.55056323669850826263427734375">
        <ele>167</ele>
        <time>2017-01-15T07:39:20.000Z</time>
        <extensions>
          <ns3:TrackPointExtension/>
        </extensions>
      </trkpt>
      <trkpt lat="51.8253627978265285491943359375" lon="39.55048813484609127044677734375">
        <ele>167</ele>
        <time>2017-01-15T07:39:21.000Z</time>
        <extensions>
          <ns3:TrackPointExtension/>
        </extensions>
      </trkpt>
      <trkpt lat="51.8253705091774463653564453125" lon="39.55042376182973384857177734375">
        <ele>167</ele>
        <time>2017-01-15T07:39:22.000Z</time>
        <extensions>
          <ns3:TrackPointExtension/>
        </extensions>
      </trkpt>
      <trkpt lat="51.82537981308996677398681640625" lon="39.55035955645143985748291015625">
        <ele>167</ele>
        <time>2017-01-15T07:39:23.000Z</time>
        <extensions>
          <ns3:TrackPointExtension/>
        </extensions>
      </trkpt>
      <trkpt lat="51.82539339177310466766357421875" lon="39.55029317177832126617431640625">
        <ele>166.600006103515625</ele>
        <time>2017-01-15T07:39:24.000Z</time>
        <extensions>
          <ns3:TrackPointExtension/>
        </extensions>
      </trkpt>
      <trkpt lat="51.82546094991266727447509765625" lon="39.5498755015432834625244140625">
        <ele>164.399993896484375</ele>
        <time>2017-01-15T07:39:30.000Z</time>
        <extensions>
          <ns3:TrackPointExtension/>
        </extensions>
      </trkpt>
      <trkpt lat="51.82560729794204235076904296875" lon="39.5491144247353076934814453125">
        <ele>162.1999969482421875</ele>
        <time>2017-01-15T07:39:39.000Z</time>
        <extensions>
          <ns3:TrackPointExtension/>
        </extensions>
      </trkpt>
      <trkpt lat="51.82578968815505504608154296875" lon="39.548219405114650726318359375">
        <ele>161.1999969482421875</ele>
        <time>2017-01-15T07:39:51.000Z</time>
        <extensions>
          <ns3:TrackPointExtension/>
        </extensions>
      </trkpt>
      <trkpt lat="51.82580259628593921661376953125" lon="39.5481411181390285491943359375">
        <ele>161.1999969482421875</ele>
        <time>2017-01-15T07:39:52.000Z</time>
        <extensions>
          <ns3:TrackPointExtension/>
        </extensions>
      </trkpt>
      <trkpt lat="51.825815252959728240966796875" lon="39.54806392081081867218017578125">
        <ele>161</ele>
        <time>2017-01-15T07:39:53.000Z</time>
        <extensions>
          <ns3:TrackPointExtension/>
        </extensions>
      </trkpt>
      <trkpt lat="51.82582841254770755767822265625" lon="39.547985382378101348876953125">
        <ele>160.8000030517578125</ele>
        <time>2017-01-15T07:39:54.000Z</time>
        <extensions>
          <ns3:TrackPointExtension/>
        </extensions>
      </trkpt>
      <trkpt lat="51.82584282942116260528564453125" lon="39.54790852032601833343505859375">
        <ele>160.8000030517578125</ele>
        <time>2017-01-15T07:39:55.000Z</time>
        <extensions>
          <ns3:TrackPointExtension/>
        </extensions>
      </trkpt>
      <trkpt lat="51.825857497751712799072265625" lon="39.5478259585797786712646484375">
        <ele>160.8000030517578125</ele>
        <time>2017-01-15T07:39:56.000Z</time>
        <extensions>
          <ns3:TrackPointExtension/>
        </extensions>
      </trkpt>
      <trkpt lat="51.82586763985455036163330078125" lon="39.5477495156228542327880859375">
        <ele>160.8000030517578125</ele>
        <time>2017-01-15T07:39:57.000Z</time>
        <extensions>
          <ns3:TrackPointExtension/>
        </extensions>
      </trkpt>
      <trkpt lat="51.82588239200413227081298828125" lon="39.54767600633203983306884765625">
        <ele>160.8000030517578125</ele>
        <time>2017-01-15T07:39:58.000Z</time>
        <extensions>
          <ns3:TrackPointExtension/>
        </extensions>
      </trkpt>
      <trkpt lat="51.825897730886936187744140625" lon="39.54760341905057430267333984375">
        <ele>160.8000030517578125</ele>
        <time>2017-01-15T07:39:59.000Z</time>
        <extensions>
          <ns3:TrackPointExtension/>
        </extensions>
      </trkpt>
      <trkpt lat="51.8259143270552158355712890625" lon="39.5475292392075061798095703125">
        <ele>160.8000030517578125</ele>
        <time>2017-01-15T07:40:00.000Z</time>
        <extensions>
          <ns3:TrackPointExtension/>
        </extensions>
      </trkpt>
      <trkpt lat="51.8259304203093051910400390625" lon="39.547470398247241973876953125">
        <ele>160.8000030517578125</ele>
        <time>2017-01-15T07:40:01.000Z</time>
        <extensions>
          <ns3:TrackPointExtension/>
        </extensions>
      </trkpt>
      <trkpt lat="51.82594575919210910797119140625" lon="39.5474098809063434600830078125">
        <ele>160.8000030517578125</ele>
        <time>2017-01-15T07:40:02.000Z</time>
        <extensions>
          <ns3:TrackPointExtension/>
        </extensions>
      </trkpt>
      <trkpt lat="51.8259577453136444091796875" lon="39.54734391532838344573974609375">
        <ele>160.8000030517578125</ele>
        <time>2017-01-15T07:40:03.000Z</time>
        <extensions>
          <ns3:TrackPointExtension/>
        </extensions>
      </trkpt>
      <trkpt lat="51.825969479978084564208984375" lon="39.54727216623723506927490234375">
        <ele>160.8000030517578125</ele>
        <time>2017-01-15T07:40:04.000Z</time>
        <extensions>
          <ns3:TrackPointExtension/>
        </extensions>
      </trkpt>
      <trkpt lat="51.8260920234024524688720703125" lon="39.546602703630924224853515625">
        <ele>162.600006103515625</ele>
        <time>2017-01-15T07:40:15.000Z</time>
        <extensions>
          <ns3:TrackPointExtension/>
        </extensions>
      </trkpt>
      <trkpt lat="51.82619436644017696380615234375" lon="39.5459393598139286041259765625">
        <ele>164.399993896484375</ele>
        <time>2017-01-15T07:40:24.000Z</time>
        <extensions>
          <ns3:TrackPointExtension/>
        </extensions>
      </trkpt>
      <trkpt lat="51.8262056820094585418701171875" lon="39.54586199484765529632568359375">
        <ele>164.600006103515625</ele>
        <time>2017-01-15T07:40:25.000Z</time>
        <extensions>
          <ns3:TrackPointExtension/>
        </extensions>
      </trkpt>
      <trkpt lat="51.826217584311962127685546875" lon="39.54578957520425319671630859375">
        <ele>164.8000030517578125</ele>
        <time>2017-01-15T07:40:26.000Z</time>
        <extensions>
          <ns3:TrackPointExtension/>
        </extensions>
      </trkpt>
      <trkpt lat="51.82630232535302639007568359375" lon="39.545320607721805572509765625">
        <ele>165</ele>
        <time>2017-01-15T07:40:32.000Z</time>
        <extensions>
          <ns3:TrackPointExtension/>
        </extensions>
      </trkpt>
      <trkpt lat="51.8265827000141143798828125" lon="39.54416214488446712493896484375">
        <ele>162.1999969482421875</ele>
        <time>2017-01-15T07:40:48.000Z</time>
        <extensions>
          <ns3:TrackPointExtension/>
        </extensions>
      </trkpt>
      <trkpt lat="51.826617233455181121826171875" lon="39.5439055748283863067626953125">
        <ele>161.8000030517578125</ele>
        <time>2017-01-15T07:40:51.000Z</time>
        <extensions>
          <ns3:TrackPointExtension/>
        </extensions>
      </trkpt>
      <trkpt lat="51.82674522511661052703857421875" lon="39.5431827194988727569580078125">
        <ele>162.600006103515625</ele>
        <time>2017-01-15T07:40:58.000Z</time>
        <extensions>
          <ns3:TrackPointExtension/>
        </extensions>
      </trkpt>
      <trkpt lat="51.8267756514251232147216796875" lon="39.5430103875696659088134765625">
        <ele>162.8000030517578125</ele>
        <time>2017-01-15T07:41:00.000Z</time>
        <extensions>
          <ns3:TrackPointExtension/>
        </extensions>
      </trkpt>
      <trkpt lat="51.8269516713917255401611328125" lon="39.542141854763031005859375">
        <ele>164</ele>
        <time>2017-01-15T07:41:11.000Z</time>
        <extensions>
          <ns3:TrackPointExtension/>
        </extensions>
      </trkpt>
      <trkpt lat="51.826968602836132049560546875" lon="39.54205761663615703582763671875">
        <ele>164</ele>
        <time>2017-01-15T07:41:12.000Z</time>
        <extensions>
          <ns3:TrackPointExtension/>
        </extensions>
      </trkpt>
      <trkpt lat="51.82704932056367397308349609375" lon="39.541581608355045318603515625">
        <ele>164.600006103515625</ele>
        <time>2017-01-15T07:41:17.000Z</time>
        <extensions>
          <ns3:TrackPointExtension/>
        </extensions>
      </trkpt>
      <trkpt lat="51.8270623125135898590087890625" lon="39.5415019802749156951904296875">
        <ele>164.600006103515625</ele>
        <time>2017-01-15T07:41:18.000Z</time>
        <extensions>
          <ns3:TrackPointExtension/>
        </extensions>
      </trkpt>
      <trkpt lat="51.82713515125215053558349609375" lon="39.5410101301968097686767578125">
        <ele>164.600006103515625</ele>
        <time>2017-01-15T07:41:24.000Z</time>
        <extensions>
          <ns3:TrackPointExtension/>
        </extensions>
      </trkpt>
      <trkpt lat="51.82725836522877216339111328125" lon="39.5403834991157054901123046875">
        <ele>164.8000030517578125</ele>
        <time>2017-01-15T07:41:34.000Z</time>
        <extensions>
          <ns3:TrackPointExtension/>
        </extensions>
      </trkpt>
      <trkpt lat="51.82727848179638385772705078125" lon="39.54031837172806262969970703125">
        <ele>164.8000030517578125</ele>
        <time>2017-01-15T07:41:35.000Z</time>
        <extensions>
          <ns3:TrackPointExtension/>
        </extensions>
      </trkpt>
      <trkpt lat="51.8274877779185771942138671875" lon="39.53953566960990428924560546875">
        <ele>162.8000030517578125</ele>
        <time>2017-01-15T07:41:46.000Z</time>
        <extensions>
          <ns3:TrackPointExtension/>
        </extensions>
      </trkpt>
      <trkpt lat="51.8276153504848480224609375" lon="39.5386638678610324859619140625">
        <ele>160.1999969482421875</ele>
        <time>2017-01-15T07:41:58.000Z</time>
        <extensions>
          <ns3:TrackPointExtension/>
        </extensions>
      </trkpt>
      <trkpt lat="51.82765969075262546539306640625" lon="39.53785476274788379669189453125">
        <ele>157.399993896484375</ele>
        <time>2017-01-15T07:42:08.000Z</time>
        <extensions>
          <ns3:TrackPointExtension/>
        </extensions>
      </trkpt>
      <trkpt lat="51.82766497135162353515625" lon="39.53777714632451534271240234375">
        <ele>157.1999969482421875</ele>
        <time>2017-01-15T07:42:09.000Z</time>
        <extensions>
          <ns3:TrackPointExtension/>
        </extensions>
      </trkpt>
      <trkpt lat="51.8276795558631420135498046875" lon="39.537705481052398681640625">
        <ele>157</ele>
        <time>2017-01-15T07:42:10.000Z</time>
        <extensions>
          <ns3:TrackPointExtension/>
        </extensions>
      </trkpt>
      <trkpt lat="51.82769908569753170013427734375" lon="39.53763775527477264404296875">
        <ele>156.8000030517578125</ele>
        <time>2017-01-15T07:42:11.000Z</time>
        <extensions>
          <ns3:TrackPointExtension/>
        </extensions>
      </trkpt>
      <trkpt lat="51.82772121392190456390380859375" lon="39.5375780761241912841796875">
        <ele>156.600006103515625</ele>
        <time>2017-01-15T07:42:12.000Z</time>
        <extensions>
          <ns3:TrackPointExtension/>
        </extensions>
      </trkpt>
      <trkpt lat="51.82774619199335575103759765625" lon="39.5375239290297031402587890625">
        <ele>156.399993896484375</ele>
        <time>2017-01-15T07:42:13.000Z</time>
        <extensions>
          <ns3:TrackPointExtension/>
        </extensions>
      </trkpt>
      <trkpt lat="51.82777293026447296142578125" lon="39.5374716259539127349853515625">
        <ele>156.1999969482421875</ele>
        <time>2017-01-15T07:42:14.000Z</time>
        <extensions>
          <ns3:TrackPointExtension/>
        </extensions>
      </trkpt>
      <trkpt lat="51.82779815979301929473876953125" lon="39.5374159701168537139892578125">
        <ele>156</ele>
        <time>2017-01-15T07:42:15.000Z</time>
        <extensions>
          <ns3:TrackPointExtension/>
        </extensions>
      </trkpt>
      <trkpt lat="51.827820874750614166259765625" lon="39.53735168091952800750732421875">
        <ele>155.8000030517578125</ele>
        <time>2017-01-15T07:42:16.000Z</time>
        <extensions>
          <ns3:TrackPointExtension/>
        </extensions>
      </trkpt>
      <trkpt lat="51.82784258387982845306396484375" lon="39.53728504478931427001953125">
        <ele>155.600006103515625</ele>
        <time>2017-01-15T07:42:17.000Z</time>
        <extensions>
          <ns3:TrackPointExtension/>
        </extensions>
      </trkpt>
      <trkpt lat="51.8279774487018585205078125" lon="39.53663066960871219635009765625">
        <ele>156</ele>
        <time>2017-01-15T07:42:28.000Z</time>
        <extensions>
          <ns3:TrackPointExtension/>
        </extensions>
      </trkpt>
      <trkpt lat="51.828195713460445404052734375" lon="39.5362619496881961822509765625">
        <ele>158.399993896484375</ele>
        <time>2017-01-15T07:42:42.000Z</time>
        <extensions>
          <ns3:TrackPointExtension/>
        </extensions>
      </trkpt>
      <trkpt lat="51.8285918422043323516845703125" lon="39.5363383926451206207275390625">
        <ele>160.600006103515625</ele>
        <time>2017-01-15T07:42:54.000Z</time>
        <extensions>
          <ns3:TrackPointExtension/>
        </extensions>
      </trkpt>
      <trkpt lat="51.82942491956055164337158203125" lon="39.5367910154163837432861328125">
        <ele>161.8000030517578125</ele>
        <time>2017-01-15T07:43:14.000Z</time>
        <extensions>
          <ns3:TrackPointExtension/>
        </extensions>
      </trkpt>
      <trkpt lat="51.83027819730341434478759765625" lon="39.5372278802096843719482421875">
        <ele>161.399993896484375</ele>
        <time>2017-01-15T07:43:35.000Z</time>
        <extensions>
          <ns3:TrackPointExtension/>
        </extensions>
      </trkpt>
      <trkpt lat="51.83107514865696430206298828125" lon="39.53759752213954925537109375">
        <ele>161.600006103515625</ele>
        <time>2017-01-15T07:43:55.000Z</time>
        <extensions>
          <ns3:TrackPointExtension/>
        </extensions>
      </trkpt>
      <trkpt lat="51.8319006823003292083740234375" lon="39.53796842135488986968994140625">
        <ele>160</ele>
        <time>2017-01-15T07:44:13.000Z</time>
        <extensions>
          <ns3:TrackPointExtension/>
        </extensions>
      </trkpt>
      <trkpt lat="51.8325705640017986297607421875" lon="39.53819096088409423828125">
        <ele>158.399993896484375</ele>
        <time>2017-01-15T07:44:31.000Z</time>
        <extensions>
          <ns3:TrackPointExtension/>
        </extensions>
      </trkpt>
      <trkpt lat="51.832769215106964111328125" lon="39.5377041399478912353515625">
        <ele>159.1999969482421875</ele>
        <time>2017-01-15T07:44:42.000Z</time>
        <extensions>
          <ns3:TrackPointExtension/>
        </extensions>
      </trkpt>
      <trkpt lat="51.8328242003917694091796875" lon="39.53744304366409778594970703125">
        <ele>159.399993896484375</ele>
        <time>2017-01-15T07:44:46.000Z</time>
        <extensions>
          <ns3:TrackPointExtension/>
        </extensions>
      </trkpt>
      <trkpt lat="51.83283551596105098724365234375" lon="39.53737556934356689453125">
        <ele>159.600006103515625</ele>
        <time>2017-01-15T07:44:47.000Z</time>
        <extensions>
          <ns3:TrackPointExtension/>
        </extensions>
      </trkpt>
      <trkpt lat="51.83302980847656726837158203125" lon="39.53641735017299652099609375">
        <ele>159.600006103515625</ele>
        <time>2017-01-15T07:45:00.000Z</time>
        <extensions>
          <ns3:TrackPointExtension/>
        </extensions>
      </trkpt>
      <trkpt lat="51.83314363472163677215576171875" lon="39.5358582772314548492431640625">
        <ele>158.8000030517578125</ele>
        <time>2017-01-15T07:45:08.000Z</time>
        <extensions>
          <ns3:TrackPointExtension/>
        </extensions>
      </trkpt>
      <trkpt lat="51.83336122892796993255615234375" lon="39.53458271920680999755859375">
        <ele>159</ele>
        <time>2017-01-15T07:45:25.000Z</time>
        <extensions>
          <ns3:TrackPointExtension/>
        </extensions>
      </trkpt>
      <trkpt lat="51.83354630134999752044677734375" lon="39.5335505716502666473388671875">
        <ele>158</ele>
        <time>2017-01-15T07:45:40.000Z</time>
        <extensions>
          <ns3:TrackPointExtension/>
        </extensions>
      </trkpt>
      <trkpt lat="51.83357496745884418487548828125" lon="39.5334023796021938323974609375">
        <ele>158</ele>
        <time>2017-01-15T07:45:42.000Z</time>
        <extensions>
          <ns3:TrackPointExtension/>
        </extensions>
      </trkpt>
      <trkpt lat="51.83358821086585521697998046875" lon="39.53333741985261440277099609375">
        <ele>158</ele>
        <time>2017-01-15T07:45:43.000Z</time>
        <extensions>
          <ns3:TrackPointExtension/>
        </extensions>
      </trkpt>
      <trkpt lat="51.833601035177707672119140625" lon="39.53327438794076442718505859375">
        <ele>158.1999969482421875</ele>
        <time>2017-01-15T07:45:44.000Z</time>
        <extensions>
          <ns3:TrackPointExtension/>
        </extensions>
      </trkpt>
      <trkpt lat="51.833817623555660247802734375" lon="39.53212916851043701171875">
        <ele>157.399993896484375</ele>
        <time>2017-01-15T07:46:01.000Z</time>
        <extensions>
          <ns3:TrackPointExtension/>
        </extensions>
      </trkpt>
      <trkpt lat="51.83402909897267818450927734375" lon="39.53099568374454975128173828125">
        <ele>157.399993896484375</ele>
        <time>2017-01-15T07:46:17.000Z</time>
        <extensions>
          <ns3:TrackPointExtension/>
        </extensions>
      </trkpt>
      <trkpt lat="51.834263540804386138916015625" lon="39.52980327419936656951904296875">
        <ele>156.8000030517578125</ele>
        <time>2017-01-15T07:46:34.000Z</time>
        <extensions>
          <ns3:TrackPointExtension/>
        </extensions>
      </trkpt>
      <trkpt lat="51.8343860842287540435791015625" lon="39.52916004694998264312744140625">
        <ele>156.8000030517578125</ele>
        <time>2017-01-15T07:46:45.000Z</time>
        <extensions>
          <ns3:TrackPointExtension/>
        </extensions>
      </trkpt>
      <trkpt lat="51.8345329351723194122314453125" lon="39.528478682041168212890625">
        <ele>157</ele>
        <time>2017-01-15T07:46:56.000Z</time>
        <extensions>
          <ns3:TrackPointExtension/>
        </extensions>
      </trkpt>
      <trkpt lat="51.834629662334918975830078125" lon="39.52785029076039791107177734375">
        <ele>154.399993896484375</ele>
        <time>2017-01-15T07:47:05.000Z</time>
        <extensions>
          <ns3:TrackPointExtension/>
        </extensions>
      </trkpt>
      <trkpt lat="51.8348313309252262115478515625" lon="39.52686466276645660400390625">
        <ele>151.399993896484375</ele>
        <time>2017-01-15T07:47:19.000Z</time>
        <extensions>
          <ns3:TrackPointExtension/>
        </extensions>
      </trkpt>
      <trkpt lat="51.83503073640167713165283203125" lon="39.5257924497127532958984375">
        <ele>149.8000030517578125</ele>
        <time>2017-01-15T07:47:34.000Z</time>
        <extensions>
          <ns3:TrackPointExtension/>
        </extensions>
      </trkpt>
      <trkpt lat="51.83517188765108585357666015625" lon="39.525040090084075927734375">
        <ele>149.600006103515625</ele>
        <time>2017-01-15T07:47:45.000Z</time>
        <extensions>
          <ns3:TrackPointExtension/>
        </extensions>
      </trkpt>
      <trkpt lat="51.835210360586643218994140625" lon="39.52491109259426593780517578125">
        <ele>150</ele>
        <time>2017-01-15T07:47:47.000Z</time>
        <extensions>
          <ns3:TrackPointExtension/>
        </extensions>
      </trkpt>
      <trkpt lat="51.83535461314022541046142578125" lon="39.5242835395038127899169921875">
        <ele>151.399993896484375</ele>
        <time>2017-01-15T07:47:57.000Z</time>
        <extensions>
          <ns3:TrackPointExtension/>
        </extensions>
      </trkpt>
      <trkpt lat="51.83549123816192150115966796875" lon="39.523779116570949554443359375">
        <ele>152.399993896484375</ele>
        <time>2017-01-15T07:48:06.000Z</time>
        <extensions>
          <ns3:TrackPointExtension/>
        </extensions>
      </trkpt>
      <trkpt lat="51.83587630279362201690673828125" lon="39.52370661310851573944091796875">
        <ele>154.1999969482421875</ele>
        <time>2017-01-15T07:48:18.000Z</time>
        <extensions>
          <ns3:TrackPointExtension/>
        </extensions>
      </trkpt>
      <trkpt lat="51.8365613557398319244384765625" lon="39.5240823738276958465576171875">
        <ele>155.600006103515625</ele>
        <time>2017-01-15T07:48:36.000Z</time>
        <extensions>
          <ns3:TrackPointExtension/>
        </extensions>
      </trkpt>
      <trkpt lat="51.8373160623013973236083984375" lon="39.52442041598260402679443359375">
        <ele>158.600006103515625</ele>
        <time>2017-01-15T07:48:55.000Z</time>
        <extensions>
          <ns3:TrackPointExtension/>
        </extensions>
      </trkpt>
      <trkpt lat="51.83789986185729503631591796875" lon="39.5247579552233219146728515625">
        <ele>160.8000030517578125</ele>
        <time>2017-01-15T07:49:08.000Z</time>
        <extensions>
          <ns3:TrackPointExtension/>
        </extensions>
      </trkpt>
      <trkpt lat="51.838579885661602020263671875" lon="39.5251089893281459808349609375">
        <ele>161.1999969482421875</ele>
        <time>2017-01-15T07:49:22.000Z</time>
        <extensions>
          <ns3:TrackPointExtension/>
        </extensions>
      </trkpt>
      <trkpt lat="51.838622130453586578369140625" lon="39.52512717805802822113037109375">
        <ele>161</ele>
        <time>2017-01-15T07:49:23.000Z</time>
        <extensions>
          <ns3:TrackPointExtension/>
        </extensions>
      </trkpt>
      <trkpt lat="51.839323528110980987548828125" lon="39.52548659406602382659912109375">
        <ele>159</ele>
        <time>2017-01-15T07:49:41.000Z</time>
        <extensions>
          <ns3:TrackPointExtension/>
        </extensions>
      </trkpt>
      <trkpt lat="51.839799620211124420166015625" lon="39.52575246803462505340576171875">
        <ele>157.399993896484375</ele>
        <time>2017-01-15T07:49:55.000Z</time>
        <extensions>
          <ns3:TrackPointExtension/>
        </extensions>
      </trkpt>
      <trkpt lat="51.84004059992730617523193359375" lon="39.52555700205266475677490234375">
        <ele>156.399993896484375</ele>
        <time>2017-01-15T07:50:04.000Z</time>
        <extensions>
          <ns3:TrackPointExtension/>
        </extensions>
      </trkpt>
      <trkpt lat="51.8402041308581829071044921875" lon="39.524974711239337921142578125">
        <ele>155.399993896484375</ele>
        <time>2017-01-15T07:50:14.000Z</time>
        <extensions>
          <ns3:TrackPointExtension/>
        </extensions>
      </trkpt>
      <trkpt lat="51.84031401760876178741455078125" lon="39.52457003295421600341796875">
        <ele>154.1999969482421875</ele>
        <time>2017-01-15T07:50:22.000Z</time>
        <extensions>
          <ns3:TrackPointExtension/>
        </extensions>
      </trkpt>
      <trkpt lat="51.84043387882411479949951171875" lon="39.52407139353454113006591796875">
        <ele>153.1999969482421875</ele>
        <time>2017-01-15T07:50:30.000Z</time>
        <extensions>
          <ns3:TrackPointExtension/>
        </extensions>
      </trkpt>
      <trkpt lat="51.84052691794931888580322265625" lon="39.5234202034771442413330078125">
        <ele>152</ele>
        <time>2017-01-15T07:50:41.000Z</time>
        <extensions>
          <ns3:TrackPointExtension/>
        </extensions>
      </trkpt>
      <trkpt lat="51.84075172059237957000732421875" lon="39.5225290395319461822509765625">
        <ele>151</ele>
        <time>2017-01-15T07:50:55.000Z</time>
        <extensions>
          <ns3:TrackPointExtension/>
        </extensions>
      </trkpt>
      <trkpt lat="51.84085347689688205718994140625" lon="39.52184281311929225921630859375">
        <ele>150.399993896484375</ele>
        <time>2017-01-15T07:51:05.000Z</time>
        <extensions>
          <ns3:TrackPointExtension/>
        </extensions>
      </trkpt>
      <trkpt lat="51.84097208082675933837890625" lon="39.52112096361815929412841796875">
        <ele>149.1999969482421875</ele>
        <time>2017-01-15T07:51:16.000Z</time>
        <extensions>
          <ns3:TrackPointExtension/>
        </extensions>
      </trkpt>
      <trkpt lat="51.8411023356020450592041015625" lon="39.52044420875608921051025390625">
        <ele>148.399993896484375</ele>
        <time>2017-01-15T07:51:26.000Z</time>
        <extensions>
          <ns3:TrackPointExtension/>
        </extensions>
      </trkpt>
      <trkpt lat="51.84121825732290744781494140625" lon="39.51988513581454753875732421875">
        <ele>149.1999969482421875</ele>
        <time>2017-01-15T07:51:34.000Z</time>
        <extensions>
          <ns3:TrackPointExtension/>
        </extensions>
      </trkpt>
      <trkpt lat="51.84123317711055278778076171875" lon="39.51981405727565288543701171875">
        <ele>149.1999969482421875</ele>
        <time>2017-01-15T07:51:35.000Z</time>
        <extensions>
          <ns3:TrackPointExtension/>
        </extensions>
      </trkpt>
      <trkpt lat="51.84124876745045185089111328125" lon="39.5197392068803310394287109375">
        <ele>149.1999969482421875</ele>
        <time>2017-01-15T07:51:36.000Z</time>
        <extensions>
          <ns3:TrackPointExtension/>
        </extensions>
      </trkpt>
      <trkpt lat="51.84141171164810657501220703125" lon="39.5190498791635036468505859375">
        <ele>149.600006103515625</ele>
        <time>2017-01-15T07:51:47.000Z</time>
        <extensions>
          <ns3:TrackPointExtension/>
        </extensions>
      </trkpt>
      <trkpt lat="51.8415251187980175018310546875" lon="39.51832140795886516571044921875">
        <ele>150.399993896484375</ele>
        <time>2017-01-15T07:51:58.000Z</time>
        <extensions>
          <ns3:TrackPointExtension/>
        </extensions>
      </trkpt>
      <trkpt lat="51.84154280461370944976806640625" lon="39.51822392642498016357421875">
        <ele>150.600006103515625</ele>
        <time>2017-01-15T07:51:59.000Z</time>
        <extensions>
          <ns3:TrackPointExtension/>
        </extensions>
      </trkpt>
      <trkpt lat="51.84162897057831287384033203125" lon="39.51783190481364727020263671875">
        <ele>151.399993896484375</ele>
        <time>2017-01-15T07:52:03.000Z</time>
        <extensions>
          <ns3:TrackPointExtension/>
        </extensions>
      </trkpt>
      <trkpt lat="51.84169619344174861907958984375" lon="39.51746377162635326385498046875">
        <ele>151.8000030517578125</ele>
        <time>2017-01-15T07:52:08.000Z</time>
        <extensions>
          <ns3:TrackPointExtension/>
        </extensions>
      </trkpt>
      <trkpt lat="51.84171010740101337432861328125" lon="39.51739068143069744110107421875">
        <ele>152</ele>
        <time>2017-01-15T07:52:09.000Z</time>
        <extensions>
          <ns3:TrackPointExtension/>
        </extensions>
      </trkpt>
      <trkpt lat="51.841722428798675537109375" lon="39.5173138193786144256591796875">
        <ele>152</ele>
        <time>2017-01-15T07:52:10.000Z</time>
        <extensions>
          <ns3:TrackPointExtension/>
        </extensions>
      </trkpt>
      <trkpt lat="51.841750927269458770751953125" lon="39.517152048647403717041015625">
        <ele>152.1999969482421875</ele>
        <time>2017-01-15T07:52:12.000Z</time>
        <extensions>
          <ns3:TrackPointExtension/>
        </extensions>
      </trkpt>
      <trkpt lat="51.84188176877796649932861328125" lon="39.5164159499108791351318359375">
        <ele>150.1999969482421875</ele>
        <time>2017-01-15T07:52:22.000Z</time>
        <extensions>
          <ns3:TrackPointExtension/>
        </extensions>
      </trkpt>
      <trkpt lat="51.84197044931352138519287109375" lon="39.51600029133260250091552734375">
        <ele>149.8000030517578125</ele>
        <time>2017-01-15T07:52:27.000Z</time>
        <extensions>
          <ns3:TrackPointExtension/>
        </extensions>
      </trkpt>
      <trkpt lat="51.84198637492954730987548828125" lon="39.5159224234521389007568359375">
        <ele>149.600006103515625</ele>
        <time>2017-01-15T07:52:28.000Z</time>
        <extensions>
          <ns3:TrackPointExtension/>
        </extensions>
      </trkpt>
      <trkpt lat="51.8420042283833026885986328125" lon="39.51584824360907077789306640625">
        <ele>149.399993896484375</ele>
        <time>2017-01-15T07:52:29.000Z</time>
        <extensions>
          <ns3:TrackPointExtension/>
        </extensions>
      </trkpt>
      <trkpt lat="51.84202292002737522125244140625" lon="39.515776745975017547607421875">
        <ele>149.399993896484375</ele>
        <time>2017-01-15T07:52:30.000Z</time>
        <extensions>
          <ns3:TrackPointExtension/>
        </extensions>
      </trkpt>
      <trkpt lat="51.84203599579632282257080078125" lon="39.51569686643779277801513671875">
        <ele>149.399993896484375</ele>
        <time>2017-01-15T07:52:31.000Z</time>
        <extensions>
          <ns3:TrackPointExtension/>
        </extensions>
      </trkpt>
      <trkpt lat="51.84210338629782199859619140625" lon="39.51526704244315624237060546875">
        <ele>149.8000030517578125</ele>
        <time>2017-01-15T07:52:37.000Z</time>
        <extensions>
          <ns3:TrackPointExtension/>
        </extensions>
      </trkpt>
      <trkpt lat="51.84211679734289646148681640625" lon="39.51519009657204151153564453125">
        <ele>150</ele>
        <time>2017-01-15T07:52:38.000Z</time>
        <extensions>
          <ns3:TrackPointExtension/>
        </extensions>
      </trkpt>
      <trkpt lat="51.8421296216547489166259765625" lon="39.51511784456670284271240234375">
        <ele>150.1999969482421875</ele>
        <time>2017-01-15T07:52:39.000Z</time>
        <extensions>
          <ns3:TrackPointExtension/>
        </extensions>
      </trkpt>
      <trkpt lat="51.8422070704400539398193359375" lon="39.5147181116044521331787109375">
        <ele>151</ele>
        <time>2017-01-15T07:52:44.000Z</time>
        <extensions>
          <ns3:TrackPointExtension/>
        </extensions>
      </trkpt>
      <trkpt lat="51.842223666608333587646484375" lon="39.51464317739009857177734375">
        <ele>151</ele>
        <time>2017-01-15T07:52:45.000Z</time>
        <extensions>
          <ns3:TrackPointExtension/>
        </extensions>
      </trkpt>
      <trkpt lat="51.8423532508313655853271484375" lon="39.51387983746826648712158203125">
        <ele>151.8000030517578125</ele>
        <time>2017-01-15T07:52:56.000Z</time>
        <extensions>
          <ns3:TrackPointExtension/>
        </extensions>
      </trkpt>
      <trkpt lat="51.8425591103732585906982421875" lon="39.513083808124065399169921875">
        <ele>151.600006103515625</ele>
        <time>2017-01-15T07:53:07.000Z</time>
        <extensions>
          <ns3:TrackPointExtension/>
        </extensions>
      </trkpt>
      <trkpt lat="51.842701099812984466552734375" lon="39.51218451373279094696044921875">
        <ele>149.8000030517578125</ele>
        <time>2017-01-15T07:53:20.000Z</time>
        <extensions>
          <ns3:TrackPointExtension/>
        </extensions>
      </trkpt>
      <trkpt lat="51.84286278672516345977783203125" lon="39.51127834618091583251953125">
        <ele>145.399993896484375</ele>
        <time>2017-01-15T07:53:33.000Z</time>
        <extensions>
          <ns3:TrackPointExtension/>
        </extensions>
      </trkpt>
      <trkpt lat="51.8429624475538730621337890625" lon="39.510309062898159027099609375">
        <ele>143.1999969482421875</ele>
        <time>2017-01-15T07:53:49.000Z</time>
        <extensions>
          <ns3:TrackPointExtension/>
        </extensions>
      </trkpt>
      <trkpt lat="51.84306931681931018829345703125" lon="39.50981679372489452362060546875">
        <ele>143.8000030517578125</ele>
        <time>2017-01-15T07:53:57.000Z</time>
        <extensions>
          <ns3:TrackPointExtension/>
        </extensions>
      </trkpt>
      <trkpt lat="51.843090020120143890380859375" lon="39.5097674243152141571044921875">
        <ele>143.600006103515625</ele>
        <time>2017-01-15T07:53:58.000Z</time>
        <extensions>
          <ns3:TrackPointExtension/>
        </extensions>
      </trkpt>
      <trkpt lat="51.8432185985147953033447265625" lon="39.50943969190120697021484375">
        <ele>143</ele>
        <time>2017-01-15T07:54:04.000Z</time>
        <extensions>
          <ns3:TrackPointExtension/>
        </extensions>
      </trkpt>
      <trkpt lat="51.84323376975953578948974609375" lon="39.50937389396131038665771484375">
        <ele>143</ele>
        <time>2017-01-15T07:54:05.000Z</time>
        <extensions>
          <ns3:TrackPointExtension/>
        </extensions>
      </trkpt>
      <trkpt lat="51.84324885718524456024169921875" lon="39.5093074254691600799560546875">
        <ele>143</ele>
        <time>2017-01-15T07:54:06.000Z</time>
        <extensions>
          <ns3:TrackPointExtension/>
        </extensions>
      </trkpt>
      <trkpt lat="51.84339319355785846710205078125" lon="39.5086419023573398590087890625">
        <ele>142</ele>
        <time>2017-01-15T07:54:16.000Z</time>
        <extensions>
          <ns3:TrackPointExtension/>
        </extensions>
      </trkpt>
      <trkpt lat="51.8435632623732089996337890625" lon="39.50775668956339359283447265625">
        <ele>142.8000030517578125</ele>
        <time>2017-01-15T07:54:28.000Z</time>
        <extensions>
          <ns3:TrackPointExtension/>
        </extensions>
      </trkpt>
      <trkpt lat="51.84358078055083751678466796875" lon="39.507672786712646484375">
        <ele>142.8000030517578125</ele>
        <time>2017-01-15T07:54:29.000Z</time>
        <extensions>
          <ns3:TrackPointExtension/>
        </extensions>
      </trkpt>
      <trkpt lat="51.84373517520725727081298828125" lon="39.5068505220115184783935546875">
        <ele>141.1999969482421875</ele>
        <time>2017-01-15T07:54:40.000Z</time>
        <extensions>
          <ns3:TrackPointExtension/>
        </extensions>
      </trkpt>
      <trkpt lat="51.8438775837421417236328125" lon="39.5061722584068775177001953125">
        <ele>139.600006103515625</ele>
        <time>2017-01-15T07:54:50.000Z</time>
        <extensions>
          <ns3:TrackPointExtension/>
        </extensions>
      </trkpt>
      <trkpt lat="51.84402518905699253082275390625" lon="39.50536248274147510528564453125">
        <ele>139</ele>
        <time>2017-01-15T07:55:00.000Z</time>
        <extensions>
          <ns3:TrackPointExtension/>
        </extensions>
      </trkpt>
      <trkpt lat="51.8440906517207622528076171875" lon="39.50486375950276851654052734375">
        <ele>140.600006103515625</ele>
        <time>2017-01-15T07:55:08.000Z</time>
        <extensions>
          <ns3:TrackPointExtension/>
        </extensions>
      </trkpt>
      <trkpt lat="51.84410112909972667694091796875" lon="39.5047842152416706085205078125">
        <ele>141</ele>
        <time>2017-01-15T07:55:09.000Z</time>
        <extensions>
          <ns3:TrackPointExtension/>
        </extensions>
      </trkpt>
      <trkpt lat="51.84414689429104328155517578125" lon="39.5045726560056209564208984375">
        <ele>141.600006103515625</ele>
        <time>2017-01-15T07:55:12.000Z</time>
        <extensions>
          <ns3:TrackPointExtension/>
        </extensions>
      </trkpt>
      <trkpt lat="51.84420975856482982635498046875" lon="39.5042950473725795745849609375">
        <ele>142.8000030517578125</ele>
        <time>2017-01-15T07:55:16.000Z</time>
        <extensions>
          <ns3:TrackPointExtension/>
        </extensions>
      </trkpt>
      <trkpt lat="51.844343952834606170654296875" lon="39.50352231971919536590576171875">
        <ele>145.1999969482421875</ele>
        <time>2017-01-15T07:55:25.000Z</time>
        <extensions>
          <ns3:TrackPointExtension/>
        </extensions>
      </trkpt>
      <trkpt lat="51.8443592078983783721923828125" lon="39.5034290291368961334228515625">
        <ele>145.1999969482421875</ele>
        <time>2017-01-15T07:55:26.000Z</time>
        <extensions>
          <ns3:TrackPointExtension/>
        </extensions>
      </trkpt>
      <trkpt lat="51.84450413100421428680419921875" lon="39.50270256958901882171630859375">
        <ele>145</ele>
        <time>2017-01-15T07:55:35.000Z</time>
        <extensions>
          <ns3:TrackPointExtension/>
        </extensions>
      </trkpt>
      <trkpt lat="51.84456431306898593902587890625" lon="39.50238221324980258941650390625">
        <ele>145</ele>
        <time>2017-01-15T07:55:39.000Z</time>
        <extensions>
          <ns3:TrackPointExtension/>
        </extensions>
      </trkpt>
      <trkpt lat="51.84460035525262355804443359375" lon="39.50222496874630451202392578125">
        <ele>144.600006103515625</ele>
        <time>2017-01-15T07:55:41.000Z</time>
        <extensions>
          <ns3:TrackPointExtension/>
        </extensions>
      </trkpt>
      <trkpt lat="51.84461426921188831329345703125" lon="39.50215053744614124298095703125">
        <ele>144.600006103515625</ele>
        <time>2017-01-15T07:55:42.000Z</time>
        <extensions>
          <ns3:TrackPointExtension/>
        </extensions>
      </trkpt>
      <trkpt lat="51.84479380957782268524169921875" lon="39.501139260828495025634765625">
        <ele>143.8000030517578125</ele>
        <time>2017-01-15T07:55:55.000Z</time>
        <extensions>
          <ns3:TrackPointExtension/>
        </extensions>
      </trkpt>
      <trkpt lat="51.84495759196579456329345703125" lon="39.5001158304512500762939453125">
        <ele>142.600006103515625</ele>
        <time>2017-01-15T07:56:09.000Z</time>
        <extensions>
          <ns3:TrackPointExtension/>
        </extensions>
      </trkpt>
      <trkpt lat="51.84500453062355518341064453125" lon="39.499865211546421051025390625">
        <ele>142.399993896484375</ele>
        <time>2017-01-15T07:56:13.000Z</time>
        <extensions>
          <ns3:TrackPointExtension/>
        </extensions>
      </trkpt>
      <trkpt lat="51.84501760639250278472900390625" lon="39.499797485768795013427734375">
        <ele>142.399993896484375</ele>
        <time>2017-01-15T07:56:14.000Z</time>
        <extensions>
          <ns3:TrackPointExtension/>
        </extensions>
      </trkpt>
      <trkpt lat="51.8450309336185455322265625" lon="39.4997359625995159149169921875">
        <ele>142.399993896484375</ele>
        <time>2017-01-15T07:56:15.000Z</time>
        <extensions>
          <ns3:TrackPointExtension/>
        </extensions>
      </trkpt>
      <trkpt lat="51.8450443446636199951171875" lon="39.4996699132025241851806640625">
        <ele>142.399993896484375</ele>
        <time>2017-01-15T07:56:16.000Z</time>
        <extensions>
          <ns3:TrackPointExtension/>
        </extensions>
      </trkpt>
      <trkpt lat="51.84505649842321872711181640625" lon="39.4996075518429279327392578125">
        <ele>142.1999969482421875</ele>
        <time>2017-01-15T07:56:17.000Z</time>
        <extensions>
          <ns3:TrackPointExtension/>
        </extensions>
      </trkpt>
      <trkpt lat="51.84529035352170467376708984375" lon="39.4984089396893978118896484375">
        <ele>138.600006103515625</ele>
        <time>2017-01-15T07:56:34.000Z</time>
        <extensions>
          <ns3:TrackPointExtension/>
        </extensions>
      </trkpt>
      <trkpt lat="51.8453018367290496826171875" lon="39.49834247119724750518798828125">
        <ele>138.1999969482421875</ele>
        <time>2017-01-15T07:56:35.000Z</time>
        <extensions>
          <ns3:TrackPointExtension/>
        </extensions>
      </trkpt>
      <trkpt lat="51.8455346859991550445556640625" lon="39.49704377911984920501708984375">
        <ele>137</ele>
        <time>2017-01-15T07:56:54.000Z</time>
        <extensions>
          <ns3:TrackPointExtension/>
        </extensions>
      </trkpt>
      <trkpt lat="51.84574817307293415069580078125" lon="39.49589361436665058135986328125">
        <ele>140</ele>
        <time>2017-01-15T07:57:09.000Z</time>
        <extensions>
          <ns3:TrackPointExtension/>
        </extensions>
      </trkpt>
      <trkpt lat="51.84599745087325572967529296875" lon="39.4946981035172939300537109375">
        <ele>143.399993896484375</ele>
        <time>2017-01-15T07:57:25.000Z</time>
        <extensions>
          <ns3:TrackPointExtension/>
        </extensions>
      </trkpt>
      <trkpt lat="51.8462209962308406829833984375" lon="39.49359160847961902618408203125">
        <ele>146.1999969482421875</ele>
        <time>2017-01-15T07:57:40.000Z</time>
        <extensions>
          <ns3:TrackPointExtension/>
        </extensions>
      </trkpt>
      <trkpt lat="51.8464191444218158721923828125" lon="39.4924658350646495819091796875">
        <ele>143.399993896484375</ele>
        <time>2017-01-15T07:57:55.000Z</time>
        <extensions>
          <ns3:TrackPointExtension/>
        </extensions>
      </trkpt>
      <trkpt lat="51.84643833898007869720458984375" lon="39.4923950918018817901611328125">
        <ele>143.1999969482421875</ele>
        <time>2017-01-15T07:57:56.000Z</time>
        <extensions>
          <ns3:TrackPointExtension/>
        </extensions>
      </trkpt>
      <trkpt lat="51.846645288169384002685546875" lon="39.49128423817455768585205078125">
        <ele>143.8000030517578125</ele>
        <time>2017-01-15T07:58:10.000Z</time>
        <extensions>
          <ns3:TrackPointExtension/>
        </extensions>
      </trkpt>
      <trkpt lat="51.84680462814867496490478515625" lon="39.4904706068336963653564453125">
        <ele>145.1999969482421875</ele>
        <time>2017-01-15T07:58:20.000Z</time>
        <extensions>
          <ns3:TrackPointExtension/>
        </extensions>
      </trkpt>
      <trkpt lat="51.84681669808924198150634765625" lon="39.49039190076291561126708984375">
        <ele>145</ele>
        <time>2017-01-15T07:58:21.000Z</time>
        <extensions>
          <ns3:TrackPointExtension/>
        </extensions>
      </trkpt>
      <trkpt lat="51.846922896802425384521484375" lon="39.48983944952487945556640625">
        <ele>143.399993896484375</ele>
        <time>2017-01-15T07:58:28.000Z</time>
        <extensions>
          <ns3:TrackPointExtension/>
        </extensions>
      </trkpt>
      <trkpt lat="51.8471671454608440399169921875" lon="39.4885816611349582672119140625">
        <ele>138.8000030517578125</ele>
        <time>2017-01-15T07:58:44.000Z</time>
        <extensions>
          <ns3:TrackPointExtension/>
        </extensions>
      </trkpt>
      <trkpt lat="51.8472942151129245758056640625" lon="39.48802250437438488006591796875">
        <ele>136</ele>
        <time>2017-01-15T07:58:52.000Z</time>
        <extensions>
          <ns3:TrackPointExtension/>
        </extensions>
      </trkpt>
      <trkpt lat="51.8473270721733570098876953125" lon="39.48781480081379413604736328125">
        <ele>135.1999969482421875</ele>
        <time>2017-01-15T07:58:55.000Z</time>
        <extensions>
          <ns3:TrackPointExtension/>
        </extensions>
      </trkpt>
      <trkpt lat="51.8473780341446399688720703125" lon="39.48760458268225193023681640625">
        <ele>134.399993896484375</ele>
        <time>2017-01-15T07:58:58.000Z</time>
        <extensions>
          <ns3:TrackPointExtension/>
        </extensions>
      </trkpt>
      <trkpt lat="51.84739354066550731658935546875" lon="39.487521350383758544921875">
        <ele>134.1999969482421875</ele>
        <time>2017-01-15T07:58:59.000Z</time>
        <extensions>
          <ns3:TrackPointExtension/>
        </extensions>
      </trkpt>
      <trkpt lat="51.8474072031676769256591796875" lon="39.48743476532399654388427734375">
        <ele>134.1999969482421875</ele>
        <time>2017-01-15T07:59:00.000Z</time>
        <extensions>
          <ns3:TrackPointExtension/>
        </extensions>
      </trkpt>
      <trkpt lat="51.84748792089521884918212890625" lon="39.486881308257579803466796875">
        <ele>133.399993896484375</ele>
        <time>2017-01-15T07:59:07.000Z</time>
        <extensions>
          <ns3:TrackPointExtension/>
        </extensions>
      </trkpt>
      <trkpt lat="51.84749915264546871185302734375" lon="39.486803524196147918701171875">
        <ele>133.399993896484375</ele>
        <time>2017-01-15T07:59:08.000Z</time>
        <extensions>
          <ns3:TrackPointExtension/>
        </extensions>
      </trkpt>
      <trkpt lat="51.8477565608918666839599609375" lon="39.48540844023227691650390625">
        <ele>133.1999969482421875</ele>
        <time>2017-01-15T07:59:26.000Z</time>
        <extensions>
          <ns3:TrackPointExtension/>
        </extensions>
      </trkpt>
      <trkpt lat="51.84800206683576107025146484375" lon="39.48407462798058986663818359375">
        <ele>137.1999969482421875</ele>
        <time>2017-01-15T07:59:43.000Z</time>
        <extensions>
          <ns3:TrackPointExtension/>
        </extensions>
      </trkpt>
      <trkpt lat="51.84804749675095081329345703125" lon="39.4838462211191654205322265625">
        <ele>137.1999969482421875</ele>
        <time>2017-01-15T07:59:46.000Z</time>
        <extensions>
          <ns3:TrackPointExtension/>
        </extensions>
      </trkpt>
      <trkpt lat="51.848063170909881591796875" lon="39.4837711192667484283447265625">
        <ele>137.1999969482421875</ele>
        <time>2017-01-15T07:59:47.000Z</time>
        <extensions>
          <ns3:TrackPointExtension/>
        </extensions>
      </trkpt>
      <trkpt lat="51.848299205303192138671875" lon="39.48262640275061130523681640625">
        <ele>138.1999969482421875</ele>
        <time>2017-01-15T08:00:02.000Z</time>
        <extensions>
          <ns3:TrackPointExtension/>
        </extensions>
      </trkpt>
      <trkpt lat="51.848478578031063079833984375" lon="39.4814546965062618255615234375">
        <ele>136.399993896484375</ele>
        <time>2017-01-15T08:00:17.000Z</time>
        <extensions>
          <ns3:TrackPointExtension/>
        </extensions>
      </trkpt>
      <trkpt lat="51.84864730574190616607666015625" lon="39.4812666065990924835205078125">
        <ele>135.1999969482421875</ele>
        <time>2017-01-15T08:00:26.000Z</time>
        <extensions>
          <ns3:TrackPointExtension/>
        </extensions>
      </trkpt>
      <trkpt lat="51.8486785702407360076904296875" lon="39.481280185282230377197265625">
        <ele>135.1999969482421875</ele>
        <time>2017-01-15T08:00:27.000Z</time>
        <extensions>
          <ns3:TrackPointExtension/>
        </extensions>
      </trkpt>
      <trkpt lat="51.84871519915759563446044921875" lon="39.4812977872788906097412109375">
        <ele>135</ele>
        <time>2017-01-15T08:00:28.000Z</time>
        <extensions>
          <ns3:TrackPointExtension/>
        </extensions>
      </trkpt>
      <trkpt lat="51.84934468008577823638916015625" lon="39.48165410198271274566650390625">
        <ele>133.399993896484375</ele>
        <time>2017-01-15T08:00:42.000Z</time>
        <extensions>
          <ns3:TrackPointExtension/>
        </extensions>
      </trkpt>
      <trkpt lat="51.85002763755619525909423828125" lon="39.4819777272641658782958984375">
        <ele>132</ele>
        <time>2017-01-15T08:00:56.000Z</time>
        <extensions>
          <ns3:TrackPointExtension/>
        </extensions>
      </trkpt>
      <trkpt lat="51.8508367426693439483642578125" lon="39.482387602329254150390625">
        <ele>129.399993896484375</ele>
        <time>2017-01-15T08:01:14.000Z</time>
        <extensions>
          <ns3:TrackPointExtension/>
        </extensions>
      </trkpt>
      <trkpt lat="51.851278804242610931396484375" lon="39.4826187752187252044677734375">
        <ele>130.8000030517578125</ele>
        <time>2017-01-15T08:01:24.000Z</time>
        <extensions>
          <ns3:TrackPointExtension/>
        </extensions>
      </trkpt>
      <trkpt lat="51.85132130049169063568115234375" lon="39.48263159953057765960693359375">
        <ele>130.8000030517578125</ele>
        <time>2017-01-15T08:01:25.000Z</time>
        <extensions>
          <ns3:TrackPointExtension/>
        </extensions>
      </trkpt>
      <trkpt lat="51.85163897462189197540283203125" lon="39.48276202194392681121826171875">
        <ele>131.399993896484375</ele>
        <time>2017-01-15T08:01:32.000Z</time>
        <extensions>
          <ns3:TrackPointExtension/>
        </extensions>
      </trkpt>
      <trkpt lat="51.851713657379150390625" lon="39.48280376382172107696533203125">
        <ele>131.600006103515625</ele>
        <time>2017-01-15T08:01:34.000Z</time>
        <extensions>
          <ns3:TrackPointExtension/>
        </extensions>
      </trkpt>
      <trkpt lat="51.85175280086696147918701171875" lon="39.4828261435031890869140625">
        <ele>131.600006103515625</ele>
        <time>2017-01-15T08:01:35.000Z</time>
        <extensions>
          <ns3:TrackPointExtension/>
        </extensions>
      </trkpt>
      <trkpt lat="51.85199319384992122650146484375" lon="39.48272363282740116119384765625">
        <ele>130.399993896484375</ele>
        <time>2017-01-15T08:01:44.000Z</time>
        <extensions>
          <ns3:TrackPointExtension/>
        </extensions>
      </trkpt>
      <trkpt lat="51.85197525657713413238525390625" lon="39.4822389073669910430908203125">
        <ele>128.399993896484375</ele>
        <time>2017-01-15T08:01:54.000Z</time>
        <extensions>
          <ns3:TrackPointExtension/>
        </extensions>
      </trkpt>
      <trkpt lat="51.8519035913050174713134765625" lon="39.4816540181636810302734375">
        <ele>127.1999969482421875</ele>
        <time>2017-01-15T08:02:02.000Z</time>
        <extensions>
          <ns3:TrackPointExtension/>
        </extensions>
      </trkpt>
      <trkpt lat="51.8521211855113506317138671875" lon="39.4806872494518756866455078125">
        <ele>125</ele>
        <time>2017-01-15T08:02:14.000Z</time>
        <extensions>
          <ns3:TrackPointExtension/>
        </extensions>
      </trkpt>
      <trkpt lat="51.852257139980792999267578125" lon="39.480028264224529266357421875">
        <ele>124.1999969482421875</ele>
        <time>2017-01-15T08:02:22.000Z</time>
        <extensions>
          <ns3:TrackPointExtension/>
        </extensions>
      </trkpt>
      <trkpt lat="51.852265186607837677001953125" lon="39.47994880378246307373046875">
        <ele>124.1999969482421875</ele>
        <time>2017-01-15T08:02:23.000Z</time>
        <extensions>
          <ns3:TrackPointExtension/>
        </extensions>
      </trkpt>
      <trkpt lat="51.852275244891643524169921875" lon="39.47987412102520465850830078125">
        <ele>124.1999969482421875</ele>
        <time>2017-01-15T08:02:24.000Z</time>
        <extensions>
          <ns3:TrackPointExtension/>
        </extensions>
      </trkpt>
      <trkpt lat="51.852297373116016387939453125" lon="39.4796297885477542877197265625">
        <ele>124.1999969482421875</ele>
        <time>2017-01-15T08:02:27.000Z</time>
        <extensions>
          <ns3:TrackPointExtension/>
        </extensions>
      </trkpt>
      <trkpt lat="51.85231380164623260498046875" lon="39.479462988674640655517578125">
        <ele>124</ele>
        <time>2017-01-15T08:02:29.000Z</time>
        <extensions>
          <ns3:TrackPointExtension/>
        </extensions>
      </trkpt>
      <trkpt lat="51.85231941752135753631591796875" lon="39.47938797064125537872314453125">
        <ele>124</ele>
        <time>2017-01-15T08:02:30.000Z</time>
        <extensions>
          <ns3:TrackPointExtension/>
        </extensions>
      </trkpt>
      <trkpt lat="51.85231992043554782867431640625" lon="39.479308426380157470703125">
        <ele>124</ele>
        <time>2017-01-15T08:02:31.000Z</time>
        <extensions>
          <ns3:TrackPointExtension/>
        </extensions>
      </trkpt>
      <trkpt lat="51.85232478193938732147216796875" lon="39.47922938503324985504150390625">
        <ele>124</ele>
        <time>2017-01-15T08:02:32.000Z</time>
        <extensions>
          <ns3:TrackPointExtension/>
        </extensions>
      </trkpt>
      <trkpt lat="51.852330900728702545166015625" lon="39.47913986630737781524658203125">
        <ele>124</ele>
        <time>2017-01-15T08:02:33.000Z</time>
        <extensions>
          <ns3:TrackPointExtension/>
        </extensions>
      </trkpt>
      <trkpt lat="51.85233299620449542999267578125" lon="39.4790420494973659515380859375">
        <ele>124</ele>
        <time>2017-01-15T08:02:34.000Z</time>
        <extensions>
          <ns3:TrackPointExtension/>
        </extensions>
      </trkpt>
      <trkpt lat="51.85243156738579273223876953125" lon="39.4778498075902462005615234375">
        <ele>123</ele>
        <time>2017-01-15T08:02:46.000Z</time>
        <extensions>
          <ns3:TrackPointExtension/>
        </extensions>
      </trkpt>
      <trkpt lat="51.8527964316308498382568359375" lon="39.4766310788691043853759765625">
        <ele>123</ele>
        <time>2017-01-15T08:03:02.000Z</time>
        <extensions>
          <ns3:TrackPointExtension/>
        </extensions>
      </trkpt>
      <trkpt lat="51.85338710434734821319580078125" lon="39.47536901570856571197509765625">
        <ele>122.40000152587890625</ele>
        <time>2017-01-15T08:03:19.000Z</time>
        <extensions>
          <ns3:TrackPointExtension/>
        </extensions>
      </trkpt>
      <trkpt lat="51.85378926806151866912841796875" lon="39.4744040071964263916015625">
        <ele>122.1999969482421875</ele>
        <time>2017-01-15T08:03:32.000Z</time>
        <extensions>
          <ns3:TrackPointExtension/>
        </extensions>
      </trkpt>
      <trkpt lat="51.8538471870124340057373046875" lon="39.47365240193903446197509765625">
        <ele>121.40000152587890625</ele>
        <time>2017-01-15T08:03:43.000Z</time>
        <extensions>
          <ns3:TrackPointExtension/>
        </extensions>
      </trkpt>
      <trkpt lat="51.85381793417036533355712890625" lon="39.4732050597667694091796875">
        <ele>120.8000030517578125</ele>
        <time>2017-01-15T08:03:49.000Z</time>
        <extensions>
          <ns3:TrackPointExtension/>
        </extensions>
      </trkpt>
      <trkpt lat="51.85383729636669158935546875" lon="39.47225899435579776763916015625">
        <ele>120</ele>
        <time>2017-01-15T08:04:00.000Z</time>
        <extensions>
          <ns3:TrackPointExtension/>
        </extensions>
      </trkpt>
      <trkpt lat="51.8538287468254566192626953125" lon="39.47217576205730438232421875">
        <ele>120</ele>
        <time>2017-01-15T08:04:01.000Z</time>
        <extensions>
          <ns3:TrackPointExtension/>
        </extensions>
      </trkpt>
      <trkpt lat="51.853816173970699310302734375" lon="39.47209655307233333587646484375">
        <ele>119.8000030517578125</ele>
        <time>2017-01-15T08:04:02.000Z</time>
        <extensions>
          <ns3:TrackPointExtension/>
        </extensions>
      </trkpt>
      <trkpt lat="51.853611655533313751220703125" lon="39.4710266031324863433837890625">
        <ele>121</ele>
        <time>2017-01-15T08:04:15.000Z</time>
        <extensions>
          <ns3:TrackPointExtension/>
        </extensions>
      </trkpt>
      <trkpt lat="51.85358307324349880218505859375" lon="39.4704623334109783172607421875">
        <ele>121.1999969482421875</ele>
        <time>2017-01-15T08:04:22.000Z</time>
        <extensions>
          <ns3:TrackPointExtension/>
        </extensions>
      </trkpt>
      <trkpt lat="51.85367661528289318084716796875" lon="39.469414092600345611572265625">
        <ele>122.1999969482421875</ele>
        <time>2017-01-15T08:04:34.000Z</time>
        <extensions>
          <ns3:TrackPointExtension/>
        </extensions>
      </trkpt>
      <trkpt lat="51.8536936305463314056396484375" lon="39.4692539982497692108154296875">
        <ele>122.40000152587890625</ele>
        <time>2017-01-15T08:04:36.000Z</time>
        <extensions>
          <ns3:TrackPointExtension/>
        </extensions>
      </trkpt>
      <trkpt lat="51.85379345901310443878173828125" lon="39.4681247882544994354248046875">
        <ele>122.40000152587890625</ele>
        <time>2017-01-15T08:04:48.000Z</time>
        <extensions>
          <ns3:TrackPointExtension/>
        </extensions>
      </trkpt>
      <trkpt lat="51.8537844903767108917236328125" lon="39.46722800843417644500732421875">
        <ele>121.59999847412109375</ele>
        <time>2017-01-15T08:04:57.000Z</time>
        <extensions>
          <ns3:TrackPointExtension/>
        </extensions>
      </trkpt>
      <trkpt lat="51.853694133460521697998046875" lon="39.46656852029263973236083984375">
        <ele>120.40000152587890625</ele>
        <time>2017-01-15T08:05:04.000Z</time>
        <extensions>
          <ns3:TrackPointExtension/>
        </extensions>
      </trkpt>
      <trkpt lat="51.85368784703314304351806640625" lon="39.4661842100322246551513671875">
        <ele>120</ele>
        <time>2017-01-15T08:05:08.000Z</time>
        <extensions>
          <ns3:TrackPointExtension/>
        </extensions>
      </trkpt>
      <trkpt lat="51.853755824267864227294921875" lon="39.46551851928234100341796875">
        <ele>119.59999847412109375</ele>
        <time>2017-01-15T08:05:15.000Z</time>
        <extensions>
          <ns3:TrackPointExtension/>
        </extensions>
      </trkpt>
      <trkpt lat="51.853974759578704833984375" lon="39.46469935588538646697998046875">
        <ele>119.1999969482421875</ele>
        <time>2017-01-15T08:05:26.000Z</time>
        <extensions>
          <ns3:TrackPointExtension/>
        </extensions>
      </trkpt>
      <trkpt lat="51.854187659919261932373046875" lon="39.463539384305477142333984375">
        <ele>119</ele>
        <time>2017-01-15T08:05:41.000Z</time>
        <extensions>
          <ns3:TrackPointExtension/>
        </extensions>
      </trkpt>
      <trkpt lat="51.85421087779104709625244140625" lon="39.46314275264739990234375">
        <ele>118.59999847412109375</ele>
        <time>2017-01-15T08:05:46.000Z</time>
        <extensions>
          <ns3:TrackPointExtension/>
        </extensions>
      </trkpt>
      <trkpt lat="51.85420610010623931884765625" lon="39.46306169964373111724853515625">
        <ele>118.40000152587890625</ele>
        <time>2017-01-15T08:05:47.000Z</time>
        <extensions>
          <ns3:TrackPointExtension/>
        </extensions>
      </trkpt>
      <trkpt lat="51.85419738292694091796875" lon="39.46298089809715747833251953125">
        <ele>118.40000152587890625</ele>
        <time>2017-01-15T08:05:48.000Z</time>
        <extensions>
          <ns3:TrackPointExtension/>
        </extensions>
      </trkpt>
      <trkpt lat="51.85398255474865436553955078125" lon="39.4618869759142398834228515625">
        <ele>118</ele>
        <time>2017-01-15T08:06:02.000Z</time>
        <extensions>
          <ns3:TrackPointExtension/>
        </extensions>
      </trkpt>
      <trkpt lat="51.853760518133640289306640625" lon="39.4603812508285045623779296875">
        <ele>119.59999847412109375</ele>
        <time>2017-01-15T08:06:21.000Z</time>
        <extensions>
          <ns3:TrackPointExtension/>
        </extensions>
      </trkpt>
      <trkpt lat="51.8537687323987483978271484375" lon="39.46030505932867527008056640625">
        <ele>119.59999847412109375</ele>
        <time>2017-01-15T08:06:22.000Z</time>
        <extensions>
          <ns3:TrackPointExtension/>
        </extensions>
      </trkpt>
      <trkpt lat="51.8537829816341400146484375" lon="39.46022928692400455474853515625">
        <ele>119.59999847412109375</ele>
        <time>2017-01-15T08:06:23.000Z</time>
        <extensions>
          <ns3:TrackPointExtension/>
        </extensions>
      </trkpt>
      <trkpt lat="51.853838302195072174072265625" lon="39.46000867523252964019775390625">
        <ele>119.8000030517578125</ele>
        <time>2017-01-15T08:06:26.000Z</time>
        <extensions>
          <ns3:TrackPointExtension/>
        </extensions>
      </trkpt>
      <trkpt lat="51.85402731411159038543701171875" lon="39.4592637754976749420166015625">
        <ele>121</ele>
        <time>2017-01-15T08:06:38.000Z</time>
        <extensions>
          <ns3:TrackPointExtension/>
        </extensions>
      </trkpt>
      <trkpt lat="51.854060590267181396484375" lon="39.4586230628192424774169921875">
        <ele>121.1999969482421875</ele>
        <time>2017-01-15T08:06:51.000Z</time>
        <extensions>
          <ns3:TrackPointExtension/>
        </extensions>
      </trkpt>
      <trkpt lat="51.8540096282958984375" lon="39.45843220688402652740478515625">
        <ele>122</ele>
        <time>2017-01-15T08:07:03.000Z</time>
        <extensions>
          <ns3:TrackPointExtension/>
        </extensions>
      </trkpt>
      <trkpt lat="51.85404022224247455596923828125" lon="39.4583960808813571929931640625">
        <ele>122.1999969482421875</ele>
        <time>2017-01-15T08:07:13.000Z</time>
        <extensions>
          <ns3:TrackPointExtension/>
        </extensions>
      </trkpt>
      <trkpt lat="51.85391776263713836669921875" lon="39.45841200649738311767578125">
        <ele>121.59999847412109375</ele>
        <time>2017-01-15T08:20:25.000Z</time>
        <extensions>
          <ns3:TrackPointExtension/>
        </extensions>
      </trkpt>
      <trkpt lat="51.8538968078792095184326171875" lon="39.4584051333367824554443359375">
        <ele>121.59999847412109375</ele>
        <time>2017-01-15T08:20:26.000Z</time>
        <extensions>
          <ns3:TrackPointExtension/>
        </extensions>
      </trkpt>
      <trkpt lat="51.8534864298999309539794921875" lon="39.458499513566493988037109375">
        <ele>120.1999969482421875</ele>
        <time>2017-01-15T08:20:39.000Z</time>
        <extensions>
          <ns3:TrackPointExtension/>
        </extensions>
      </trkpt>
      <trkpt lat="51.85319951735436916351318359375" lon="39.45853044278919696807861328125">
        <ele>119.59999847412109375</ele>
        <time>2017-01-15T08:20:46.000Z</time>
        <extensions>
          <ns3:TrackPointExtension/>
        </extensions>
      </trkpt>
      <trkpt lat="51.853041350841522216796875" lon="39.458522312343120574951171875">
        <ele>120.40000152587890625</ele>
        <time>2017-01-15T08:20:50.000Z</time>
        <extensions>
          <ns3:TrackPointExtension/>
        </extensions>
      </trkpt>
      <trkpt lat="51.85253868810832500457763671875" lon="39.45812844671308994293212890625">
        <ele>124.40000152587890625</ele>
        <time>2017-01-15T08:21:04.000Z</time>
        <extensions>
          <ns3:TrackPointExtension/>
        </extensions>
      </trkpt>
      <trkpt lat="51.85239560902118682861328125" lon="39.45797824300825595855712890625">
        <ele>125.59999847412109375</ele>
        <time>2017-01-15T08:21:08.000Z</time>
        <extensions>
          <ns3:TrackPointExtension/>
        </extensions>
      </trkpt>
      <trkpt lat="51.85183796100318431854248046875" lon="39.45770390331745147705078125">
        <ele>130.600006103515625</ele>
        <time>2017-01-15T08:21:22.000Z</time>
        <extensions>
          <ns3:TrackPointExtension/>
        </extensions>
      </trkpt>
      <trkpt lat="51.85158432461321353912353515625" lon="39.4575713016092777252197265625">
        <ele>132.8000030517578125</ele>
        <time>2017-01-15T08:21:28.000Z</time>
        <extensions>
          <ns3:TrackPointExtension/>
        </extensions>
      </trkpt>
      <trkpt lat="51.85107856057584285736083984375" lon="39.4569074548780918121337890625">
        <ele>133.399993896484375</ele>
        <time>2017-01-15T08:21:43.000Z</time>
        <extensions>
          <ns3:TrackPointExtension/>
        </extensions>
      </trkpt>
      <trkpt lat="51.850687377154827117919921875" lon="39.45609063841402530670166015625">
        <ele>133</ele>
        <time>2017-01-15T08:21:57.000Z</time>
        <extensions>
          <ns3:TrackPointExtension/>
        </extensions>
      </trkpt>
      <trkpt lat="51.85038018040359020233154296875" lon="39.4554976187646389007568359375">
        <ele>132.1999969482421875</ele>
        <time>2017-01-15T08:22:10.000Z</time>
        <extensions>
          <ns3:TrackPointExtension/>
        </extensions>
      </trkpt>
      <trkpt lat="51.85036718845367431640625" lon="39.45546082220971584320068359375">
        <ele>132.1999969482421875</ele>
        <time>2017-01-15T08:22:16.000Z</time>
        <extensions>
          <ns3:TrackPointExtension/>
        </extensions>
      </trkpt>
      <trkpt lat="51.8502791784703731536865234375" lon="39.4552548788487911224365234375">
        <ele>131.8000030517578125</ele>
        <time>2017-01-15T08:24:08.000Z</time>
        <extensions>
          <ns3:TrackPointExtension/>
        </extensions>
      </trkpt>
      <trkpt lat="51.84993795119225978851318359375" lon="39.4549794495105743408203125">
        <ele>130.600006103515625</ele>
        <time>2017-01-15T08:24:22.000Z</time>
        <extensions>
          <ns3:TrackPointExtension/>
        </extensions>
      </trkpt>
      <trkpt lat="51.8494574166834354400634765625" lon="39.4546480290591716766357421875">
        <ele>129.600006103515625</ele>
        <time>2017-01-15T08:24:40.000Z</time>
        <extensions>
          <ns3:TrackPointExtension/>
        </extensions>
      </trkpt>
      <trkpt lat="51.8493866734206676483154296875" lon="39.45458474569022655487060546875">
        <ele>129.600006103515625</ele>
        <time>2017-01-15T08:24:47.000Z</time>
        <extensions>
          <ns3:TrackPointExtension/>
        </extensions>
      </trkpt>
      <trkpt lat="51.8493144214153289794921875" lon="39.454525150358676910400390625">
        <ele>129.399993896484375</ele>
        <time>2017-01-15T08:24:52.000Z</time>
        <extensions>
          <ns3:TrackPointExtension/>
        </extensions>
      </trkpt>
      <trkpt lat="51.849029101431369781494140625" lon="39.4544311054050922393798828125">
        <ele>128.8000030517578125</ele>
        <time>2017-01-15T08:25:07.000Z</time>
        <extensions>
          <ns3:TrackPointExtension/>
        </extensions>
      </trkpt>
      <trkpt lat="51.84892675839364528656005859375" lon="39.4544227235019207000732421875">
        <ele>128.600006103515625</ele>
        <time>2017-01-15T08:25:17.000Z</time>
        <extensions>
          <ns3:TrackPointExtension/>
        </extensions>
      </trkpt>
      <trkpt lat="51.8490433506667613983154296875" lon="39.45445708930492401123046875">
        <ele>129</ele>
        <time>2017-01-15T08:25:30.000Z</time>
        <extensions>
          <ns3:TrackPointExtension/>
        </extensions>
      </trkpt>
      <trkpt lat="51.8493685685098171234130859375" lon="39.45459245704114437103271484375">
        <ele>129.399993896484375</ele>
        <time>2017-01-15T08:25:46.000Z</time>
        <extensions>
          <ns3:TrackPointExtension/>
        </extensions>
      </trkpt>
      <trkpt lat="51.849838458001613616943359375" lon="39.4549692235887050628662109375">
        <ele>130.600006103515625</ele>
        <time>2017-01-15T08:26:05.000Z</time>
        <extensions>
          <ns3:TrackPointExtension/>
        </extensions>
      </trkpt>
      <trkpt lat="51.85016945935785770416259765625" lon="39.4552364386618137359619140625">
        <ele>131.600006103515625</ele>
        <time>2017-01-15T08:26:18.000Z</time>
        <extensions>
          <ns3:TrackPointExtension/>
        </extensions>
      </trkpt>
      <trkpt lat="51.85028873383998870849609375" lon="39.455392174422740936279296875">
        <ele>132</ele>
        <time>2017-01-15T08:26:27.000Z</time>
        <extensions>
          <ns3:TrackPointExtension/>
        </extensions>
      </trkpt>
      <trkpt lat="51.85029502026736736297607421875" lon="39.45517466403543949127197265625">
        <ele>131.8000030517578125</ele>
        <time>2017-01-15T08:26:44.000Z</time>
        <extensions>
          <ns3:TrackPointExtension/>
        </extensions>
      </trkpt>
      <trkpt lat="51.85016895644366741180419921875" lon="39.45470125414431095123291015625">
        <ele>131</ele>
        <time>2017-01-15T08:26:53.000Z</time>
        <extensions>
          <ns3:TrackPointExtension/>
        </extensions>
      </trkpt>
      <trkpt lat="51.84991515241563320159912109375" lon="39.45380019955337047576904296875">
        <ele>129.1999969482421875</ele>
        <time>2017-01-15T08:27:08.000Z</time>
        <extensions>
          <ns3:TrackPointExtension/>
        </extensions>
      </trkpt>
      <trkpt lat="51.84972957707941532135009765625" lon="39.45312227122485637664794921875">
        <ele>130</ele>
        <time>2017-01-15T08:27:18.000Z</time>
        <extensions>
          <ns3:TrackPointExtension/>
        </extensions>
      </trkpt>
      <trkpt lat="51.849504522979259490966796875" lon="39.45229388773441314697265625">
        <ele>131.399993896484375</ele>
        <time>2017-01-15T08:27:31.000Z</time>
        <extensions>
          <ns3:TrackPointExtension/>
        </extensions>
      </trkpt>
      <trkpt lat="51.849334537982940673828125" lon="39.45167086087167263031005859375">
        <ele>132.399993896484375</ele>
        <time>2017-01-15T08:27:40.000Z</time>
        <extensions>
          <ns3:TrackPointExtension/>
        </extensions>
      </trkpt>
      <trkpt lat="51.84914502315223217010498046875" lon="39.45110860280692577362060546875">
        <ele>133.1999969482421875</ele>
        <time>2017-01-15T08:27:48.000Z</time>
        <extensions>
          <ns3:TrackPointExtension/>
        </extensions>
      </trkpt>
      <trkpt lat="51.84900588355958461761474609375" lon="39.4507407210767269134521484375">
        <ele>133.399993896484375</ele>
        <time>2017-01-15T08:27:53.000Z</time>
        <extensions>
          <ns3:TrackPointExtension/>
        </extensions>
      </trkpt>
      <trkpt lat="51.8489055521786212921142578125" lon="39.4500466994941234588623046875">
        <ele>133.8000030517578125</ele>
        <time>2017-01-15T08:28:04.000Z</time>
        <extensions>
          <ns3:TrackPointExtension/>
        </extensions>
      </trkpt>
      <trkpt lat="51.84889406897127628326416015625" lon="39.44952207617461681365966796875">
        <ele>133.1999969482421875</ele>
        <time>2017-01-15T08:28:13.000Z</time>
        <extensions>
          <ns3:TrackPointExtension/>
        </extensions>
      </trkpt>
      <trkpt lat="51.84884109534323215484619140625" lon="39.44925502873957157135009765625">
        <ele>133.1999969482421875</ele>
        <time>2017-01-15T08:28:17.000Z</time>
        <extensions>
          <ns3:TrackPointExtension/>
        </extensions>
      </trkpt>
      <trkpt lat="51.84882617555558681488037109375" lon="39.44908889941871166229248046875">
        <ele>133.1999969482421875</ele>
        <time>2017-01-15T08:28:19.000Z</time>
        <extensions>
          <ns3:TrackPointExtension/>
        </extensions>
      </trkpt>
      <trkpt lat="51.84883405454456806182861328125" lon="39.44891355000436305999755859375">
        <ele>133.1999969482421875</ele>
        <time>2017-01-15T08:28:21.000Z</time>
        <extensions>
          <ns3:TrackPointExtension/>
        </extensions>
      </trkpt>
      <trkpt lat="51.84886515140533447265625" lon="39.4486599974334239959716796875">
        <ele>133.1999969482421875</ele>
        <time>2017-01-15T08:28:24.000Z</time>
        <extensions>
          <ns3:TrackPointExtension/>
        </extensions>
      </trkpt>
      <trkpt lat="51.848823912441730499267578125" lon="39.44782407023012638092041015625">
        <ele>129.399993896484375</ele>
        <time>2017-01-15T08:28:35.000Z</time>
        <extensions>
          <ns3:TrackPointExtension/>
        </extensions>
      </trkpt>
      <trkpt lat="51.84876649640500545501708984375" lon="39.4468458183109760284423828125">
        <ele>126.1999969482421875</ele>
        <time>2017-01-15T08:28:46.000Z</time>
        <extensions>
          <ns3:TrackPointExtension/>
        </extensions>
      </trkpt>
      <trkpt lat="51.84870782308280467987060546875" lon="39.44644340313971042633056640625">
        <ele>126.59999847412109375</ele>
        <time>2017-01-15T08:28:51.000Z</time>
        <extensions>
          <ns3:TrackPointExtension/>
        </extensions>
      </trkpt>
      <trkpt lat="51.84838210232555866241455078125" lon="39.44581073708832263946533203125">
        <ele>129.1999969482421875</ele>
        <time>2017-01-15T08:29:02.000Z</time>
        <extensions>
          <ns3:TrackPointExtension/>
        </extensions>
      </trkpt>
      <trkpt lat="51.84828001074492931365966796875" lon="39.445673525333404541015625">
        <ele>130</ele>
        <time>2017-01-15T08:29:05.000Z</time>
        <extensions>
          <ns3:TrackPointExtension/>
        </extensions>
      </trkpt>
      <trkpt lat="51.848187558352947235107421875" lon="39.44549105130136013031005859375">
        <ele>130</ele>
        <time>2017-01-15T08:29:08.000Z</time>
        <extensions>
          <ns3:TrackPointExtension/>
        </extensions>
      </trkpt>
      <trkpt lat="51.848110444843769073486328125" lon="39.4452794082462787628173828125">
        <ele>129.399993896484375</ele>
        <time>2017-01-15T08:29:11.000Z</time>
        <extensions>
          <ns3:TrackPointExtension/>
        </extensions>
      </trkpt>
      <trkpt lat="51.8479523621499538421630859375" lon="39.44461614824831485748291015625">
        <ele>125</ele>
        <time>2017-01-15T08:29:21.000Z</time>
        <extensions>
          <ns3:TrackPointExtension/>
        </extensions>
      </trkpt>
      <trkpt lat="51.84788807295262813568115234375" lon="39.4442112185060977935791015625">
        <ele>122.8000030517578125</ele>
        <time>2017-01-15T08:29:31.000Z</time>
        <extensions>
          <ns3:TrackPointExtension/>
        </extensions>
      </trkpt>
      <trkpt lat="51.84788421727716922760009765625" lon="39.44418950937688350677490234375">
        <ele>122.8000030517578125</ele>
        <time>2017-01-15T08:29:34.000Z</time>
        <extensions>
          <ns3:TrackPointExtension/>
        </extensions>
      </trkpt>
      <trkpt lat="51.84779017232358455657958984375" lon="39.44375683553516864776611328125">
        <ele>120.40000152587890625</ele>
        <time>2017-01-15T08:32:27.000Z</time>
        <extensions>
          <ns3:TrackPointExtension/>
        </extensions>
      </trkpt>
      <trkpt lat="51.84772261418402194976806640625" lon="39.44334335625171661376953125">
        <ele>119.40000152587890625</ele>
        <time>2017-01-15T08:32:38.000Z</time>
        <extensions>
          <ns3:TrackPointExtension/>
        </extensions>
      </trkpt>
      <trkpt lat="51.84762236662209033966064453125" lon="39.4428236782550811767578125">
        <ele>118.8000030517578125</ele>
        <time>2017-01-15T08:32:49.000Z</time>
        <extensions>
          <ns3:TrackPointExtension/>
        </extensions>
      </trkpt>
      <trkpt lat="51.84751893393695354461669921875" lon="39.442146085202693939208984375">
        <ele>117.59999847412109375</ele>
        <time>2017-01-15T08:33:00.000Z</time>
        <extensions>
          <ns3:TrackPointExtension/>
        </extensions>
      </trkpt>
      <trkpt lat="51.84740393422544002532958984375" lon="39.4415756128728389739990234375">
        <ele>117</ele>
        <time>2017-01-15T08:33:10.000Z</time>
        <extensions>
          <ns3:TrackPointExtension/>
        </extensions>
      </trkpt>
      <trkpt lat="51.84721089899539947509765625" lon="39.44080062210559844970703125">
        <ele>116.8000030517578125</ele>
        <time>2017-01-15T08:33:23.000Z</time>
        <extensions>
          <ns3:TrackPointExtension/>
        </extensions>
      </trkpt>
      <trkpt lat="51.84702976606786251068115234375" lon="39.4401299022138118743896484375">
        <ele>116.1999969482421875</ele>
        <time>2017-01-15T08:33:34.000Z</time>
        <extensions>
          <ns3:TrackPointExtension/>
        </extensions>
      </trkpt>
      <trkpt lat="51.84666465036571025848388671875" lon="39.43942691199481487274169921875">
        <ele>114</ele>
        <time>2017-01-15T08:33:46.000Z</time>
        <extensions>
          <ns3:TrackPointExtension/>
        </extensions>
      </trkpt>
      <trkpt lat="51.84621655382215976715087890625" lon="39.438535831868648529052734375">
        <ele>113.59999847412109375</ele>
        <time>2017-01-15T08:34:03.000Z</time>
        <extensions>
          <ns3:TrackPointExtension/>
        </extensions>
      </trkpt>
      <trkpt lat="51.84593508951365947723388671875" lon="39.438016153872013092041015625">
        <ele>115.1999969482421875</ele>
        <time>2017-01-15T08:34:15.000Z</time>
        <extensions>
          <ns3:TrackPointExtension/>
        </extensions>
      </trkpt>
      <trkpt lat="51.845874488353729248046875" lon="39.43791414611041545867919921875">
        <ele>115.40000152587890625</ele>
        <time>2017-01-15T08:34:17.000Z</time>
        <extensions>
          <ns3:TrackPointExtension/>
        </extensions>
      </trkpt>
      <trkpt lat="51.84537651948630809783935546875" lon="39.4370621256530284881591796875">
        <ele>118.1999969482421875</ele>
        <time>2017-01-15T08:34:33.000Z</time>
        <extensions>
          <ns3:TrackPointExtension/>
        </extensions>
      </trkpt>
      <trkpt lat="51.84524643234908580780029296875" lon="39.43685651756823062896728515625">
        <ele>119</ele>
        <time>2017-01-15T08:34:37.000Z</time>
        <extensions>
          <ns3:TrackPointExtension/>
        </extensions>
      </trkpt>
      <trkpt lat="51.84473413042724132537841796875" lon="39.43609795533120632171630859375">
        <ele>122.1999969482421875</ele>
        <time>2017-01-15T08:34:53.000Z</time>
        <extensions>
          <ns3:TrackPointExtension/>
        </extensions>
      </trkpt>
      <trkpt lat="51.84433154761791229248046875" lon="39.4355289079248905181884765625">
        <ele>124.8000030517578125</ele>
        <time>2017-01-15T08:35:06.000Z</time>
        <extensions>
          <ns3:TrackPointExtension/>
        </extensions>
      </trkpt>
      <trkpt lat="51.8441841937601566314697265625" lon="39.4353773631155490875244140625">
        <ele>125.59999847412109375</ele>
        <time>2017-01-15T08:35:10.000Z</time>
        <extensions>
          <ns3:TrackPointExtension/>
        </extensions>
      </trkpt>
      <trkpt lat="51.843675076961517333984375" lon="39.43509195931255817413330078125">
        <ele>124.40000152587890625</ele>
        <time>2017-01-15T08:35:25.000Z</time>
        <extensions>
          <ns3:TrackPointExtension/>
        </extensions>
      </trkpt>
      <trkpt lat="51.8433382920920848846435546875" lon="39.435055665671825408935546875">
        <ele>122.8000030517578125</ele>
        <time>2017-01-15T08:35:36.000Z</time>
        <extensions>
          <ns3:TrackPointExtension/>
        </extensions>
      </trkpt>
      <trkpt lat="51.84297761879861354827880859375" lon="39.434853829443454742431640625">
        <ele>122.1999969482421875</ele>
        <time>2017-01-15T08:35:45.000Z</time>
        <extensions>
          <ns3:TrackPointExtension/>
        </extensions>
      </trkpt>
      <trkpt lat="51.84243178926408290863037109375" lon="39.4345488958060741424560546875">
        <ele>122</ele>
        <time>2017-01-15T08:35:58.000Z</time>
        <extensions>
          <ns3:TrackPointExtension/>
        </extensions>
      </trkpt>
      <trkpt lat="51.84201814234256744384765625" lon="39.43421990610659122467041015625">
        <ele>122.8000030517578125</ele>
        <time>2017-01-15T08:36:11.000Z</time>
        <extensions>
          <ns3:TrackPointExtension/>
        </extensions>
      </trkpt>
      <trkpt lat="51.841651685535907745361328125" lon="39.4339321553707122802734375">
        <ele>123.8000030517578125</ele>
        <time>2017-01-15T08:36:25.000Z</time>
        <extensions>
          <ns3:TrackPointExtension/>
        </extensions>
      </trkpt>
      <trkpt lat="51.84130425564944744110107421875" lon="39.43368606269359588623046875">
        <ele>124.1999969482421875</ele>
        <time>2017-01-15T08:36:38.000Z</time>
        <extensions>
          <ns3:TrackPointExtension/>
        </extensions>
      </trkpt>
      <trkpt lat="51.840961016714572906494140625" lon="39.43351549096405506134033203125">
        <ele>124</ele>
        <time>2017-01-15T08:36:50.000Z</time>
        <extensions>
          <ns3:TrackPointExtension/>
        </extensions>
      </trkpt>
      <trkpt lat="51.8406079709529876708984375" lon="39.4334190152585506439208984375">
        <ele>123.59999847412109375</ele>
        <time>2017-01-15T08:37:05.000Z</time>
        <extensions>
          <ns3:TrackPointExtension/>
        </extensions>
      </trkpt>
      <trkpt lat="51.8402835913002490997314453125" lon="39.433174431324005126953125">
        <ele>124.1999969482421875</ele>
        <time>2017-01-15T08:37:18.000Z</time>
        <extensions>
          <ns3:TrackPointExtension/>
        </extensions>
      </trkpt>
      <trkpt lat="51.8399937450885772705078125" lon="39.43306487984955310821533203125">
        <ele>124.59999847412109375</ele>
        <time>2017-01-15T08:37:30.000Z</time>
        <extensions>
          <ns3:TrackPointExtension/>
        </extensions>
      </trkpt>
      <trkpt lat="51.84000187553465366363525390625" lon="39.4330421648919582366943359375">
        <ele>124.59999847412109375</ele>
        <time>2017-01-15T08:37:34.000Z</time>
        <extensions>
          <ns3:TrackPointExtension/>
        </extensions>
      </trkpt>
      <trkpt lat="51.84005920775234699249267578125" lon="39.4330751895904541015625">
        <ele>124.40000152587890625</ele>
        <time>2017-01-15T08:37:41.000Z</time>
        <extensions>
          <ns3:TrackPointExtension/>
        </extensions>
      </trkpt>
      <trkpt lat="51.840080916881561279296875" lon="39.43308315239846706390380859375">
        <ele>124.40000152587890625</ele>
        <time>2017-01-15T08:37:42.000Z</time>
        <extensions>
          <ns3:TrackPointExtension/>
        </extensions>
      </trkpt>
      <trkpt lat="51.8403477966785430908203125" lon="39.43328431807458400726318359375">
        <ele>123.8000030517578125</ele>
        <time>2017-01-15T08:37:54.000Z</time>
        <extensions>
          <ns3:TrackPointExtension/>
        </extensions>
      </trkpt>
      <trkpt lat="51.840643845498561859130859375" lon="39.43344642408192157745361328125">
        <ele>123.59999847412109375</ele>
        <time>2017-01-15T08:38:06.000Z</time>
        <extensions>
          <ns3:TrackPointExtension/>
        </extensions>
      </trkpt>
      <trkpt lat="51.84098280966281890869140625" lon="39.43360735662281513214111328125">
        <ele>123.8000030517578125</ele>
        <time>2017-01-15T08:38:18.000Z</time>
        <extensions>
          <ns3:TrackPointExtension/>
        </extensions>
      </trkpt>
      <trkpt lat="51.84145596809685230255126953125" lon="39.433904998004436492919921875">
        <ele>123.59999847412109375</ele>
        <time>2017-01-15T08:38:32.000Z</time>
        <extensions>
          <ns3:TrackPointExtension/>
        </extensions>
      </trkpt>
      <trkpt lat="51.84186651371419429779052734375" lon="39.4341653399169445037841796875">
        <ele>123</ele>
        <time>2017-01-15T08:38:44.000Z</time>
        <extensions>
          <ns3:TrackPointExtension/>
        </extensions>
      </trkpt>
      <trkpt lat="51.84226348064839839935302734375" lon="39.43449676036834716796875">
        <ele>121.8000030517578125</ele>
        <time>2017-01-15T08:38:57.000Z</time>
        <extensions>
          <ns3:TrackPointExtension/>
        </extensions>
      </trkpt>
      <trkpt lat="51.84269607067108154296875" lon="39.43474092520773410797119140625">
        <ele>122</ele>
        <time>2017-01-15T08:39:08.000Z</time>
        <extensions>
          <ns3:TrackPointExtension/>
        </extensions>
      </trkpt>
      <trkpt lat="51.8430492840707302093505859375" lon="39.43501769565045833587646484375">
        <ele>122.1999969482421875</ele>
        <time>2017-01-15T08:39:18.000Z</time>
        <extensions>
          <ns3:TrackPointExtension/>
        </extensions>
      </trkpt>
      <trkpt lat="51.84336067177355289459228515625" lon="39.434984587132930755615234375">
        <ele>123</ele>
        <time>2017-01-15T08:39:27.000Z</time>
        <extensions>
          <ns3:TrackPointExtension/>
        </extensions>
      </trkpt>
      <trkpt lat="51.84377674944698810577392578125" lon="39.43513403646647930145263671875">
        <ele>124.8000030517578125</ele>
        <time>2017-01-15T08:39:37.000Z</time>
        <extensions>
          <ns3:TrackPointExtension/>
        </extensions>
      </trkpt>
      <trkpt lat="51.84395478107035160064697265625" lon="39.43524501286447048187255859375">
        <ele>125.59999847412109375</ele>
        <time>2017-01-15T08:39:41.000Z</time>
        <extensions>
          <ns3:TrackPointExtension/>
        </extensions>
      </trkpt>
      <trkpt lat="51.8441339023411273956298828125" lon="39.43536621518433094024658203125">
        <ele>125.8000030517578125</ele>
        <time>2017-01-15T08:39:45.000Z</time>
        <extensions>
          <ns3:TrackPointExtension/>
        </extensions>
      </trkpt>
      <trkpt lat="51.84445249848067760467529296875" lon="39.43577391095459461212158203125">
        <ele>123.8000030517578125</ele>
        <time>2017-01-15T08:39:56.000Z</time>
        <extensions>
          <ns3:TrackPointExtension/>
        </extensions>
      </trkpt>
      <trkpt lat="51.84476212598383426666259765625" lon="39.43623659200966358184814453125">
        <ele>121.59999847412109375</ele>
        <time>2017-01-15T08:40:07.000Z</time>
        <extensions>
          <ns3:TrackPointExtension/>
        </extensions>
      </trkpt>
      <trkpt lat="51.84513830579817295074462890625" lon="39.43676766939461231231689453125">
        <ele>119.59999847412109375</ele>
        <time>2017-01-15T08:40:19.000Z</time>
        <extensions>
          <ns3:TrackPointExtension/>
        </extensions>
      </trkpt>
      <trkpt lat="51.8452926166355609893798828125" lon="39.43702197633683681488037109375">
        <ele>118.59999847412109375</ele>
        <time>2017-01-15T08:40:24.000Z</time>
        <extensions>
          <ns3:TrackPointExtension/>
        </extensions>
      </trkpt>
      <trkpt lat="51.84545866213738918304443359375" lon="39.43731375038623809814453125">
        <ele>117.59999847412109375</ele>
        <time>2017-01-15T08:40:30.000Z</time>
        <extensions>
          <ns3:TrackPointExtension/>
        </extensions>
      </trkpt>
      <trkpt lat="51.84573459438979625701904296875" lon="39.437794871628284454345703125">
        <ele>116</ele>
        <time>2017-01-15T08:40:41.000Z</time>
        <extensions>
          <ns3:TrackPointExtension/>
        </extensions>
      </trkpt>
      <trkpt lat="51.84604187496006488800048828125" lon="39.43837665952742099761962890625">
        <ele>114.1999969482421875</ele>
        <time>2017-01-15T08:40:54.000Z</time>
        <extensions>
          <ns3:TrackPointExtension/>
        </extensions>
      </trkpt>
      <trkpt lat="51.8461465649306774139404296875" lon="39.43857195787131786346435546875">
        <ele>113.59999847412109375</ele>
        <time>2017-01-15T08:40:58.000Z</time>
        <extensions>
          <ns3:TrackPointExtension/>
        </extensions>
      </trkpt>
      <trkpt lat="51.84657027013599872589111328125" lon="39.43928961642086505889892578125">
        <ele>113.8000030517578125</ele>
        <time>2017-01-15T08:41:12.000Z</time>
        <extensions>
          <ns3:TrackPointExtension/>
        </extensions>
      </trkpt>
      <trkpt lat="51.84679624624550342559814453125" lon="39.43985908292233943939208984375">
        <ele>115.1999969482421875</ele>
        <time>2017-01-15T08:41:24.000Z</time>
        <extensions>
          <ns3:TrackPointExtension/>
        </extensions>
      </trkpt>
      <trkpt lat="51.847059689462184906005859375" lon="39.4406985305249691009521484375">
        <ele>116.59999847412109375</ele>
        <time>2017-01-15T08:41:37.000Z</time>
        <extensions>
          <ns3:TrackPointExtension/>
        </extensions>
      </trkpt>
      <trkpt lat="51.84707134030759334564208984375" lon="39.44076265208423137664794921875">
        <ele>116.59999847412109375</ele>
        <time>2017-01-15T08:41:38.000Z</time>
        <extensions>
          <ns3:TrackPointExtension/>
        </extensions>
      </trkpt>
      <trkpt lat="51.847225986421108245849609375" lon="39.44133102893829345703125">
        <ele>116.8000030517578125</ele>
        <time>2017-01-15T08:41:48.000Z</time>
        <extensions>
          <ns3:TrackPointExtension/>
        </extensions>
      </trkpt>
      <trkpt lat="51.84741281904280185699462890625" lon="39.44208347238600254058837890625">
        <ele>117.1999969482421875</ele>
        <time>2017-01-15T08:41:59.000Z</time>
        <extensions>
          <ns3:TrackPointExtension/>
        </extensions>
      </trkpt>
      <trkpt lat="51.8475356139242649078369140625" lon="39.44270406849682331085205078125">
        <ele>118.40000152587890625</ele>
        <time>2017-01-15T08:42:10.000Z</time>
        <extensions>
          <ns3:TrackPointExtension/>
        </extensions>
      </trkpt>
      <trkpt lat="51.84759872965514659881591796875" lon="39.4433187134563922882080078125">
        <ele>119</ele>
        <time>2017-01-15T08:42:21.000Z</time>
        <extensions>
          <ns3:TrackPointExtension/>
        </extensions>
      </trkpt>
      <trkpt lat="51.8476107157766819000244140625" lon="39.44354678504168987274169921875">
        <ele>119.40000152587890625</ele>
        <time>2017-01-15T08:42:25.000Z</time>
        <extensions>
          <ns3:TrackPointExtension/>
        </extensions>
      </trkpt>
      <trkpt lat="51.84763871133327484130859375" lon="39.44389765150845050811767578125">
        <ele>120.8000030517578125</ele>
        <time>2017-01-15T08:42:32.000Z</time>
        <extensions>
          <ns3:TrackPointExtension/>
        </extensions>
      </trkpt>
      <trkpt lat="51.8477921001613140106201171875" lon="39.44451372139155864715576171875">
        <ele>124</ele>
        <time>2017-01-15T08:42:43.000Z</time>
        <extensions>
          <ns3:TrackPointExtension/>
        </extensions>
      </trkpt>
      <trkpt lat="51.847966946661472320556640625" lon="39.4452022947371006011962890625">
        <ele>128.399993896484375</ele>
        <time>2017-01-15T08:42:54.000Z</time>
        <extensions>
          <ns3:TrackPointExtension/>
        </extensions>
      </trkpt>
      <trkpt lat="51.84831169433891773223876953125" lon="39.44576966576278209686279296875">
        <ele>129.8000030517578125</ele>
        <time>2017-01-15T08:43:06.000Z</time>
        <extensions>
          <ns3:TrackPointExtension/>
        </extensions>
      </trkpt>
      <trkpt lat="51.84834103100001811981201171875" lon="39.445806629955768585205078125">
        <ele>129.600006103515625</ele>
        <time>2017-01-15T08:43:07.000Z</time>
        <extensions>
          <ns3:TrackPointExtension/>
        </extensions>
      </trkpt>
      <trkpt lat="51.8485538475215435028076171875" lon="39.4462681375443935394287109375">
        <ele>128.1999969482421875</ele>
        <time>2017-01-15T08:43:15.000Z</time>
        <extensions>
          <ns3:TrackPointExtension/>
        </extensions>
      </trkpt>
      <trkpt lat="51.84864395298063755035400390625" lon="39.44679133594036102294921875">
        <ele>127.40000152587890625</ele>
        <time>2017-01-15T08:43:22.000Z</time>
        <extensions>
          <ns3:TrackPointExtension/>
        </extensions>
      </trkpt>
      <trkpt lat="51.84867094270884990692138671875" lon="39.4470788352191448211669921875">
        <ele>128.1999969482421875</ele>
        <time>2017-01-15T08:43:26.000Z</time>
        <extensions>
          <ns3:TrackPointExtension/>
        </extensions>
      </trkpt>
      <trkpt lat="51.8486822582781314849853515625" lon="39.447430036962032318115234375">
        <ele>130.1999969482421875</ele>
        <time>2017-01-15T08:43:31.000Z</time>
        <extensions>
          <ns3:TrackPointExtension/>
        </extensions>
      </trkpt>
      <trkpt lat="51.8487473018467426300048828125" lon="39.4482422433793544769287109375">
        <ele>132.399993896484375</ele>
        <time>2017-01-15T08:43:43.000Z</time>
        <extensions>
          <ns3:TrackPointExtension/>
        </extensions>
      </trkpt>
      <trkpt lat="51.84873984195291996002197265625" lon="39.44891908206045627593994140625">
        <ele>133.399993896484375</ele>
        <time>2017-01-15T08:43:54.000Z</time>
        <extensions>
          <ns3:TrackPointExtension/>
        </extensions>
      </trkpt>
      <trkpt lat="51.8487610481679439544677734375" lon="39.44917774759232997894287109375">
        <ele>133.399993896484375</ele>
        <time>2017-01-15T08:43:58.000Z</time>
        <extensions>
          <ns3:TrackPointExtension/>
        </extensions>
      </trkpt>
      <trkpt lat="51.84879876673221588134765625" lon="39.44981980137526988983154296875">
        <ele>133.8000030517578125</ele>
        <time>2017-01-15T08:44:09.000Z</time>
        <extensions>
          <ns3:TrackPointExtension/>
        </extensions>
      </trkpt>
      <trkpt lat="51.8489005230367183685302734375" lon="39.45048884488642215728759765625">
        <ele>133.600006103515625</ele>
        <time>2017-01-15T08:44:20.000Z</time>
        <extensions>
          <ns3:TrackPointExtension/>
        </extensions>
      </trkpt>
      <trkpt lat="51.84906589798629283905029296875" lon="39.4510897435247898101806640625">
        <ele>133</ele>
        <time>2017-01-15T08:44:31.000Z</time>
        <extensions>
          <ns3:TrackPointExtension/>
        </extensions>
      </trkpt>
      <trkpt lat="51.84924560599029064178466796875" lon="39.451774545013904571533203125">
        <ele>132</ele>
        <time>2017-01-15T08:44:42.000Z</time>
        <extensions>
          <ns3:TrackPointExtension/>
        </extensions>
      </trkpt>
      <trkpt lat="51.8494275771081447601318359375" lon="39.45255330763757228851318359375">
        <ele>130.8000030517578125</ele>
        <time>2017-01-15T08:44:54.000Z</time>
        <extensions>
          <ns3:TrackPointExtension/>
        </extensions>
      </trkpt>
      <trkpt lat="51.84951533563435077667236328125" lon="39.4528791122138500213623046875">
        <ele>130.399993896484375</ele>
        <time>2017-01-15T08:44:59.000Z</time>
        <extensions>
          <ns3:TrackPointExtension/>
        </extensions>
      </trkpt>
      <trkpt lat="51.84966403059661388397216796875" lon="39.45324598811566829681396484375">
        <ele>129.8000030517578125</ele>
        <time>2017-01-15T08:45:05.000Z</time>
        <extensions>
          <ns3:TrackPointExtension/>
        </extensions>
      </trkpt>
      <trkpt lat="51.84988548047840595245361328125" lon="39.45390530861914157867431640625">
        <ele>129.1999969482421875</ele>
        <time>2017-01-15T08:45:16.000Z</time>
        <extensions>
          <ns3:TrackPointExtension/>
        </extensions>
      </trkpt>
      <trkpt lat="51.8499018251895904541015625" lon="39.453963227570056915283203125">
        <ele>129.399993896484375</ele>
        <time>2017-01-15T08:45:17.000Z</time>
        <extensions>
          <ns3:TrackPointExtension/>
        </extensions>
      </trkpt>
      <trkpt lat="51.84995924122631549835205078125" lon="39.45417319424450397491455078125">
        <ele>129.8000030517578125</ele>
        <time>2017-01-15T08:45:20.000Z</time>
        <extensions>
          <ns3:TrackPointExtension/>
        </extensions>
      </trkpt>
      <trkpt lat="51.850156299769878387451171875" lon="39.45514515973627567291259765625">
        <ele>131.399993896484375</ele>
        <time>2017-01-15T08:45:34.000Z</time>
        <extensions>
          <ns3:TrackPointExtension/>
        </extensions>
      </trkpt>
      <trkpt lat="51.8502650968730449676513671875" lon="39.455473311245441436767578125">
        <ele>131.8000030517578125</ele>
        <time>2017-01-15T08:45:39.000Z</time>
        <extensions>
          <ns3:TrackPointExtension/>
        </extensions>
      </trkpt>
      <trkpt lat="51.85034397058188915252685546875" lon="39.455648325383663177490234375">
        <ele>132</ele>
        <time>2017-01-15T08:45:42.000Z</time>
        <extensions>
          <ns3:TrackPointExtension/>
        </extensions>
      </trkpt>
      <trkpt lat="51.850444972515106201171875" lon="39.45584856905043125152587890625">
        <ele>132.399993896484375</ele>
        <time>2017-01-15T08:45:45.000Z</time>
        <extensions>
          <ns3:TrackPointExtension/>
        </extensions>
      </trkpt>
      <trkpt lat="51.85060330666601657867431640625" lon="39.45616942830383777618408203125">
        <ele>133.1999969482421875</ele>
        <time>2017-01-15T08:45:50.000Z</time>
        <extensions>
          <ns3:TrackPointExtension/>
        </extensions>
      </trkpt>
      <trkpt lat="51.85106146149337291717529296875" lon="39.457047767937183380126953125">
        <ele>133.600006103515625</ele>
        <time>2017-01-15T08:46:04.000Z</time>
        <extensions>
          <ns3:TrackPointExtension/>
        </extensions>
      </trkpt>
      <trkpt lat="51.8510888703167438507080078125" lon="39.45709730498492717742919921875">
        <ele>133.600006103515625</ele>
        <time>2017-01-15T08:46:05.000Z</time>
        <extensions>
          <ns3:TrackPointExtension/>
        </extensions>
      </trkpt>
      <trkpt lat="51.8514392338693141937255859375" lon="39.4575344212353229522705078125">
        <ele>133.1999969482421875</ele>
        <time>2017-01-15T08:46:15.000Z</time>
        <extensions>
          <ns3:TrackPointExtension/>
        </extensions>
      </trkpt>
      <trkpt lat="51.85205094516277313232421875" lon="39.45781831629574298858642578125">
        <ele>128.8000030517578125</ele>
        <time>2017-01-15T08:46:28.000Z</time>
        <extensions>
          <ns3:TrackPointExtension/>
        </extensions>
      </trkpt>
      <trkpt lat="51.85232595540583133697509765625" lon="39.4579511694610118865966796875">
        <ele>126.1999969482421875</ele>
        <time>2017-01-15T08:46:34.000Z</time>
        <extensions>
          <ns3:TrackPointExtension/>
        </extensions>
      </trkpt>
      <trkpt lat="51.85294470749795436859130859375" lon="39.4584782235324382781982421875">
        <ele>121.1999969482421875</ele>
        <time>2017-01-15T08:46:49.000Z</time>
        <extensions>
          <ns3:TrackPointExtension/>
        </extensions>
      </trkpt>
      <trkpt lat="51.85306616127490997314453125" lon="39.45852440781891345977783203125">
        <ele>120.1999969482421875</ele>
        <time>2017-01-15T08:46:52.000Z</time>
        <extensions>
          <ns3:TrackPointExtension/>
        </extensions>
      </trkpt>
      <trkpt lat="51.85368315316736698150634765625" lon="39.45845349691808223724365234375">
        <ele>120.8000030517578125</ele>
        <time>2017-01-15T08:47:07.000Z</time>
        <extensions>
          <ns3:TrackPointExtension/>
        </extensions>
      </trkpt>
      <trkpt lat="51.85419076122343540191650390625" lon="39.4580034725368022918701171875">
        <ele>124.40000152587890625</ele>
        <time>2017-01-15T08:47:21.000Z</time>
        <extensions>
          <ns3:TrackPointExtension/>
        </extensions>
      </trkpt>
      <trkpt lat="51.85475385747849941253662109375" lon="39.45766308344900608062744140625">
        <ele>125.8000030517578125</ele>
        <time>2017-01-15T08:47:35.000Z</time>
        <extensions>
          <ns3:TrackPointExtension/>
        </extensions>
      </trkpt>
      <trkpt lat="51.85546430759131908416748046875" lon="39.457356221973896026611328125">
        <ele>123.1999969482421875</ele>
        <time>2017-01-15T08:47:50.000Z</time>
        <extensions>
          <ns3:TrackPointExtension/>
        </extensions>
      </trkpt>
      <trkpt lat="51.8559614382684230804443359375" lon="39.45715882815420627593994140625">
        <ele>121.1999969482421875</ele>
        <time>2017-01-15T08:48:02.000Z</time>
        <extensions>
          <ns3:TrackPointExtension/>
        </extensions>
      </trkpt>
      <trkpt lat="51.85641800053417682647705078125" lon="39.456864707171916961669921875">
        <ele>121.8000030517578125</ele>
        <time>2017-01-15T08:48:14.000Z</time>
        <extensions>
          <ns3:TrackPointExtension/>
        </extensions>
      </trkpt>
      <trkpt lat="51.85648824088275432586669921875" lon="39.45681743323802947998046875">
        <ele>121.8000030517578125</ele>
        <time>2017-01-15T08:48:16.000Z</time>
        <extensions>
          <ns3:TrackPointExtension/>
        </extensions>
      </trkpt>
      <trkpt lat="51.8570541031658649444580078125" lon="39.45652549155056476593017578125">
        <ele>122</ele>
        <time>2017-01-15T08:48:29.000Z</time>
        <extensions>
          <ns3:TrackPointExtension/>
        </extensions>
      </trkpt>
      <trkpt lat="51.8574933148920536041259765625" lon="39.4562181271612644195556640625">
        <ele>122.59999847412109375</ele>
        <time>2017-01-15T08:48:41.000Z</time>
        <extensions>
          <ns3:TrackPointExtension/>
        </extensions>
      </trkpt>
      <trkpt lat="51.85807661153376102447509765625" lon="39.455858208239078521728515625">
        <ele>125</ele>
        <time>2017-01-15T08:48:55.000Z</time>
        <extensions>
          <ns3:TrackPointExtension/>
        </extensions>
      </trkpt>
      <trkpt lat="51.85862797312438488006591796875" lon="39.455620832741260528564453125">
        <ele>128.1999969482421875</ele>
        <time>2017-01-15T08:49:08.000Z</time>
        <extensions>
          <ns3:TrackPointExtension/>
        </extensions>
      </trkpt>
      <trkpt lat="51.85910440050065517425537109375" lon="39.45533777587115764617919921875">
        <ele>132</ele>
        <time>2017-01-15T08:49:19.000Z</time>
        <extensions>
          <ns3:TrackPointExtension/>
        </extensions>
      </trkpt>
      <trkpt lat="51.8594255112111568450927734375" lon="39.455120600759983062744140625">
        <ele>131</ele>
        <time>2017-01-15T08:49:28.000Z</time>
        <extensions>
          <ns3:TrackPointExtension/>
        </extensions>
      </trkpt>
      <trkpt lat="51.859780736267566680908203125" lon="39.4548548944294452667236328125">
        <ele>131.1999969482421875</ele>
        <time>2017-01-15T08:49:38.000Z</time>
        <extensions>
          <ns3:TrackPointExtension/>
        </extensions>
      </trkpt>
      <trkpt lat="51.860157586634159088134765625" lon="39.45478557609021663665771484375">
        <ele>131.600006103515625</ele>
        <time>2017-01-15T08:49:50.000Z</time>
        <extensions>
          <ns3:TrackPointExtension/>
        </extensions>
      </trkpt>
      <trkpt lat="51.86053385026752948760986328125" lon="39.45488129742443561553955078125">
        <ele>131.1999969482421875</ele>
        <time>2017-01-15T08:49:59.000Z</time>
        <extensions>
          <ns3:TrackPointExtension/>
        </extensions>
      </trkpt>
      <trkpt lat="51.86082780361175537109375" lon="39.4550161622464656829833984375">
        <ele>131.399993896484375</ele>
        <time>2017-01-15T08:50:08.000Z</time>
        <extensions>
          <ns3:TrackPointExtension/>
        </extensions>
      </trkpt>
      <trkpt lat="51.86083576641976833343505859375" lon="39.45501574315130710601806640625">
        <ele>131.399993896484375</ele>
        <time>2017-01-15T08:50:11.000Z</time>
        <extensions>
          <ns3:TrackPointExtension/>
        </extensions>
      </trkpt>
      <trkpt lat="51.861010529100894927978515625" lon="39.45502848364412784576416015625">
        <ele>132</ele>
        <time>2017-01-15T08:50:52.000Z</time>
        <extensions>
          <ns3:TrackPointExtension/>
        </extensions>
      </trkpt>
      <trkpt lat="51.86132946051657199859619140625" lon="39.45517189800739288330078125">
        <ele>133.1999969482421875</ele>
        <time>2017-01-15T08:51:03.000Z</time>
        <extensions>
          <ns3:TrackPointExtension/>
        </extensions>
      </trkpt>
      <trkpt lat="51.86162349767982959747314453125" lon="39.45531137287616729736328125">
        <ele>134</ele>
        <time>2017-01-15T08:51:10.000Z</time>
        <extensions>
          <ns3:TrackPointExtension/>
        </extensions>
      </trkpt>
      <trkpt lat="51.86177353374660015106201171875" lon="39.45539318025112152099609375">
        <ele>134</ele>
        <time>2017-01-15T08:51:13.000Z</time>
        <extensions>
          <ns3:TrackPointExtension/>
        </extensions>
      </trkpt>
      <trkpt lat="51.86181955039501190185546875" lon="39.45542025379836559295654296875">
        <ele>133.8000030517578125</ele>
        <time>2017-01-15T08:51:14.000Z</time>
        <extensions>
          <ns3:TrackPointExtension/>
        </extensions>
      </trkpt>
      <trkpt lat="51.86199230141937732696533203125" lon="39.4555241055786609649658203125">
        <ele>133.8000030517578125</ele>
        <time>2017-01-15T08:51:18.000Z</time>
        <extensions>
          <ns3:TrackPointExtension/>
        </extensions>
      </trkpt>
      <trkpt lat="51.86239354312419891357421875" lon="39.45572711527347564697265625">
        <ele>133.600006103515625</ele>
        <time>2017-01-15T08:51:28.000Z</time>
        <extensions>
          <ns3:TrackPointExtension/>
        </extensions>
      </trkpt>
      <trkpt lat="51.86279989778995513916015625" lon="39.45590791292488574981689453125">
        <ele>134.1999969482421875</ele>
        <time>2017-01-15T08:51:39.000Z</time>
        <extensions>
          <ns3:TrackPointExtension/>
        </extensions>
      </trkpt>
      <trkpt lat="51.863311864435672760009765625" lon="39.4561664946377277374267578125">
        <ele>134.600006103515625</ele>
        <time>2017-01-15T08:51:52.000Z</time>
        <extensions>
          <ns3:TrackPointExtension/>
        </extensions>
      </trkpt>
      <trkpt lat="51.86360732652246952056884765625" lon="39.45627822540700435638427734375">
        <ele>133.600006103515625</ele>
        <time>2017-01-15T08:51:58.000Z</time>
        <extensions>
          <ns3:TrackPointExtension/>
        </extensions>
      </trkpt>
      <trkpt lat="51.86365376226603984832763671875" lon="39.4562972523272037506103515625">
        <ele>133.399993896484375</ele>
        <time>2017-01-15T08:51:59.000Z</time>
        <extensions>
          <ns3:TrackPointExtension/>
        </extensions>
      </trkpt>
      <trkpt lat="51.8637053109705448150634765625" lon="39.45632097311317920684814453125">
        <ele>133.1999969482421875</ele>
        <time>2017-01-15T08:52:00.000Z</time>
        <extensions>
          <ns3:TrackPointExtension/>
        </extensions>
      </trkpt>
      <trkpt lat="51.8637554347515106201171875" lon="39.4563465379178524017333984375">
        <ele>133.1999969482421875</ele>
        <time>2017-01-15T08:52:01.000Z</time>
        <extensions>
          <ns3:TrackPointExtension/>
        </extensions>
      </trkpt>
      <trkpt lat="51.86380815692245960235595703125" lon="39.4563741981983184814453125">
        <ele>133</ele>
        <time>2017-01-15T08:52:02.000Z</time>
        <extensions>
          <ns3:TrackPointExtension/>
        </extensions>
      </trkpt>
      <trkpt lat="51.8638618849217891693115234375" lon="39.456402696669101715087890625">
        <ele>132.8000030517578125</ele>
        <time>2017-01-15T08:52:03.000Z</time>
        <extensions>
          <ns3:TrackPointExtension/>
        </extensions>
      </trkpt>
      <trkpt lat="51.8641327880322933197021484375" lon="39.45653202943503856658935546875">
        <ele>131.8000030517578125</ele>
        <time>2017-01-15T08:52:08.000Z</time>
        <extensions>
          <ns3:TrackPointExtension/>
        </extensions>
      </trkpt>
      <trkpt lat="51.864227838814258575439453125" lon="39.45657729171216487884521484375">
        <ele>131.399993896484375</ele>
        <time>2017-01-15T08:52:10.000Z</time>
        <extensions>
          <ns3:TrackPointExtension/>
        </extensions>
      </trkpt>
      <trkpt lat="51.8642692454159259796142578125" lon="39.45659992285072803497314453125">
        <ele>131.1999969482421875</ele>
        <time>2017-01-15T08:52:11.000Z</time>
        <extensions>
          <ns3:TrackPointExtension/>
        </extensions>
      </trkpt>
      <trkpt lat="51.86430453322827816009521484375" lon="39.456626661121845245361328125">
        <ele>131.1999969482421875</ele>
        <time>2017-01-15T08:52:12.000Z</time>
        <extensions>
          <ns3:TrackPointExtension/>
        </extensions>
      </trkpt>
      <trkpt lat="51.86434661038219928741455078125" lon="39.45664652623236179351806640625">
        <ele>131</ele>
        <time>2017-01-15T08:52:13.000Z</time>
        <extensions>
          <ns3:TrackPointExtension/>
        </extensions>
      </trkpt>
      <trkpt lat="51.8643932975828647613525390625" lon="39.45666714571416378021240234375">
        <ele>130.8000030517578125</ele>
        <time>2017-01-15T08:52:14.000Z</time>
        <extensions>
          <ns3:TrackPointExtension/>
        </extensions>
      </trkpt>
      <trkpt lat="51.864531598985195159912109375" lon="39.45674090646207332611083984375">
        <ele>130.399993896484375</ele>
        <time>2017-01-15T08:52:17.000Z</time>
        <extensions>
          <ns3:TrackPointExtension/>
        </extensions>
      </trkpt>
      <trkpt lat="51.86498011462390422821044921875" lon="39.4569748453795909881591796875">
        <ele>128.8000030517578125</ele>
        <time>2017-01-15T08:52:27.000Z</time>
        <extensions>
          <ns3:TrackPointExtension/>
        </extensions>
      </trkpt>
      <trkpt lat="51.86502252705395221710205078125" lon="39.45699403993785381317138671875">
        <ele>128.600006103515625</ele>
        <time>2017-01-15T08:52:28.000Z</time>
        <extensions>
          <ns3:TrackPointExtension/>
        </extensions>
      </trkpt>
      <trkpt lat="51.86505923978984355926513671875" lon="39.457014910876750946044921875">
        <ele>128.600006103515625</ele>
        <time>2017-01-15T08:52:29.000Z</time>
        <extensions>
          <ns3:TrackPointExtension/>
        </extensions>
      </trkpt>
      <trkpt lat="51.8650973774492740631103515625" lon="39.45703511126339435577392578125">
        <ele>128.600006103515625</ele>
        <time>2017-01-15T08:52:30.000Z</time>
        <extensions>
          <ns3:TrackPointExtension/>
        </extensions>
      </trkpt>
      <trkpt lat="51.8651339225471019744873046875" lon="39.45705254562199115753173828125">
        <ele>128.600006103515625</ele>
        <time>2017-01-15T08:52:31.000Z</time>
        <extensions>
          <ns3:TrackPointExtension/>
        </extensions>
      </trkpt>
      <trkpt lat="51.865172646939754486083984375" lon="39.45707090198993682861328125">
        <ele>128.600006103515625</ele>
        <time>2017-01-15T08:52:32.000Z</time>
        <extensions>
          <ns3:TrackPointExtension/>
        </extensions>
      </trkpt>
      <trkpt lat="51.86571143567562103271484375" lon="39.45733132772147655487060546875">
        <ele>128.1999969482421875</ele>
        <time>2017-01-15T08:52:44.000Z</time>
        <extensions>
          <ns3:TrackPointExtension/>
        </extensions>
      </trkpt>
      <trkpt lat="51.8659020401537418365478515625" lon="39.45742822252213954925537109375">
        <ele>128.600006103515625</ele>
        <time>2017-01-15T08:52:48.000Z</time>
        <extensions>
          <ns3:TrackPointExtension/>
        </extensions>
      </trkpt>
      <trkpt lat="51.86594545841217041015625" lon="39.45745856501162052154541015625">
        <ele>128.600006103515625</ele>
        <time>2017-01-15T08:52:49.000Z</time>
        <extensions>
          <ns3:TrackPointExtension/>
        </extensions>
      </trkpt>
      <trkpt lat="51.86604042537510395050048828125" lon="39.457513131201267242431640625">
        <ele>128.8000030517578125</ele>
        <time>2017-01-15T08:52:51.000Z</time>
        <extensions>
          <ns3:TrackPointExtension/>
        </extensions>
      </trkpt>
      <trkpt lat="51.86609306372702121734619140625" lon="39.457539282739162445068359375">
        <ele>129</ele>
        <time>2017-01-15T08:52:52.000Z</time>
        <extensions>
          <ns3:TrackPointExtension/>
        </extensions>
      </trkpt>
      <trkpt lat="51.86622030101716518402099609375" lon="39.45762368850409984588623046875">
        <ele>129.1999969482421875</ele>
        <time>2017-01-15T08:52:55.000Z</time>
        <extensions>
          <ns3:TrackPointExtension/>
        </extensions>
      </trkpt>
      <trkpt lat="51.86631199903786182403564453125" lon="39.4576777517795562744140625">
        <ele>129.399993896484375</ele>
        <time>2017-01-15T08:52:57.000Z</time>
        <extensions>
          <ns3:TrackPointExtension/>
        </extensions>
      </trkpt>
      <trkpt lat="51.866399757564067840576171875" lon="39.45772963576018810272216796875">
        <ele>129.600006103515625</ele>
        <time>2017-01-15T08:52:59.000Z</time>
        <extensions>
          <ns3:TrackPointExtension/>
        </extensions>
      </trkpt>
      <trkpt lat="51.86693594790995121002197265625" lon="39.45799483917653560638427734375">
        <ele>130.399993896484375</ele>
        <time>2017-01-15T08:53:11.000Z</time>
        <extensions>
          <ns3:TrackPointExtension/>
        </extensions>
      </trkpt>
      <trkpt lat="51.86703720130026340484619140625" lon="39.458040185272693634033203125">
        <ele>130.600006103515625</ele>
        <time>2017-01-15T08:53:13.000Z</time>
        <extensions>
          <ns3:TrackPointExtension/>
        </extensions>
      </trkpt>
      <trkpt lat="51.867083050310611724853515625" lon="39.45806038565933704376220703125">
        <ele>130.600006103515625</ele>
        <time>2017-01-15T08:53:14.000Z</time>
        <extensions>
          <ns3:TrackPointExtension/>
        </extensions>
      </trkpt>
      <trkpt lat="51.867325119674205780029296875" lon="39.4581851921975612640380859375">
        <ele>130.8000030517578125</ele>
        <time>2017-01-15T08:53:19.000Z</time>
        <extensions>
          <ns3:TrackPointExtension/>
        </extensions>
      </trkpt>
      <trkpt lat="51.8676585517823696136474609375" lon="39.45836112834513187408447265625">
        <ele>130</ele>
        <time>2017-01-15T08:53:26.000Z</time>
        <extensions>
          <ns3:TrackPointExtension/>
        </extensions>
      </trkpt>
      <trkpt lat="51.86788159422576427459716796875" lon="39.45849859155714511871337890625">
        <ele>129.1999969482421875</ele>
        <time>2017-01-15T08:53:31.000Z</time>
        <extensions>
          <ns3:TrackPointExtension/>
        </extensions>
      </trkpt>
      <trkpt lat="51.86811829917132854461669921875" lon="39.45861694402992725372314453125">
        <ele>128.399993896484375</ele>
        <time>2017-01-15T08:53:36.000Z</time>
        <extensions>
          <ns3:TrackPointExtension/>
        </extensions>
      </trkpt>
      <trkpt lat="51.86862976290285587310791015625" lon="39.45880855433642864227294921875">
        <ele>126.1999969482421875</ele>
        <time>2017-01-15T08:53:45.000Z</time>
        <extensions>
          <ns3:TrackPointExtension/>
        </extensions>
      </trkpt>
      <trkpt lat="51.86867821030318737030029296875" lon="39.458832107484340667724609375">
        <ele>126</ele>
        <time>2017-01-15T08:53:46.000Z</time>
        <extensions>
          <ns3:TrackPointExtension/>
        </extensions>
      </trkpt>
      <trkpt lat="51.869317330420017242431640625" lon="39.459166713058948516845703125">
        <ele>123.8000030517578125</ele>
        <time>2017-01-15T08:53:59.000Z</time>
        <extensions>
          <ns3:TrackPointExtension/>
        </extensions>
      </trkpt>
      <trkpt lat="51.86983072198927402496337890625" lon="39.45940467528998851776123046875">
        <ele>122</ele>
        <time>2017-01-15T08:54:10.000Z</time>
        <extensions>
          <ns3:TrackPointExtension/>
        </extensions>
      </trkpt>
      <trkpt lat="51.86988302506506443023681640625" lon="39.459426216781139373779296875">
        <ele>121.8000030517578125</ele>
        <time>2017-01-15T08:54:11.000Z</time>
        <extensions>
          <ns3:TrackPointExtension/>
        </extensions>
      </trkpt>
      <trkpt lat="51.87062884680926799774169921875" lon="39.45976249873638153076171875">
        <ele>120.59999847412109375</ele>
        <time>2017-01-15T08:54:26.000Z</time>
        <extensions>
          <ns3:TrackPointExtension/>
        </extensions>
      </trkpt>
      <trkpt lat="51.87082297168672084808349609375" lon="39.4598407857120037078857421875">
        <ele>120.40000152587890625</ele>
        <time>2017-01-15T08:54:30.000Z</time>
        <extensions>
          <ns3:TrackPointExtension/>
        </extensions>
      </trkpt>
      <trkpt lat="51.87161003239452838897705078125" lon="39.46024001576006412506103515625">
        <ele>120</ele>
        <time>2017-01-15T08:54:46.000Z</time>
        <extensions>
          <ns3:TrackPointExtension/>
        </extensions>
      </trkpt>
      <trkpt lat="51.87247169204056262969970703125" lon="39.4606555067002773284912109375">
        <ele>122.1999969482421875</ele>
        <time>2017-01-15T08:55:03.000Z</time>
        <extensions>
          <ns3:TrackPointExtension/>
        </extensions>
      </trkpt>
      <trkpt lat="51.87300092540681362152099609375" lon="39.4609200395643711090087890625">
        <ele>121</ele>
        <time>2017-01-15T08:55:14.000Z</time>
        <extensions>
          <ns3:TrackPointExtension/>
        </extensions>
      </trkpt>
      <trkpt lat="51.8730494566261768341064453125" lon="39.4609438441693782806396484375">
        <ele>120.8000030517578125</ele>
        <time>2017-01-15T08:55:15.000Z</time>
        <extensions>
          <ns3:TrackPointExtension/>
        </extensions>
      </trkpt>
      <trkpt lat="51.87363375909626483917236328125" lon="39.46127601899206638336181640625">
        <ele>121.59999847412109375</ele>
        <time>2017-01-15T08:55:27.000Z</time>
        <extensions>
          <ns3:TrackPointExtension/>
        </extensions>
      </trkpt>
      <trkpt lat="51.87368287704885005950927734375" lon="39.46130032651126384735107421875">
        <ele>121.8000030517578125</ele>
        <time>2017-01-15T08:55:28.000Z</time>
        <extensions>
          <ns3:TrackPointExtension/>
        </extensions>
      </trkpt>
      <trkpt lat="51.8739371001720428466796875" lon="39.461439549922943115234375">
        <ele>122.59999847412109375</ele>
        <time>2017-01-15T08:55:34.000Z</time>
        <extensions>
          <ns3:TrackPointExtension/>
        </extensions>
      </trkpt>
      <trkpt lat="51.8745504878461360931396484375" lon="39.46172277443110942840576171875">
        <ele>122.59999847412109375</ele>
        <time>2017-01-15T08:55:46.000Z</time>
        <extensions>
          <ns3:TrackPointExtension/>
        </extensions>
      </trkpt>
      <trkpt lat="51.874701865017414093017578125" lon="39.4618008099496364593505859375">
        <ele>122.59999847412109375</ele>
        <time>2017-01-15T08:55:49.000Z</time>
        <extensions>
          <ns3:TrackPointExtension/>
        </extensions>
      </trkpt>
      <trkpt lat="51.87474939040839672088623046875" lon="39.46182771585881710052490234375">
        <ele>122.59999847412109375</ele>
        <time>2017-01-15T08:55:50.000Z</time>
        <extensions>
          <ns3:TrackPointExtension/>
        </extensions>
      </trkpt>
      <trkpt lat="51.874998919665813446044921875" lon="39.46193617768585681915283203125">
        <ele>122.1999969482421875</ele>
        <time>2017-01-15T08:55:55.000Z</time>
        <extensions>
          <ns3:TrackPointExtension/>
        </extensions>
      </trkpt>
      <trkpt lat="51.87504510395228862762451171875" lon="39.4619557075202465057373046875">
        <ele>122.1999969482421875</ele>
        <time>2017-01-15T08:55:56.000Z</time>
        <extensions>
          <ns3:TrackPointExtension/>
        </extensions>
      </trkpt>
      <trkpt lat="51.875612474977970123291015625" lon="39.462192244827747344970703125">
        <ele>120.8000030517578125</ele>
        <time>2017-01-15T08:56:07.000Z</time>
        <extensions>
          <ns3:TrackPointExtension/>
        </extensions>
      </trkpt>
      <trkpt lat="51.87602855265140533447265625" lon="39.46240019984543323516845703125">
        <ele>120.8000030517578125</ele>
        <time>2017-01-15T08:56:16.000Z</time>
        <extensions>
          <ns3:TrackPointExtension/>
        </extensions>
      </trkpt>
      <trkpt lat="51.87607272528111934661865234375" lon="39.46242651902139186859130859375">
        <ele>120.8000030517578125</ele>
        <time>2017-01-15T08:56:17.000Z</time>
        <extensions>
          <ns3:TrackPointExtension/>
        </extensions>
      </trkpt>
      <trkpt lat="51.87612335197627544403076171875" lon="39.462451077997684478759765625">
        <ele>120.8000030517578125</ele>
        <time>2017-01-15T08:56:18.000Z</time>
        <extensions>
          <ns3:TrackPointExtension/>
        </extensions>
      </trkpt>
      <trkpt lat="51.87676004134118556976318359375" lon="39.4628106616437435150146484375">
        <ele>122.8000030517578125</ele>
        <time>2017-01-15T08:56:32.000Z</time>
        <extensions>
          <ns3:TrackPointExtension/>
        </extensions>
      </trkpt>
      <trkpt lat="51.87734643928706645965576171875" lon="39.46307075209915637969970703125">
        <ele>126</ele>
        <time>2017-01-15T08:56:44.000Z</time>
        <extensions>
          <ns3:TrackPointExtension/>
        </extensions>
      </trkpt>
      <trkpt lat="51.87811128795146942138671875" lon="39.46342798881232738494873046875">
        <ele>128.8000030517578125</ele>
        <time>2017-01-15T08:57:00.000Z</time>
        <extensions>
          <ns3:TrackPointExtension/>
        </extensions>
      </trkpt>
      <trkpt lat="51.8788292817771434783935546875" lon="39.463799893856048583984375">
        <ele>130.1999969482421875</ele>
        <time>2017-01-15T08:57:16.000Z</time>
        <extensions>
          <ns3:TrackPointExtension/>
        </extensions>
      </trkpt>
      <trkpt lat="51.87965565361082553863525390625" lon="39.464222006499767303466796875">
        <ele>129.600006103515625</ele>
        <time>2017-01-15T08:57:35.000Z</time>
        <extensions>
          <ns3:TrackPointExtension/>
        </extensions>
      </trkpt>
      <trkpt lat="51.8796983174979686737060546875" lon="39.46422703564167022705078125">
        <ele>129.600006103515625</ele>
        <time>2017-01-15T08:57:36.000Z</time>
        <extensions>
          <ns3:TrackPointExtension/>
        </extensions>
      </trkpt>
      <trkpt lat="51.8797414004802703857421875" lon="39.46422259323298931121826171875">
        <ele>129.600006103515625</ele>
        <time>2017-01-15T08:57:37.000Z</time>
        <extensions>
          <ns3:TrackPointExtension/>
        </extensions>
      </trkpt>
      <trkpt lat="51.88000635243952274322509765625" lon="39.4641383551061153411865234375">
        <ele>129.1999969482421875</ele>
        <time>2017-01-15T08:57:43.000Z</time>
        <extensions>
          <ns3:TrackPointExtension/>
        </extensions>
      </trkpt>
      <trkpt lat="51.8800471723079681396484375" lon="39.4641158916056156158447265625">
        <ele>129.1999969482421875</ele>
        <time>2017-01-15T08:57:44.000Z</time>
        <extensions>
          <ns3:TrackPointExtension/>
        </extensions>
      </trkpt>
      <trkpt lat="51.88008564524352550506591796875" lon="39.4640894047915935516357421875">
        <ele>129.1999969482421875</ele>
        <time>2017-01-15T08:57:45.000Z</time>
        <extensions>
          <ns3:TrackPointExtension/>
        </extensions>
      </trkpt>
      <trkpt lat="51.88074882142245769500732421875" lon="39.46361482143402099609375">
        <ele>128</ele>
        <time>2017-01-15T08:58:01.000Z</time>
        <extensions>
          <ns3:TrackPointExtension/>
        </extensions>
      </trkpt>
      <trkpt lat="51.8812704272568225860595703125" lon="39.463234283030033111572265625">
        <ele>127.8000030517578125</ele>
        <time>2017-01-15T08:58:14.000Z</time>
        <extensions>
          <ns3:TrackPointExtension/>
        </extensions>
      </trkpt>
      <trkpt lat="51.881887502968311309814453125" lon="39.46288417093455791473388671875">
        <ele>127.1999969482421875</ele>
        <time>2017-01-15T08:58:28.000Z</time>
        <extensions>
          <ns3:TrackPointExtension/>
        </extensions>
      </trkpt>
      <trkpt lat="51.88264958560466766357421875" lon="39.46250078268349170684814453125">
        <ele>125.59999847412109375</ele>
        <time>2017-01-15T08:58:45.000Z</time>
        <extensions>
          <ns3:TrackPointExtension/>
        </extensions>
      </trkpt>
      <trkpt lat="51.8830219097435474395751953125" lon="39.46239533834159374237060546875">
        <ele>125.59999847412109375</ele>
        <time>2017-01-15T08:58:53.000Z</time>
        <extensions>
          <ns3:TrackPointExtension/>
        </extensions>
      </trkpt>
      <trkpt lat="51.883678548038005828857421875" lon="39.4624515809118747711181640625">
        <ele>126</ele>
        <time>2017-01-15T08:59:07.000Z</time>
        <extensions>
          <ns3:TrackPointExtension/>
        </extensions>
      </trkpt>
      <trkpt lat="51.88442051410675048828125" lon="39.4628847576677799224853515625">
        <ele>126.1999969482421875</ele>
        <time>2017-01-15T08:59:23.000Z</time>
        <extensions>
          <ns3:TrackPointExtension/>
        </extensions>
      </trkpt>
      <trkpt lat="51.88505996949970722198486328125" lon="39.46309388615190982818603515625">
        <ele>126.59999847412109375</ele>
        <time>2017-01-15T08:59:38.000Z</time>
        <extensions>
          <ns3:TrackPointExtension/>
        </extensions>
      </trkpt>
      <trkpt lat="51.8854700960218906402587890625" lon="39.46317669935524463653564453125">
        <ele>126.59999847412109375</ele>
        <time>2017-01-15T08:59:51.000Z</time>
        <extensions>
          <ns3:TrackPointExtension/>
        </extensions>
      </trkpt>
      <trkpt lat="51.88547034747898578643798828125" lon="39.46317703463137149810791015625">
        <ele>126.59999847412109375</ele>
        <time>2017-01-15T08:59:53.000Z</time>
        <extensions>
          <ns3:TrackPointExtension/>
        </extensions>
      </trkpt>
      <trkpt lat="51.885503791272640228271484375" lon="39.46317301131784915924072265625">
        <ele>126.59999847412109375</ele>
        <time>2017-01-15T09:01:47.000Z</time>
        <extensions>
          <ns3:TrackPointExtension/>
        </extensions>
      </trkpt>
      <trkpt lat="51.8858315236866474151611328125" lon="39.46327242068946361541748046875">
        <ele>126.40000152587890625</ele>
        <time>2017-01-15T09:01:58.000Z</time>
        <extensions>
          <ns3:TrackPointExtension/>
        </extensions>
      </trkpt>
      <trkpt lat="51.8863914348185062408447265625" lon="39.46342698298394680023193359375">
        <ele>125.40000152587890625</ele>
        <time>2017-01-15T09:02:11.000Z</time>
        <extensions>
          <ns3:TrackPointExtension/>
        </extensions>
      </trkpt>
      <trkpt lat="51.88654155470430850982666015625" lon="39.46348138153553009033203125">
        <ele>125.1999969482421875</ele>
        <time>2017-01-15T09:02:14.000Z</time>
        <extensions>
          <ns3:TrackPointExtension/>
        </extensions>
      </trkpt>
      <trkpt lat="51.8871669284999370574951171875" lon="39.46369386278092861175537109375">
        <ele>125.59999847412109375</ele>
        <time>2017-01-15T09:02:27.000Z</time>
        <extensions>
          <ns3:TrackPointExtension/>
        </extensions>
      </trkpt>
      <trkpt lat="51.8877861835062503814697265625" lon="39.46419619023799896240234375">
        <ele>124.59999847412109375</ele>
        <time>2017-01-15T09:02:43.000Z</time>
        <extensions>
          <ns3:TrackPointExtension/>
        </extensions>
      </trkpt>
      <trkpt lat="51.8884510360658168792724609375" lon="39.46485810913145542144775390625">
        <ele>122</ele>
        <time>2017-01-15T09:03:00.000Z</time>
        <extensions>
          <ns3:TrackPointExtension/>
        </extensions>
      </trkpt>
      <trkpt lat="51.889042295515537261962890625" lon="39.46539337746798992156982421875">
        <ele>118.8000030517578125</ele>
        <time>2017-01-15T09:03:14.000Z</time>
        <extensions>
          <ns3:TrackPointExtension/>
        </extensions>
      </trkpt>
      <trkpt lat="51.88964839093387126922607421875" lon="39.4658036716282367706298828125">
        <ele>117.1999969482421875</ele>
        <time>2017-01-15T09:03:28.000Z</time>
        <extensions>
          <ns3:TrackPointExtension/>
        </extensions>
      </trkpt>
      <trkpt lat="51.89033000729978084564208984375" lon="39.46608387865126132965087890625">
        <ele>117.1999969482421875</ele>
        <time>2017-01-15T09:03:43.000Z</time>
        <extensions>
          <ns3:TrackPointExtension/>
        </extensions>
      </trkpt>
      <trkpt lat="51.89098815433681011199951171875" lon="39.46638311259448528289794921875">
        <ele>119</ele>
        <time>2017-01-15T09:03:58.000Z</time>
        <extensions>
          <ns3:TrackPointExtension/>
        </extensions>
      </trkpt>
      <trkpt lat="51.891601793467998504638671875" lon="39.466377161443233489990234375">
        <ele>122.59999847412109375</ele>
        <time>2017-01-15T09:04:13.000Z</time>
        <extensions>
          <ns3:TrackPointExtension/>
        </extensions>
      </trkpt>
      <trkpt lat="51.89186423085629940032958984375" lon="39.4663588888943195343017578125">
        <ele>123.1999969482421875</ele>
        <time>2017-01-15T09:04:27.000Z</time>
        <extensions>
          <ns3:TrackPointExtension/>
        </extensions>
      </trkpt>
      <trkpt lat="51.8921943940222263336181640625" lon="39.4663796760141849517822265625">
        <ele>123.40000152587890625</ele>
        <time>2017-01-15T09:04:38.000Z</time>
        <extensions>
          <ns3:TrackPointExtension/>
        </extensions>
      </trkpt>
      <trkpt lat="51.8926213681697845458984375" lon="39.46638260968029499053955078125">
        <ele>124.59999847412109375</ele>
        <time>2017-01-15T09:04:52.000Z</time>
        <extensions>
          <ns3:TrackPointExtension/>
        </extensions>
      </trkpt>
      <trkpt lat="51.89305312000215053558349609375" lon="39.46638059802353382110595703125">
        <ele>126</ele>
        <time>2017-01-15T09:05:05.000Z</time>
        <extensions>
          <ns3:TrackPointExtension/>
        </extensions>
      </trkpt>
      <trkpt lat="51.89333491958677768707275390625" lon="39.466368444263935089111328125">
        <ele>126.40000152587890625</ele>
        <time>2017-01-15T09:05:16.000Z</time>
        <extensions>
          <ns3:TrackPointExtension/>
        </extensions>
      </trkpt>
      <trkpt lat="51.893741190433502197265625" lon="39.466331899166107177734375">
        <ele>125</ele>
        <time>2017-01-15T09:05:29.000Z</time>
        <extensions>
          <ns3:TrackPointExtension/>
        </extensions>
      </trkpt>
      <trkpt lat="51.8939705193042755126953125" lon="39.46634774096310138702392578125">
        <ele>124.1999969482421875</ele>
        <time>2017-01-15T09:05:40.000Z</time>
        <extensions>
          <ns3:TrackPointExtension/>
        </extensions>
      </trkpt>
      <trkpt lat="51.894090212881565093994140625" lon="39.4663769938051700592041015625">
        <ele>123.8000030517578125</ele>
        <time>2017-01-15T09:05:54.000Z</time>
        <extensions>
          <ns3:TrackPointExtension/>
        </extensions>
      </trkpt>
      <trkpt lat="51.89410471357405185699462890625" lon="39.4663759879767894744873046875">
        <ele>123.59999847412109375</ele>
        <time>2017-01-15T09:05:55.000Z</time>
        <extensions>
          <ns3:TrackPointExtension/>
        </extensions>
      </trkpt>
      <trkpt lat="51.8941178731620311737060546875" lon="39.46638026274740695953369140625">
        <ele>123.59999847412109375</ele>
        <time>2017-01-15T09:05:56.000Z</time>
        <extensions>
          <ns3:TrackPointExtension/>
        </extensions>
      </trkpt>
      <trkpt lat="51.89413614571094512939453125" lon="39.4663863815367221832275390625">
        <ele>123.59999847412109375</ele>
        <time>2017-01-15T09:05:57.000Z</time>
        <extensions>
          <ns3:TrackPointExtension/>
        </extensions>
      </trkpt>
      <trkpt lat="51.89415735192596912384033203125" lon="39.46639157831668853759765625">
        <ele>123.59999847412109375</ele>
        <time>2017-01-15T09:05:58.000Z</time>
        <extensions>
          <ns3:TrackPointExtension/>
        </extensions>
      </trkpt>
      <trkpt lat="51.89417461864650249481201171875" lon="39.46639803238213062286376953125">
        <ele>123.59999847412109375</ele>
        <time>2017-01-15T09:05:59.000Z</time>
        <extensions>
          <ns3:TrackPointExtension/>
        </extensions>
      </trkpt>
      <trkpt lat="51.89427050761878490447998046875" lon="39.4663964398205280303955078125">
        <ele>123.40000152587890625</ele>
        <time>2017-01-15T09:06:09.000Z</time>
        <extensions>
          <ns3:TrackPointExtension/>
        </extensions>
      </trkpt>
      <trkpt lat="51.89429632388055324554443359375" lon="39.46639518253505229949951171875">
        <ele>123.40000152587890625</ele>
        <time>2017-01-15T09:06:11.000Z</time>
        <extensions>
          <ns3:TrackPointExtension/>
        </extensions>
      </trkpt>
      <trkpt lat="51.89441467635333538055419921875" lon="39.4663981162011623382568359375">
        <ele>123.1999969482421875</ele>
        <time>2017-01-15T09:06:25.000Z</time>
        <extensions>
          <ns3:TrackPointExtension/>
        </extensions>
      </trkpt>
      <trkpt lat="51.8944719247519969940185546875" lon="39.4664004631340503692626953125">
        <ele>123.1999969482421875</ele>
        <time>2017-01-15T09:06:30.000Z</time>
        <extensions>
          <ns3:TrackPointExtension/>
        </extensions>
      </trkpt>
      <trkpt lat="51.89464065246284008026123046875" lon="39.46641345508396625518798828125">
        <ele>123</ele>
        <time>2017-01-15T09:06:43.000Z</time>
        <extensions>
          <ns3:TrackPointExtension/>
        </extensions>
      </trkpt>
      <trkpt lat="51.8946596793830394744873046875" lon="39.4664137065410614013671875">
        <ele>123</ele>
        <time>2017-01-15T09:06:45.000Z</time>
        <extensions>
          <ns3:TrackPointExtension/>
        </extensions>
      </trkpt>
      <trkpt lat="51.8946730904281139373779296875" lon="39.4664138741791248321533203125">
        <ele>123</ele>
        <time>2017-01-15T09:06:46.000Z</time>
        <extensions>
          <ns3:TrackPointExtension/>
        </extensions>
      </trkpt>
      <trkpt lat="51.89471005462110042572021484375" lon="39.46641731075942516326904296875">
        <ele>123</ele>
        <time>2017-01-15T09:06:48.000Z</time>
        <extensions>
          <ns3:TrackPointExtension/>
        </extensions>
      </trkpt>
      <trkpt lat="51.89509092830121517181396484375" lon="39.46650582365691661834716796875">
        <ele>122.8000030517578125</ele>
        <time>2017-01-15T09:07:02.000Z</time>
        <extensions>
          <ns3:TrackPointExtension/>
        </extensions>
      </trkpt>
      <trkpt lat="51.89536702819168567657470703125" lon="39.46662602014839649200439453125">
        <ele>123</ele>
        <time>2017-01-15T09:07:14.000Z</time>
        <extensions>
          <ns3:TrackPointExtension/>
        </extensions>
      </trkpt>
      <trkpt lat="51.89553533680737018585205078125" lon="39.4666938297450542449951171875">
        <ele>123.1999969482421875</ele>
        <time>2017-01-15T09:07:25.000Z</time>
        <extensions>
          <ns3:TrackPointExtension/>
        </extensions>
      </trkpt>
      <trkpt lat="51.89574681222438812255859375" lon="39.46678695268929004669189453125">
        <ele>123.40000152587890625</ele>
        <time>2017-01-15T09:07:39.000Z</time>
        <extensions>
          <ns3:TrackPointExtension/>
        </extensions>
      </trkpt>
      <trkpt lat="51.89611519686877727508544921875" lon="39.466987363994121551513671875">
        <ele>122.59999847412109375</ele>
        <time>2017-01-15T09:07:52.000Z</time>
        <extensions>
          <ns3:TrackPointExtension/>
        </extensions>
      </trkpt>
      <trkpt lat="51.896552480757236480712890625" lon="39.46722616441547870635986328125">
        <ele>122</ele>
        <time>2017-01-15T09:08:04.000Z</time>
        <extensions>
          <ns3:TrackPointExtension/>
        </extensions>
      </trkpt>
      <trkpt lat="51.89677946269512176513671875" lon="39.4674673117697238922119140625">
        <ele>122.1999969482421875</ele>
        <time>2017-01-15T09:08:14.000Z</time>
        <extensions>
          <ns3:TrackPointExtension/>
        </extensions>
      </trkpt>
      <trkpt lat="51.897053383290767669677734375" lon="39.46783083491027355194091796875">
        <ele>122.59999847412109375</ele>
        <time>2017-01-15T09:08:27.000Z</time>
        <extensions>
          <ns3:TrackPointExtension/>
        </extensions>
      </trkpt>
      <trkpt lat="51.897377930581569671630859375" lon="39.46821003220975399017333984375">
        <ele>121.59999847412109375</ele>
        <time>2017-01-15T09:08:39.000Z</time>
        <extensions>
          <ns3:TrackPointExtension/>
        </extensions>
      </trkpt>
      <trkpt lat="51.897633410990238189697265625" lon="39.46851647458970546722412109375">
        <ele>121.59999847412109375</ele>
        <time>2017-01-15T09:08:50.000Z</time>
        <extensions>
          <ns3:TrackPointExtension/>
        </extensions>
      </trkpt>
      <trkpt lat="51.8980325572192668914794921875" lon="39.468911848962306976318359375">
        <ele>122.40000152587890625</ele>
        <time>2017-01-15T09:09:04.000Z</time>
        <extensions>
          <ns3:TrackPointExtension/>
        </extensions>
      </trkpt>
      <trkpt lat="51.89834117889404296875" lon="39.46923094801604747772216796875">
        <ele>122.59999847412109375</ele>
        <time>2017-01-15T09:09:16.000Z</time>
        <extensions>
          <ns3:TrackPointExtension/>
        </extensions>
      </trkpt>
      <trkpt lat="51.898548044264316558837890625" lon="39.4694635458290576934814453125">
        <ele>122</ele>
        <time>2017-01-15T09:09:29.000Z</time>
        <extensions>
          <ns3:TrackPointExtension/>
        </extensions>
      </trkpt>
      <trkpt lat="51.89884317107498645782470703125" lon="39.4697733409702777862548828125">
        <ele>120.59999847412109375</ele>
        <time>2017-01-15T09:09:41.000Z</time>
        <extensions>
          <ns3:TrackPointExtension/>
        </extensions>
      </trkpt>
      <trkpt lat="51.89924365840852260589599609375" lon="39.4701967947185039520263671875">
        <ele>117.40000152587890625</ele>
        <time>2017-01-15T09:09:54.000Z</time>
        <extensions>
          <ns3:TrackPointExtension/>
        </extensions>
      </trkpt>
      <trkpt lat="51.89944557845592498779296875" lon="39.4707186520099639892578125">
        <ele>114.1999969482421875</ele>
        <time>2017-01-15T09:10:06.000Z</time>
        <extensions>
          <ns3:TrackPointExtension/>
        </extensions>
      </trkpt>
      <trkpt lat="51.89968270249664783477783203125" lon="39.4708653353154659271240234375">
        <ele>112.1999969482421875</ele>
        <time>2017-01-15T09:10:17.000Z</time>
        <extensions>
          <ns3:TrackPointExtension/>
        </extensions>
      </trkpt>
      <trkpt lat="51.89978982321918010711669921875" lon="39.47099667973816394805908203125">
        <ele>111.1999969482421875</ele>
        <time>2017-01-15T09:10:24.000Z</time>
        <extensions>
          <ns3:TrackPointExtension/>
        </extensions>
      </trkpt>
      <trkpt lat="51.899802647531032562255859375" lon="39.47098360396921634674072265625">
        <ele>111.1999969482421875</ele>
        <time>2017-01-15T09:10:25.000Z</time>
        <extensions>
          <ns3:TrackPointExtension/>
        </extensions>
      </trkpt>
      <trkpt lat="51.899812035262584686279296875" lon="39.4709585420787334442138671875">
        <ele>111.1999969482421875</ele>
        <time>2017-01-15T09:10:26.000Z</time>
        <extensions>
          <ns3:TrackPointExtension/>
        </extensions>
      </trkpt>
      <trkpt lat="51.8998195789754390716552734375" lon="39.470926187932491302490234375">
        <ele>111.1999969482421875</ele>
        <time>2017-01-15T09:10:27.000Z</time>
        <extensions>
          <ns3:TrackPointExtension/>
        </extensions>
      </trkpt>
      <trkpt lat="51.899828128516674041748046875" lon="39.4708884693682193756103515625">
        <ele>111.1999969482421875</ele>
        <time>2017-01-15T09:10:28.000Z</time>
        <extensions>
          <ns3:TrackPointExtension/>
        </extensions>
      </trkpt>
      <trkpt lat="51.89983793534338474273681640625" lon="39.47085133753716945648193359375">
        <ele>111.1999969482421875</ele>
        <time>2017-01-15T09:10:29.000Z</time>
        <extensions>
          <ns3:TrackPointExtension/>
        </extensions>
      </trkpt>
      <trkpt lat="51.89985327422618865966796875" lon="39.4708180613815784454345703125">
        <ele>111.1999969482421875</ele>
        <time>2017-01-15T09:10:35.000Z</time>
        <extensions>
          <ns3:TrackPointExtension/>
        </extensions>
      </trkpt>
      <trkpt lat="51.89988587982952594757080078125" lon="39.470708929002285003662109375">
        <ele>111.1999969482421875</ele>
        <time>2017-01-15T09:10:58.000Z</time>
        <extensions>
          <ns3:TrackPointExtension/>
        </extensions>
      </trkpt>
      <trkpt lat="51.90011789090931415557861328125" lon="39.46992077864706516265869140625">
        <ele>112.59999847412109375</ele>
        <time>2017-01-15T09:11:12.000Z</time>
        <extensions>
          <ns3:TrackPointExtension/>
        </extensions>
      </trkpt>
      <trkpt lat="51.9004301168024539947509765625" lon="39.468850158154964447021484375">
        <ele>115</ele>
        <time>2017-01-15T09:11:29.000Z</time>
        <extensions>
          <ns3:TrackPointExtension/>
        </extensions>
      </trkpt>
      <trkpt lat="51.900471188127994537353515625" lon="39.46872116066515445709228515625">
        <ele>115.1999969482421875</ele>
        <time>2017-01-15T09:11:31.000Z</time>
        <extensions>
          <ns3:TrackPointExtension/>
        </extensions>
      </trkpt>
      <trkpt lat="51.90074418671429157257080078125" lon="39.4675241410732269287109375">
        <ele>113</ele>
        <time>2017-01-15T09:11:48.000Z</time>
        <extensions>
          <ns3:TrackPointExtension/>
        </extensions>
      </trkpt>
      <trkpt lat="51.90099732019007205963134765625" lon="39.46635763160884380340576171875">
        <ele>115.1999969482421875</ele>
        <time>2017-01-15T09:12:06.000Z</time>
        <extensions>
          <ns3:TrackPointExtension/>
        </extensions>
      </trkpt>
      <trkpt lat="51.901369392871856689453125" lon="39.46482919156551361083984375">
        <ele>116.8000030517578125</ele>
        <time>2017-01-15T09:12:29.000Z</time>
        <extensions>
          <ns3:TrackPointExtension/>
        </extensions>
      </trkpt>
      <trkpt lat="51.901675499975681304931640625" lon="39.46358640678226947784423828125">
        <ele>115.8000030517578125</ele>
        <time>2017-01-15T09:12:48.000Z</time>
        <extensions>
          <ns3:TrackPointExtension/>
        </extensions>
      </trkpt>
      <trkpt lat="51.9018734805285930633544921875" lon="39.46219769306480884552001953125">
        <ele>116.59999847412109375</ele>
        <time>2017-01-15T09:13:08.000Z</time>
        <extensions>
          <ns3:TrackPointExtension/>
        </extensions>
      </trkpt>
      <trkpt lat="51.90193089656531810760498046875" lon="39.46057680062949657440185546875">
        <ele>119</ele>
        <time>2017-01-15T09:13:31.000Z</time>
        <extensions>
          <ns3:TrackPointExtension/>
        </extensions>
      </trkpt>
      <trkpt lat="51.90215603448450565338134765625" lon="39.4594059325754642486572265625">
        <ele>118.8000030517578125</ele>
        <time>2017-01-15T09:13:48.000Z</time>
        <extensions>
          <ns3:TrackPointExtension/>
        </extensions>
      </trkpt>
      <trkpt lat="51.90277629531919956207275390625" lon="39.45803943090140819549560546875">
        <ele>118.1999969482421875</ele>
        <time>2017-01-15T09:14:11.000Z</time>
        <extensions>
          <ns3:TrackPointExtension/>
        </extensions>
      </trkpt>
      <trkpt lat="51.9032652117311954498291015625" lon="39.45666060782968997955322265625">
        <ele>119.1999969482421875</ele>
        <time>2017-01-15T09:14:31.000Z</time>
        <extensions>
          <ns3:TrackPointExtension/>
        </extensions>
      </trkpt>
      <trkpt lat="51.9036021642386913299560546875" lon="39.45476579479873180389404296875">
        <ele>122.40000152587890625</ele>
        <time>2017-01-15T09:14:55.000Z</time>
        <extensions>
          <ns3:TrackPointExtension/>
        </extensions>
      </trkpt>
      <trkpt lat="51.9037238694727420806884765625" lon="39.4532977044582366943359375">
        <ele>122.59999847412109375</ele>
        <time>2017-01-15T09:15:13.000Z</time>
        <extensions>
          <ns3:TrackPointExtension/>
        </extensions>
      </trkpt>
      <trkpt lat="51.903732083737850189208984375" lon="39.4530658610165119171142578125">
        <ele>123</ele>
        <time>2017-01-15T09:15:16.000Z</time>
        <extensions>
          <ns3:TrackPointExtension/>
        </extensions>
      </trkpt>
      <trkpt lat="51.90373451448976993560791015625" lon="39.45299394428730010986328125">
        <ele>123</ele>
        <time>2017-01-15T09:15:17.000Z</time>
        <extensions>
          <ns3:TrackPointExtension/>
        </extensions>
      </trkpt>
      <trkpt lat="51.90373652614653110504150390625" lon="39.4529206864535808563232421875">
        <ele>123</ele>
        <time>2017-01-15T09:15:18.000Z</time>
        <extensions>
          <ns3:TrackPointExtension/>
        </extensions>
      </trkpt>
      <trkpt lat="51.903737448155879974365234375" lon="39.45284307003021240234375">
        <ele>123.1999969482421875</ele>
        <time>2017-01-15T09:15:19.000Z</time>
        <extensions>
          <ns3:TrackPointExtension/>
        </extensions>
      </trkpt>
      <trkpt lat="51.9037396274507045745849609375" lon="39.45276168175041675567626953125">
        <ele>123.1999969482421875</ele>
        <time>2017-01-15T09:15:20.000Z</time>
        <extensions>
          <ns3:TrackPointExtension/>
        </extensions>
      </trkpt>
      <trkpt lat="51.90374138765037059783935546875" lon="39.4526816345751285552978515625">
        <ele>123.1999969482421875</ele>
        <time>2017-01-15T09:15:21.000Z</time>
        <extensions>
          <ns3:TrackPointExtension/>
        </extensions>
      </trkpt>
      <trkpt lat="51.9037459976971149444580078125" lon="39.452604688704013824462890625">
        <ele>123.1999969482421875</ele>
        <time>2017-01-15T09:15:22.000Z</time>
        <extensions>
          <ns3:TrackPointExtension/>
        </extensions>
      </trkpt>
      <trkpt lat="51.90374993719160556793212890625" lon="39.45218265987932682037353515625">
        <ele>123.59999847412109375</ele>
        <time>2017-01-15T09:15:27.000Z</time>
        <extensions>
          <ns3:TrackPointExtension/>
        </extensions>
      </trkpt>
      <trkpt lat="51.90375010482966899871826171875" lon="39.45209481753408908843994140625">
        <ele>123.59999847412109375</ele>
        <time>2017-01-15T09:15:28.000Z</time>
        <extensions>
          <ns3:TrackPointExtension/>
        </extensions>
      </trkpt>
      <trkpt lat="51.90368522889912128448486328125" lon="39.45044274441897869110107421875">
        <ele>123</ele>
        <time>2017-01-15T09:15:47.000Z</time>
        <extensions>
          <ns3:TrackPointExtension/>
        </extensions>
      </trkpt>
      <trkpt lat="51.90345254726707935333251953125" lon="39.44917875342071056365966796875">
        <ele>121</ele>
        <time>2017-01-15T09:16:02.000Z</time>
        <extensions>
          <ns3:TrackPointExtension/>
        </extensions>
      </trkpt>
      <trkpt lat="51.90314996056258678436279296875" lon="39.44757479242980480194091796875">
        <ele>126.59999847412109375</ele>
        <time>2017-01-15T09:16:21.000Z</time>
        <extensions>
          <ns3:TrackPointExtension/>
        </extensions>
      </trkpt>
      <trkpt lat="51.9030511379241943359375" lon="39.44702561013400554656982421875">
        <ele>129.399993896484375</ele>
        <time>2017-01-15T09:16:28.000Z</time>
        <extensions>
          <ns3:TrackPointExtension/>
        </extensions>
      </trkpt>
      <trkpt lat="51.90281979739665985107421875" lon="39.44580319337546825408935546875">
        <ele>126.1999969482421875</ele>
        <time>2017-01-15T09:16:43.000Z</time>
        <extensions>
          <ns3:TrackPointExtension/>
        </extensions>
      </trkpt>
      <trkpt lat="51.90281250514090061187744140625" lon="39.445726163685321807861328125">
        <ele>126</ele>
        <time>2017-01-15T09:16:44.000Z</time>
        <extensions>
          <ns3:TrackPointExtension/>
        </extensions>
      </trkpt>
      <trkpt lat="51.9028030335903167724609375" lon="39.445649050176143646240234375">
        <ele>125.8000030517578125</ele>
        <time>2017-01-15T09:16:45.000Z</time>
        <extensions>
          <ns3:TrackPointExtension/>
        </extensions>
      </trkpt>
      <trkpt lat="51.9027478806674480438232421875" lon="39.4450742192566394805908203125">
        <ele>124.40000152587890625</ele>
        <time>2017-01-15T09:16:52.000Z</time>
        <extensions>
          <ns3:TrackPointExtension/>
        </extensions>
      </trkpt>
      <trkpt lat="51.90274067223072052001953125" lon="39.444989897310733795166015625">
        <ele>124.40000152587890625</ele>
        <time>2017-01-15T09:16:53.000Z</time>
        <extensions>
          <ns3:TrackPointExtension/>
        </extensions>
      </trkpt>
      <trkpt lat="51.90272281877696514129638671875" lon="39.44481379352509975433349609375">
        <ele>124.1999969482421875</ele>
        <time>2017-01-15T09:16:55.000Z</time>
        <extensions>
          <ns3:TrackPointExtension/>
        </extensions>
      </trkpt>
      <trkpt lat="51.90255216322839260101318359375" lon="39.4434142671525478363037109375">
        <ele>125.40000152587890625</ele>
        <time>2017-01-15T09:17:11.000Z</time>
        <extensions>
          <ns3:TrackPointExtension/>
        </extensions>
      </trkpt>
      <trkpt lat="51.9024186395108699798583984375" lon="39.441993199288845062255859375">
        <ele>130</ele>
        <time>2017-01-15T09:17:27.000Z</time>
        <extensions>
          <ns3:TrackPointExtension/>
        </extensions>
      </trkpt>
      <trkpt lat="51.9022805057466030120849609375" lon="39.4406510889530181884765625">
        <ele>126.40000152587890625</ele>
        <time>2017-01-15T09:17:42.000Z</time>
        <extensions>
          <ns3:TrackPointExtension/>
        </extensions>
      </trkpt>
      <trkpt lat="51.90216324292123317718505859375" lon="39.43944669328629970550537109375">
        <ele>125.8000030517578125</ele>
        <time>2017-01-15T09:17:55.000Z</time>
        <extensions>
          <ns3:TrackPointExtension/>
        </extensions>
      </trkpt>
      <trkpt lat="51.9018925912678241729736328125" lon="39.43769060075283050537109375">
        <ele>123.8000030517578125</ele>
        <time>2017-01-15T09:18:15.000Z</time>
        <extensions>
          <ns3:TrackPointExtension/>
        </extensions>
      </trkpt>
      <trkpt lat="51.9018402881920337677001953125" lon="39.4373689033091068267822265625">
        <ele>122.8000030517578125</ele>
        <time>2017-01-15T09:18:19.000Z</time>
        <extensions>
          <ns3:TrackPointExtension/>
        </extensions>
      </trkpt>
      <trkpt lat="51.90176057629287242889404296875" lon="39.43613064475357532501220703125">
        <ele>123</ele>
        <time>2017-01-15T09:18:34.000Z</time>
        <extensions>
          <ns3:TrackPointExtension/>
        </extensions>
      </trkpt>
      <trkpt lat="51.90180902369320392608642578125" lon="39.43430556915700435638427734375">
        <ele>123.1999969482421875</ele>
        <time>2017-01-15T09:18:55.000Z</time>
        <extensions>
          <ns3:TrackPointExtension/>
        </extensions>
      </trkpt>
      <trkpt lat="51.90193793736398220062255859375" lon="39.43266824819147586822509765625">
        <ele>124.59999847412109375</ele>
        <time>2017-01-15T09:19:13.000Z</time>
        <extensions>
          <ns3:TrackPointExtension/>
        </extensions>
      </trkpt>
      <trkpt lat="51.902203895151615142822265625" lon="39.43103042431175708770751953125">
        <ele>126.59999847412109375</ele>
        <time>2017-01-15T09:19:31.000Z</time>
        <extensions>
          <ns3:TrackPointExtension/>
        </extensions>
      </trkpt>
      <trkpt lat="51.9024374149739742279052734375" lon="39.429745562374591827392578125">
        <ele>126.59999847412109375</ele>
        <time>2017-01-15T09:19:45.000Z</time>
        <extensions>
          <ns3:TrackPointExtension/>
        </extensions>
      </trkpt>
      <trkpt lat="51.90245426259934902191162109375" lon="39.42965713329613208770751953125">
        <ele>126.8000030517578125</ele>
        <time>2017-01-15T09:19:46.000Z</time>
        <extensions>
          <ns3:TrackPointExtension/>
        </extensions>
      </trkpt>
      <trkpt lat="51.9025088287889957427978515625" lon="39.42940056324005126953125">
        <ele>126.8000030517578125</ele>
        <time>2017-01-15T09:19:49.000Z</time>
        <extensions>
          <ns3:TrackPointExtension/>
        </extensions>
      </trkpt>
      <trkpt lat="51.9025265984237194061279296875" lon="39.42931498400866985321044921875">
        <ele>126.8000030517578125</ele>
        <time>2017-01-15T09:19:50.000Z</time>
        <extensions>
          <ns3:TrackPointExtension/>
        </extensions>
      </trkpt>
      <trkpt lat="51.90268510021269321441650390625" lon="39.42836246453225612640380859375">
        <ele>125.59999847412109375</ele>
        <time>2017-01-15T09:20:00.000Z</time>
        <extensions>
          <ns3:TrackPointExtension/>
        </extensions>
      </trkpt>
      <trkpt lat="51.90269499085843563079833984375" lon="39.42826808430254459381103515625">
        <ele>125.1999969482421875</ele>
        <time>2017-01-15T09:20:01.000Z</time>
        <extensions>
          <ns3:TrackPointExtension/>
        </extensions>
      </trkpt>
      <trkpt lat="51.9027093239128589630126953125" lon="39.42817269824445247650146484375">
        <ele>124.59999847412109375</ele>
        <time>2017-01-15T09:20:02.000Z</time>
        <extensions>
          <ns3:TrackPointExtension/>
        </extensions>
      </trkpt>
      <trkpt lat="51.9027254171669483184814453125" lon="39.4280784018337726593017578125">
        <ele>124.1999969482421875</ele>
        <time>2017-01-15T09:20:03.000Z</time>
        <extensions>
          <ns3:TrackPointExtension/>
        </extensions>
      </trkpt>
      <trkpt lat="51.9027438573539257049560546875" lon="39.4279841892421245574951171875">
        <ele>123.8000030517578125</ele>
        <time>2017-01-15T09:20:04.000Z</time>
        <extensions>
          <ns3:TrackPointExtension/>
        </extensions>
      </trkpt>
      <trkpt lat="51.9028182886540889739990234375" lon="39.42761898972094058990478515625">
        <ele>122</ele>
        <time>2017-01-15T09:20:08.000Z</time>
        <extensions>
          <ns3:TrackPointExtension/>
        </extensions>
      </trkpt>
      <trkpt lat="51.90305775962769985198974609375" lon="39.426466561853885650634765625">
        <ele>118.8000030517578125</ele>
        <time>2017-01-15T09:20:21.000Z</time>
        <extensions>
          <ns3:TrackPointExtension/>
        </extensions>
      </trkpt>
      <trkpt lat="51.9034003280103206634521484375" lon="39.42466436885297298431396484375">
        <ele>119</ele>
        <time>2017-01-15T09:20:40.000Z</time>
        <extensions>
          <ns3:TrackPointExtension/>
        </extensions>
      </trkpt>
      <trkpt lat="51.903589256107807159423828125" lon="39.42363674752414226531982421875">
        <ele>118.1999969482421875</ele>
        <time>2017-01-15T09:20:51.000Z</time>
        <extensions>
          <ns3:TrackPointExtension/>
        </extensions>
      </trkpt>
      <trkpt lat="51.903611384332180023193359375" lon="39.42355494014918804168701171875">
        <ele>117.8000030517578125</ele>
        <time>2017-01-15T09:20:52.000Z</time>
        <extensions>
          <ns3:TrackPointExtension/>
        </extensions>
      </trkpt>
      <trkpt lat="51.903646923601627349853515625" lon="39.42338830791413784027099609375">
        <ele>117</ele>
        <time>2017-01-15T09:20:54.000Z</time>
        <extensions>
          <ns3:TrackPointExtension/>
        </extensions>
      </trkpt>
      <trkpt lat="51.90370400436222553253173828125" lon="39.4229181669652462005615234375">
        <ele>117.40000152587890625</ele>
        <time>2017-01-15T09:20:59.000Z</time>
        <extensions>
          <ns3:TrackPointExtension/>
        </extensions>
      </trkpt>
      <trkpt lat="51.90372680313885211944580078125" lon="39.42231927998363971710205078125">
        <ele>117.1999969482421875</ele>
        <time>2017-01-15T09:21:05.000Z</time>
        <extensions>
          <ns3:TrackPointExtension/>
        </extensions>
      </trkpt>
      <trkpt lat="51.9036259688436985015869140625" lon="39.42101622931659221649169921875">
        <ele>115.40000152587890625</ele>
        <time>2017-01-15T09:21:19.000Z</time>
        <extensions>
          <ns3:TrackPointExtension/>
        </extensions>
      </trkpt>
      <trkpt lat="51.9033922813832759857177734375" lon="39.419065006077289581298828125">
        <ele>114</ele>
        <time>2017-01-15T09:21:40.000Z</time>
        <extensions>
          <ns3:TrackPointExtension/>
        </extensions>
      </trkpt>
      <trkpt lat="51.90336219035089015960693359375" lon="39.4174763001501560211181640625">
        <ele>115.40000152587890625</ele>
        <time>2017-01-15T09:21:56.000Z</time>
        <extensions>
          <ns3:TrackPointExtension/>
        </extensions>
      </trkpt>
      <trkpt lat="51.90344600938260555267333984375" lon="39.41710288636386394500732421875">
        <ele>116.1999969482421875</ele>
        <time>2017-01-15T09:22:00.000Z</time>
        <extensions>
          <ns3:TrackPointExtension/>
        </extensions>
      </trkpt>
      <trkpt lat="51.9034690596163272857666015625" lon="39.41700984723865985870361328125">
        <ele>116.40000152587890625</ele>
        <time>2017-01-15T09:22:01.000Z</time>
        <extensions>
          <ns3:TrackPointExtension/>
        </extensions>
      </trkpt>
      <trkpt lat="51.9037302397191524505615234375" lon="39.41614416427910327911376953125">
        <ele>117.8000030517578125</ele>
        <time>2017-01-15T09:22:11.000Z</time>
        <extensions>
          <ns3:TrackPointExtension/>
        </extensions>
      </trkpt>
      <trkpt lat="51.903758905827999114990234375" lon="39.4160748459398746490478515625">
        <ele>118</ele>
        <time>2017-01-15T09:22:12.000Z</time>
        <extensions>
          <ns3:TrackPointExtension/>
        </extensions>
      </trkpt>
      <trkpt lat="51.90378807485103607177734375" lon="39.4160057790577411651611328125">
        <ele>118.1999969482421875</ele>
        <time>2017-01-15T09:22:13.000Z</time>
        <extensions>
          <ns3:TrackPointExtension/>
        </extensions>
      </trkpt>
      <trkpt lat="51.904271878302097320556640625" lon="39.41486575640738010406494140625">
        <ele>118.1999969482421875</ele>
        <time>2017-01-15T09:22:27.000Z</time>
        <extensions>
          <ns3:TrackPointExtension/>
        </extensions>
      </trkpt>
      <trkpt lat="51.9043853692710399627685546875" lon="39.41451874561607837677001953125">
        <ele>118.40000152587890625</ele>
        <time>2017-01-15T09:22:31.000Z</time>
        <extensions>
          <ns3:TrackPointExtension/>
        </extensions>
      </trkpt>
      <trkpt lat="51.9044413603842258453369140625" lon="39.4143464975059032440185546875">
        <ele>118.40000152587890625</ele>
        <time>2017-01-15T09:22:33.000Z</time>
        <extensions>
          <ns3:TrackPointExtension/>
        </extensions>
      </trkpt>
      <trkpt lat="51.90445954911410808563232421875" lon="39.41426041536033153533935546875">
        <ele>118.40000152587890625</ele>
        <time>2017-01-15T09:22:34.000Z</time>
        <extensions>
          <ns3:TrackPointExtension/>
        </extensions>
      </trkpt>
      <trkpt lat="51.9048071466386318206787109375" lon="39.41292576491832733154296875">
        <ele>115.8000030517578125</ele>
        <time>2017-01-15T09:22:49.000Z</time>
        <extensions>
          <ns3:TrackPointExtension/>
        </extensions>
      </trkpt>
      <trkpt lat="51.9049781374633312225341796875" lon="39.4121195934712886810302734375">
        <ele>111.40000152587890625</ele>
        <time>2017-01-15T09:22:58.000Z</time>
        <extensions>
          <ns3:TrackPointExtension/>
        </extensions>
      </trkpt>
      <trkpt lat="51.904988698661327362060546875" lon="39.4120267219841480255126953125">
        <ele>111</ele>
        <time>2017-01-15T09:22:59.000Z</time>
        <extensions>
          <ns3:TrackPointExtension/>
        </extensions>
      </trkpt>
      <trkpt lat="51.904914937913417816162109375" lon="39.41075812093913555145263671875">
        <ele>105.59999847412109375</ele>
        <time>2017-01-15T09:23:11.000Z</time>
        <extensions>
          <ns3:TrackPointExtension/>
        </extensions>
      </trkpt>
      <trkpt lat="51.90458645112812519073486328125" lon="39.40839794464409351348876953125">
        <ele>105.8000030517578125</ele>
        <time>2017-01-15T09:23:34.000Z</time>
        <extensions>
          <ns3:TrackPointExtension/>
        </extensions>
      </trkpt>
      <trkpt lat="51.9047109223902225494384765625" lon="39.406337253749370574951171875">
        <ele>110.40000152587890625</ele>
        <time>2017-01-15T09:23:55.000Z</time>
        <extensions>
          <ns3:TrackPointExtension/>
        </extensions>
      </trkpt>
      <trkpt lat="51.90477672033011913299560546875" lon="39.40518683753907680511474609375">
        <ele>111.8000030517578125</ele>
        <time>2017-01-15T09:24:07.000Z</time>
        <extensions>
          <ns3:TrackPointExtension/>
        </extensions>
      </trkpt>
      <trkpt lat="51.9048155285418033599853515625" lon="39.4048179499804973602294921875">
        <ele>112</ele>
        <time>2017-01-15T09:24:11.000Z</time>
        <extensions>
          <ns3:TrackPointExtension/>
        </extensions>
      </trkpt>
      <trkpt lat="51.90482986159622669219970703125" lon="39.404732622206211090087890625">
        <ele>112</ele>
        <time>2017-01-15T09:24:12.000Z</time>
        <extensions>
          <ns3:TrackPointExtension/>
        </extensions>
      </trkpt>
      <trkpt lat="51.9048487208783626556396484375" lon="39.40455936826765537261962890625">
        <ele>112.1999969482421875</ele>
        <time>2017-01-15T09:24:14.000Z</time>
        <extensions>
          <ns3:TrackPointExtension/>
        </extensions>
      </trkpt>
      <trkpt lat="51.904857270419597625732421875" lon="39.4044692628085613250732421875">
        <ele>112.1999969482421875</ele>
        <time>2017-01-15T09:24:15.000Z</time>
        <extensions>
          <ns3:TrackPointExtension/>
        </extensions>
      </trkpt>
      <trkpt lat="51.90492424182593822479248046875" lon="39.40363601781427860260009765625">
        <ele>111.59999847412109375</ele>
        <time>2017-01-15T09:24:24.000Z</time>
        <extensions>
          <ns3:TrackPointExtension/>
        </extensions>
      </trkpt>
      <trkpt lat="51.9049399159848690032958984375" lon="39.40354071557521820068359375">
        <ele>111</ele>
        <time>2017-01-15T09:24:25.000Z</time>
        <extensions>
          <ns3:TrackPointExtension/>
        </extensions>
      </trkpt>
      <trkpt lat="51.90495022572576999664306640625" lon="39.4034413062036037445068359375">
        <ele>110.1999969482421875</ele>
        <time>2017-01-15T09:24:26.000Z</time>
        <extensions>
          <ns3:TrackPointExtension/>
        </extensions>
      </trkpt>
      <trkpt lat="51.90497922711074352264404296875" lon="39.402865134179592132568359375">
        <ele>106.59999847412109375</ele>
        <time>2017-01-15T09:24:32.000Z</time>
        <extensions>
          <ns3:TrackPointExtension/>
        </extensions>
      </trkpt>
      <trkpt lat="51.90498760901391506195068359375" lon="39.402768909931182861328125">
        <ele>106.40000152587890625</ele>
        <time>2017-01-15T09:24:33.000Z</time>
        <extensions>
          <ns3:TrackPointExtension/>
        </extensions>
      </trkpt>
      <trkpt lat="51.9050733558833599090576171875" lon="39.401497542858123779296875">
        <ele>102.40000152587890625</ele>
        <time>2017-01-15T09:24:46.000Z</time>
        <extensions>
          <ns3:TrackPointExtension/>
        </extensions>
      </trkpt>
      <trkpt lat="51.9051461108028888702392578125" lon="39.4003259204328060150146484375">
        <ele>101</ele>
        <time>2017-01-15T09:24:58.000Z</time>
        <extensions>
          <ns3:TrackPointExtension/>
        </extensions>
      </trkpt>
      <trkpt lat="51.90520905889570713043212890625" lon="39.39896377734839916229248046875">
        <ele>101</ele>
        <time>2017-01-15T09:25:11.000Z</time>
        <extensions>
          <ns3:TrackPointExtension/>
        </extensions>
      </trkpt>
      <trkpt lat="51.90530394203960895538330078125" lon="39.3972266279160976409912109375">
        <ele>102.8000030517578125</ele>
        <time>2017-01-15T09:25:29.000Z</time>
        <extensions>
          <ns3:TrackPointExtension/>
        </extensions>
      </trkpt>
      <trkpt lat="51.90546018071472644805908203125" lon="39.395124614238739013671875">
        <ele>107</ele>
        <time>2017-01-15T09:25:52.000Z</time>
        <extensions>
          <ns3:TrackPointExtension/>
        </extensions>
      </trkpt>
      <trkpt lat="51.90550468862056732177734375" lon="39.39459445886313915252685546875">
        <ele>108.1999969482421875</ele>
        <time>2017-01-15T09:25:58.000Z</time>
        <extensions>
          <ns3:TrackPointExtension/>
        </extensions>
      </trkpt>
      <trkpt lat="51.9055420719087123870849609375" lon="39.39434417523443698883056640625">
        <ele>108.59999847412109375</ele>
        <time>2017-01-15T09:26:01.000Z</time>
        <extensions>
          <ns3:TrackPointExtension/>
        </extensions>
      </trkpt>
      <trkpt lat="51.90562278963625431060791015625" lon="39.3933454714715480804443359375">
        <ele>110</ele>
        <time>2017-01-15T09:26:12.000Z</time>
        <extensions>
          <ns3:TrackPointExtension/>
        </extensions>
      </trkpt>
      <trkpt lat="51.90562614239752292633056640625" lon="39.3932549469172954559326171875">
        <ele>110</ele>
        <time>2017-01-15T09:26:13.000Z</time>
        <extensions>
          <ns3:TrackPointExtension/>
        </extensions>
      </trkpt>
      <trkpt lat="51.9056295789778232574462890625" lon="39.39316048286855220794677734375">
        <ele>109.8000030517578125</ele>
        <time>2017-01-15T09:26:14.000Z</time>
        <extensions>
          <ns3:TrackPointExtension/>
        </extensions>
      </trkpt>
      <trkpt lat="51.90563351847231388092041015625" lon="39.39306425862014293670654296875">
        <ele>109.8000030517578125</ele>
        <time>2017-01-15T09:26:15.000Z</time>
        <extensions>
          <ns3:TrackPointExtension/>
        </extensions>
      </trkpt>
      <trkpt lat="51.90563988871872425079345703125" lon="39.39297373406589031219482421875">
        <ele>109.8000030517578125</ele>
        <time>2017-01-15T09:26:16.000Z</time>
        <extensions>
          <ns3:TrackPointExtension/>
        </extensions>
      </trkpt>
      <trkpt lat="51.905645169317722320556640625" lon="39.3928784318268299102783203125">
        <ele>109.8000030517578125</ele>
        <time>2017-01-15T09:26:17.000Z</time>
        <extensions>
          <ns3:TrackPointExtension/>
        </extensions>
      </trkpt>
      <trkpt lat="51.90572060644626617431640625" lon="39.39155769534409046173095703125">
        <ele>108.8000030517578125</ele>
        <time>2017-01-15T09:26:30.000Z</time>
        <extensions>
          <ns3:TrackPointExtension/>
        </extensions>
      </trkpt>
      <trkpt lat="51.9058267213404178619384765625" lon="39.38997938297688961029052734375">
        <ele>106.1999969482421875</ele>
        <time>2017-01-15T09:26:46.000Z</time>
        <extensions>
          <ns3:TrackPointExtension/>
        </extensions>
      </trkpt>
      <trkpt lat="51.9059075228869915008544921875" lon="39.3879884295165538787841796875">
        <ele>108.1999969482421875</ele>
        <time>2017-01-15T09:27:06.000Z</time>
        <extensions>
          <ns3:TrackPointExtension/>
        </extensions>
      </trkpt>
      <trkpt lat="51.9056218676269054412841796875" lon="39.38658337108790874481201171875">
        <ele>109.8000030517578125</ele>
        <time>2017-01-15T09:27:22.000Z</time>
        <extensions>
          <ns3:TrackPointExtension/>
        </extensions>
      </trkpt>
      <trkpt lat="51.90532037056982517242431640625" lon="39.38519700430333614349365234375">
        <ele>112.40000152587890625</ele>
        <time>2017-01-15T09:27:39.000Z</time>
        <extensions>
          <ns3:TrackPointExtension/>
        </extensions>
      </trkpt>
      <trkpt lat="51.90502314828336238861083984375" lon="39.3837683089077472686767578125">
        <ele>113.1999969482421875</ele>
        <time>2017-01-15T09:27:56.000Z</time>
        <extensions>
          <ns3:TrackPointExtension/>
        </extensions>
      </trkpt>
      <trkpt lat="51.9049721024930477142333984375" lon="39.38265644945204257965087890625">
        <ele>112.1999969482421875</ele>
        <time>2017-01-15T09:28:09.000Z</time>
        <extensions>
          <ns3:TrackPointExtension/>
        </extensions>
      </trkpt>
      <trkpt lat="51.90525448881089687347412109375" lon="39.38140704296529293060302734375">
        <ele>113.59999847412109375</ele>
        <time>2017-01-15T09:28:25.000Z</time>
        <extensions>
          <ns3:TrackPointExtension/>
        </extensions>
      </trkpt>
      <trkpt lat="51.905832253396511077880859375" lon="39.3801000528037548065185546875">
        <ele>109.40000152587890625</ele>
        <time>2017-01-15T09:28:44.000Z</time>
        <extensions>
          <ns3:TrackPointExtension/>
        </extensions>
      </trkpt>
      <trkpt lat="51.9062598980963230133056640625" lon="39.379294551908969879150390625">
        <ele>104.1999969482421875</ele>
        <time>2017-01-15T09:28:58.000Z</time>
        <extensions>
          <ns3:TrackPointExtension/>
        </extensions>
      </trkpt>
      <trkpt lat="51.90628118813037872314453125" lon="39.3792279995977878570556640625">
        <ele>103.8000030517578125</ele>
        <time>2017-01-15T09:28:59.000Z</time>
        <extensions>
          <ns3:TrackPointExtension/>
        </extensions>
      </trkpt>
      <trkpt lat="51.906295605003833770751953125" lon="39.37915801070630550384521484375">
        <ele>103.59999847412109375</ele>
        <time>2017-01-15T09:29:00.000Z</time>
        <extensions>
          <ns3:TrackPointExtension/>
        </extensions>
      </trkpt>
      <trkpt lat="51.9063011370599269866943359375" lon="39.37908911146223545074462890625">
        <ele>103.40000152587890625</ele>
        <time>2017-01-15T09:29:01.000Z</time>
        <extensions>
          <ns3:TrackPointExtension/>
        </extensions>
      </trkpt>
      <trkpt lat="51.906300969421863555908203125" lon="39.37902339734137058258056640625">
        <ele>103.40000152587890625</ele>
        <time>2017-01-15T09:29:02.000Z</time>
        <extensions>
          <ns3:TrackPointExtension/>
        </extensions>
      </trkpt>
      <trkpt lat="51.90629635937511920928955078125" lon="39.37896086834371089935302734375">
        <ele>103.40000152587890625</ele>
        <time>2017-01-15T09:29:03.000Z</time>
        <extensions>
          <ns3:TrackPointExtension/>
        </extensions>
      </trkpt>
      <trkpt lat="51.906286217272281646728515625" lon="39.37889465130865573883056640625">
        <ele>103.40000152587890625</ele>
        <time>2017-01-15T09:29:04.000Z</time>
        <extensions>
          <ns3:TrackPointExtension/>
        </extensions>
      </trkpt>
      <trkpt lat="51.90627272240817546844482421875" lon="39.37882726080715656280517578125">
        <ele>103.1999969482421875</ele>
        <time>2017-01-15T09:29:05.000Z</time>
        <extensions>
          <ns3:TrackPointExtension/>
        </extensions>
      </trkpt>
      <trkpt lat="51.90612486563622951507568359375" lon="39.37752999365329742431640625">
        <ele>102.40000152587890625</ele>
        <time>2017-01-15T09:29:23.000Z</time>
        <extensions>
          <ns3:TrackPointExtension/>
        </extensions>
      </trkpt>
      <trkpt lat="51.90610441379249095916748046875" lon="39.37602317892014980316162109375">
        <ele>102.40000152587890625</ele>
        <time>2017-01-15T09:29:42.000Z</time>
        <extensions>
          <ns3:TrackPointExtension/>
        </extensions>
      </trkpt>
      <trkpt lat="51.9060543738305568695068359375" lon="39.374405555427074432373046875">
        <ele>103.40000152587890625</ele>
        <time>2017-01-15T09:30:03.000Z</time>
        <extensions>
          <ns3:TrackPointExtension/>
        </extensions>
      </trkpt>
      <trkpt lat="51.90603442490100860595703125" lon="39.37331624329090118408203125">
        <ele>104</ele>
        <time>2017-01-15T09:30:20.000Z</time>
        <extensions>
          <ns3:TrackPointExtension/>
        </extensions>
      </trkpt>
      <trkpt lat="51.90599209628999233245849609375" lon="39.37169476412236690521240234375">
        <ele>103.40000152587890625</ele>
        <time>2017-01-15T09:30:42.000Z</time>
        <extensions>
          <ns3:TrackPointExtension/>
        </extensions>
      </trkpt>
      <trkpt lat="51.90599930472671985626220703125" lon="39.37006766907870769500732421875">
        <ele>101.8000030517578125</ele>
        <time>2017-01-15T09:31:03.000Z</time>
        <extensions>
          <ns3:TrackPointExtension/>
        </extensions>
      </trkpt>
      <trkpt lat="51.90599125809967517852783203125" lon="39.36876260675489902496337890625">
        <ele>101</ele>
        <time>2017-01-15T09:31:20.000Z</time>
        <extensions>
          <ns3:TrackPointExtension/>
        </extensions>
      </trkpt>
      <trkpt lat="51.9058864004909992218017578125" lon="39.367366097867488861083984375">
        <ele>101.59999847412109375</ele>
        <time>2017-01-15T09:31:39.000Z</time>
        <extensions>
          <ns3:TrackPointExtension/>
        </extensions>
      </trkpt>
      <trkpt lat="51.9057093746960163116455078125" lon="39.36640611849725246429443359375">
        <ele>100.59999847412109375</ele>
        <time>2017-01-15T09:31:54.000Z</time>
        <extensions>
          <ns3:TrackPointExtension/>
        </extensions>
      </trkpt>
      <trkpt lat="51.90570459701120853424072265625" lon="39.36633386649191379547119140625">
        <ele>100.40000152587890625</ele>
        <time>2017-01-15T09:31:55.000Z</time>
        <extensions>
          <ns3:TrackPointExtension/>
        </extensions>
      </trkpt>
      <trkpt lat="51.905803419649600982666015625" lon="39.36485580168664455413818359375">
        <ele>97.40000152587890625</ele>
        <time>2017-01-15T09:32:15.000Z</time>
        <extensions>
          <ns3:TrackPointExtension/>
        </extensions>
      </trkpt>
      <trkpt lat="51.90594582818448543548583984375" lon="39.36372407712042331695556640625">
        <ele>95.8000030517578125</ele>
        <time>2017-01-15T09:32:33.000Z</time>
        <extensions>
          <ns3:TrackPointExtension/>
        </extensions>
      </trkpt>
      <trkpt lat="51.905853711068630218505859375" lon="39.3635887093842029571533203125">
        <ele>95.8000030517578125</ele>
        <time>2017-01-15T09:32:40.000Z</time>
        <extensions>
          <ns3:TrackPointExtension/>
        </extensions>
      </trkpt>
      <trkpt lat="51.90583367832005023956298828125" lon="39.36359700746834278106689453125">
        <ele>95.8000030517578125</ele>
        <time>2017-01-15T09:32:41.000Z</time>
        <extensions>
          <ns3:TrackPointExtension/>
        </extensions>
      </trkpt>
      <trkpt lat="51.90529321320354938507080078125" lon="39.3637261725962162017822265625">
        <ele>97.1999969482421875</ele>
        <time>2017-01-15T09:32:57.000Z</time>
        <extensions>
          <ns3:TrackPointExtension/>
        </extensions>
      </trkpt>
      <trkpt lat="51.90442241728305816650390625" lon="39.364080391824245452880859375">
        <ele>100.40000152587890625</ele>
        <time>2017-01-15T09:33:20.000Z</time>
        <extensions>
          <ns3:TrackPointExtension/>
        </extensions>
      </trkpt>
      <trkpt lat="51.9036893360316753387451171875" lon="39.36435909010469913482666015625">
        <ele>103.8000030517578125</ele>
        <time>2017-01-15T09:33:37.000Z</time>
        <extensions>
          <ns3:TrackPointExtension/>
        </extensions>
      </trkpt>
      <trkpt lat="51.90288241021335124969482421875" lon="39.36477013863623142242431640625">
        <ele>106.1999969482421875</ele>
        <time>2017-01-15T09:33:57.000Z</time>
        <extensions>
          <ns3:TrackPointExtension/>
        </extensions>
      </trkpt>
      <trkpt lat="51.90270588733255863189697265625" lon="39.364940710365772247314453125">
        <ele>106.1999969482421875</ele>
        <time>2017-01-15T09:34:02.000Z</time>
        <extensions>
          <ns3:TrackPointExtension/>
        </extensions>
      </trkpt>
      <trkpt lat="51.90223968587815761566162109375" lon="39.36526332981884479522705078125">
        <ele>105.59999847412109375</ele>
        <time>2017-01-15T09:34:15.000Z</time>
        <extensions>
          <ns3:TrackPointExtension/>
        </extensions>
      </trkpt>
      <trkpt lat="51.90176074393093585968017578125" lon="39.36553708277642726898193359375">
        <ele>106.59999847412109375</ele>
        <time>2017-01-15T09:34:26.000Z</time>
        <extensions>
          <ns3:TrackPointExtension/>
        </extensions>
      </trkpt>
      <trkpt lat="51.900981478393077850341796875" lon="39.3659483827650547027587890625">
        <ele>106.8000030517578125</ele>
        <time>2017-01-15T09:34:43.000Z</time>
        <extensions>
          <ns3:TrackPointExtension/>
        </extensions>
      </trkpt>
      <trkpt lat="51.90022735856473445892333984375" lon="39.3663906119763851165771484375">
        <ele>106.59999847412109375</ele>
        <time>2017-01-15T09:35:00.000Z</time>
        <extensions>
          <ns3:TrackPointExtension/>
        </extensions>
      </trkpt>
      <trkpt lat="51.89938229508697986602783203125" lon="39.36686025001108646392822265625">
        <ele>104.59999847412109375</ele>
        <time>2017-01-15T09:35:20.000Z</time>
        <extensions>
          <ns3:TrackPointExtension/>
        </extensions>
      </trkpt>
      <trkpt lat="51.8986145965754985809326171875" lon="39.36729460023343563079833984375">
        <ele>102.8000030517578125</ele>
        <time>2017-01-15T09:35:38.000Z</time>
        <extensions>
          <ns3:TrackPointExtension/>
        </extensions>
      </trkpt>
      <trkpt lat="51.89819189719855785369873046875" lon="39.36751588247716426849365234375">
        <ele>103.8000030517578125</ele>
        <time>2017-01-15T09:35:48.000Z</time>
        <extensions>
          <ns3:TrackPointExtension/>
        </extensions>
      </trkpt>
      <trkpt lat="51.8976771645247936248779296875" lon="39.367806650698184967041015625">
        <ele>107.59999847412109375</ele>
        <time>2017-01-15T09:36:00.000Z</time>
        <extensions>
          <ns3:TrackPointExtension/>
        </extensions>
      </trkpt>
      <trkpt lat="51.8975427187979221343994140625" lon="39.3678718619048595428466796875">
        <ele>108.59999847412109375</ele>
        <time>2017-01-15T09:36:03.000Z</time>
        <extensions>
          <ns3:TrackPointExtension/>
        </extensions>
      </trkpt>
      <trkpt lat="51.896603442728519439697265625" lon="39.3681276775896549224853515625">
        <ele>107.59999847412109375</ele>
        <time>2017-01-15T09:36:23.000Z</time>
        <extensions>
          <ns3:TrackPointExtension/>
        </extensions>
      </trkpt>
      <trkpt lat="51.8956634961068630218505859375" lon="39.36822549439966678619384765625">
        <ele>107.8000030517578125</ele>
        <time>2017-01-15T09:36:43.000Z</time>
        <extensions>
          <ns3:TrackPointExtension/>
        </extensions>
      </trkpt>
      <trkpt lat="51.8948529660701751708984375" lon="39.36831124126911163330078125">
        <ele>106.40000152587890625</ele>
        <time>2017-01-15T09:37:01.000Z</time>
        <extensions>
          <ns3:TrackPointExtension/>
        </extensions>
      </trkpt>
      <trkpt lat="51.8938499875366687774658203125" lon="39.36839564703404903411865234375">
        <ele>105.1999969482421875</ele>
        <time>2017-01-15T09:37:21.000Z</time>
        <extensions>
          <ns3:TrackPointExtension/>
        </extensions>
      </trkpt>
      <trkpt lat="51.89308949746191501617431640625" lon="39.36850176192820072174072265625">
        <ele>105.40000152587890625</ele>
        <time>2017-01-15T09:37:36.000Z</time>
        <extensions>
          <ns3:TrackPointExtension/>
        </extensions>
      </trkpt>
      <trkpt lat="51.89288380555808544158935546875" lon="39.36856177635490894317626953125">
        <ele>108</ele>
        <time>2017-01-15T09:37:41.000Z</time>
        <extensions>
          <ns3:TrackPointExtension/>
        </extensions>
      </trkpt>
      <trkpt lat="51.8924083001911640167236328125" lon="39.3687519617378711700439453125">
        <ele>114</ele>
        <time>2017-01-15T09:37:51.000Z</time>
        <extensions>
          <ns3:TrackPointExtension/>
        </extensions>
      </trkpt>
      <trkpt lat="51.89236186444759368896484375" lon="39.3687720783054828643798828125">
        <ele>114.1999969482421875</ele>
        <time>2017-01-15T09:37:52.000Z</time>
        <extensions>
          <ns3:TrackPointExtension/>
        </extensions>
      </trkpt>
      <trkpt lat="51.8915536813437938690185546875" lon="39.3691224418580532073974609375">
        <ele>116</ele>
        <time>2017-01-15T09:38:09.000Z</time>
        <extensions>
          <ns3:TrackPointExtension/>
        </extensions>
      </trkpt>
      <trkpt lat="51.8914641626179218292236328125" lon="39.3691643513739109039306640625">
        <ele>115.59999847412109375</ele>
        <time>2017-01-15T09:38:11.000Z</time>
        <extensions>
          <ns3:TrackPointExtension/>
        </extensions>
      </trkpt>
      <trkpt lat="51.89141697250306606292724609375" lon="39.36918161809444427490234375">
        <ele>115.1999969482421875</ele>
        <time>2017-01-15T09:38:12.000Z</time>
        <extensions>
          <ns3:TrackPointExtension/>
        </extensions>
      </trkpt>
      <trkpt lat="51.891051270067691802978515625" lon="39.36930743046104907989501953125">
        <ele>114</ele>
        <time>2017-01-15T09:38:20.000Z</time>
        <extensions>
          <ns3:TrackPointExtension/>
        </extensions>
      </trkpt>
      <trkpt lat="51.8906920216977596282958984375" lon="39.36937884427607059478759765625">
        <ele>112.59999847412109375</ele>
        <time>2017-01-15T09:38:28.000Z</time>
        <extensions>
          <ns3:TrackPointExtension/>
        </extensions>
      </trkpt>
      <trkpt lat="51.88999758101999759674072265625" lon="39.3694687820971012115478515625">
        <ele>106.8000030517578125</ele>
        <time>2017-01-15T09:38:43.000Z</time>
        <extensions>
          <ns3:TrackPointExtension/>
        </extensions>
      </trkpt>
      <trkpt lat="51.8896841816604137420654296875" lon="39.3694268725812435150146484375">
        <ele>106.1999969482421875</ele>
        <time>2017-01-15T09:38:50.000Z</time>
        <extensions>
          <ns3:TrackPointExtension/>
        </extensions>
      </trkpt>
      <trkpt lat="51.88947387970983982086181640625" lon="39.3694831989705562591552734375">
        <ele>106.59999847412109375</ele>
        <time>2017-01-15T09:38:55.000Z</time>
        <extensions>
          <ns3:TrackPointExtension/>
        </extensions>
      </trkpt>
      <trkpt lat="51.88880567438900470733642578125" lon="39.36994110234081745147705078125">
        <ele>109</ele>
        <time>2017-01-15T09:39:11.000Z</time>
        <extensions>
          <ns3:TrackPointExtension/>
        </extensions>
      </trkpt>
      <trkpt lat="51.8884413130581378936767578125" lon="39.37005626969039440155029296875">
        <ele>110.1999969482421875</ele>
        <time>2017-01-15T09:39:20.000Z</time>
        <extensions>
          <ns3:TrackPointExtension/>
        </extensions>
      </trkpt>
      <trkpt lat="51.8884000740945339202880859375" lon="39.37004989944398403167724609375">
        <ele>110.1999969482421875</ele>
        <time>2017-01-15T09:39:21.000Z</time>
        <extensions>
          <ns3:TrackPointExtension/>
        </extensions>
      </trkpt>
      <trkpt lat="51.88836160115897655487060546875" lon="39.370046965777873992919921875">
        <ele>110.40000152587890625</ele>
        <time>2017-01-15T09:39:22.000Z</time>
        <extensions>
          <ns3:TrackPointExtension/>
        </extensions>
      </trkpt>
      <trkpt lat="51.88832170329988002777099609375" lon="39.3700380809605121612548828125">
        <ele>110.40000152587890625</ele>
        <time>2017-01-15T09:39:23.000Z</time>
        <extensions>
          <ns3:TrackPointExtension/>
        </extensions>
      </trkpt>
      <trkpt lat="51.8882815539836883544921875" lon="39.3700253404676914215087890625">
        <ele>110.59999847412109375</ele>
        <time>2017-01-15T09:39:24.000Z</time>
        <extensions>
          <ns3:TrackPointExtension/>
        </extensions>
      </trkpt>
      <trkpt lat="51.88824467360973358154296875" lon="39.3700109235942363739013671875">
        <ele>110.59999847412109375</ele>
        <time>2017-01-15T09:39:25.000Z</time>
        <extensions>
          <ns3:TrackPointExtension/>
        </extensions>
      </trkpt>
      <trkpt lat="51.88820603303611278533935546875" lon="39.3700015358626842498779296875">
        <ele>110.59999847412109375</ele>
        <time>2017-01-15T09:39:26.000Z</time>
        <extensions>
          <ns3:TrackPointExtension/>
        </extensions>
      </trkpt>
      <trkpt lat="51.88770362176001071929931640625" lon="39.36983012594282627105712890625">
        <ele>110.1999969482421875</ele>
        <time>2017-01-15T09:39:37.000Z</time>
        <extensions>
          <ns3:TrackPointExtension/>
        </extensions>
      </trkpt>
      <trkpt lat="51.88711085356771945953369140625" lon="39.36991520226001739501953125">
        <ele>110</ele>
        <time>2017-01-15T09:39:51.000Z</time>
        <extensions>
          <ns3:TrackPointExtension/>
        </extensions>
      </trkpt>
      <trkpt lat="51.88682176172733306884765625" lon="39.37007571570575237274169921875">
        <ele>110.59999847412109375</ele>
        <time>2017-01-15T09:39:57.000Z</time>
        <extensions>
          <ns3:TrackPointExtension/>
        </extensions>
      </trkpt>
      <trkpt lat="51.8864688836038112640380859375" lon="39.37030102126300334930419921875">
        <ele>111.40000152587890625</ele>
        <time>2017-01-15T09:40:05.000Z</time>
        <extensions>
          <ns3:TrackPointExtension/>
        </extensions>
      </trkpt>
      <trkpt lat="51.88606546260416507720947265625" lon="39.370698742568492889404296875">
        <ele>112.8000030517578125</ele>
        <time>2017-01-15T09:40:15.000Z</time>
        <extensions>
          <ns3:TrackPointExtension/>
        </extensions>
      </trkpt>
      <trkpt lat="51.88601165078580379486083984375" lon="39.37074174173176288604736328125">
        <ele>113</ele>
        <time>2017-01-15T09:40:16.000Z</time>
        <extensions>
          <ns3:TrackPointExtension/>
        </extensions>
      </trkpt>
      <trkpt lat="51.88596018590033054351806640625" lon="39.3707837350666522979736328125">
        <ele>113.1999969482421875</ele>
        <time>2017-01-15T09:40:17.000Z</time>
        <extensions>
          <ns3:TrackPointExtension/>
        </extensions>
      </trkpt>
      <trkpt lat="51.8858221359550952911376953125" lon="39.3709245510399341583251953125">
        <ele>113.59999847412109375</ele>
        <time>2017-01-15T09:40:20.000Z</time>
        <extensions>
          <ns3:TrackPointExtension/>
        </extensions>
      </trkpt>
      <trkpt lat="51.88578064553439617156982421875" lon="39.37097006477415561676025390625">
        <ele>113.8000030517578125</ele>
        <time>2017-01-15T09:40:21.000Z</time>
        <extensions>
          <ns3:TrackPointExtension/>
        </extensions>
      </trkpt>
      <trkpt lat="51.88551326282322406768798828125" lon="39.37124247662723064422607421875">
        <ele>113</ele>
        <time>2017-01-15T09:40:27.000Z</time>
        <extensions>
          <ns3:TrackPointExtension/>
        </extensions>
      </trkpt>
      <trkpt lat="51.8854727782309055328369140625" lon="39.37128924764692783355712890625">
        <ele>112.8000030517578125</ele>
        <time>2017-01-15T09:40:28.000Z</time>
        <extensions>
          <ns3:TrackPointExtension/>
        </extensions>
      </trkpt>
      <trkpt lat="51.8853306211531162261962890625" lon="39.37149192206561565399169921875">
        <ele>112</ele>
        <time>2017-01-15T09:40:32.000Z</time>
        <extensions>
          <ns3:TrackPointExtension/>
        </extensions>
      </trkpt>
      <trkpt lat="51.88497061841189861297607421875" lon="39.3719903938472270965576171875">
        <ele>111.1999969482421875</ele>
        <time>2017-01-15T09:40:42.000Z</time>
        <extensions>
          <ns3:TrackPointExtension/>
        </extensions>
      </trkpt>
      <trkpt lat="51.88493482768535614013671875" lon="39.37205954454839229583740234375">
        <ele>111.1999969482421875</ele>
        <time>2017-01-15T09:40:43.000Z</time>
        <extensions>
          <ns3:TrackPointExtension/>
        </extensions>
      </trkpt>
      <trkpt lat="51.8848163075745105743408203125" lon="39.37225802801549434661865234375">
        <ele>111</ele>
        <time>2017-01-15T09:40:46.000Z</time>
        <extensions>
          <ns3:TrackPointExtension/>
        </extensions>
      </trkpt>
      <trkpt lat="51.88449670560657978057861328125" lon="39.372709728777408599853515625">
        <ele>110</ele>
        <time>2017-01-15T09:40:54.000Z</time>
        <extensions>
          <ns3:TrackPointExtension/>
        </extensions>
      </trkpt>
      <trkpt lat="51.88441406004130840301513671875" lon="39.37279396690428256988525390625">
        <ele>109.59999847412109375</ele>
        <time>2017-01-15T09:40:56.000Z</time>
        <extensions>
          <ns3:TrackPointExtension/>
        </extensions>
      </trkpt>
      <trkpt lat="51.884373240172863006591796875" lon="39.372824393212795257568359375">
        <ele>109.40000152587890625</ele>
        <time>2017-01-15T09:40:57.000Z</time>
        <extensions>
          <ns3:TrackPointExtension/>
        </extensions>
      </trkpt>
      <trkpt lat="51.8839685618877410888671875" lon="39.3729660473763942718505859375">
        <ele>108.40000152587890625</ele>
        <time>2017-01-15T09:41:06.000Z</time>
        <extensions>
          <ns3:TrackPointExtension/>
        </extensions>
      </trkpt>
      <trkpt lat="51.88391885720193386077880859375" lon="39.372981302440166473388671875">
        <ele>108.40000152587890625</ele>
        <time>2017-01-15T09:41:07.000Z</time>
        <extensions>
          <ns3:TrackPointExtension/>
        </extensions>
      </trkpt>
      <trkpt lat="51.88387267291545867919921875" lon="39.37299949117004871368408203125">
        <ele>108.40000152587890625</ele>
        <time>2017-01-15T09:41:08.000Z</time>
        <extensions>
          <ns3:TrackPointExtension/>
        </extensions>
      </trkpt>
      <trkpt lat="51.8838259018957614898681640625" lon="39.3730227090418338775634765625">
        <ele>108.59999847412109375</ele>
        <time>2017-01-15T09:41:09.000Z</time>
        <extensions>
          <ns3:TrackPointExtension/>
        </extensions>
      </trkpt>
      <trkpt lat="51.88377737067639827728271484375" lon="39.3730367906391620635986328125">
        <ele>108.59999847412109375</ele>
        <time>2017-01-15T09:41:10.000Z</time>
        <extensions>
          <ns3:TrackPointExtension/>
        </extensions>
      </trkpt>
      <trkpt lat="51.88373227603733539581298828125" lon="39.37305129133164882659912109375">
        <ele>108.59999847412109375</ele>
        <time>2017-01-15T09:41:11.000Z</time>
        <extensions>
          <ns3:TrackPointExtension/>
        </extensions>
      </trkpt>
      <trkpt lat="51.88354049809277057647705078125" lon="39.3731420673429965972900390625">
        <ele>108.8000030517578125</ele>
        <time>2017-01-15T09:41:15.000Z</time>
        <extensions>
          <ns3:TrackPointExtension/>
        </extensions>
      </trkpt>
      <trkpt lat="51.88282191753387451171875" lon="39.373779259622097015380859375">
        <ele>109.8000030517578125</ele>
        <time>2017-01-15T09:41:31.000Z</time>
        <extensions>
          <ns3:TrackPointExtension/>
        </extensions>
      </trkpt>
      <trkpt lat="51.88256819732487201690673828125" lon="39.37410841695964336395263671875">
        <ele>111.1999969482421875</ele>
        <time>2017-01-15T09:41:38.000Z</time>
        <extensions>
          <ns3:TrackPointExtension/>
        </extensions>
      </trkpt>
      <trkpt lat="51.882300563156604766845703125" lon="39.37442927621304988861083984375">
        <ele>112.1999969482421875</ele>
        <time>2017-01-15T09:41:46.000Z</time>
        <extensions>
          <ns3:TrackPointExtension/>
        </extensions>
      </trkpt>
      <trkpt lat="51.88218682073056697845458984375" lon="39.37455986626446247100830078125">
        <ele>112.59999847412109375</ele>
        <time>2017-01-15T09:41:49.000Z</time>
        <extensions>
          <ns3:TrackPointExtension/>
        </extensions>
      </trkpt>
      <trkpt lat="51.881707124412059783935546875" lon="39.37516101635992527008056640625">
        <ele>113.8000030517578125</ele>
        <time>2017-01-15T09:42:02.000Z</time>
        <extensions>
          <ns3:TrackPointExtension/>
        </extensions>
      </trkpt>
      <trkpt lat="51.88103715889155864715576171875" lon="39.375576674938201904296875">
        <ele>112.1999969482421875</ele>
        <time>2017-01-15T09:42:18.000Z</time>
        <extensions>
          <ns3:TrackPointExtension/>
        </extensions>
      </trkpt>
      <trkpt lat="51.880673468112945556640625" lon="39.3758635036647319793701171875">
        <ele>110.8000030517578125</ele>
        <time>2017-01-15T09:42:27.000Z</time>
        <extensions>
          <ns3:TrackPointExtension/>
        </extensions>
      </trkpt>
      <trkpt lat="51.8804761581122875213623046875" lon="39.37604530714452266693115234375">
        <ele>110</ele>
        <time>2017-01-15T09:42:32.000Z</time>
        <extensions>
          <ns3:TrackPointExtension/>
        </extensions>
      </trkpt>
      <trkpt lat="51.8804360926151275634765625" lon="39.37608570791780948638916015625">
        <ele>109.8000030517578125</ele>
        <time>2017-01-15T09:42:33.000Z</time>
        <extensions>
          <ns3:TrackPointExtension/>
        </extensions>
      </trkpt>
      <trkpt lat="51.88004650175571441650390625" lon="39.3765062279999256134033203125">
        <ele>109</ele>
        <time>2017-01-15T09:42:44.000Z</time>
        <extensions>
          <ns3:TrackPointExtension/>
        </extensions>
      </trkpt>
      <trkpt lat="51.879593543708324432373046875" lon="39.3770403228700160980224609375">
        <ele>110</ele>
        <time>2017-01-15T09:42:58.000Z</time>
        <extensions>
          <ns3:TrackPointExtension/>
        </extensions>
      </trkpt>
      <trkpt lat="51.879284419119358062744140625" lon="39.377333186566829681396484375">
        <ele>110.8000030517578125</ele>
        <time>2017-01-15T09:43:08.000Z</time>
        <extensions>
          <ns3:TrackPointExtension/>
        </extensions>
      </trkpt>
      <trkpt lat="51.87887093983590602874755859375" lon="39.377767033874988555908203125">
        <ele>112</ele>
        <time>2017-01-15T09:43:19.000Z</time>
        <extensions>
          <ns3:TrackPointExtension/>
        </extensions>
      </trkpt>
      <trkpt lat="51.8786297924816608428955078125" lon="39.3781413696706295013427734375">
        <ele>112</ele>
        <time>2017-01-15T09:43:26.000Z</time>
        <extensions>
          <ns3:TrackPointExtension/>
        </extensions>
      </trkpt>
      <trkpt lat="51.87859006226062774658203125" lon="39.37819945625960826873779296875">
        <ele>112</ele>
        <time>2017-01-15T09:43:27.000Z</time>
        <extensions>
          <ns3:TrackPointExtension/>
        </extensions>
      </trkpt>
      <trkpt lat="51.87844715081155300140380859375" lon="39.37842048704624176025390625">
        <ele>111.8000030517578125</ele>
        <time>2017-01-15T09:43:31.000Z</time>
        <extensions>
          <ns3:TrackPointExtension/>
        </extensions>
      </trkpt>
      <trkpt lat="51.87840926460921764373779296875" lon="39.37846885062754154205322265625">
        <ele>111.59999847412109375</ele>
        <time>2017-01-15T09:43:32.000Z</time>
        <extensions>
          <ns3:TrackPointExtension/>
        </extensions>
      </trkpt>
      <trkpt lat="51.8783082626760005950927734375" lon="39.37861084006726741790771484375">
        <ele>111.40000152587890625</ele>
        <time>2017-01-15T09:43:35.000Z</time>
        <extensions>
          <ns3:TrackPointExtension/>
        </extensions>
      </trkpt>
      <trkpt lat="51.87818429432809352874755859375" lon="39.37872550450265407562255859375">
        <ele>111.1999969482421875</ele>
        <time>2017-01-15T09:43:38.000Z</time>
        <extensions>
          <ns3:TrackPointExtension/>
        </extensions>
      </trkpt>
      <trkpt lat="51.8781481683254241943359375" lon="39.37876188196241855621337890625">
        <ele>111.1999969482421875</ele>
        <time>2017-01-15T09:43:39.000Z</time>
        <extensions>
          <ns3:TrackPointExtension/>
        </extensions>
      </trkpt>
      <trkpt lat="51.8781131319701671600341796875" lon="39.378792978823184967041015625">
        <ele>111.1999969482421875</ele>
        <time>2017-01-15T09:43:40.000Z</time>
        <extensions>
          <ns3:TrackPointExtension/>
        </extensions>
      </trkpt>
      <trkpt lat="51.87807868234813213348388671875" lon="39.37883027829229831695556640625">
        <ele>111.40000152587890625</ele>
        <time>2017-01-15T09:43:41.000Z</time>
        <extensions>
          <ns3:TrackPointExtension/>
        </extensions>
      </trkpt>
      <trkpt lat="51.8780437298119068145751953125" lon="39.37887017615139484405517578125">
        <ele>111.40000152587890625</ele>
        <time>2017-01-15T09:43:42.000Z</time>
        <extensions>
          <ns3:TrackPointExtension/>
        </extensions>
      </trkpt>
      <trkpt lat="51.877644248306751251220703125" lon="39.37909950502216815948486328125">
        <ele>111.40000152587890625</ele>
        <time>2017-01-15T09:43:52.000Z</time>
        <extensions>
          <ns3:TrackPointExtension/>
        </extensions>
      </trkpt>
      <trkpt lat="51.87715281732380390167236328125" lon="39.37919606454670429229736328125">
        <ele>111</ele>
        <time>2017-01-15T09:44:03.000Z</time>
        <extensions>
          <ns3:TrackPointExtension/>
        </extensions>
      </trkpt>
      <trkpt lat="51.8765473924577236175537109375" lon="39.3791599385440349578857421875">
        <ele>110</ele>
        <time>2017-01-15T09:44:16.000Z</time>
        <extensions>
          <ns3:TrackPointExtension/>
        </extensions>
      </trkpt>
      <trkpt lat="51.87611530534923076629638671875" lon="39.379374682903289794921875">
        <ele>110</ele>
        <time>2017-01-15T09:44:27.000Z</time>
        <extensions>
          <ns3:TrackPointExtension/>
        </extensions>
      </trkpt>
      <trkpt lat="51.87582646496593952178955078125" lon="39.3795897625386714935302734375">
        <ele>110.1999969482421875</ele>
        <time>2017-01-15T09:44:34.000Z</time>
        <extensions>
          <ns3:TrackPointExtension/>
        </extensions>
      </trkpt>
      <trkpt lat="51.87578153796494007110595703125" lon="39.3796239607036113739013671875">
        <ele>110</ele>
        <time>2017-01-15T09:44:35.000Z</time>
        <extensions>
          <ns3:TrackPointExtension/>
        </extensions>
      </trkpt>
      <trkpt lat="51.87519530765712261199951171875" lon="39.38005797564983367919921875">
        <ele>109</ele>
        <time>2017-01-15T09:44:49.000Z</time>
        <extensions>
          <ns3:TrackPointExtension/>
        </extensions>
      </trkpt>
      <trkpt lat="51.8749534897506237030029296875" lon="39.38038386404514312744140625">
        <ele>109.59999847412109375</ele>
        <time>2017-01-15T09:45:00.000Z</time>
        <extensions>
          <ns3:TrackPointExtension/>
        </extensions>
      </trkpt>
      <trkpt lat="51.87474905513226985931396484375" lon="39.38077705912292003631591796875">
        <ele>111.40000152587890625</ele>
        <time>2017-01-15T09:45:11.000Z</time>
        <extensions>
          <ns3:TrackPointExtension/>
        </extensions>
      </trkpt>
      <trkpt lat="51.87448770739138126373291015625" lon="39.38126538880169391632080078125">
        <ele>113.8000030517578125</ele>
        <time>2017-01-15T09:45:25.000Z</time>
        <extensions>
          <ns3:TrackPointExtension/>
        </extensions>
      </trkpt>
      <trkpt lat="51.87426139600574970245361328125" lon="39.3816393055021762847900390625">
        <ele>115.59999847412109375</ele>
        <time>2017-01-15T09:45:37.000Z</time>
        <extensions>
          <ns3:TrackPointExtension/>
        </extensions>
      </trkpt>
      <trkpt lat="51.87395545653998851776123046875" lon="39.38215588219463825225830078125">
        <ele>117.8000030517578125</ele>
        <time>2017-01-15T09:45:50.000Z</time>
        <extensions>
          <ns3:TrackPointExtension/>
        </extensions>
      </trkpt>
      <trkpt lat="51.87359436415135860443115234375" lon="39.382477663457393646240234375">
        <ele>119.1999969482421875</ele>
        <time>2017-01-15T09:46:03.000Z</time>
        <extensions>
          <ns3:TrackPointExtension/>
        </extensions>
      </trkpt>
      <trkpt lat="51.8733280710875988006591796875" lon="39.38270724378526210784912109375">
        <ele>119.8000030517578125</ele>
        <time>2017-01-15T09:46:15.000Z</time>
        <extensions>
          <ns3:TrackPointExtension/>
        </extensions>
      </trkpt>
      <trkpt lat="51.873023472726345062255859375" lon="39.3831530772149562835693359375">
        <ele>120.8000030517578125</ele>
        <time>2017-01-15T09:46:29.000Z</time>
        <extensions>
          <ns3:TrackPointExtension/>
        </extensions>
      </trkpt>
      <trkpt lat="51.87280529178678989410400390625" lon="39.38360813073813915252685546875">
        <ele>122.40000152587890625</ele>
        <time>2017-01-15T09:46:41.000Z</time>
        <extensions>
          <ns3:TrackPointExtension/>
        </extensions>
      </trkpt>
      <trkpt lat="51.8726670742034912109375" lon="39.383850283920764923095703125">
        <ele>122.8000030517578125</ele>
        <time>2017-01-15T09:46:53.000Z</time>
        <extensions>
          <ns3:TrackPointExtension/>
        </extensions>
      </trkpt>
      <trkpt lat="51.872617788612842559814453125" lon="39.383931420743465423583984375">
        <ele>123</ele>
        <time>2017-01-15T09:46:59.000Z</time>
        <extensions>
          <ns3:TrackPointExtension/>
        </extensions>
      </trkpt>
      <trkpt lat="51.87260630540549755096435546875" lon="39.383946843445301055908203125">
        <ele>123</ele>
        <time>2017-01-15T09:47:00.000Z</time>
        <extensions>
          <ns3:TrackPointExtension/>
        </extensions>
      </trkpt>
      <trkpt lat="51.87259708531200885772705078125" lon="39.38396587036550045013427734375">
        <ele>123</ele>
        <time>2017-01-15T09:47:01.000Z</time>
        <extensions>
          <ns3:TrackPointExtension/>
        </extensions>
      </trkpt>
      <trkpt lat="51.872586943209171295166015625" lon="39.3839867413043975830078125">
        <ele>123</ele>
        <time>2017-01-15T09:47:02.000Z</time>
        <extensions>
          <ns3:TrackPointExtension/>
        </extensions>
      </trkpt>
      <trkpt lat="51.8725772202014923095703125" lon="39.384004175662994384765625">
        <ele>123</ele>
        <time>2017-01-15T09:47:03.000Z</time>
        <extensions>
          <ns3:TrackPointExtension/>
        </extensions>
      </trkpt>
      <trkpt lat="51.8725656531751155853271484375" lon="39.384019263088703155517578125">
        <ele>123</ele>
        <time>2017-01-15T09:47:04.000Z</time>
        <extensions>
          <ns3:TrackPointExtension/>
        </extensions>
      </trkpt>
      <trkpt lat="51.87255551107227802276611328125" lon="39.38403326086699962615966796875">
        <ele>123.1999969482421875</ele>
        <time>2017-01-15T09:47:05.000Z</time>
        <extensions>
          <ns3:TrackPointExtension/>
        </extensions>
      </trkpt>
      <trkpt lat="51.872347891330718994140625" lon="39.3842859752476215362548828125">
        <ele>123.40000152587890625</ele>
        <time>2017-01-15T09:47:18.000Z</time>
        <extensions>
          <ns3:TrackPointExtension/>
        </extensions>
      </trkpt>
      <trkpt lat="51.87210716307163238525390625" lon="39.38463675789535045623779296875">
        <ele>123.8000030517578125</ele>
        <time>2017-01-15T09:47:28.000Z</time>
        <extensions>
          <ns3:TrackPointExtension/>
        </extensions>
      </trkpt>
      <trkpt lat="51.87176057137548923492431640625" lon="39.38504931516945362091064453125">
        <ele>124</ele>
        <time>2017-01-15T09:47:39.000Z</time>
        <extensions>
          <ns3:TrackPointExtension/>
        </extensions>
      </trkpt>
      <trkpt lat="51.87127274461090564727783203125" lon="39.3855851702392101287841796875">
        <ele>123</ele>
        <time>2017-01-15T09:47:53.000Z</time>
        <extensions>
          <ns3:TrackPointExtension/>
        </extensions>
      </trkpt>
      <trkpt lat="51.87100888229906558990478515625" lon="39.3857809714972972869873046875">
        <ele>122</ele>
        <time>2017-01-15T09:48:00.000Z</time>
        <extensions>
          <ns3:TrackPointExtension/>
        </extensions>
      </trkpt>
      <trkpt lat="51.8709626980125904083251953125" lon="39.38579857349395751953125">
        <ele>121.8000030517578125</ele>
        <time>2017-01-15T09:48:01.000Z</time>
        <extensions>
          <ns3:TrackPointExtension/>
        </extensions>
      </trkpt>
      <trkpt lat="51.8705016933381557464599609375" lon="39.38593058846890926361083984375">
        <ele>120.40000152587890625</ele>
        <time>2017-01-15T09:48:12.000Z</time>
        <extensions>
          <ns3:TrackPointExtension/>
        </extensions>
      </trkpt>
      <trkpt lat="51.8702705204486846923828125" lon="39.38600954599678516387939453125">
        <ele>118.59999847412109375</ele>
        <time>2017-01-15T09:48:21.000Z</time>
        <extensions>
          <ns3:TrackPointExtension/>
        </extensions>
      </trkpt>
      <trkpt lat="51.8702180497348308563232421875" lon="39.38601893372833728790283203125">
        <ele>118.40000152587890625</ele>
        <time>2017-01-15T09:48:30.000Z</time>
        <extensions>
          <ns3:TrackPointExtension/>
        </extensions>
      </trkpt>
      <trkpt lat="51.8701322190463542938232421875" lon="39.38610979355871677398681640625">
        <ele>117.8000030517578125</ele>
        <time>2017-01-15T09:48:39.000Z</time>
        <extensions>
          <ns3:TrackPointExtension/>
        </extensions>
      </trkpt>
      <trkpt lat="51.87011017464101314544677734375" lon="39.3861263059079647064208984375">
        <ele>117.59999847412109375</ele>
        <time>2017-01-15T09:48:40.000Z</time>
        <extensions>
          <ns3:TrackPointExtension/>
        </extensions>
      </trkpt>
      <trkpt lat="51.870089136064052581787109375" lon="39.3861430697143077850341796875">
        <ele>117.40000152587890625</ele>
        <time>2017-01-15T09:48:41.000Z</time>
        <extensions>
          <ns3:TrackPointExtension/>
        </extensions>
      </trkpt>
      <trkpt lat="51.86995527707040309906005859375" lon="39.38623200170695781707763671875">
        <ele>116.59999847412109375</ele>
        <time>2017-01-15T09:48:46.000Z</time>
        <extensions>
          <ns3:TrackPointExtension/>
        </extensions>
      </trkpt>
      <trkpt lat="51.8694888241589069366455078125" lon="39.38628782518208026885986328125">
        <ele>115.59999847412109375</ele>
        <time>2017-01-15T09:48:59.000Z</time>
        <extensions>
          <ns3:TrackPointExtension/>
        </extensions>
      </trkpt>
      <trkpt lat="51.868949197232723236083984375" lon="39.38611574470996856689453125">
        <ele>114.8000030517578125</ele>
        <time>2017-01-15T09:49:12.000Z</time>
        <extensions>
          <ns3:TrackPointExtension/>
        </extensions>
      </trkpt>
      <trkpt lat="51.86860864050686359405517578125" lon="39.38624926842749118804931640625">
        <ele>115</ele>
        <time>2017-01-15T09:49:22.000Z</time>
        <extensions>
          <ns3:TrackPointExtension/>
        </extensions>
      </trkpt>
      <trkpt lat="51.8682459555566310882568359375" lon="39.386571384966373443603515625">
        <ele>117.40000152587890625</ele>
        <time>2017-01-15T09:49:34.000Z</time>
        <extensions>
          <ns3:TrackPointExtension/>
        </extensions>
      </trkpt>
      <trkpt lat="51.8678915686905384063720703125" lon="39.3870248459279537200927734375">
        <ele>119.1999969482421875</ele>
        <time>2017-01-15T09:49:45.000Z</time>
        <extensions>
          <ns3:TrackPointExtension/>
        </extensions>
      </trkpt>
      <trkpt lat="51.86785561032593250274658203125" lon="39.38705963082611560821533203125">
        <ele>119.1999969482421875</ele>
        <time>2017-01-15T09:49:46.000Z</time>
        <extensions>
          <ns3:TrackPointExtension/>
        </extensions>
      </trkpt>
      <trkpt lat="51.8678194843232631683349609375" lon="39.38709399662911891937255859375">
        <ele>119</ele>
        <time>2017-01-15T09:49:47.000Z</time>
        <extensions>
          <ns3:TrackPointExtension/>
        </extensions>
      </trkpt>
      <trkpt lat="51.86778469942510128021240234375" lon="39.38712903298437595367431640625">
        <ele>119</ele>
        <time>2017-01-15T09:49:48.000Z</time>
        <extensions>
          <ns3:TrackPointExtension/>
        </extensions>
      </trkpt>
      <trkpt lat="51.86774848960340023040771484375" lon="39.38716121949255466461181640625">
        <ele>118.8000030517578125</ele>
        <time>2017-01-15T09:49:49.000Z</time>
        <extensions>
          <ns3:TrackPointExtension/>
        </extensions>
      </trkpt>
      <trkpt lat="51.86771194450557231903076171875" lon="39.3871864490211009979248046875">
        <ele>118.8000030517578125</ele>
        <time>2017-01-15T09:49:50.000Z</time>
        <extensions>
          <ns3:TrackPointExtension/>
        </extensions>
      </trkpt>
      <trkpt lat="51.86722428537905216217041015625" lon="39.38748844899237155914306640625">
        <ele>117.8000030517578125</ele>
        <time>2017-01-15T09:50:05.000Z</time>
        <extensions>
          <ns3:TrackPointExtension/>
        </extensions>
      </trkpt>
      <trkpt lat="51.86699830926954746246337890625" lon="39.3878231383860111236572265625">
        <ele>117.59999847412109375</ele>
        <time>2017-01-15T09:50:15.000Z</time>
        <extensions>
          <ns3:TrackPointExtension/>
        </extensions>
      </trkpt>
      <trkpt lat="51.86670611612498760223388671875" lon="39.3886522762477397918701171875">
        <ele>119.59999847412109375</ele>
        <time>2017-01-15T09:50:30.000Z</time>
        <extensions>
          <ns3:TrackPointExtension/>
        </extensions>
      </trkpt>
      <trkpt lat="51.86640218831598758697509765625" lon="39.3891662545502185821533203125">
        <ele>118.8000030517578125</ele>
        <time>2017-01-15T09:50:41.000Z</time>
        <extensions>
          <ns3:TrackPointExtension/>
        </extensions>
      </trkpt>
      <trkpt lat="51.8663127534091472625732421875" lon="39.3893057294189929962158203125">
        <ele>118.1999969482421875</ele>
        <time>2017-01-15T09:50:44.000Z</time>
        <extensions>
          <ns3:TrackPointExtension/>
        </extensions>
      </trkpt>
      <trkpt lat="51.86628065072000026702880859375" lon="39.38934504054486751556396484375">
        <ele>118.1999969482421875</ele>
        <time>2017-01-15T09:50:45.000Z</time>
        <extensions>
          <ns3:TrackPointExtension/>
        </extensions>
      </trkpt>
      <trkpt lat="51.8662497214972972869873046875" lon="39.38938460312783718109130859375">
        <ele>118</ele>
        <time>2017-01-15T09:50:46.000Z</time>
        <extensions>
          <ns3:TrackPointExtension/>
        </extensions>
      </trkpt>
      <trkpt lat="51.866217367351055145263671875" lon="39.389426596462726593017578125">
        <ele>118</ele>
        <time>2017-01-15T09:50:47.000Z</time>
        <extensions>
          <ns3:TrackPointExtension/>
        </extensions>
      </trkpt>
      <trkpt lat="51.8661840073764324188232421875" lon="39.38947127200663089752197265625">
        <ele>117.8000030517578125</ele>
        <time>2017-01-15T09:50:48.000Z</time>
        <extensions>
          <ns3:TrackPointExtension/>
        </extensions>
      </trkpt>
      <trkpt lat="51.86599784530699253082275390625" lon="39.3896517343819141387939453125">
        <ele>116.8000030517578125</ele>
        <time>2017-01-15T09:50:53.000Z</time>
        <extensions>
          <ns3:TrackPointExtension/>
        </extensions>
      </trkpt>
      <trkpt lat="51.8659151159226894378662109375" lon="39.389701187610626220703125">
        <ele>116.40000152587890625</ele>
        <time>2017-01-15T09:50:55.000Z</time>
        <extensions>
          <ns3:TrackPointExtension/>
        </extensions>
      </trkpt>
      <trkpt lat="51.86550649814307689666748046875" lon="39.38977486453950405120849609375">
        <ele>114</ele>
        <time>2017-01-15T09:51:04.000Z</time>
        <extensions>
          <ns3:TrackPointExtension/>
        </extensions>
      </trkpt>
      <trkpt lat="51.865231655538082122802734375" lon="39.38975139521062374114990234375">
        <ele>112.59999847412109375</ele>
        <time>2017-01-15T09:51:11.000Z</time>
        <extensions>
          <ns3:TrackPointExtension/>
        </extensions>
      </trkpt>
      <trkpt lat="51.86521246097981929779052734375" lon="39.3897456116974353790283203125">
        <ele>112.40000152587890625</ele>
        <time>2017-01-15T09:51:12.000Z</time>
        <extensions>
          <ns3:TrackPointExtension/>
        </extensions>
      </trkpt>
      <trkpt lat="51.8647962994873523712158203125" lon="39.38968702219426631927490234375">
        <ele>110.59999847412109375</ele>
        <time>2017-01-15T09:51:23.000Z</time>
        <extensions>
          <ns3:TrackPointExtension/>
        </extensions>
      </trkpt>
      <trkpt lat="51.8641763739287853240966796875" lon="39.3897788040339946746826171875">
        <ele>109</ele>
        <time>2017-01-15T09:51:37.000Z</time>
        <extensions>
          <ns3:TrackPointExtension/>
        </extensions>
      </trkpt>
      <trkpt lat="51.8636235035955905914306640625" lon="39.38993881456553936004638671875">
        <ele>108.59999847412109375</ele>
        <time>2017-01-15T09:51:51.000Z</time>
        <extensions>
          <ns3:TrackPointExtension/>
        </extensions>
      </trkpt>
      <trkpt lat="51.86288380064070224761962890625" lon="39.39009882509708404541015625">
        <ele>109.40000152587890625</ele>
        <time>2017-01-15T09:52:08.000Z</time>
        <extensions>
          <ns3:TrackPointExtension/>
        </extensions>
      </trkpt>
      <trkpt lat="51.86239848844707012176513671875" lon="39.3901958875358104705810546875">
        <ele>110.8000030517578125</ele>
        <time>2017-01-15T09:52:19.000Z</time>
        <extensions>
          <ns3:TrackPointExtension/>
        </extensions>
      </trkpt>
      <trkpt lat="51.8619538284838199615478515625" lon="39.3901331909000873565673828125">
        <ele>110.8000030517578125</ele>
        <time>2017-01-15T09:52:31.000Z</time>
        <extensions>
          <ns3:TrackPointExtension/>
        </extensions>
      </trkpt>
      <trkpt lat="51.86145368032157421112060546875" lon="39.389710910618305206298828125">
        <ele>109.40000152587890625</ele>
        <time>2017-01-15T09:52:46.000Z</time>
        <extensions>
          <ns3:TrackPointExtension/>
        </extensions>
      </trkpt>
      <trkpt lat="51.860997788608074188232421875" lon="39.3892872892320156097412109375">
        <ele>105.59999847412109375</ele>
        <time>2017-01-15T09:52:59.000Z</time>
        <extensions>
          <ns3:TrackPointExtension/>
        </extensions>
      </trkpt>
      <trkpt lat="51.86047576367855072021484375" lon="39.38912208192050457000732421875">
        <ele>102.8000030517578125</ele>
        <time>2017-01-15T09:53:12.000Z</time>
        <extensions>
          <ns3:TrackPointExtension/>
        </extensions>
      </trkpt>
      <trkpt lat="51.8604346923530101776123046875" lon="39.38913130201399326324462890625">
        <ele>102.59999847412109375</ele>
        <time>2017-01-15T09:53:13.000Z</time>
        <extensions>
          <ns3:TrackPointExtension/>
        </extensions>
      </trkpt>
      <trkpt lat="51.86039487831294536590576171875" lon="39.38914638943970203399658203125">
        <ele>102.59999847412109375</ele>
        <time>2017-01-15T09:53:14.000Z</time>
        <extensions>
          <ns3:TrackPointExtension/>
        </extensions>
      </trkpt>
      <trkpt lat="51.86036000959575176239013671875" lon="39.389169104397296905517578125">
        <ele>102.59999847412109375</ele>
        <time>2017-01-15T09:53:15.000Z</time>
        <extensions>
          <ns3:TrackPointExtension/>
        </extensions>
      </trkpt>
      <trkpt lat="51.86032916419208049774169921875" lon="39.3891984410583972930908203125">
        <ele>102.59999847412109375</ele>
        <time>2017-01-15T09:53:16.000Z</time>
        <extensions>
          <ns3:TrackPointExtension/>
        </extensions>
      </trkpt>
      <trkpt lat="51.86029965989291667938232421875" lon="39.3892312981188297271728515625">
        <ele>102.59999847412109375</ele>
        <time>2017-01-15T09:53:17.000Z</time>
        <extensions>
          <ns3:TrackPointExtension/>
        </extensions>
      </trkpt>
      <trkpt lat="51.8598097376525402069091796875" lon="39.38963673077523708343505859375">
        <ele>102.40000152587890625</ele>
        <time>2017-01-15T09:53:32.000Z</time>
        <extensions>
          <ns3:TrackPointExtension/>
        </extensions>
      </trkpt>
      <trkpt lat="51.85924035497009754180908203125" lon="39.3897476233541965484619140625">
        <ele>101</ele>
        <time>2017-01-15T09:53:47.000Z</time>
        <extensions>
          <ns3:TrackPointExtension/>
        </extensions>
      </trkpt>
      <trkpt lat="51.85877515934407711029052734375" lon="39.3902133218944072723388671875">
        <ele>103.40000152587890625</ele>
        <time>2017-01-15T09:54:02.000Z</time>
        <extensions>
          <ns3:TrackPointExtension/>
        </extensions>
      </trkpt>
      <trkpt lat="51.8582121469080448150634765625" lon="39.39065094105899333953857421875">
        <ele>106.1999969482421875</ele>
        <time>2017-01-15T09:54:20.000Z</time>
        <extensions>
          <ns3:TrackPointExtension/>
        </extensions>
      </trkpt>
      <trkpt lat="51.85778458602726459503173828125" lon="39.39095176756381988525390625">
        <ele>108.59999847412109375</ele>
        <time>2017-01-15T09:54:34.000Z</time>
        <extensions>
          <ns3:TrackPointExtension/>
        </extensions>
      </trkpt>
      <trkpt lat="51.8572448752820491790771484375" lon="39.3913271091878414154052734375">
        <ele>110.59999847412109375</ele>
        <time>2017-01-15T09:54:50.000Z</time>
        <extensions>
          <ns3:TrackPointExtension/>
        </extensions>
      </trkpt>
      <trkpt lat="51.8567711301147937774658203125" lon="39.39142928458750247955322265625">
        <ele>111</ele>
        <time>2017-01-15T09:55:03.000Z</time>
        <extensions>
          <ns3:TrackPointExtension/>
        </extensions>
      </trkpt>
      <trkpt lat="51.85634491033852100372314453125" lon="39.39172265119850635528564453125">
        <ele>111.59999847412109375</ele>
        <time>2017-01-15T09:55:15.000Z</time>
        <extensions>
          <ns3:TrackPointExtension/>
        </extensions>
      </trkpt>
      <trkpt lat="51.85594928450882434844970703125" lon="39.39227250404655933380126953125">
        <ele>112.8000030517578125</ele>
        <time>2017-01-15T09:55:29.000Z</time>
        <extensions>
          <ns3:TrackPointExtension/>
        </extensions>
      </trkpt>
      <trkpt lat="51.85566094703972339630126953125" lon="39.39265689812600612640380859375">
        <ele>112.8000030517578125</ele>
        <time>2017-01-15T09:55:40.000Z</time>
        <extensions>
          <ns3:TrackPointExtension/>
        </extensions>
      </trkpt>
      <trkpt lat="51.85527537949383258819580078125" lon="39.39301480539143085479736328125">
        <ele>114</ele>
        <time>2017-01-15T09:55:52.000Z</time>
        <extensions>
          <ns3:TrackPointExtension/>
        </extensions>
      </trkpt>
      <trkpt lat="51.85486726462841033935546875" lon="39.39336131326854228973388671875">
        <ele>115.40000152587890625</ele>
        <time>2017-01-15T09:56:03.000Z</time>
        <extensions>
          <ns3:TrackPointExtension/>
        </extensions>
      </trkpt>
      <trkpt lat="51.85475553385913372039794921875" lon="39.39345519058406352996826171875">
        <ele>115.59999847412109375</ele>
        <time>2017-01-15T09:56:11.000Z</time>
        <extensions>
          <ns3:TrackPointExtension/>
        </extensions>
      </trkpt>
      <trkpt lat="51.8547400273382663726806640625" lon="39.39346524886786937713623046875">
        <ele>115.59999847412109375</ele>
        <time>2017-01-15T09:56:12.000Z</time>
        <extensions>
          <ns3:TrackPointExtension/>
        </extensions>
      </trkpt>
      <trkpt lat="51.8547266162931919097900390625" lon="39.393470697104930877685546875">
        <ele>115.59999847412109375</ele>
        <time>2017-01-15T09:56:13.000Z</time>
        <extensions>
          <ns3:TrackPointExtension/>
        </extensions>
      </trkpt>
      <trkpt lat="51.85466718859970569610595703125" lon="39.39349475316703319549560546875">
        <ele>115.59999847412109375</ele>
        <time>2017-01-15T09:56:17.000Z</time>
        <extensions>
          <ns3:TrackPointExtension/>
        </extensions>
      </trkpt>
      <trkpt lat="51.85464791022241115570068359375" lon="39.3935047276318073272705078125">
        <ele>115.59999847412109375</ele>
        <time>2017-01-15T09:56:18.000Z</time>
        <extensions>
          <ns3:TrackPointExtension/>
        </extensions>
      </trkpt>
      <trkpt lat="51.8543051742017269134521484375" lon="39.3935271911323070526123046875">
        <ele>115.8000030517578125</ele>
        <time>2017-01-15T09:56:30.000Z</time>
        <extensions>
          <ns3:TrackPointExtension/>
        </extensions>
      </trkpt>
      <trkpt lat="51.85397014953196048736572265625" lon="39.3933035619556903839111328125">
        <ele>114.8000030517578125</ele>
        <time>2017-01-15T09:56:42.000Z</time>
        <extensions>
          <ns3:TrackPointExtension/>
        </extensions>
      </trkpt>
      <trkpt lat="51.85359564609825611114501953125" lon="39.39303844235837459564208984375">
        <ele>112.8000030517578125</ele>
        <time>2017-01-15T09:56:54.000Z</time>
        <extensions>
          <ns3:TrackPointExtension/>
        </extensions>
      </trkpt>
      <trkpt lat="51.8531893752515316009521484375" lon="39.39296769909560680389404296875">
        <ele>111.59999847412109375</ele>
        <time>2017-01-15T09:57:05.000Z</time>
        <extensions>
          <ns3:TrackPointExtension/>
        </extensions>
      </trkpt>
      <trkpt lat="51.85280154459178447723388671875" lon="39.392981864511966705322265625">
        <ele>111.1999969482421875</ele>
        <time>2017-01-15T09:57:17.000Z</time>
        <extensions>
          <ns3:TrackPointExtension/>
        </extensions>
      </trkpt>
      <trkpt lat="51.8523987941443920135498046875" lon="39.39310549758374691009521484375">
        <ele>111</ele>
        <time>2017-01-15T09:57:29.000Z</time>
        <extensions>
          <ns3:TrackPointExtension/>
        </extensions>
      </trkpt>
      <trkpt lat="51.85190082527697086334228515625" lon="39.393241703510284423828125">
        <ele>112.1999969482421875</ele>
        <time>2017-01-15T09:57:44.000Z</time>
        <extensions>
          <ns3:TrackPointExtension/>
        </extensions>
      </trkpt>
      <trkpt lat="51.85158398933708667755126953125" lon="39.393245391547679901123046875">
        <ele>112.59999847412109375</ele>
        <time>2017-01-15T09:57:54.000Z</time>
        <extensions>
          <ns3:TrackPointExtension/>
        </extensions>
      </trkpt>
      <trkpt lat="51.85119934380054473876953125" lon="39.39314472489058971405029296875">
        <ele>111.8000030517578125</ele>
        <time>2017-01-15T09:58:06.000Z</time>
        <extensions>
          <ns3:TrackPointExtension/>
        </extensions>
      </trkpt>
      <trkpt lat="51.8509001098573207855224609375" lon="39.3927959538996219635009765625">
        <ele>110.1999969482421875</ele>
        <time>2017-01-15T09:58:17.000Z</time>
        <extensions>
          <ns3:TrackPointExtension/>
        </extensions>
      </trkpt>
      <trkpt lat="51.85055569745600223541259765625" lon="39.3923366256058216094970703125">
        <ele>109.1999969482421875</ele>
        <time>2017-01-15T09:58:30.000Z</time>
        <extensions>
          <ns3:TrackPointExtension/>
        </extensions>
      </trkpt>
      <trkpt lat="51.84999796561896800994873046875" lon="39.39219924621284008026123046875">
        <ele>110.1999969482421875</ele>
        <time>2017-01-15T09:58:44.000Z</time>
        <extensions>
          <ns3:TrackPointExtension/>
        </extensions>
      </trkpt>
      <trkpt lat="51.849457919597625732421875" lon="39.39218013547360897064208984375">
        <ele>109.40000152587890625</ele>
        <time>2017-01-15T09:58:58.000Z</time>
        <extensions>
          <ns3:TrackPointExtension/>
        </extensions>
      </trkpt>
      <trkpt lat="51.8490426801145076751708984375" lon="39.39205415546894073486328125">
        <ele>108.1999969482421875</ele>
        <time>2017-01-15T09:59:10.000Z</time>
        <extensions>
          <ns3:TrackPointExtension/>
        </extensions>
      </trkpt>
      <trkpt lat="51.84867546893656253814697265625" lon="39.39197813160717487335205078125">
        <ele>108</ele>
        <time>2017-01-15T09:59:23.000Z</time>
        <extensions>
          <ns3:TrackPointExtension/>
        </extensions>
      </trkpt>
      <trkpt lat="51.8481659330427646636962890625" lon="39.39198550768196582794189453125">
        <ele>108</ele>
        <time>2017-01-15T09:59:38.000Z</time>
        <extensions>
          <ns3:TrackPointExtension/>
        </extensions>
      </trkpt>
      <trkpt lat="51.84777139686048030853271484375" lon="39.39225624315440654754638671875">
        <ele>108.40000152587890625</ele>
        <time>2017-01-15T09:59:51.000Z</time>
        <extensions>
          <ns3:TrackPointExtension/>
        </extensions>
      </trkpt>
      <trkpt lat="51.84730553068220615386962890625" lon="39.39258649013936519622802734375">
        <ele>110.1999969482421875</ele>
        <time>2017-01-15T10:00:04.000Z</time>
        <extensions>
          <ns3:TrackPointExtension/>
        </extensions>
      </trkpt>
      <trkpt lat="51.8469740264117717742919921875" lon="39.3927000649273395538330078125">
        <ele>112</ele>
        <time>2017-01-15T10:00:15.000Z</time>
        <extensions>
          <ns3:TrackPointExtension/>
        </extensions>
      </trkpt>
      <trkpt lat="51.8466270156204700469970703125" lon="39.392651617527008056640625">
        <ele>113</ele>
        <time>2017-01-15T10:00:26.000Z</time>
        <extensions>
          <ns3:TrackPointExtension/>
        </extensions>
      </trkpt>
      <trkpt lat="51.846177577972412109375" lon="39.39257341437041759490966796875">
        <ele>113.8000030517578125</ele>
        <time>2017-01-15T10:00:39.000Z</time>
        <extensions>
          <ns3:TrackPointExtension/>
        </extensions>
      </trkpt>
      <trkpt lat="51.84584590606391429901123046875" lon="39.39271355979144573211669921875">
        <ele>115.1999969482421875</ele>
        <time>2017-01-15T10:00:50.000Z</time>
        <extensions>
          <ns3:TrackPointExtension/>
        </extensions>
      </trkpt>
      <trkpt lat="51.845436282455921173095703125" lon="39.392666704952716827392578125">
        <ele>113.59999847412109375</ele>
        <time>2017-01-15T10:01:02.000Z</time>
        <extensions>
          <ns3:TrackPointExtension/>
        </extensions>
      </trkpt>
      <trkpt lat="51.84496211819350719451904296875" lon="39.39275580458343029022216796875">
        <ele>110.40000152587890625</ele>
        <time>2017-01-15T10:01:16.000Z</time>
        <extensions>
          <ns3:TrackPointExtension/>
        </extensions>
      </trkpt>
      <trkpt lat="51.8446673266589641571044921875" lon="39.39286418259143829345703125">
        <ele>110.1999969482421875</ele>
        <time>2017-01-15T10:01:25.000Z</time>
        <extensions>
          <ns3:TrackPointExtension/>
        </extensions>
      </trkpt>
      <trkpt lat="51.8442887999117374420166015625" lon="39.3929672800004482269287109375">
        <ele>110.40000152587890625</ele>
        <time>2017-01-15T10:01:36.000Z</time>
        <extensions>
          <ns3:TrackPointExtension/>
        </extensions>
      </trkpt>
      <trkpt lat="51.84397439472377300262451171875" lon="39.393054284155368804931640625">
        <ele>111</ele>
        <time>2017-01-15T10:01:46.000Z</time>
        <extensions>
          <ns3:TrackPointExtension/>
        </extensions>
      </trkpt>
      <trkpt lat="51.8436232767999172210693359375" lon="39.393125362694263458251953125">
        <ele>113.40000152587890625</ele>
        <time>2017-01-15T10:01:56.000Z</time>
        <extensions>
          <ns3:TrackPointExtension/>
        </extensions>
      </trkpt>
      <trkpt lat="51.84318012557923793792724609375" lon="39.39312033355236053466796875">
        <ele>116</ele>
        <time>2017-01-15T10:02:09.000Z</time>
        <extensions>
          <ns3:TrackPointExtension/>
        </extensions>
      </trkpt>
      <trkpt lat="51.8429195322096347808837890625" lon="39.39297323115170001983642578125">
        <ele>115.59999847412109375</ele>
        <time>2017-01-15T10:02:18.000Z</time>
        <extensions>
          <ns3:TrackPointExtension/>
        </extensions>
      </trkpt>
      <trkpt lat="51.8425619602203369140625" lon="39.39282587729394435882568359375">
        <ele>115</ele>
        <time>2017-01-15T10:02:26.000Z</time>
        <extensions>
          <ns3:TrackPointExtension/>
        </extensions>
      </trkpt>
      <trkpt lat="51.8421215750277042388916015625" lon="39.3924828059971332550048828125">
        <ele>114.1999969482421875</ele>
        <time>2017-01-15T10:02:38.000Z</time>
        <extensions>
          <ns3:TrackPointExtension/>
        </extensions>
      </trkpt>
      <trkpt lat="51.841795854270458221435546875" lon="39.39194292761385440826416015625">
        <ele>112.40000152587890625</ele>
        <time>2017-01-15T10:02:50.000Z</time>
        <extensions>
          <ns3:TrackPointExtension/>
        </extensions>
      </trkpt>
      <trkpt lat="51.8415251187980175018310546875" lon="39.39158753491938114166259765625">
        <ele>110.1999969482421875</ele>
        <time>2017-01-15T10:03:00.000Z</time>
        <extensions>
          <ns3:TrackPointExtension/>
        </extensions>
      </trkpt>
      <trkpt lat="51.84124968945980072021484375" lon="39.39135870896279811859130859375">
        <ele>109.1999969482421875</ele>
        <time>2017-01-15T10:03:09.000Z</time>
        <extensions>
          <ns3:TrackPointExtension/>
        </extensions>
      </trkpt>
      <trkpt lat="51.8408954702317714691162109375" lon="39.391412101686000823974609375">
        <ele>110.40000152587890625</ele>
        <time>2017-01-15T10:03:19.000Z</time>
        <extensions>
          <ns3:TrackPointExtension/>
        </extensions>
      </trkpt>
      <trkpt lat="51.840456426143646240234375" lon="39.39161418937146663665771484375">
        <ele>112.1999969482421875</ele>
        <time>2017-01-15T10:03:31.000Z</time>
        <extensions>
          <ns3:TrackPointExtension/>
        </extensions>
      </trkpt>
      <trkpt lat="51.840021573007106781005859375" lon="39.39171628095209598541259765625">
        <ele>112.1999969482421875</ele>
        <time>2017-01-15T10:03:43.000Z</time>
        <extensions>
          <ns3:TrackPointExtension/>
        </extensions>
      </trkpt>
      <trkpt lat="51.83958093635737895965576171875" lon="39.39181284047663211822509765625">
        <ele>112.1999969482421875</ele>
        <time>2017-01-15T10:03:56.000Z</time>
        <extensions>
          <ns3:TrackPointExtension/>
        </extensions>
      </trkpt>
      <trkpt lat="51.8391178362071514129638671875" lon="39.39205356873571872711181640625">
        <ele>113.1999969482421875</ele>
        <time>2017-01-15T10:04:10.000Z</time>
        <extensions>
          <ns3:TrackPointExtension/>
        </extensions>
      </trkpt>
      <trkpt lat="51.8388323485851287841796875" lon="39.39231256954371929168701171875">
        <ele>114.1999969482421875</ele>
        <time>2017-01-15T10:04:20.000Z</time>
        <extensions>
          <ns3:TrackPointExtension/>
        </extensions>
      </trkpt>
      <trkpt lat="51.8385475315153598785400390625" lon="39.392533600330352783203125">
        <ele>115</ele>
        <time>2017-01-15T10:04:31.000Z</time>
        <extensions>
          <ns3:TrackPointExtension/>
        </extensions>
      </trkpt>
      <trkpt lat="51.838163472712039947509765625" lon="39.39261146821081638336181640625">
        <ele>115.1999969482421875</ele>
        <time>2017-01-15T10:04:44.000Z</time>
        <extensions>
          <ns3:TrackPointExtension/>
        </extensions>
      </trkpt>
      <trkpt lat="51.8377649970352649688720703125" lon="39.392525888979434967041015625">
        <ele>113.1999969482421875</ele>
        <time>2017-01-15T10:04:57.000Z</time>
        <extensions>
          <ns3:TrackPointExtension/>
        </extensions>
      </trkpt>
      <trkpt lat="51.83737850748002529144287109375" lon="39.39238465391099452972412109375">
        <ele>111</ele>
        <time>2017-01-15T10:05:09.000Z</time>
        <extensions>
          <ns3:TrackPointExtension/>
        </extensions>
      </trkpt>
      <trkpt lat="51.83701557107269763946533203125" lon="39.39216035418212413787841796875">
        <ele>110.1999969482421875</ele>
        <time>2017-01-15T10:05:22.000Z</time>
        <extensions>
          <ns3:TrackPointExtension/>
        </extensions>
      </trkpt>
      <trkpt lat="51.8365824781358242034912109375" lon="39.392065890133380889892578125">
        <ele>109</ele>
        <time>2017-01-15T10:05:36.000Z</time>
        <extensions>
          <ns3:TrackPointExtension/>
        </extensions>
      </trkpt>
      <trkpt lat="51.8361781351268291473388671875" lon="39.39205658622086048126220703125">
        <ele>108.59999847412109375</ele>
        <time>2017-01-15T10:05:49.000Z</time>
        <extensions>
          <ns3:TrackPointExtension/>
        </extensions>
      </trkpt>
      <trkpt lat="51.835807152092456817626953125" lon="39.39228876493871212005615234375">
        <ele>108.40000152587890625</ele>
        <time>2017-01-15T10:06:02.000Z</time>
        <extensions>
          <ns3:TrackPointExtension/>
        </extensions>
      </trkpt>
      <trkpt lat="51.8355707824230194091796875" lon="39.39269788563251495361328125">
        <ele>108.8000030517578125</ele>
        <time>2017-01-15T10:06:14.000Z</time>
        <extensions>
          <ns3:TrackPointExtension/>
        </extensions>
      </trkpt>
      <trkpt lat="51.83531505055725574493408203125" lon="39.3932841159403324127197265625">
        <ele>110.1999969482421875</ele>
        <time>2017-01-15T10:06:28.000Z</time>
        <extensions>
          <ns3:TrackPointExtension/>
        </extensions>
      </trkpt>
      <trkpt lat="51.8349969573318958282470703125" lon="39.39369499683380126953125">
        <ele>111.1999969482421875</ele>
        <time>2017-01-15T10:06:39.000Z</time>
        <extensions>
          <ns3:TrackPointExtension/>
        </extensions>
      </trkpt>
      <trkpt lat="51.834846250712871551513671875" lon="39.39389205537736415863037109375">
        <ele>111.8000030517578125</ele>
        <time>2017-01-15T10:06:48.000Z</time>
        <extensions>
          <ns3:TrackPointExtension/>
        </extensions>
      </trkpt>
      <trkpt lat="51.8345906026661396026611328125" lon="39.394150637090206146240234375">
        <ele>112</ele>
        <time>2017-01-15T10:06:58.000Z</time>
        <extensions>
          <ns3:TrackPointExtension/>
        </extensions>
      </trkpt>
      <trkpt lat="51.83435213752090930938720703125" lon="39.3944555707275867462158203125">
        <ele>110.8000030517578125</ele>
        <time>2017-01-15T10:07:08.000Z</time>
        <extensions>
          <ns3:TrackPointExtension/>
        </extensions>
      </trkpt>
      <trkpt lat="51.83427435345947742462158203125" lon="39.39461843110620975494384765625">
        <ele>111</ele>
        <time>2017-01-15T10:07:13.000Z</time>
        <extensions>
          <ns3:TrackPointExtension/>
        </extensions>
      </trkpt>
      <trkpt lat="51.83426446281373500823974609375" lon="39.3946617655456066131591796875">
        <ele>111.1999969482421875</ele>
        <time>2017-01-15T10:07:14.000Z</time>
        <extensions>
          <ns3:TrackPointExtension/>
        </extensions>
      </trkpt>
      <trkpt lat="51.8341118283569812774658203125" lon="39.39516208134591579437255859375">
        <ele>110.40000152587890625</ele>
        <time>2017-01-15T10:07:24.000Z</time>
        <extensions>
          <ns3:TrackPointExtension/>
        </extensions>
      </trkpt>
      <trkpt lat="51.8340927176177501678466796875" lon="39.3959069810807704925537109375">
        <ele>111</ele>
        <time>2017-01-15T10:07:37.000Z</time>
        <extensions>
          <ns3:TrackPointExtension/>
        </extensions>
      </trkpt>
      <trkpt lat="51.83428189717233180999755859375" lon="39.3964363820850849151611328125">
        <ele>113.1999969482421875</ele>
        <time>2017-01-15T10:07:50.000Z</time>
        <extensions>
          <ns3:TrackPointExtension/>
        </extensions>
      </trkpt>
      <trkpt lat="51.83452866040170192718505859375" lon="39.39684114418923854827880859375">
        <ele>115.8000030517578125</ele>
        <time>2017-01-15T10:08:02.000Z</time>
        <extensions>
          <ns3:TrackPointExtension/>
        </extensions>
      </trkpt>
      <trkpt lat="51.8347146548330783843994140625" lon="39.39739041030406951904296875">
        <ele>116.59999847412109375</ele>
        <time>2017-01-15T10:08:14.000Z</time>
        <extensions>
          <ns3:TrackPointExtension/>
        </extensions>
      </trkpt>
      <trkpt lat="51.83485086075961589813232421875" lon="39.39803036861121654510498046875">
        <ele>116.1999969482421875</ele>
        <time>2017-01-15T10:08:27.000Z</time>
        <extensions>
          <ns3:TrackPointExtension/>
        </extensions>
      </trkpt>
      <trkpt lat="51.834834180772304534912109375" lon="39.39844409935176372528076171875">
        <ele>115.1999969482421875</ele>
        <time>2017-01-15T10:08:38.000Z</time>
        <extensions>
          <ns3:TrackPointExtension/>
        </extensions>
      </trkpt>
      <trkpt lat="51.83461499400436878204345703125" lon="39.3988906033337116241455078125">
        <ele>114.40000152587890625</ele>
        <time>2017-01-15T10:08:51.000Z</time>
        <extensions>
          <ns3:TrackPointExtension/>
        </extensions>
      </trkpt>
      <trkpt lat="51.834327243268489837646484375" lon="39.3991975486278533935546875">
        <ele>113.40000152587890625</ele>
        <time>2017-01-15T10:09:02.000Z</time>
        <extensions>
          <ns3:TrackPointExtension/>
        </extensions>
      </trkpt>
      <trkpt lat="51.83398316614329814910888671875" lon="39.39919545315206050872802734375">
        <ele>111.40000152587890625</ele>
        <time>2017-01-15T10:09:13.000Z</time>
        <extensions>
          <ns3:TrackPointExtension/>
        </extensions>
      </trkpt>
      <trkpt lat="51.83359759859740734100341796875" lon="39.39917868934571743011474609375">
        <ele>108.59999847412109375</ele>
        <time>2017-01-15T10:09:26.000Z</time>
        <extensions>
          <ns3:TrackPointExtension/>
        </extensions>
      </trkpt>
      <trkpt lat="51.83323583565652370452880859375" lon="39.399425201117992401123046875">
        <ele>107</ele>
        <time>2017-01-15T10:09:39.000Z</time>
        <extensions>
          <ns3:TrackPointExtension/>
        </extensions>
      </trkpt>
      <trkpt lat="51.83299007825553417205810546875" lon="39.39981018193066120147705078125">
        <ele>109.1999969482421875</ele>
        <time>2017-01-15T10:09:51.000Z</time>
        <extensions>
          <ns3:TrackPointExtension/>
        </extensions>
      </trkpt>
      <trkpt lat="51.83276209048926830291748046875" lon="39.4002749584615230560302734375">
        <ele>111</ele>
        <time>2017-01-15T10:10:03.000Z</time>
        <extensions>
          <ns3:TrackPointExtension/>
        </extensions>
      </trkpt>
      <trkpt lat="51.83232908137142658233642578125" lon="39.40076638944447040557861328125">
        <ele>112</ele>
        <time>2017-01-15T10:10:19.000Z</time>
        <extensions>
          <ns3:TrackPointExtension/>
        </extensions>
      </trkpt>
      <trkpt lat="51.83205935172736644744873046875" lon="39.400957413017749786376953125">
        <ele>112</ele>
        <time>2017-01-15T10:10:30.000Z</time>
        <extensions>
          <ns3:TrackPointExtension/>
        </extensions>
      </trkpt>
      <trkpt lat="51.83204024098813533782958984375" lon="39.40097375772893428802490234375">
        <ele>112</ele>
        <time>2017-01-15T10:10:32.000Z</time>
        <extensions>
          <ns3:TrackPointExtension/>
        </extensions>
      </trkpt>
      <trkpt lat="51.832027919590473175048828125" lon="39.40098297782242298126220703125">
        <ele>112</ele>
        <time>2017-01-15T10:10:33.000Z</time>
        <extensions>
          <ns3:TrackPointExtension/>
        </extensions>
      </trkpt>
      <trkpt lat="51.83201350271701812744140625" lon="39.40098733641207218170166015625">
        <ele>112</ele>
        <time>2017-01-15T10:10:34.000Z</time>
        <extensions>
          <ns3:TrackPointExtension/>
        </extensions>
      </trkpt>
      <trkpt lat="51.83168870396912097930908203125" lon="39.4010896794497966766357421875">
        <ele>112</ele>
        <time>2017-01-15T10:10:49.000Z</time>
        <extensions>
          <ns3:TrackPointExtension/>
        </extensions>
      </trkpt>
      <trkpt lat="51.83126986026763916015625" lon="39.40131993032991886138916015625">
        <ele>113.1999969482421875</ele>
        <time>2017-01-15T10:11:04.000Z</time>
        <extensions>
          <ns3:TrackPointExtension/>
        </extensions>
      </trkpt>
      <trkpt lat="51.83091572485864162445068359375" lon="39.4015178270637989044189453125">
        <ele>114.8000030517578125</ele>
        <time>2017-01-15T10:11:18.000Z</time>
        <extensions>
          <ns3:TrackPointExtension/>
        </extensions>
      </trkpt>
      <trkpt lat="51.83056988753378391265869140625" lon="39.40163626335561275482177734375">
        <ele>116</ele>
        <time>2017-01-15T10:11:29.000Z</time>
        <extensions>
          <ns3:TrackPointExtension/>
        </extensions>
      </trkpt>
      <trkpt lat="51.83028389699757099151611328125" lon="39.4017421267926692962646484375">
        <ele>117</ele>
        <time>2017-01-15T10:11:41.000Z</time>
        <extensions>
          <ns3:TrackPointExtension/>
        </extensions>
      </trkpt>
      <trkpt lat="51.83028238825500011444091796875" lon="39.40173818729817867279052734375">
        <ele>117</ele>
        <time>2017-01-15T10:11:43.000Z</time>
        <extensions>
          <ns3:TrackPointExtension/>
        </extensions>
      </trkpt>
      <trkpt lat="51.83020628057420253753662109375" lon="39.40175947733223438262939453125">
        <ele>117.40000152587890625</ele>
        <time>2017-01-15T10:11:51.000Z</time>
        <extensions>
          <ns3:TrackPointExtension/>
        </extensions>
      </trkpt>
      <trkpt lat="51.82983261533081531524658203125" lon="39.40190264023840427398681640625">
        <ele>118.8000030517578125</ele>
        <time>2017-01-15T10:12:03.000Z</time>
        <extensions>
          <ns3:TrackPointExtension/>
        </extensions>
      </trkpt>
      <trkpt lat="51.829416453838348388671875" lon="39.4021105952560901641845703125">
        <ele>119.59999847412109375</ele>
        <time>2017-01-15T10:12:15.000Z</time>
        <extensions>
          <ns3:TrackPointExtension/>
        </extensions>
      </trkpt>
      <trkpt lat="51.829143203794956207275390625" lon="39.4024693407118320465087890625">
        <ele>119.40000152587890625</ele>
        <time>2017-01-15T10:12:27.000Z</time>
        <extensions>
          <ns3:TrackPointExtension/>
        </extensions>
      </trkpt>
      <trkpt lat="51.8289690278470516204833984375" lon="39.4029526412487030029296875">
        <ele>118.1999969482421875</ele>
        <time>2017-01-15T10:12:38.000Z</time>
        <extensions>
          <ns3:TrackPointExtension/>
        </extensions>
      </trkpt>
      <trkpt lat="51.828711368143558502197265625" lon="39.4035975448787212371826171875">
        <ele>116.1999969482421875</ele>
        <time>2017-01-15T10:12:53.000Z</time>
        <extensions>
          <ns3:TrackPointExtension/>
        </extensions>
      </trkpt>
      <trkpt lat="51.8283631838858127593994140625" lon="39.40403415821492671966552734375">
        <ele>114.1999969482421875</ele>
        <time>2017-01-15T10:13:07.000Z</time>
        <extensions>
          <ns3:TrackPointExtension/>
        </extensions>
      </trkpt>
      <trkpt lat="51.82834566570818424224853515625" lon="39.40404723398387432098388671875">
        <ele>114.1999969482421875</ele>
        <time>2017-01-15T10:13:08.000Z</time>
        <extensions>
          <ns3:TrackPointExtension/>
        </extensions>
      </trkpt>
      <trkpt lat="51.8282860703766345977783203125" lon="39.4041086733341217041015625">
        <ele>114</ele>
        <time>2017-01-15T10:13:14.000Z</time>
        <extensions>
          <ns3:TrackPointExtension/>
        </extensions>
      </trkpt>
      <trkpt lat="51.82827039621770381927490234375" lon="39.4041128642857074737548828125">
        <ele>114</ele>
        <time>2017-01-15T10:13:15.000Z</time>
        <extensions>
          <ns3:TrackPointExtension/>
        </extensions>
      </trkpt>
      <trkpt lat="51.82825447060167789459228515625" lon="39.40411915071308612823486328125">
        <ele>114</ele>
        <time>2017-01-15T10:13:16.000Z</time>
        <extensions>
          <ns3:TrackPointExtension/>
        </extensions>
      </trkpt>
      <trkpt lat="51.82823686860501766204833984375" lon="39.40412543714046478271484375">
        <ele>114</ele>
        <time>2017-01-15T10:13:17.000Z</time>
        <extensions>
          <ns3:TrackPointExtension/>
        </extensions>
      </trkpt>
      <trkpt lat="51.82821474038064479827880859375" lon="39.4041287899017333984375">
        <ele>114</ele>
        <time>2017-01-15T10:13:18.000Z</time>
        <extensions>
          <ns3:TrackPointExtension/>
        </extensions>
      </trkpt>
      <trkpt lat="51.82819093577563762664794921875" lon="39.4041323103010654449462890625">
        <ele>114</ele>
        <time>2017-01-15T10:13:19.000Z</time>
        <extensions>
          <ns3:TrackPointExtension/>
        </extensions>
      </trkpt>
      <trkpt lat="51.82816729880869388580322265625" lon="39.404137842357158660888671875">
        <ele>114</ele>
        <time>2017-01-15T10:13:20.000Z</time>
        <extensions>
          <ns3:TrackPointExtension/>
        </extensions>
      </trkpt>
      <trkpt lat="51.828143410384654998779296875" lon="39.40414228476583957672119140625">
        <ele>114</ele>
        <time>2017-01-15T10:13:21.000Z</time>
        <extensions>
          <ns3:TrackPointExtension/>
        </extensions>
      </trkpt>
      <trkpt lat="51.82780520059168338775634765625" lon="39.40415150485932826995849609375">
        <ele>114</ele>
        <time>2017-01-15T10:13:33.000Z</time>
        <extensions>
          <ns3:TrackPointExtension/>
        </extensions>
      </trkpt>
      <trkpt lat="51.8274488858878612518310546875" lon="39.40424957312643527984619140625">
        <ele>114</ele>
        <time>2017-01-15T10:13:46.000Z</time>
        <extensions>
          <ns3:TrackPointExtension/>
        </extensions>
      </trkpt>
      <trkpt lat="51.82714252732694149017333984375" lon="39.4044815003871917724609375">
        <ele>113.8000030517578125</ele>
        <time>2017-01-15T10:13:58.000Z</time>
        <extensions>
          <ns3:TrackPointExtension/>
        </extensions>
      </trkpt>
      <trkpt lat="51.8268366716802120208740234375" lon="39.4048192910850048065185546875">
        <ele>113.8000030517578125</ele>
        <time>2017-01-15T10:14:10.000Z</time>
        <extensions>
          <ns3:TrackPointExtension/>
        </extensions>
      </trkpt>
      <trkpt lat="51.8263949453830718994140625" lon="39.40524970181286334991455078125">
        <ele>113.1999969482421875</ele>
        <time>2017-01-15T10:14:27.000Z</time>
        <extensions>
          <ns3:TrackPointExtension/>
        </extensions>
      </trkpt>
      <trkpt lat="51.82588105089962482452392578125" lon="39.405475594103336334228515625">
        <ele>110.59999847412109375</ele>
        <time>2017-01-15T10:14:43.000Z</time>
        <extensions>
          <ns3:TrackPointExtension/>
        </extensions>
      </trkpt>
      <trkpt lat="51.8255012668669223785400390625" lon="39.40557793714106082916259765625">
        <ele>112.40000152587890625</ele>
        <time>2017-01-15T10:14:55.000Z</time>
        <extensions>
          <ns3:TrackPointExtension/>
        </extensions>
      </trkpt>
      <trkpt lat="51.82522675953805446624755859375" lon="39.40565773285925388336181640625">
        <ele>115</ele>
        <time>2017-01-15T10:15:07.000Z</time>
        <extensions>
          <ns3:TrackPointExtension/>
        </extensions>
      </trkpt>
      <trkpt lat="51.8248357437551021575927734375" lon="39.40575798042118549346923828125">
        <ele>117</ele>
        <time>2017-01-15T10:15:20.000Z</time>
        <extensions>
          <ns3:TrackPointExtension/>
        </extensions>
      </trkpt>
      <trkpt lat="51.824497617781162261962890625" lon="39.40574574284255504608154296875">
        <ele>119.40000152587890625</ele>
        <time>2017-01-15T10:15:32.000Z</time>
        <extensions>
          <ns3:TrackPointExtension/>
        </extensions>
      </trkpt>
      <trkpt lat="51.82409084402024745941162109375" lon="39.40564029850065708160400390625">
        <ele>121.1999969482421875</ele>
        <time>2017-01-15T10:15:45.000Z</time>
        <extensions>
          <ns3:TrackPointExtension/>
        </extensions>
      </trkpt>
      <trkpt lat="51.82379412464797496795654296875" lon="39.40555564127862453460693359375">
        <ele>120.40000152587890625</ele>
        <time>2017-01-15T10:15:55.000Z</time>
        <extensions>
          <ns3:TrackPointExtension/>
        </extensions>
      </trkpt>
      <trkpt lat="51.8234450183808803558349609375" lon="39.40547064878046512603759765625">
        <ele>119</ele>
        <time>2017-01-15T10:16:07.000Z</time>
        <extensions>
          <ns3:TrackPointExtension/>
        </extensions>
      </trkpt>
      <trkpt lat="51.8233720958232879638671875" lon="39.405431337654590606689453125">
        <ele>118.59999847412109375</ele>
        <time>2017-01-15T10:16:14.000Z</time>
        <extensions>
          <ns3:TrackPointExtension/>
        </extensions>
      </trkpt>
      <trkpt lat="51.8233554996550083160400390625" lon="39.40542404539883136749267578125">
        <ele>118.59999847412109375</ele>
        <time>2017-01-15T10:16:15.000Z</time>
        <extensions>
          <ns3:TrackPointExtension/>
        </extensions>
      </trkpt>
      <trkpt lat="51.82333814911544322967529296875" lon="39.40541935153305530548095703125">
        <ele>118.59999847412109375</ele>
        <time>2017-01-15T10:16:16.000Z</time>
        <extensions>
          <ns3:TrackPointExtension/>
        </extensions>
      </trkpt>
      <trkpt lat="51.82331870310008525848388671875" lon="39.40541465766727924346923828125">
        <ele>118.40000152587890625</ele>
        <time>2017-01-15T10:16:17.000Z</time>
        <extensions>
          <ns3:TrackPointExtension/>
        </extensions>
      </trkpt>
      <trkpt lat="51.8232969939708709716796875" lon="39.40541155636310577392578125">
        <ele>118.40000152587890625</ele>
        <time>2017-01-15T10:16:18.000Z</time>
        <extensions>
          <ns3:TrackPointExtension/>
        </extensions>
      </trkpt>
      <trkpt lat="51.823271177709102630615234375" lon="39.40541147254407405853271484375">
        <ele>118.1999969482421875</ele>
        <time>2017-01-15T10:16:19.000Z</time>
        <extensions>
          <ns3:TrackPointExtension/>
        </extensions>
      </trkpt>
      <trkpt lat="51.8228817544877529144287109375" lon="39.40538473427295684814453125">
        <ele>117.1999969482421875</ele>
        <time>2017-01-15T10:16:33.000Z</time>
        <extensions>
          <ns3:TrackPointExtension/>
        </extensions>
      </trkpt>
      <trkpt lat="51.82256164960563182830810546875" lon="39.40547098405659198760986328125">
        <ele>116.40000152587890625</ele>
        <time>2017-01-15T10:16:47.000Z</time>
        <extensions>
          <ns3:TrackPointExtension/>
        </extensions>
      </trkpt>
      <trkpt lat="51.8222303129732608795166015625" lon="39.40562118776142597198486328125">
        <ele>115.8000030517578125</ele>
        <time>2017-01-15T10:17:01.000Z</time>
        <extensions>
          <ns3:TrackPointExtension/>
        </extensions>
      </trkpt>
      <trkpt lat="51.821959912776947021484375" lon="39.40598018467426300048828125">
        <ele>116.1999969482421875</ele>
        <time>2017-01-15T10:17:14.000Z</time>
        <extensions>
          <ns3:TrackPointExtension/>
        </extensions>
      </trkpt>
      <trkpt lat="51.82182203046977519989013671875" lon="39.40648184157907962799072265625">
        <ele>117.1999969482421875</ele>
        <time>2017-01-15T10:17:26.000Z</time>
        <extensions>
          <ns3:TrackPointExtension/>
        </extensions>
      </trkpt>
      <trkpt lat="51.8217480182647705078125" lon="39.4072128273546695709228515625">
        <ele>118.8000030517578125</ele>
        <time>2017-01-15T10:17:41.000Z</time>
        <extensions>
          <ns3:TrackPointExtension/>
        </extensions>
      </trkpt>
      <trkpt lat="51.82175195775926113128662109375" lon="39.4078173302114009857177734375">
        <ele>119.59999847412109375</ele>
        <time>2017-01-15T10:17:54.000Z</time>
        <extensions>
          <ns3:TrackPointExtension/>
        </extensions>
      </trkpt>
      <trkpt lat="51.8218164145946502685546875" lon="39.40844370983541011810302734375">
        <ele>120.1999969482421875</ele>
        <time>2017-01-15T10:18:08.000Z</time>
        <extensions>
          <ns3:TrackPointExtension/>
        </extensions>
      </trkpt>
      <trkpt lat="51.821771152317523956298828125" lon="39.409005381166934967041015625">
        <ele>120.40000152587890625</ele>
        <time>2017-01-15T10:18:21.000Z</time>
        <extensions>
          <ns3:TrackPointExtension/>
        </extensions>
      </trkpt>
      <trkpt lat="51.821530759334564208984375" lon="39.4095651246607303619384765625">
        <ele>120.8000030517578125</ele>
        <time>2017-01-15T10:18:36.000Z</time>
        <extensions>
          <ns3:TrackPointExtension/>
        </extensions>
      </trkpt>
      <trkpt lat="51.8211896158754825592041015625" lon="39.40988841466605663299560546875">
        <ele>119.1999969482421875</ele>
        <time>2017-01-15T10:18:49.000Z</time>
        <extensions>
          <ns3:TrackPointExtension/>
        </extensions>
      </trkpt>
      <trkpt lat="51.82080999948084354400634765625" lon="39.41001917235553264617919921875">
        <ele>117.1999969482421875</ele>
        <time>2017-01-15T10:19:01.000Z</time>
        <extensions>
          <ns3:TrackPointExtension/>
        </extensions>
      </trkpt>
      <trkpt lat="51.820387803018093109130859375" lon="39.410100392997264862060546875">
        <ele>113.40000152587890625</ele>
        <time>2017-01-15T10:19:15.000Z</time>
        <extensions>
          <ns3:TrackPointExtension/>
        </extensions>
      </trkpt>
      <trkpt lat="51.82014749385416507720947265625" lon="39.41024447791278362274169921875">
        <ele>110.59999847412109375</ele>
        <time>2017-01-15T10:19:29.000Z</time>
        <extensions>
          <ns3:TrackPointExtension/>
        </extensions>
      </trkpt>
      <trkpt lat="51.81981640867888927459716796875" lon="39.41041597165167331695556640625">
        <ele>109</ele>
        <time>2017-01-15T10:19:43.000Z</time>
        <extensions>
          <ns3:TrackPointExtension/>
        </extensions>
      </trkpt>
      <trkpt lat="51.81948758661746978759765625" lon="39.41067539155483245849609375">
        <ele>113</ele>
        <time>2017-01-15T10:19:54.000Z</time>
        <extensions>
          <ns3:TrackPointExtension/>
        </extensions>
      </trkpt>
      <trkpt lat="51.819070167839527130126953125" lon="39.410921148955821990966796875">
        <ele>116.40000152587890625</ele>
        <time>2017-01-15T10:20:06.000Z</time>
        <extensions>
          <ns3:TrackPointExtension/>
        </extensions>
      </trkpt>
      <trkpt lat="51.8186240829527378082275390625" lon="39.41119649447500705718994140625">
        <ele>117.59999847412109375</ele>
        <time>2017-01-15T10:20:18.000Z</time>
        <extensions>
          <ns3:TrackPointExtension/>
        </extensions>
      </trkpt>
      <trkpt lat="51.81820549070835113525390625" lon="39.411373101174831390380859375">
        <ele>118.8000030517578125</ele>
        <time>2017-01-15T10:20:31.000Z</time>
        <extensions>
          <ns3:TrackPointExtension/>
        </extensions>
      </trkpt>
      <trkpt lat="51.81783266365528106689453125" lon="39.41121778450906276702880859375">
        <ele>117.40000152587890625</ele>
        <time>2017-01-15T10:20:42.000Z</time>
        <extensions>
          <ns3:TrackPointExtension/>
        </extensions>
      </trkpt>
      <trkpt lat="51.81744751520454883575439453125" lon="39.410978816449642181396484375">
        <ele>115.59999847412109375</ele>
        <time>2017-01-15T10:20:54.000Z</time>
        <extensions>
          <ns3:TrackPointExtension/>
        </extensions>
      </trkpt>
      <trkpt lat="51.81712648831307888031005859375" lon="39.4108190573751926422119140625">
        <ele>116</ele>
        <time>2017-01-15T10:21:05.000Z</time>
        <extensions>
          <ns3:TrackPointExtension/>
        </extensions>
      </trkpt>
      <trkpt lat="51.8165799044072628021240234375" lon="39.41074781119823455810546875">
        <ele>118.40000152587890625</ele>
        <time>2017-01-15T10:21:19.000Z</time>
        <extensions>
          <ns3:TrackPointExtension/>
        </extensions>
      </trkpt>
      <trkpt lat="51.8161883018910884857177734375" lon="39.4107768125832080841064453125">
        <ele>117.8000030517578125</ele>
        <time>2017-01-15T10:21:29.000Z</time>
        <extensions>
          <ns3:TrackPointExtension/>
        </extensions>
      </trkpt>
      <trkpt lat="51.815663091838359832763671875" lon="39.41095392219722270965576171875">
        <ele>117</ele>
        <time>2017-01-15T10:21:42.000Z</time>
        <extensions>
          <ns3:TrackPointExtension/>
        </extensions>
      </trkpt>
      <trkpt lat="51.8151194415986537933349609375" lon="39.411145113408565521240234375">
        <ele>114.40000152587890625</ele>
        <time>2017-01-15T10:21:56.000Z</time>
        <extensions>
          <ns3:TrackPointExtension/>
        </extensions>
      </trkpt>
      <trkpt lat="51.81436196900904178619384765625" lon="39.411562196910381317138671875">
        <ele>115.8000030517578125</ele>
        <time>2017-01-15T10:22:16.000Z</time>
        <extensions>
          <ns3:TrackPointExtension/>
        </extensions>
      </trkpt>
      <trkpt lat="51.81376232765614986419677734375" lon="39.41184676252305507659912109375">
        <ele>115.8000030517578125</ele>
        <time>2017-01-15T10:22:34.000Z</time>
        <extensions>
          <ns3:TrackPointExtension/>
        </extensions>
      </trkpt>
      <trkpt lat="51.81325145065784454345703125" lon="39.412104673683643341064453125">
        <ele>115</ele>
        <time>2017-01-15T10:22:49.000Z</time>
        <extensions>
          <ns3:TrackPointExtension/>
        </extensions>
      </trkpt>
      <trkpt lat="51.81249783374369144439697265625" lon="39.41252485848963260650634765625">
        <ele>111.59999847412109375</ele>
        <time>2017-01-15T10:23:10.000Z</time>
        <extensions>
          <ns3:TrackPointExtension/>
        </extensions>
      </trkpt>
      <trkpt lat="51.81158713996410369873046875" lon="39.41292350180447101593017578125">
        <ele>111</ele>
        <time>2017-01-15T10:23:34.000Z</time>
        <extensions>
          <ns3:TrackPointExtension/>
        </extensions>
      </trkpt>
      <trkpt lat="51.81095640175044536590576171875" lon="39.41338182426989078521728515625">
        <ele>111.8000030517578125</ele>
        <time>2017-01-15T10:23:53.000Z</time>
        <extensions>
          <ns3:TrackPointExtension/>
        </extensions>
      </trkpt>
      <trkpt lat="51.81031686253845691680908203125" lon="39.4136957265436649322509765625">
        <ele>112</ele>
        <time>2017-01-15T10:24:12.000Z</time>
        <extensions>
          <ns3:TrackPointExtension/>
        </extensions>
      </trkpt>
      <trkpt lat="51.809844709932804107666015625" lon="39.41396486945450305938720703125">
        <ele>112.1999969482421875</ele>
        <time>2017-01-15T10:24:28.000Z</time>
        <extensions>
          <ns3:TrackPointExtension/>
        </extensions>
      </trkpt>
      <trkpt lat="51.80969660170376300811767578125" lon="39.4141590781509876251220703125">
        <ele>112.1999969482421875</ele>
        <time>2017-01-15T10:24:41.000Z</time>
        <extensions>
          <ns3:TrackPointExtension/>
        </extensions>
      </trkpt>
      <trkpt lat="51.80954019539058208465576171875" lon="39.4143280573189258575439453125">
        <ele>111.8000030517578125</ele>
        <time>2017-01-15T10:24:54.000Z</time>
        <extensions>
          <ns3:TrackPointExtension/>
        </extensions>
      </trkpt>
      <trkpt lat="51.80937574245035648345947265625" lon="39.41450198180973529815673828125">
        <ele>111.1999969482421875</ele>
        <time>2017-01-15T10:25:06.000Z</time>
        <extensions>
          <ns3:TrackPointExtension/>
        </extensions>
      </trkpt>
      <trkpt lat="51.809256635606288909912109375" lon="39.414613544940948486328125">
        <ele>110.8000030517578125</ele>
        <time>2017-01-15T10:25:18.000Z</time>
        <extensions>
          <ns3:TrackPointExtension/>
        </extensions>
      </trkpt>
      <trkpt lat="51.80910467170178890228271484375" lon="39.41478026099503040313720703125">
        <ele>110.59999847412109375</ele>
        <time>2017-01-15T10:25:36.000Z</time>
        <extensions>
          <ns3:TrackPointExtension/>
        </extensions>
      </trkpt>
      <trkpt lat="51.809091679751873016357421875" lon="39.41478629596531391143798828125">
        <ele>110.59999847412109375</ele>
        <time>2017-01-15T10:25:40.000Z</time>
        <extensions>
          <ns3:TrackPointExtension/>
        </extensions>
      </trkpt>
      <trkpt lat="51.8090812861919403076171875" lon="39.4147932529449462890625">
        <ele>110.40000152587890625</ele>
        <time>2017-01-15T10:25:41.000Z</time>
        <extensions>
          <ns3:TrackPointExtension/>
        </extensions>
      </trkpt>
      <trkpt lat="51.809069216251373291015625" lon="39.41480473615229129791259765625">
        <ele>110.40000152587890625</ele>
        <time>2017-01-15T10:25:42.000Z</time>
        <extensions>
          <ns3:TrackPointExtension/>
        </extensions>
      </trkpt>
      <trkpt lat="51.8090569786727428436279296875" lon="39.41481814719736576080322265625">
        <ele>110.40000152587890625</ele>
        <time>2017-01-15T10:25:43.000Z</time>
        <extensions>
          <ns3:TrackPointExtension/>
        </extensions>
      </trkpt>
      <trkpt lat="51.809045411646366119384765625" lon="39.41483004949986934661865234375">
        <ele>110.40000152587890625</ele>
        <time>2017-01-15T10:25:44.000Z</time>
        <extensions>
          <ns3:TrackPointExtension/>
        </extensions>
      </trkpt>
      <trkpt lat="51.80870586074888706207275390625" lon="39.41515392623841762542724609375">
        <ele>110.8000030517578125</ele>
        <time>2017-01-15T10:26:00.000Z</time>
        <extensions>
          <ns3:TrackPointExtension/>
        </extensions>
      </trkpt>
      <trkpt lat="51.808309145271778106689453125" lon="39.41560302861034870147705078125">
        <ele>111</ele>
        <time>2017-01-15T10:26:18.000Z</time>
        <extensions>
          <ns3:TrackPointExtension/>
        </extensions>
      </trkpt>
      <trkpt lat="51.808296404778957366943359375" lon="39.41562398336827754974365234375">
        <ele>111</ele>
        <time>2017-01-15T10:26:20.000Z</time>
        <extensions>
          <ns3:TrackPointExtension/>
        </extensions>
      </trkpt>
      <trkpt lat="51.80812499485909938812255859375" lon="39.41579799167811870574951171875">
        <ele>111.40000152587890625</ele>
        <time>2017-01-15T10:26:38.000Z</time>
        <extensions>
          <ns3:TrackPointExtension/>
        </extensions>
      </trkpt>
      <trkpt lat="51.8079616315662860870361328125" lon="39.4159628637135028839111328125">
        <ele>111.8000030517578125</ele>
        <time>2017-01-15T10:26:56.000Z</time>
        <extensions>
          <ns3:TrackPointExtension/>
        </extensions>
      </trkpt>
      <trkpt lat="51.807790137827396392822265625" lon="39.416095130145549774169921875">
        <ele>112.59999847412109375</ele>
        <time>2017-01-15T10:27:18.000Z</time>
        <extensions>
          <ns3:TrackPointExtension/>
        </extensions>
      </trkpt>
      <trkpt lat="51.8075971864163875579833984375" lon="39.41618875600397586822509765625">
        <ele>113.1999969482421875</ele>
        <time>2017-01-15T10:27:42.000Z</time>
        <extensions>
          <ns3:TrackPointExtension/>
        </extensions>
      </trkpt>
      <trkpt lat="51.807520575821399688720703125" lon="39.41621976904571056365966796875">
        <ele>113.1999969482421875</ele>
        <time>2017-01-15T10:27:54.000Z</time>
        <extensions>
          <ns3:TrackPointExtension/>
        </extensions>
      </trkpt>
      <trkpt lat="51.80761386640369892120361328125" lon="39.41618272103369235992431640625">
        <ele>113.1999969482421875</ele>
        <time>2017-01-15T10:41:52.000Z</time>
        <extensions>
          <ns3:TrackPointExtension/>
        </extensions>
      </trkpt>
      <trkpt lat="51.807780750095844268798828125" lon="39.41607375629246234893798828125">
        <ele>112.59999847412109375</ele>
        <time>2017-01-15T10:42:15.000Z</time>
        <extensions>
          <ns3:TrackPointExtension/>
        </extensions>
      </trkpt>
      <trkpt lat="51.8079438619315624237060546875" lon="39.41599421203136444091796875">
        <ele>112</ele>
        <time>2017-01-15T10:42:38.000Z</time>
        <extensions>
          <ns3:TrackPointExtension/>
        </extensions>
      </trkpt>
      <trkpt lat="51.80807336233556270599365234375" lon="39.41585884429514408111572265625">
        <ele>111.59999847412109375</ele>
        <time>2017-01-15T10:42:58.000Z</time>
        <extensions>
          <ns3:TrackPointExtension/>
        </extensions>
      </trkpt>
      <trkpt lat="51.8081961572170257568359375" lon="39.41571702249348163604736328125">
        <ele>111.40000152587890625</ele>
        <time>2017-01-15T10:43:18.000Z</time>
        <extensions>
          <ns3:TrackPointExtension/>
        </extensions>
      </trkpt>
      <trkpt lat="51.808329261839389801025390625" lon="39.4155699200928211212158203125">
        <ele>110.8000030517578125</ele>
        <time>2017-01-15T10:43:38.000Z</time>
        <extensions>
          <ns3:TrackPointExtension/>
        </extensions>
      </trkpt>
      <trkpt lat="51.80833705700933933258056640625" lon="39.41555139608681201934814453125">
        <ele>110.59999847412109375</ele>
        <time>2017-01-15T10:43:40.000Z</time>
        <extensions>
          <ns3:TrackPointExtension/>
        </extensions>
      </trkpt>
      <trkpt lat="51.8083973228931427001953125" lon="39.41546539776027202606201171875">
        <ele>110.40000152587890625</ele>
        <time>2017-01-15T10:43:48.000Z</time>
        <extensions>
          <ns3:TrackPointExtension/>
        </extensions>
      </trkpt>
      <trkpt lat="51.80844635702669620513916015625" lon="39.41540203057229518890380859375">
        <ele>110.40000152587890625</ele>
        <time>2017-01-15T10:43:52.000Z</time>
        <extensions>
          <ns3:TrackPointExtension/>
        </extensions>
      </trkpt>
      <trkpt lat="51.8087139911949634552001953125" lon="39.41515778191387653350830078125">
        <ele>110.8000030517578125</ele>
        <time>2017-01-15T10:44:07.000Z</time>
        <extensions>
          <ns3:TrackPointExtension/>
        </extensions>
      </trkpt>
      <trkpt lat="51.80915035307407379150390625" lon="39.41472678445279598236083984375">
        <ele>110.59999847412109375</ele>
        <time>2017-01-15T10:44:26.000Z</time>
        <extensions>
          <ns3:TrackPointExtension/>
        </extensions>
      </trkpt>
      <trkpt lat="51.80928102694451808929443359375" lon="39.41458932124078273773193359375">
        <ele>111</ele>
        <time>2017-01-15T10:44:37.000Z</time>
        <extensions>
          <ns3:TrackPointExtension/>
        </extensions>
      </trkpt>
      <trkpt lat="51.80933701805770397186279296875" lon="39.4145382754504680633544921875">
        <ele>111</ele>
        <time>2017-01-15T10:44:46.000Z</time>
        <extensions>
          <ns3:TrackPointExtension/>
        </extensions>
      </trkpt>
      <trkpt lat="51.80934657342731952667236328125" lon="39.41452830098569393157958984375">
        <ele>111.1999969482421875</ele>
        <time>2017-01-15T10:44:47.000Z</time>
        <extensions>
          <ns3:TrackPointExtension/>
        </extensions>
      </trkpt>
      <trkpt lat="51.809356212615966796875" lon="39.414516650140285491943359375">
        <ele>111.1999969482421875</ele>
        <time>2017-01-15T10:44:48.000Z</time>
        <extensions>
          <ns3:TrackPointExtension/>
        </extensions>
      </trkpt>
      <trkpt lat="51.80936870165169239044189453125" lon="39.4145024009048938751220703125">
        <ele>111.1999969482421875</ele>
        <time>2017-01-15T10:44:49.000Z</time>
        <extensions>
          <ns3:TrackPointExtension/>
        </extensions>
      </trkpt>
      <trkpt lat="51.80938177742063999176025390625" lon="39.41448773257434368133544921875">
        <ele>111.1999969482421875</ele>
        <time>2017-01-15T10:44:50.000Z</time>
        <extensions>
          <ns3:TrackPointExtension/>
        </extensions>
      </trkpt>
      <trkpt lat="51.80939418263733386993408203125" lon="39.41447448916733264923095703125">
        <ele>111.1999969482421875</ele>
        <time>2017-01-15T10:44:51.000Z</time>
        <extensions>
          <ns3:TrackPointExtension/>
        </extensions>
      </trkpt>
      <trkpt lat="51.8095662631094455718994140625" lon="39.414295367896556854248046875">
        <ele>111.8000030517578125</ele>
        <time>2017-01-15T10:45:04.000Z</time>
        <extensions>
          <ns3:TrackPointExtension/>
        </extensions>
      </trkpt>
      <trkpt lat="51.80975812487304210662841796875" lon="39.41407467238605022430419921875">
        <ele>112.1999969482421875</ele>
        <time>2017-01-15T10:45:18.000Z</time>
        <extensions>
          <ns3:TrackPointExtension/>
        </extensions>
      </trkpt>
      <trkpt lat="51.80977304466068744659423828125" lon="39.41402404569089412689208984375">
        <ele>112.1999969482421875</ele>
        <time>2017-01-15T10:45:22.000Z</time>
        <extensions>
          <ns3:TrackPointExtension/>
        </extensions>
      </trkpt>
      <trkpt lat="51.80977488867938518524169921875" lon="39.41400627605617046356201171875">
        <ele>112.1999969482421875</ele>
        <time>2017-01-15T10:45:23.000Z</time>
        <extensions>
          <ns3:TrackPointExtension/>
        </extensions>
      </trkpt>
      <trkpt lat="51.80977438576519489288330078125" lon="39.4139860756695270538330078125">
        <ele>112.1999969482421875</ele>
        <time>2017-01-15T10:45:24.000Z</time>
        <extensions>
          <ns3:TrackPointExtension/>
        </extensions>
      </trkpt>
      <trkpt lat="51.80977262556552886962890625" lon="39.4139657914638519287109375">
        <ele>112.1999969482421875</ele>
        <time>2017-01-15T10:45:25.000Z</time>
        <extensions>
          <ns3:TrackPointExtension/>
        </extensions>
      </trkpt>
      <trkpt lat="51.8097684346139430999755859375" lon="39.4139411486685276031494140625">
        <ele>112</ele>
        <time>2017-01-15T10:45:26.000Z</time>
        <extensions>
          <ns3:TrackPointExtension/>
        </extensions>
      </trkpt>
      <trkpt lat="51.809761561453342437744140625" lon="39.41391088999807834625244140625">
        <ele>112</ele>
        <time>2017-01-15T10:45:27.000Z</time>
        <extensions>
          <ns3:TrackPointExtension/>
        </extensions>
      </trkpt>
      <trkpt lat="51.80964010767638683319091796875" lon="39.41325928084552288055419921875">
        <ele>111.8000030517578125</ele>
        <time>2017-01-15T10:45:43.000Z</time>
        <extensions>
          <ns3:TrackPointExtension/>
        </extensions>
      </trkpt>
      <trkpt lat="51.809252612292766571044921875" lon="39.4128471426665782928466796875">
        <ele>111.8000030517578125</ele>
        <time>2017-01-15T10:45:57.000Z</time>
        <extensions>
          <ns3:TrackPointExtension/>
        </extensions>
      </trkpt>
      <trkpt lat="51.80867954157292842864990234375" lon="39.4126446358859539031982421875">
        <ele>113.1999969482421875</ele>
        <time>2017-01-15T10:46:15.000Z</time>
        <extensions>
          <ns3:TrackPointExtension/>
        </extensions>
      </trkpt>
      <trkpt lat="51.807982921600341796875" lon="39.41255436278879642486572265625">
        <ele>113.8000030517578125</ele>
        <time>2017-01-15T10:46:34.000Z</time>
        <extensions>
          <ns3:TrackPointExtension/>
        </extensions>
      </trkpt>
      <trkpt lat="51.80736307986080646514892578125" lon="39.41221355460584163665771484375">
        <ele>112.59999847412109375</ele>
        <time>2017-01-15T10:46:51.000Z</time>
        <extensions>
          <ns3:TrackPointExtension/>
        </extensions>
      </trkpt>
      <trkpt lat="51.80658021010458469390869140625" lon="39.411842487752437591552734375">
        <ele>115.40000152587890625</ele>
        <time>2017-01-15T10:47:12.000Z</time>
        <extensions>
          <ns3:TrackPointExtension/>
        </extensions>
      </trkpt>
      <trkpt lat="51.80582986213266849517822265625" lon="39.41157569177448749542236328125">
        <ele>117.40000152587890625</ele>
        <time>2017-01-15T10:47:32.000Z</time>
        <extensions>
          <ns3:TrackPointExtension/>
        </extensions>
      </trkpt>
      <trkpt lat="51.805163919925689697265625" lon="39.41128383390605449676513671875">
        <ele>120.59999847412109375</ele>
        <time>2017-01-15T10:47:46.000Z</time>
        <extensions>
          <ns3:TrackPointExtension/>
        </extensions>
      </trkpt>
      <trkpt lat="51.8045998178422451019287109375" lon="39.4111070595681667327880859375">
        <ele>122.8000030517578125</ele>
        <time>2017-01-15T10:47:58.000Z</time>
        <extensions>
          <ns3:TrackPointExtension/>
        </extensions>
      </trkpt>
      <trkpt lat="51.80455438792705535888671875" lon="39.41109943203628063201904296875">
        <ele>122.8000030517578125</ele>
        <time>2017-01-15T10:47:59.000Z</time>
        <extensions>
          <ns3:TrackPointExtension/>
        </extensions>
      </trkpt>
      <trkpt lat="51.80404879152774810791015625" lon="39.410966746509075164794921875">
        <ele>124.1999969482421875</ele>
        <time>2017-01-15T10:48:12.000Z</time>
        <extensions>
          <ns3:TrackPointExtension/>
        </extensions>
      </trkpt>
      <trkpt lat="51.8035064823925495147705078125" lon="39.41083624027669429779052734375">
        <ele>125.40000152587890625</ele>
        <time>2017-01-15T10:48:26.000Z</time>
        <extensions>
          <ns3:TrackPointExtension/>
        </extensions>
      </trkpt>
      <trkpt lat="51.8028711341321468353271484375" lon="39.410659968852996826171875">
        <ele>126</ele>
        <time>2017-01-15T10:48:39.000Z</time>
        <extensions>
          <ns3:TrackPointExtension/>
        </extensions>
      </trkpt>
      <trkpt lat="51.80256997235119342803955078125" lon="39.41057506017386913299560546875">
        <ele>126</ele>
        <time>2017-01-15T10:48:45.000Z</time>
        <extensions>
          <ns3:TrackPointExtension/>
        </extensions>
      </trkpt>
      <trkpt lat="51.80252303369343280792236328125" lon="39.41056734882295131683349609375">
        <ele>126</ele>
        <time>2017-01-15T10:48:46.000Z</time>
        <extensions>
          <ns3:TrackPointExtension/>
        </extensions>
      </trkpt>
      <trkpt lat="51.801847033202648162841796875" lon="39.41039266996085643768310546875">
        <ele>126.59999847412109375</ele>
        <time>2017-01-15T10:49:02.000Z</time>
        <extensions>
          <ns3:TrackPointExtension/>
        </extensions>
      </trkpt>
      <trkpt lat="51.80143556557595729827880859375" lon="39.41026325337588787078857421875">
        <ele>127.40000152587890625</ele>
        <time>2017-01-15T10:49:13.000Z</time>
        <extensions>
          <ns3:TrackPointExtension/>
        </extensions>
      </trkpt>
      <trkpt lat="51.80087573826313018798828125" lon="39.410144984722137451171875">
        <ele>129.1999969482421875</ele>
        <time>2017-01-15T10:49:27.000Z</time>
        <extensions>
          <ns3:TrackPointExtension/>
        </extensions>
      </trkpt>
      <trkpt lat="51.80021717213094234466552734375" lon="39.40996066667139530181884765625">
        <ele>129.399993896484375</ele>
        <time>2017-01-15T10:49:43.000Z</time>
        <extensions>
          <ns3:TrackPointExtension/>
        </extensions>
      </trkpt>
      <trkpt lat="51.7996940575540065765380859375" lon="39.40983845852315425872802734375">
        <ele>129.1999969482421875</ele>
        <time>2017-01-15T10:49:56.000Z</time>
        <extensions>
          <ns3:TrackPointExtension/>
        </extensions>
      </trkpt>
      <trkpt lat="51.7990469746291637420654296875" lon="39.4096271507441997528076171875">
        <ele>129.600006103515625</ele>
        <time>2017-01-15T10:50:11.000Z</time>
        <extensions>
          <ns3:TrackPointExtension/>
        </extensions>
      </trkpt>
      <trkpt lat="51.79855068214237689971923828125" lon="39.40949119627475738525390625">
        <ele>131.1999969482421875</ele>
        <time>2017-01-15T10:50:24.000Z</time>
        <extensions>
          <ns3:TrackPointExtension/>
        </extensions>
      </trkpt>
      <trkpt lat="51.79783017374575138092041015625" lon="39.40929681994020938873291015625">
        <ele>133</ele>
        <time>2017-01-15T10:50:39.000Z</time>
        <extensions>
          <ns3:TrackPointExtension/>
        </extensions>
      </trkpt>
      <trkpt lat="51.797015033662319183349609375" lon="39.40909515134990215301513671875">
        <ele>133.600006103515625</ele>
        <time>2017-01-15T10:50:56.000Z</time>
        <extensions>
          <ns3:TrackPointExtension/>
        </extensions>
      </trkpt>
      <trkpt lat="51.79639083333313465118408203125" lon="39.40895450301468372344970703125">
        <ele>132.1999969482421875</ele>
        <time>2017-01-15T10:51:11.000Z</time>
        <extensions>
          <ns3:TrackPointExtension/>
        </extensions>
      </trkpt>
      <trkpt lat="51.79581583477556705474853515625" lon="39.40880513750016689300537109375">
        <ele>131</ele>
        <time>2017-01-15T10:51:24.000Z</time>
        <extensions>
          <ns3:TrackPointExtension/>
        </extensions>
      </trkpt>
      <trkpt lat="51.7951312847435474395751953125" lon="39.40860531292855739593505859375">
        <ele>133.1999969482421875</ele>
        <time>2017-01-15T10:51:40.000Z</time>
        <extensions>
          <ns3:TrackPointExtension/>
        </extensions>
      </trkpt>
      <trkpt lat="51.79438001476228237152099609375" lon="39.40839945338666439056396484375">
        <ele>135</ele>
        <time>2017-01-15T10:51:56.000Z</time>
        <extensions>
          <ns3:TrackPointExtension/>
        </extensions>
      </trkpt>
      <trkpt lat="51.7937522940337657928466796875" lon="39.40824438817799091339111328125">
        <ele>135.399993896484375</ele>
        <time>2017-01-15T10:52:10.000Z</time>
        <extensions>
          <ns3:TrackPointExtension/>
        </extensions>
      </trkpt>
      <trkpt lat="51.7931484617292881011962890625" lon="39.4080724753439426422119140625">
        <ele>136</ele>
        <time>2017-01-15T10:52:24.000Z</time>
        <extensions>
          <ns3:TrackPointExtension/>
        </extensions>
      </trkpt>
      <trkpt lat="51.7925768159329891204833984375" lon="39.40792000852525234222412109375">
        <ele>135.1999969482421875</ele>
        <time>2017-01-15T10:52:37.000Z</time>
        <extensions>
          <ns3:TrackPointExtension/>
        </extensions>
      </trkpt>
      <trkpt lat="51.79185639135539531707763671875" lon="39.40773074515163898468017578125">
        <ele>134.399993896484375</ele>
        <time>2017-01-15T10:52:53.000Z</time>
        <extensions>
          <ns3:TrackPointExtension/>
        </extensions>
      </trkpt>
      <trkpt lat="51.7918123863637447357177734375" lon="39.4077177532017230987548828125">
        <ele>134.399993896484375</ele>
        <time>2017-01-15T10:52:54.000Z</time>
        <extensions>
          <ns3:TrackPointExtension/>
        </extensions>
      </trkpt>
      <trkpt lat="51.791770644485950469970703125" lon="39.40770777873694896697998046875">
        <ele>134.1999969482421875</ele>
        <time>2017-01-15T10:52:55.000Z</time>
        <extensions>
          <ns3:TrackPointExtension/>
        </extensions>
      </trkpt>
      <trkpt lat="51.791092045605182647705078125" lon="39.407543241977691650390625">
        <ele>132.8000030517578125</ele>
        <time>2017-01-15T10:53:10.000Z</time>
        <extensions>
          <ns3:TrackPointExtension/>
        </extensions>
      </trkpt>
      <trkpt lat="51.7902932502329349517822265625" lon="39.40735389478504657745361328125">
        <ele>132.399993896484375</ele>
        <time>2017-01-15T10:53:28.000Z</time>
        <extensions>
          <ns3:TrackPointExtension/>
        </extensions>
      </trkpt>
      <trkpt lat="51.7894832231104373931884765625" lon="39.407136552035808563232421875">
        <ele>133</ele>
        <time>2017-01-15T10:53:47.000Z</time>
        <extensions>
          <ns3:TrackPointExtension/>
        </extensions>
      </trkpt>
      <trkpt lat="51.7887955717742443084716796875" lon="39.40693764947354793548583984375">
        <ele>134.1999969482421875</ele>
        <time>2017-01-15T10:54:03.000Z</time>
        <extensions>
          <ns3:TrackPointExtension/>
        </extensions>
      </trkpt>
      <trkpt lat="51.78815527819097042083740234375" lon="39.40675777383148670196533203125">
        <ele>134.600006103515625</ele>
        <time>2017-01-15T10:54:18.000Z</time>
        <extensions>
          <ns3:TrackPointExtension/>
        </extensions>
      </trkpt>
      <trkpt lat="51.78753149695694446563720703125" lon="39.406602121889591217041015625">
        <ele>134.600006103515625</ele>
        <time>2017-01-15T10:54:32.000Z</time>
        <extensions>
          <ns3:TrackPointExtension/>
        </extensions>
      </trkpt>
      <trkpt lat="51.78738984279334545135498046875" lon="39.406572617590427398681640625">
        <ele>134.600006103515625</ele>
        <time>2017-01-15T10:54:35.000Z</time>
        <extensions>
          <ns3:TrackPointExtension/>
        </extensions>
      </trkpt>
      <trkpt lat="51.7867466993629932403564453125" lon="39.4064152054488658905029296875">
        <ele>137.1999969482421875</ele>
        <time>2017-01-15T10:54:49.000Z</time>
        <extensions>
          <ns3:TrackPointExtension/>
        </extensions>
      </trkpt>
      <trkpt lat="51.78613440133631229400634765625" lon="39.4062613137066364288330078125">
        <ele>137.8000030517578125</ele>
        <time>2017-01-15T10:55:03.000Z</time>
        <extensions>
          <ns3:TrackPointExtension/>
        </extensions>
      </trkpt>
      <trkpt lat="51.78550341166555881500244140625" lon="39.40609660930931568145751953125">
        <ele>137</ele>
        <time>2017-01-15T10:55:17.000Z</time>
        <extensions>
          <ns3:TrackPointExtension/>
        </extensions>
      </trkpt>
      <trkpt lat="51.784843169152736663818359375" lon="39.40591019578278064727783203125">
        <ele>134.1999969482421875</ele>
        <time>2017-01-15T10:55:32.000Z</time>
        <extensions>
          <ns3:TrackPointExtension/>
        </extensions>
      </trkpt>
      <trkpt lat="51.78422718308866024017333984375" lon="39.40573467873036861419677734375">
        <ele>134.399993896484375</ele>
        <time>2017-01-15T10:55:46.000Z</time>
        <extensions>
          <ns3:TrackPointExtension/>
        </extensions>
      </trkpt>
      <trkpt lat="51.7838425375521183013916015625" lon="39.405639879405498504638671875">
        <ele>133.600006103515625</ele>
        <time>2017-01-15T10:55:57.000Z</time>
        <extensions>
          <ns3:TrackPointExtension/>
        </extensions>
      </trkpt>
      <trkpt lat="51.7832906730473041534423828125" lon="39.40551993437111377716064453125">
        <ele>131.399993896484375</ele>
        <time>2017-01-15T10:56:12.000Z</time>
        <extensions>
          <ns3:TrackPointExtension/>
        </extensions>
      </trkpt>
      <trkpt lat="51.7827834002673625946044921875" lon="39.4053875841200351715087890625">
        <ele>132.1999969482421875</ele>
        <time>2017-01-15T10:56:27.000Z</time>
        <extensions>
          <ns3:TrackPointExtension/>
        </extensions>
      </trkpt>
      <trkpt lat="51.78207118995487689971923828125" lon="39.405202679336071014404296875">
        <ele>133.8000030517578125</ele>
        <time>2017-01-15T10:56:46.000Z</time>
        <extensions>
          <ns3:TrackPointExtension/>
        </extensions>
      </trkpt>
      <trkpt lat="51.78151278756558895111083984375" lon="39.4050643779337406158447265625">
        <ele>135.1999969482421875</ele>
        <time>2017-01-15T10:57:03.000Z</time>
        <extensions>
          <ns3:TrackPointExtension/>
        </extensions>
      </trkpt>
      <trkpt lat="51.78123668767511844635009765625" lon="39.40504233352839946746826171875">
        <ele>134.600006103515625</ele>
        <time>2017-01-15T10:57:18.000Z</time>
        <extensions>
          <ns3:TrackPointExtension/>
        </extensions>
      </trkpt>
      <trkpt lat="51.7810748331248760223388671875" lon="39.405318014323711395263671875">
        <ele>133.1999969482421875</ele>
        <time>2017-01-15T10:57:31.000Z</time>
        <extensions>
          <ns3:TrackPointExtension/>
        </extensions>
      </trkpt>
      <trkpt lat="51.78082278929650783538818359375" lon="39.4059200026094913482666015625">
        <ele>132.399993896484375</ele>
        <time>2017-01-15T10:57:47.000Z</time>
        <extensions>
          <ns3:TrackPointExtension/>
        </extensions>
      </trkpt>
      <trkpt lat="51.7806983180344104766845703125" lon="39.40617137588560581207275390625">
        <ele>132</ele>
        <time>2017-01-15T10:57:59.000Z</time>
        <extensions>
          <ns3:TrackPointExtension/>
        </extensions>
      </trkpt>
      <trkpt lat="51.78065565414726734161376953125" lon="39.40625217743217945098876953125">
        <ele>132</ele>
        <time>2017-01-15T10:58:07.000Z</time>
        <extensions>
          <ns3:TrackPointExtension/>
        </extensions>
      </trkpt>
      <trkpt lat="51.7806480266153812408447265625" lon="39.40626542083919048309326171875">
        <ele>132</ele>
        <time>2017-01-15T10:58:08.000Z</time>
        <extensions>
          <ns3:TrackPointExtension/>
        </extensions>
      </trkpt>
      <trkpt lat="51.78064073435962200164794921875" lon="39.40628168173134326934814453125">
        <ele>132</ele>
        <time>2017-01-15T10:58:09.000Z</time>
        <extensions>
          <ns3:TrackPointExtension/>
        </extensions>
      </trkpt>
      <trkpt lat="51.780504696071147918701171875" lon="39.40670161508023738861083984375">
        <ele>131.600006103515625</ele>
        <time>2017-01-15T10:58:22.000Z</time>
        <extensions>
          <ns3:TrackPointExtension/>
        </extensions>
      </trkpt>
      <trkpt lat="51.78030646406114101409912109375" lon="39.40728616900742053985595703125">
        <ele>132.600006103515625</ele>
        <time>2017-01-15T10:58:39.000Z</time>
        <extensions>
          <ns3:TrackPointExtension/>
        </extensions>
      </trkpt>
      <trkpt lat="51.78030646406114101409912109375" lon="39.4072852469980716705322265625">
        <ele>132.600006103515625</ele>
        <time>2017-01-15T10:58:41.000Z</time>
        <extensions>
          <ns3:TrackPointExtension/>
        </extensions>
      </trkpt>
      <trkpt lat="51.78028249181807041168212890625" lon="39.4073740951716899871826171875">
        <ele>133</ele>
        <time>2017-01-15T10:58:49.000Z</time>
        <extensions>
          <ns3:TrackPointExtension/>
        </extensions>
      </trkpt>
      <trkpt lat="51.78022800944745540618896484375" lon="39.40763016231358051300048828125">
        <ele>133.600006103515625</ele>
        <time>2017-01-15T10:59:03.000Z</time>
        <extensions>
          <ns3:TrackPointExtension/>
        </extensions>
      </trkpt>
      <trkpt lat="51.78014385513961315155029296875" lon="39.40818286500871181488037109375">
        <ele>135.1999969482421875</ele>
        <time>2017-01-15T10:59:17.000Z</time>
        <extensions>
          <ns3:TrackPointExtension/>
        </extensions>
      </trkpt>
      <trkpt lat="51.78004511632025241851806640625" lon="39.408927261829376220703125">
        <ele>136</ele>
        <time>2017-01-15T10:59:31.000Z</time>
        <extensions>
          <ns3:TrackPointExtension/>
        </extensions>
      </trkpt>
      <trkpt lat="51.77999884821474552154541015625" lon="39.40975447185337543487548828125">
        <ele>135.8000030517578125</ele>
        <time>2017-01-15T10:59:46.000Z</time>
        <extensions>
          <ns3:TrackPointExtension/>
        </extensions>
      </trkpt>
      <trkpt lat="51.77992894314229488372802734375" lon="39.41063742153346538543701171875">
        <ele>136.600006103515625</ele>
        <time>2017-01-15T11:00:03.000Z</time>
        <extensions>
          <ns3:TrackPointExtension/>
        </extensions>
      </trkpt>
      <trkpt lat="51.77985467948019504547119140625" lon="39.411430768668651580810546875">
        <ele>138.8000030517578125</ele>
        <time>2017-01-15T11:00:18.000Z</time>
        <extensions>
          <ns3:TrackPointExtension/>
        </extensions>
      </trkpt>
      <trkpt lat="51.7797897197306156158447265625" lon="39.41227574832737445831298828125">
        <ele>140.399993896484375</ele>
        <time>2017-01-15T11:00:34.000Z</time>
        <extensions>
          <ns3:TrackPointExtension/>
        </extensions>
      </trkpt>
      <trkpt lat="51.7797400988638401031494140625" lon="39.4129111804068088531494140625">
        <ele>141.1999969482421875</ele>
        <time>2017-01-15T11:00:46.000Z</time>
        <extensions>
          <ns3:TrackPointExtension/>
        </extensions>
      </trkpt>
      <trkpt lat="51.77965083159506320953369140625" lon="39.4135907851159572601318359375">
        <ele>142.1999969482421875</ele>
        <time>2017-01-15T11:00:59.000Z</time>
        <extensions>
          <ns3:TrackPointExtension/>
        </extensions>
      </trkpt>
      <trkpt lat="51.77955376915633678436279296875" lon="39.41440257243812084197998046875">
        <ele>143</ele>
        <time>2017-01-15T11:01:15.000Z</time>
        <extensions>
          <ns3:TrackPointExtension/>
        </extensions>
      </trkpt>
      <trkpt lat="51.77947179414331912994384765625" lon="39.4150391779839992523193359375">
        <ele>143.600006103515625</ele>
        <time>2017-01-15T11:01:27.000Z</time>
        <extensions>
          <ns3:TrackPointExtension/>
        </extensions>
      </trkpt>
      <trkpt lat="51.7793957702815532684326171875" lon="39.41581182181835174560546875">
        <ele>144</ele>
        <time>2017-01-15T11:01:40.000Z</time>
        <extensions>
          <ns3:TrackPointExtension/>
        </extensions>
      </trkpt>
      <trkpt lat="51.7793273739516735076904296875" lon="39.41654699854552745819091796875">
        <ele>144.399993896484375</ele>
        <time>2017-01-15T11:01:53.000Z</time>
        <extensions>
          <ns3:TrackPointExtension/>
        </extensions>
      </trkpt>
      <trkpt lat="51.7792757414281368255615234375" lon="39.41713758744299411773681640625">
        <ele>145.1999969482421875</ele>
        <time>2017-01-15T11:02:04.000Z</time>
        <extensions>
          <ns3:TrackPointExtension/>
        </extensions>
      </trkpt>
      <trkpt lat="51.77920239977538585662841796875" lon="39.41777628846466541290283203125">
        <ele>145.1999969482421875</ele>
        <time>2017-01-15T11:02:16.000Z</time>
        <extensions>
          <ns3:TrackPointExtension/>
        </extensions>
      </trkpt>
      <trkpt lat="51.77917054854333400726318359375" lon="39.418342150747776031494140625">
        <ele>145.399993896484375</ele>
        <time>2017-01-15T11:02:26.000Z</time>
        <extensions>
          <ns3:TrackPointExtension/>
        </extensions>
      </trkpt>
      <trkpt lat="51.7791131325066089630126953125" lon="39.418979845941066741943359375">
        <ele>145.600006103515625</ele>
        <time>2017-01-15T11:02:37.000Z</time>
        <extensions>
          <ns3:TrackPointExtension/>
        </extensions>
      </trkpt>
      <trkpt lat="51.77902889437973499298095703125" lon="39.419582001864910125732421875">
        <ele>146.1999969482421875</ele>
        <time>2017-01-15T11:02:48.000Z</time>
        <extensions>
          <ns3:TrackPointExtension/>
        </extensions>
      </trkpt>
      <trkpt lat="51.778987906873226165771484375" lon="39.42007745616137981414794921875">
        <ele>146.8000030517578125</ele>
        <time>2017-01-15T11:02:57.000Z</time>
        <extensions>
          <ns3:TrackPointExtension/>
        </extensions>
      </trkpt>
      <trkpt lat="51.778914146125316619873046875" lon="39.4207174144685268402099609375">
        <ele>146.600006103515625</ele>
        <time>2017-01-15T11:03:08.000Z</time>
        <extensions>
          <ns3:TrackPointExtension/>
        </extensions>
      </trkpt>
      <trkpt lat="51.77887223660945892333984375" lon="39.4212803430855274200439453125">
        <ele>145.8000030517578125</ele>
        <time>2017-01-15T11:03:18.000Z</time>
        <extensions>
          <ns3:TrackPointExtension/>
        </extensions>
      </trkpt>
      <trkpt lat="51.7788420617580413818359375" lon="39.42191493697464466094970703125">
        <ele>144.8000030517578125</ele>
        <time>2017-01-15T11:03:30.000Z</time>
        <extensions>
          <ns3:TrackPointExtension/>
        </extensions>
      </trkpt>
      <trkpt lat="51.7787470109760761260986328125" lon="39.4226174242794513702392578125">
        <ele>144.1999969482421875</ele>
        <time>2017-01-15T11:03:44.000Z</time>
        <extensions>
          <ns3:TrackPointExtension/>
        </extensions>
      </trkpt>
      <trkpt lat="51.77870216779410839080810546875" lon="39.423273392021656036376953125">
        <ele>144.1999969482421875</ele>
        <time>2017-01-15T11:03:58.000Z</time>
        <extensions>
          <ns3:TrackPointExtension/>
        </extensions>
      </trkpt>
      <trkpt lat="51.778626479208469390869140625" lon="39.42379365675151348114013671875">
        <ele>143.399993896484375</ele>
        <time>2017-01-15T11:04:11.000Z</time>
        <extensions>
          <ns3:TrackPointExtension/>
        </extensions>
      </trkpt>
      <trkpt lat="51.77852614782750606536865234375" lon="39.42429430782794952392578125">
        <ele>143.1999969482421875</ele>
        <time>2017-01-15T11:04:23.000Z</time>
        <extensions>
          <ns3:TrackPointExtension/>
        </extensions>
      </trkpt>
      <trkpt lat="51.77851391024887561798095703125" lon="39.42431333474814891815185546875">
        <ele>143</ele>
        <time>2017-01-15T11:04:24.000Z</time>
        <extensions>
          <ns3:TrackPointExtension/>
        </extensions>
      </trkpt>
      <trkpt lat="51.77826915867626667022705078125" lon="39.4243883527815341949462890625">
        <ele>142.1999969482421875</ele>
        <time>2017-01-15T11:04:37.000Z</time>
        <extensions>
          <ns3:TrackPointExtension/>
        </extensions>
      </trkpt>
      <trkpt lat="51.77789767272770404815673828125" lon="39.42436295561492443084716796875">
        <ele>141.8000030517578125</ele>
        <time>2017-01-15T11:04:50.000Z</time>
        <extensions>
          <ns3:TrackPointExtension/>
        </extensions>
      </trkpt>
      <trkpt lat="51.7776020430028438568115234375" lon="39.42434468306601047515869140625">
        <ele>141.600006103515625</ele>
        <time>2017-01-15T11:05:00.000Z</time>
        <extensions>
          <ns3:TrackPointExtension/>
        </extensions>
      </trkpt>
      <trkpt lat="51.777204573154449462890625" lon="39.42433697171509265899658203125">
        <ele>142.8000030517578125</ele>
        <time>2017-01-15T11:05:12.000Z</time>
        <extensions>
          <ns3:TrackPointExtension/>
        </extensions>
      </trkpt>
      <trkpt lat="51.7767715640366077423095703125" lon="39.4243451021611690521240234375">
        <ele>145.399993896484375</ele>
        <time>2017-01-15T11:05:25.000Z</time>
        <extensions>
          <ns3:TrackPointExtension/>
        </extensions>
      </trkpt>
      <trkpt lat="51.77624124102294445037841796875" lon="39.42435541190207004547119140625">
        <ele>148</ele>
        <time>2017-01-15T11:05:41.000Z</time>
        <extensions>
          <ns3:TrackPointExtension/>
        </extensions>
      </trkpt>
      <trkpt lat="51.775885932147502899169921875" lon="39.4243229739367961883544921875">
        <ele>149.399993896484375</ele>
        <time>2017-01-15T11:05:53.000Z</time>
        <extensions>
          <ns3:TrackPointExtension/>
        </extensions>
      </trkpt>
      <trkpt lat="51.77549491636455059051513671875" lon="39.42429858259856700897216796875">
        <ele>150.1999969482421875</ele>
        <time>2017-01-15T11:06:06.000Z</time>
        <extensions>
          <ns3:TrackPointExtension/>
        </extensions>
      </trkpt>
      <trkpt lat="51.7751421220600605010986328125" lon="39.42429439164698123931884765625">
        <ele>150.600006103515625</ele>
        <time>2017-01-15T11:06:18.000Z</time>
        <extensions>
          <ns3:TrackPointExtension/>
        </extensions>
      </trkpt>
      <trkpt lat="51.7747065983712673187255859375" lon="39.42430713213980197906494140625">
        <ele>151.399993896484375</ele>
        <time>2017-01-15T11:06:33.000Z</time>
        <extensions>
          <ns3:TrackPointExtension/>
        </extensions>
      </trkpt>
      <trkpt lat="51.774309463798999786376953125" lon="39.42427494563162326812744140625">
        <ele>152.399993896484375</ele>
        <time>2017-01-15T11:06:46.000Z</time>
        <extensions>
          <ns3:TrackPointExtension/>
        </extensions>
      </trkpt>
      <trkpt lat="51.7738972418010234832763671875" lon="39.42426078021526336669921875">
        <ele>153</ele>
        <time>2017-01-15T11:07:00.000Z</time>
        <extensions>
          <ns3:TrackPointExtension/>
        </extensions>
      </trkpt>
      <trkpt lat="51.77350957877933979034423828125" lon="39.42427192814648151397705078125">
        <ele>152.600006103515625</ele>
        <time>2017-01-15T11:07:13.000Z</time>
        <extensions>
          <ns3:TrackPointExtension/>
        </extensions>
      </trkpt>
      <trkpt lat="51.77319542504847049713134765625" lon="39.4242619536817073822021484375">
        <ele>152.1999969482421875</ele>
        <time>2017-01-15T11:07:25.000Z</time>
        <extensions>
          <ns3:TrackPointExtension/>
        </extensions>
      </trkpt>
      <trkpt lat="51.7728843726217746734619140625" lon="39.4242227263748645782470703125">
        <ele>152.8000030517578125</ele>
        <time>2017-01-15T11:07:37.000Z</time>
        <extensions>
          <ns3:TrackPointExtension/>
        </extensions>
      </trkpt>
      <trkpt lat="51.77246083505451679229736328125" lon="39.4242118299007415771484375">
        <ele>153.8000030517578125</ele>
        <time>2017-01-15T11:07:51.000Z</time>
        <extensions>
          <ns3:TrackPointExtension/>
        </extensions>
      </trkpt>
      <trkpt lat="51.772013492882251739501953125" lon="39.42420168779790401458740234375">
        <ele>153.600006103515625</ele>
        <time>2017-01-15T11:08:07.000Z</time>
        <extensions>
          <ns3:TrackPointExtension/>
        </extensions>
      </trkpt>
      <trkpt lat="51.77163136191666126251220703125" lon="39.42420336417853832244873046875">
        <ele>153.1999969482421875</ele>
        <time>2017-01-15T11:08:21.000Z</time>
        <extensions>
          <ns3:TrackPointExtension/>
        </extensions>
      </trkpt>
      <trkpt lat="51.77118008024990558624267578125" lon="39.424130357801914215087890625">
        <ele>151.1999969482421875</ele>
        <time>2017-01-15T11:08:35.000Z</time>
        <extensions>
          <ns3:TrackPointExtension/>
        </extensions>
      </trkpt>
      <trkpt lat="51.7707691155374050140380859375" lon="39.424108900129795074462890625">
        <ele>150.1999969482421875</ele>
        <time>2017-01-15T11:08:48.000Z</time>
        <extensions>
          <ns3:TrackPointExtension/>
        </extensions>
      </trkpt>
      <trkpt lat="51.77074539475142955780029296875" lon="39.42410680465400218963623046875">
        <ele>150.1999969482421875</ele>
        <time>2017-01-15T11:08:49.000Z</time>
        <extensions>
          <ns3:TrackPointExtension/>
        </extensions>
      </trkpt>
      <trkpt lat="51.77070491015911102294921875" lon="39.42411066032946109771728515625">
        <ele>150</ele>
        <time>2017-01-15T11:08:52.000Z</time>
        <extensions>
          <ns3:TrackPointExtension/>
        </extensions>
      </trkpt>
      <trkpt lat="51.770687140524387359619140625" lon="39.42411954514682292938232421875">
        <ele>150</ele>
        <time>2017-01-15T11:08:53.000Z</time>
        <extensions>
          <ns3:TrackPointExtension/>
        </extensions>
      </trkpt>
      <trkpt lat="51.7706668563187122344970703125" lon="39.424128346145153045654296875">
        <ele>149.8000030517578125</ele>
        <time>2017-01-15T11:08:54.000Z</time>
        <extensions>
          <ns3:TrackPointExtension/>
        </extensions>
      </trkpt>
      <trkpt lat="51.77027902565896511077880859375" lon="39.42415307275950908660888671875">
        <ele>147.1999969482421875</ele>
        <time>2017-01-15T11:09:07.000Z</time>
        <extensions>
          <ns3:TrackPointExtension/>
        </extensions>
      </trkpt>
      <trkpt lat="51.76998398266732692718505859375" lon="39.42412490956485271453857421875">
        <ele>145.399993896484375</ele>
        <time>2017-01-15T11:09:18.000Z</time>
        <extensions>
          <ns3:TrackPointExtension/>
        </extensions>
      </trkpt>
      <trkpt lat="51.76953588612377643585205078125" lon="39.42410730756819248199462890625">
        <ele>143.399993896484375</ele>
        <time>2017-01-15T11:09:33.000Z</time>
        <extensions>
          <ns3:TrackPointExtension/>
        </extensions>
      </trkpt>
      <trkpt lat="51.76912668161094188690185546875" lon="39.42408618517220020294189453125">
        <ele>142.1999969482421875</ele>
        <time>2017-01-15T11:09:47.000Z</time>
        <extensions>
          <ns3:TrackPointExtension/>
        </extensions>
      </trkpt>
      <trkpt lat="51.7687128670513629913330078125" lon="39.42406020127236843109130859375">
        <ele>144.399993896484375</ele>
        <time>2017-01-15T11:10:00.000Z</time>
        <extensions>
          <ns3:TrackPointExtension/>
        </extensions>
      </trkpt>
      <trkpt lat="51.76822965033352375030517578125" lon="39.42406632006168365478515625">
        <ele>147</ele>
        <time>2017-01-15T11:10:14.000Z</time>
        <extensions>
          <ns3:TrackPointExtension/>
        </extensions>
      </trkpt>
      <trkpt lat="51.76773176528513431549072265625" lon="39.42407914437353610992431640625">
        <ele>147.399993896484375</ele>
        <time>2017-01-15T11:10:29.000Z</time>
        <extensions>
          <ns3:TrackPointExtension/>
        </extensions>
      </trkpt>
      <trkpt lat="51.7673219740390777587890625" lon="39.42403681576251983642578125">
        <ele>146.8000030517578125</ele>
        <time>2017-01-15T11:10:43.000Z</time>
        <extensions>
          <ns3:TrackPointExtension/>
        </extensions>
      </trkpt>
      <trkpt lat="51.76685200072824954986572265625" lon="39.424013681709766387939453125">
        <ele>145.8000030517578125</ele>
        <time>2017-01-15T11:10:56.000Z</time>
        <extensions>
          <ns3:TrackPointExtension/>
        </extensions>
      </trkpt>
      <trkpt lat="51.7664205841720104217529296875" lon="39.42400806583464145660400390625">
        <ele>145.1999969482421875</ele>
        <time>2017-01-15T11:11:07.000Z</time>
        <extensions>
          <ns3:TrackPointExtension/>
        </extensions>
      </trkpt>
      <trkpt lat="51.7659180052578449249267578125" lon="39.4239913858473300933837890625">
        <ele>144</ele>
        <time>2017-01-15T11:11:19.000Z</time>
        <extensions>
          <ns3:TrackPointExtension/>
        </extensions>
      </trkpt>
      <trkpt lat="51.76526363007724285125732421875" lon="39.423971436917781829833984375">
        <ele>143.399993896484375</ele>
        <time>2017-01-15T11:11:34.000Z</time>
        <extensions>
          <ns3:TrackPointExtension/>
        </extensions>
      </trkpt>
      <trkpt lat="51.7646838538348674774169921875" lon="39.42394101060926914215087890625">
        <ele>143.1999969482421875</ele>
        <time>2017-01-15T11:11:47.000Z</time>
        <extensions>
          <ns3:TrackPointExtension/>
        </extensions>
      </trkpt>
      <trkpt lat="51.76402889192104339599609375" lon="39.42393899895250797271728515625">
        <ele>142.1999969482421875</ele>
        <time>2017-01-15T11:12:02.000Z</time>
        <extensions>
          <ns3:TrackPointExtension/>
        </extensions>
      </trkpt>
      <trkpt lat="51.76336060278117656707763671875" lon="39.42393958568572998046875">
        <ele>140</ele>
        <time>2017-01-15T11:12:18.000Z</time>
        <extensions>
          <ns3:TrackPointExtension/>
        </extensions>
      </trkpt>
      <trkpt lat="51.76282214932143688201904296875" lon="39.42395274527370929718017578125">
        <ele>138.8000030517578125</ele>
        <time>2017-01-15T11:12:31.000Z</time>
        <extensions>
          <ns3:TrackPointExtension/>
        </extensions>
      </trkpt>
      <trkpt lat="51.762227453291416168212890625" lon="39.42391318269073963165283203125">
        <ele>137</ele>
        <time>2017-01-15T11:12:45.000Z</time>
        <extensions>
          <ns3:TrackPointExtension/>
        </extensions>
      </trkpt>
      <trkpt lat="51.7617076076567173004150390625" lon="39.42385920323431491851806640625">
        <ele>135.600006103515625</ele>
        <time>2017-01-15T11:12:58.000Z</time>
        <extensions>
          <ns3:TrackPointExtension/>
        </extensions>
      </trkpt>
      <trkpt lat="51.760979555547237396240234375" lon="39.4238524138927459716796875">
        <ele>133</ele>
        <time>2017-01-15T11:13:15.000Z</time>
        <extensions>
          <ns3:TrackPointExtension/>
        </extensions>
      </trkpt>
      <trkpt lat="51.76040044985711574554443359375" lon="39.42380254156887531280517578125">
        <ele>131.1999969482421875</ele>
        <time>2017-01-15T11:13:29.000Z</time>
        <extensions>
          <ns3:TrackPointExtension/>
        </extensions>
      </trkpt>
      <trkpt lat="51.7598198354244232177734375" lon="39.4237778149545192718505859375">
        <ele>130</ele>
        <time>2017-01-15T11:13:45.000Z</time>
        <extensions>
          <ns3:TrackPointExtension/>
        </extensions>
      </trkpt>
      <trkpt lat="51.7596000619232654571533203125" lon="39.4240591116249561309814453125">
        <ele>129.600006103515625</ele>
        <time>2017-01-15T11:13:54.000Z</time>
        <extensions>
          <ns3:TrackPointExtension/>
        </extensions>
      </trkpt>
      <trkpt lat="51.75930828787386417388916015625" lon="39.425030909478664398193359375">
        <ele>129</ele>
        <time>2017-01-15T11:14:12.000Z</time>
        <extensions>
          <ns3:TrackPointExtension/>
        </extensions>
      </trkpt>
      <trkpt lat="51.75902749411761760711669921875" lon="39.425776563584804534912109375">
        <ele>127.40000152587890625</ele>
        <time>2017-01-15T11:14:26.000Z</time>
        <extensions>
          <ns3:TrackPointExtension/>
        </extensions>
      </trkpt>
      <trkpt lat="51.75881358794867992401123046875" lon="39.4261227361857891082763671875">
        <ele>126.1999969482421875</ele>
        <time>2017-01-15T11:14:38.000Z</time>
        <extensions>
          <ns3:TrackPointExtension/>
        </extensions>
      </trkpt>
      <trkpt lat="51.75819332711398601531982421875" lon="39.426238238811492919921875">
        <ele>123.59999847412109375</ele>
        <time>2017-01-15T11:14:56.000Z</time>
        <extensions>
          <ns3:TrackPointExtension/>
        </extensions>
      </trkpt>
      <trkpt lat="51.75762888975441455841064453125" lon="39.42630001343786716461181640625">
        <ele>121.40000152587890625</ele>
        <time>2017-01-15T11:15:14.000Z</time>
        <extensions>
          <ns3:TrackPointExtension/>
        </extensions>
      </trkpt>
      <trkpt lat="51.757272742688655853271484375" lon="39.4264469482004642486572265625">
        <ele>119.1999969482421875</ele>
        <time>2017-01-15T11:15:28.000Z</time>
        <extensions>
          <ns3:TrackPointExtension/>
        </extensions>
      </trkpt>
      <trkpt lat="51.75723343156278133392333984375" lon="39.4271275587379932403564453125">
        <ele>117.40000152587890625</ele>
        <time>2017-01-15T11:15:42.000Z</time>
        <extensions>
          <ns3:TrackPointExtension/>
        </extensions>
      </trkpt>
      <trkpt lat="51.75714768469333648681640625" lon="39.427918307483196258544921875">
        <ele>117</ele>
        <time>2017-01-15T11:15:57.000Z</time>
        <extensions>
          <ns3:TrackPointExtension/>
        </extensions>
      </trkpt>
      <trkpt lat="51.7570201121270656585693359375" lon="39.42889337427914142608642578125">
        <ele>116.1999969482421875</ele>
        <time>2017-01-15T11:16:14.000Z</time>
        <extensions>
          <ns3:TrackPointExtension/>
        </extensions>
      </trkpt>
      <trkpt lat="51.75687820650637149810791015625" lon="39.42964397370815277099609375">
        <ele>115.8000030517578125</ele>
        <time>2017-01-15T11:16:29.000Z</time>
        <extensions>
          <ns3:TrackPointExtension/>
        </extensions>
      </trkpt>
      <trkpt lat="51.75674007274210453033447265625" lon="39.430509991943836212158203125">
        <ele>116</ele>
        <time>2017-01-15T11:16:45.000Z</time>
        <extensions>
          <ns3:TrackPointExtension/>
        </extensions>
      </trkpt>
      <trkpt lat="51.75654075108468532562255859375" lon="39.43170952610671520233154296875">
        <ele>118.40000152587890625</ele>
        <time>2017-01-15T11:17:07.000Z</time>
        <extensions>
          <ns3:TrackPointExtension/>
        </extensions>
      </trkpt>
      <trkpt lat="51.7562955804169178009033203125" lon="39.432181008160114288330078125">
        <ele>119.40000152587890625</ele>
        <time>2017-01-15T11:17:20.000Z</time>
        <extensions>
          <ns3:TrackPointExtension/>
        </extensions>
      </trkpt>
      <trkpt lat="51.7558328993618488311767578125" lon="39.43187900818884372711181640625">
        <ele>117.1999969482421875</ele>
        <time>2017-01-15T11:17:38.000Z</time>
        <extensions>
          <ns3:TrackPointExtension/>
        </extensions>
      </trkpt>
      <trkpt lat="51.75579409115016460418701171875" lon="39.43169108591973781585693359375">
        <ele>116.8000030517578125</ele>
        <time>2017-01-15T11:17:43.000Z</time>
        <extensions>
          <ns3:TrackPointExtension/>
        </extensions>
      </trkpt>
      <trkpt lat="51.755805909633636474609375" lon="39.43164649419486522674560546875">
        <ele>116.8000030517578125</ele>
        <time>2017-01-15T11:17:44.000Z</time>
        <extensions>
          <ns3:TrackPointExtension/>
        </extensions>
      </trkpt>
      <trkpt lat="51.75582292489707469940185546875" lon="39.43159662187099456787109375">
        <ele>116.8000030517578125</ele>
        <time>2017-01-15T11:17:45.000Z</time>
        <extensions>
          <ns3:TrackPointExtension/>
        </extensions>
      </trkpt>
      <trkpt lat="51.7561410181224346160888671875" lon="39.43054762668907642364501953125">
        <ele>115.59999847412109375</ele>
        <time>2017-01-15T11:18:03.000Z</time>
        <extensions>
          <ns3:TrackPointExtension/>
        </extensions>
      </trkpt>
      <trkpt lat="51.7562764696776866912841796875" lon="39.4290875829756259918212890625">
        <ele>115</ele>
        <time>2017-01-15T11:18:23.000Z</time>
        <extensions>
          <ns3:TrackPointExtension/>
        </extensions>
      </trkpt>
      <trkpt lat="51.75645458512008190155029296875" lon="39.4271195121109485626220703125">
        <ele>114.8000030517578125</ele>
        <time>2017-01-15T11:18:47.000Z</time>
        <extensions>
          <ns3:TrackPointExtension/>
        </extensions>
      </trkpt>
      <trkpt lat="51.75662976689636707305908203125" lon="39.425268955528736114501953125">
        <ele>115.8000030517578125</ele>
        <time>2017-01-15T11:19:10.000Z</time>
        <extensions>
          <ns3:TrackPointExtension/>
        </extensions>
      </trkpt>
      <trkpt lat="51.756648458540439605712890625" lon="39.4234002940356731414794921875">
        <ele>117.59999847412109375</ele>
        <time>2017-01-15T11:19:35.000Z</time>
        <extensions>
          <ns3:TrackPointExtension/>
        </extensions>
      </trkpt>
      <trkpt lat="51.756516359746456146240234375" lon="39.42175802774727344512939453125">
        <ele>116.1999969482421875</ele>
        <time>2017-01-15T11:19:57.000Z</time>
        <extensions>
          <ns3:TrackPointExtension/>
        </extensions>
      </trkpt>
      <trkpt lat="51.756445951759815216064453125" lon="39.4214144535362720489501953125">
        <ele>116.59999847412109375</ele>
        <time>2017-01-15T11:20:02.000Z</time>
        <extensions>
          <ns3:TrackPointExtension/>
        </extensions>
      </trkpt>
      <trkpt lat="51.75643396563827991485595703125" lon="39.421350918710231781005859375">
        <ele>116.59999847412109375</ele>
        <time>2017-01-15T11:20:03.000Z</time>
        <extensions>
          <ns3:TrackPointExtension/>
        </extensions>
      </trkpt>
      <trkpt lat="51.75636087544262409210205078125" lon="39.4201923720538616180419921875">
        <ele>117.59999847412109375</ele>
        <time>2017-01-15T11:20:19.000Z</time>
        <extensions>
          <ns3:TrackPointExtension/>
        </extensions>
      </trkpt>
      <trkpt lat="51.75635634921491146087646484375" lon="39.4201139174401760101318359375">
        <ele>117.59999847412109375</ele>
        <time>2017-01-15T11:20:20.000Z</time>
        <extensions>
          <ns3:TrackPointExtension/>
        </extensions>
      </trkpt>
      <trkpt lat="51.75635668449103832244873046875" lon="39.42003219388425350189208984375">
        <ele>117.59999847412109375</ele>
        <time>2017-01-15T11:20:21.000Z</time>
        <extensions>
          <ns3:TrackPointExtension/>
        </extensions>
      </trkpt>
      <trkpt lat="51.756336987018585205078125" lon="39.41820175386965274810791015625">
        <ele>118</ele>
        <time>2017-01-15T11:20:45.000Z</time>
        <extensions>
          <ns3:TrackPointExtension/>
        </extensions>
      </trkpt>
      <trkpt lat="51.75630144774913787841796875" lon="39.417068101465702056884765625">
        <ele>119.40000152587890625</ele>
        <time>2017-01-15T11:21:00.000Z</time>
        <extensions>
          <ns3:TrackPointExtension/>
        </extensions>
      </trkpt>
      <trkpt lat="51.75629968754947185516357421875" lon="39.4169945083558559417724609375">
        <ele>119.40000152587890625</ele>
        <time>2017-01-15T11:21:01.000Z</time>
        <extensions>
          <ns3:TrackPointExtension/>
        </extensions>
      </trkpt>
      <trkpt lat="51.7561131902039051055908203125" lon="39.4153855182230472564697265625">
        <ele>120.59999847412109375</ele>
        <time>2017-01-15T11:21:22.000Z</time>
        <extensions>
          <ns3:TrackPointExtension/>
        </extensions>
      </trkpt>
      <trkpt lat="51.75609634257853031158447265625" lon="39.41530832089483737945556640625">
        <ele>120.59999847412109375</ele>
        <time>2017-01-15T11:21:23.000Z</time>
        <extensions>
          <ns3:TrackPointExtension/>
        </extensions>
      </trkpt>
      <trkpt lat="51.7557333223521709442138671875" lon="39.41359723918139934539794921875">
        <ele>119</ele>
        <time>2017-01-15T11:21:45.000Z</time>
        <extensions>
          <ns3:TrackPointExtension/>
        </extensions>
      </trkpt>
      <trkpt lat="51.75571815110743045806884765625" lon="39.4135247357189655303955078125">
        <ele>119</ele>
        <time>2017-01-15T11:21:46.000Z</time>
        <extensions>
          <ns3:TrackPointExtension/>
        </extensions>
      </trkpt>
      <trkpt lat="51.75570608116686344146728515625" lon="39.4134476222097873687744140625">
        <ele>119</ele>
        <time>2017-01-15T11:21:47.000Z</time>
        <extensions>
          <ns3:TrackPointExtension/>
        </extensions>
      </trkpt>
      <trkpt lat="51.75542034208774566650390625" lon="39.41226770170032978057861328125">
        <ele>120.8000030517578125</ele>
        <time>2017-01-15T11:22:03.000Z</time>
        <extensions>
          <ns3:TrackPointExtension/>
        </extensions>
      </trkpt>
      <trkpt lat="51.7554040811955928802490234375" lon="39.412195198237895965576171875">
        <ele>120.8000030517578125</ele>
        <time>2017-01-15T11:22:04.000Z</time>
        <extensions>
          <ns3:TrackPointExtension/>
        </extensions>
      </trkpt>
      <trkpt lat="51.75539075396955013275146484375" lon="39.4121145643293857574462890625">
        <ele>121</ele>
        <time>2017-01-15T11:22:05.000Z</time>
        <extensions>
          <ns3:TrackPointExtension/>
        </extensions>
      </trkpt>
      <trkpt lat="51.75511079840362071990966796875" lon="39.4108985178172588348388671875">
        <ele>121.1999969482421875</ele>
        <time>2017-01-15T11:22:21.000Z</time>
        <extensions>
          <ns3:TrackPointExtension/>
        </extensions>
      </trkpt>
      <trkpt lat="51.7550962977111339569091796875" lon="39.4108307920396327972412109375">
        <ele>121</ele>
        <time>2017-01-15T11:22:22.000Z</time>
        <extensions>
          <ns3:TrackPointExtension/>
        </extensions>
      </trkpt>
      <trkpt lat="51.75508506596088409423828125" lon="39.41075761802494525909423828125">
        <ele>120.8000030517578125</ele>
        <time>2017-01-15T11:22:23.000Z</time>
        <extensions>
          <ns3:TrackPointExtension/>
        </extensions>
      </trkpt>
      <trkpt lat="51.75491684116423130035400390625" lon="39.40995312295854091644287109375">
        <ele>119.8000030517578125</ele>
        <time>2017-01-15T11:22:34.000Z</time>
        <extensions>
          <ns3:TrackPointExtension/>
        </extensions>
      </trkpt>
      <trkpt lat="51.75490133464336395263671875" lon="39.40987215377390384674072265625">
        <ele>119.59999847412109375</ele>
        <time>2017-01-15T11:22:35.000Z</time>
        <extensions>
          <ns3:TrackPointExtension/>
        </extensions>
      </trkpt>
      <trkpt lat="51.75464627332985401153564453125" lon="39.40863129682838916778564453125">
        <ele>119.40000152587890625</ele>
        <time>2017-01-15T11:22:51.000Z</time>
        <extensions>
          <ns3:TrackPointExtension/>
        </extensions>
      </trkpt>
      <trkpt lat="51.7546356283128261566162109375" lon="39.40855443477630615234375">
        <ele>119.1999969482421875</ele>
        <time>2017-01-15T11:22:52.000Z</time>
        <extensions>
          <ns3:TrackPointExtension/>
        </extensions>
      </trkpt>
      <trkpt lat="51.75462917424738407135009765625" lon="39.40847991965711116790771484375">
        <ele>119</ele>
        <time>2017-01-15T11:22:53.000Z</time>
        <extensions>
          <ns3:TrackPointExtension/>
        </extensions>
      </trkpt>
      <trkpt lat="51.75444812513887882232666015625" lon="39.40715976990759372711181640625">
        <ele>120.1999969482421875</ele>
        <time>2017-01-15T11:23:10.000Z</time>
        <extensions>
          <ns3:TrackPointExtension/>
        </extensions>
      </trkpt>
      <trkpt lat="51.7542084865272045135498046875" lon="39.40646021626889705657958984375">
        <ele>119.59999847412109375</ele>
        <time>2017-01-15T11:23:20.000Z</time>
        <extensions>
          <ns3:TrackPointExtension/>
        </extensions>
      </trkpt>
      <trkpt lat="51.7541860230267047882080078125" lon="39.40639835782349109649658203125">
        <ele>119.40000152587890625</ele>
        <time>2017-01-15T11:23:21.000Z</time>
        <extensions>
          <ns3:TrackPointExtension/>
        </extensions>
      </trkpt>
      <trkpt lat="51.754168085753917694091796875" lon="39.406331889331340789794921875">
        <ele>119.40000152587890625</ele>
        <time>2017-01-15T11:23:22.000Z</time>
        <extensions>
          <ns3:TrackPointExtension/>
        </extensions>
      </trkpt>
      <trkpt lat="51.7536381818354129791259765625" lon="39.40499153919517993927001953125">
        <ele>119.40000152587890625</ele>
        <time>2017-01-15T11:23:43.000Z</time>
        <extensions>
          <ns3:TrackPointExtension/>
        </extensions>
      </trkpt>
      <trkpt lat="51.75359451211988925933837890625" lon="39.40486530773341655731201171875">
        <ele>119</ele>
        <time>2017-01-15T11:23:45.000Z</time>
        <extensions>
          <ns3:TrackPointExtension/>
        </extensions>
      </trkpt>
      <trkpt lat="51.75348655320703983306884765625" lon="39.4045995175838470458984375">
        <ele>119.59999847412109375</ele>
        <time>2017-01-15T11:23:49.000Z</time>
        <extensions>
          <ns3:TrackPointExtension/>
        </extensions>
      </trkpt>
      <trkpt lat="51.75345872528851032257080078125" lon="39.40453338436782360076904296875">
        <ele>119.8000030517578125</ele>
        <time>2017-01-15T11:23:50.000Z</time>
        <extensions>
          <ns3:TrackPointExtension/>
        </extensions>
      </trkpt>
      <trkpt lat="51.75343626178801059722900390625" lon="39.404468424618244171142578125">
        <ele>119.8000030517578125</ele>
        <time>2017-01-15T11:23:51.000Z</time>
        <extensions>
          <ns3:TrackPointExtension/>
        </extensions>
      </trkpt>
      <trkpt lat="51.75301565788686275482177734375" lon="39.40340082161128520965576171875">
        <ele>117</ele>
        <time>2017-01-15T11:24:07.000Z</time>
        <extensions>
          <ns3:TrackPointExtension/>
        </extensions>
      </trkpt>
      <trkpt lat="51.75299017690122127532958984375" lon="39.4033387117087841033935546875">
        <ele>117.1999969482421875</ele>
        <time>2017-01-15T11:24:08.000Z</time>
        <extensions>
          <ns3:TrackPointExtension/>
        </extensions>
      </trkpt>
      <trkpt lat="51.752967797219753265380859375" lon="39.4032729975879192352294921875">
        <ele>117.40000152587890625</ele>
        <time>2017-01-15T11:24:09.000Z</time>
        <extensions>
          <ns3:TrackPointExtension/>
        </extensions>
      </trkpt>
      <trkpt lat="51.75253026187419891357421875" lon="39.40222106873989105224609375">
        <ele>118.1999969482421875</ele>
        <time>2017-01-15T11:24:25.000Z</time>
        <extensions>
          <ns3:TrackPointExtension/>
        </extensions>
      </trkpt>
      <trkpt lat="51.75250268541276454925537109375" lon="39.40215644426643848419189453125">
        <ele>118.1999969482421875</ele>
        <time>2017-01-15T11:24:26.000Z</time>
        <extensions>
          <ns3:TrackPointExtension/>
        </extensions>
      </trkpt>
      <trkpt lat="51.752478964626789093017578125" lon="39.40209425054490566253662109375">
        <ele>118</ele>
        <time>2017-01-15T11:24:27.000Z</time>
        <extensions>
          <ns3:TrackPointExtension/>
        </extensions>
      </trkpt>
      <trkpt lat="51.7520419321954250335693359375" lon="39.40107450820505619049072265625">
        <ele>119.59999847412109375</ele>
        <time>2017-01-15T11:24:43.000Z</time>
        <extensions>
          <ns3:TrackPointExtension/>
        </extensions>
      </trkpt>
      <trkpt lat="51.75201485864818096160888671875" lon="39.401007033884525299072265625">
        <ele>119.59999847412109375</ele>
        <time>2017-01-15T11:24:44.000Z</time>
        <extensions>
          <ns3:TrackPointExtension/>
        </extensions>
      </trkpt>
      <trkpt lat="51.7519923113286495208740234375" lon="39.40093897283077239990234375">
        <ele>119.59999847412109375</ele>
        <time>2017-01-15T11:24:45.000Z</time>
        <extensions>
          <ns3:TrackPointExtension/>
        </extensions>
      </trkpt>
      <trkpt lat="51.751471795141696929931640625" lon="39.39959744922816753387451171875">
        <ele>120.40000152587890625</ele>
        <time>2017-01-15T11:25:05.000Z</time>
        <extensions>
          <ns3:TrackPointExtension/>
        </extensions>
      </trkpt>
      <trkpt lat="51.75122846849262714385986328125" lon="39.39896352589130401611328125">
        <ele>120.8000030517578125</ele>
        <time>2017-01-15T11:25:15.000Z</time>
        <extensions>
          <ns3:TrackPointExtension/>
        </extensions>
      </trkpt>
      <trkpt lat="51.75120449624955654144287109375" lon="39.3989020027220249176025390625">
        <ele>121</ele>
        <time>2017-01-15T11:25:16.000Z</time>
        <extensions>
          <ns3:TrackPointExtension/>
        </extensions>
      </trkpt>
      <trkpt lat="51.7511858046054840087890625" lon="39.398832432925701141357421875">
        <ele>121</ele>
        <time>2017-01-15T11:25:17.000Z</time>
        <extensions>
          <ns3:TrackPointExtension/>
        </extensions>
      </trkpt>
      <trkpt lat="51.75079897977411746978759765625" lon="39.39776767976582050323486328125">
        <ele>123.59999847412109375</ele>
        <time>2017-01-15T11:25:33.000Z</time>
        <extensions>
          <ns3:TrackPointExtension/>
        </extensions>
      </trkpt>
      <trkpt lat="51.7507712356746196746826171875" lon="39.3977003730833530426025390625">
        <ele>123.8000030517578125</ele>
        <time>2017-01-15T11:25:34.000Z</time>
        <extensions>
          <ns3:TrackPointExtension/>
        </extensions>
      </trkpt>
      <trkpt lat="51.75074902363121509552001953125" lon="39.39763658680021762847900390625">
        <ele>123.8000030517578125</ele>
        <time>2017-01-15T11:25:35.000Z</time>
        <extensions>
          <ns3:TrackPointExtension/>
        </extensions>
      </trkpt>
      <trkpt lat="51.7506706528365612030029296875" lon="39.3974422104656696319580078125">
        <ele>124</ele>
        <time>2017-01-15T11:25:38.000Z</time>
        <extensions>
          <ns3:TrackPointExtension/>
        </extensions>
      </trkpt>
      <trkpt lat="51.75062119960784912109375" lon="39.3973124586045742034912109375">
        <ele>123.8000030517578125</ele>
        <time>2017-01-15T11:25:40.000Z</time>
        <extensions>
          <ns3:TrackPointExtension/>
        </extensions>
      </trkpt>
      <trkpt lat="51.75029874779284000396728515625" lon="39.396625645458698272705078125">
        <ele>123.59999847412109375</ele>
        <time>2017-01-15T11:25:51.000Z</time>
        <extensions>
          <ns3:TrackPointExtension/>
        </extensions>
      </trkpt>
      <trkpt lat="51.75027460791170597076416015625" lon="39.3965617753565311431884765625">
        <ele>123.40000152587890625</ele>
        <time>2017-01-15T11:25:52.000Z</time>
        <extensions>
          <ns3:TrackPointExtension/>
        </extensions>
      </trkpt>
      <trkpt lat="51.750159524381160736083984375" lon="39.39630788750946521759033203125">
        <ele>123</ele>
        <time>2017-01-15T11:25:56.000Z</time>
        <extensions>
          <ns3:TrackPointExtension/>
        </extensions>
      </trkpt>
      <trkpt lat="51.75013261847198009490966796875" lon="39.39624845981597900390625">
        <ele>123</ele>
        <time>2017-01-15T11:25:57.000Z</time>
        <extensions>
          <ns3:TrackPointExtension/>
        </extensions>
      </trkpt>
      <trkpt lat="51.75010831095278263092041015625" lon="39.39619146287441253662109375">
        <ele>122.8000030517578125</ele>
        <time>2017-01-15T11:25:58.000Z</time>
        <extensions>
          <ns3:TrackPointExtension/>
        </extensions>
      </trkpt>
      <trkpt lat="51.749670021235942840576171875" lon="39.3952310644090175628662109375">
        <ele>122.59999847412109375</ele>
        <time>2017-01-15T11:26:14.000Z</time>
        <extensions>
          <ns3:TrackPointExtension/>
        </extensions>
      </trkpt>
      <trkpt lat="51.7496435344219207763671875" lon="39.39517700113356113433837890625">
        <ele>122.40000152587890625</ele>
        <time>2017-01-15T11:26:15.000Z</time>
        <extensions>
          <ns3:TrackPointExtension/>
        </extensions>
      </trkpt>
      <trkpt lat="51.74962249584496021270751953125" lon="39.3951220996677875518798828125">
        <ele>122.40000152587890625</ele>
        <time>2017-01-15T11:26:16.000Z</time>
        <extensions>
          <ns3:TrackPointExtension/>
        </extensions>
      </trkpt>
      <trkpt lat="51.74938914366066455841064453125" lon="39.39441793598234653472900390625">
        <ele>120.1999969482421875</ele>
        <time>2017-01-15T11:26:27.000Z</time>
        <extensions>
          <ns3:TrackPointExtension/>
        </extensions>
      </trkpt>
      <trkpt lat="51.749383024871349334716796875" lon="39.394345767796039581298828125">
        <ele>120</ele>
        <time>2017-01-15T11:26:28.000Z</time>
        <extensions>
          <ns3:TrackPointExtension/>
        </extensions>
      </trkpt>
      <trkpt lat="51.74938109703361988067626953125" lon="39.39427041448652744293212890625">
        <ele>119.8000030517578125</ele>
        <time>2017-01-15T11:26:29.000Z</time>
        <extensions>
          <ns3:TrackPointExtension/>
        </extensions>
      </trkpt>
      <trkpt lat="51.74938403069972991943359375" lon="39.39419992268085479736328125">
        <ele>119.8000030517578125</ele>
        <time>2017-01-15T11:26:30.000Z</time>
        <extensions>
          <ns3:TrackPointExtension/>
        </extensions>
      </trkpt>
      <trkpt lat="51.74939207732677459716796875" lon="39.39412691630423069000244140625">
        <ele>119.59999847412109375</ele>
        <time>2017-01-15T11:26:31.000Z</time>
        <extensions>
          <ns3:TrackPointExtension/>
        </extensions>
      </trkpt>
      <trkpt lat="51.74940171651542186737060546875" lon="39.394055418670177459716796875">
        <ele>119.40000152587890625</ele>
        <time>2017-01-15T11:26:32.000Z</time>
        <extensions>
          <ns3:TrackPointExtension/>
        </extensions>
      </trkpt>
      <trkpt lat="51.7495065741240978240966796875" lon="39.39333901740610599517822265625">
        <ele>119.40000152587890625</ele>
        <time>2017-01-15T11:26:42.000Z</time>
        <extensions>
          <ns3:TrackPointExtension/>
        </extensions>
      </trkpt>
      <trkpt lat="51.7494978569447994232177734375" lon="39.39320884644985198974609375">
        <ele>119.59999847412109375</ele>
        <time>2017-01-15T11:26:44.000Z</time>
        <extensions>
          <ns3:TrackPointExtension/>
        </extensions>
      </trkpt>
      <trkpt lat="51.7494879662990570068359375" lon="39.39314053393900394439697265625">
        <ele>119.59999847412109375</ele>
        <time>2017-01-15T11:26:45.000Z</time>
        <extensions>
          <ns3:TrackPointExtension/>
        </extensions>
      </trkpt>
      <trkpt lat="51.74947631545364856719970703125" lon="39.39307062886655330657958984375">
        <ele>119.59999847412109375</ele>
        <time>2017-01-15T11:26:46.000Z</time>
        <extensions>
          <ns3:TrackPointExtension/>
        </extensions>
      </trkpt>
      <trkpt lat="51.74926106818020343780517578125" lon="39.39219706691801548004150390625">
        <ele>120.8000030517578125</ele>
        <time>2017-01-15T11:26:59.000Z</time>
        <extensions>
          <ns3:TrackPointExtension/>
        </extensions>
      </trkpt>
      <trkpt lat="51.74922041594982147216796875" lon="39.39206949435174465179443359375">
        <ele>120.8000030517578125</ele>
        <time>2017-01-15T11:27:01.000Z</time>
        <extensions>
          <ns3:TrackPointExtension/>
        </extensions>
      </trkpt>
      <trkpt lat="51.7489434778690338134765625" lon="39.391090907156467437744140625">
        <ele>120.1999969482421875</ele>
        <time>2017-01-15T11:27:17.000Z</time>
        <extensions>
          <ns3:TrackPointExtension/>
        </extensions>
      </trkpt>
      <trkpt lat="51.748664863407611846923828125" lon="39.39007057808339595794677734375">
        <ele>120.40000152587890625</ele>
        <time>2017-01-15T11:27:35.000Z</time>
        <extensions>
          <ns3:TrackPointExtension/>
        </extensions>
      </trkpt>
      <trkpt lat="51.74836202524602413177490234375" lon="39.3889399431645870208740234375">
        <ele>120.8000030517578125</ele>
        <time>2017-01-15T11:27:53.000Z</time>
        <extensions>
          <ns3:TrackPointExtension/>
        </extensions>
      </trkpt>
      <trkpt lat="51.7481312714517116546630859375" lon="39.38813452608883380889892578125">
        <ele>120.40000152587890625</ele>
        <time>2017-01-15T11:28:07.000Z</time>
        <extensions>
          <ns3:TrackPointExtension/>
        </extensions>
      </trkpt>
      <trkpt lat="51.74809598363935947418212890625" lon="39.387977533042430877685546875">
        <ele>120.40000152587890625</ele>
        <time>2017-01-15T11:28:09.000Z</time>
        <extensions>
          <ns3:TrackPointExtension/>
        </extensions>
      </trkpt>
      <trkpt lat="51.7480816505849361419677734375" lon="39.3878995813429355621337890625">
        <ele>120.1999969482421875</ele>
        <time>2017-01-15T11:28:10.000Z</time>
        <extensions>
          <ns3:TrackPointExtension/>
        </extensions>
      </trkpt>
      <trkpt lat="51.747801862657070159912109375" lon="39.38685175962746143341064453125">
        <ele>119.40000152587890625</ele>
        <time>2017-01-15T11:28:26.000Z</time>
        <extensions>
          <ns3:TrackPointExtension/>
        </extensions>
      </trkpt>
      <trkpt lat="51.74758871085941791534423828125" lon="39.38601356931030750274658203125">
        <ele>119.59999847412109375</ele>
        <time>2017-01-15T11:28:39.000Z</time>
        <extensions>
          <ns3:TrackPointExtension/>
        </extensions>
      </trkpt>
      <trkpt lat="51.7472689412534236907958984375" lon="39.3848344869911670684814453125">
        <ele>119</ele>
        <time>2017-01-15T11:28:56.000Z</time>
        <extensions>
          <ns3:TrackPointExtension/>
        </extensions>
      </trkpt>
      <trkpt lat="51.74703818745911121368408203125" lon="39.38401825726032257080078125">
        <ele>119</ele>
        <time>2017-01-15T11:29:08.000Z</time>
        <extensions>
          <ns3:TrackPointExtension/>
        </extensions>
      </trkpt>
      <trkpt lat="51.747022010385990142822265625" lon="39.38395061530172824859619140625">
        <ele>119</ele>
        <time>2017-01-15T11:29:09.000Z</time>
        <extensions>
          <ns3:TrackPointExtension/>
        </extensions>
      </trkpt>
      <trkpt lat="51.7467140592634677886962890625" lon="39.3827842734754085540771484375">
        <ele>117.1999969482421875</ele>
        <time>2017-01-15T11:29:26.000Z</time>
        <extensions>
          <ns3:TrackPointExtension/>
        </extensions>
      </trkpt>
      <trkpt lat="51.7463955469429492950439453125" lon="39.381756484508514404296875">
        <ele>116.8000030517578125</ele>
        <time>2017-01-15T11:29:42.000Z</time>
        <extensions>
          <ns3:TrackPointExtension/>
        </extensions>
      </trkpt>
      <trkpt lat="51.7463792860507965087890625" lon="39.3816919438540935516357421875">
        <ele>117</ele>
        <time>2017-01-15T11:29:43.000Z</time>
        <extensions>
          <ns3:TrackPointExtension/>
        </extensions>
      </trkpt>
      <trkpt lat="51.7463626898825168609619140625" lon="39.3816248886287212371826171875">
        <ele>117</ele>
        <time>2017-01-15T11:29:44.000Z</time>
        <extensions>
          <ns3:TrackPointExtension/>
        </extensions>
      </trkpt>
      <trkpt lat="51.7463405616581439971923828125" lon="39.38155657611787319183349609375">
        <ele>117.1999969482421875</ele>
        <time>2017-01-15T11:29:45.000Z</time>
        <extensions>
          <ns3:TrackPointExtension/>
        </extensions>
      </trkpt>
      <trkpt lat="51.746316589415073394775390625" lon="39.381489939987659454345703125">
        <ele>117.40000152587890625</ele>
        <time>2017-01-15T11:29:46.000Z</time>
        <extensions>
          <ns3:TrackPointExtension/>
        </extensions>
      </trkpt>
      <trkpt lat="51.7460079677402973175048828125" lon="39.38057974912226200103759765625">
        <ele>119</ele>
        <time>2017-01-15T11:30:01.000Z</time>
        <extensions>
          <ns3:TrackPointExtension/>
        </extensions>
      </trkpt>
      <trkpt lat="51.745848543941974639892578125" lon="39.380112625658512115478515625">
        <ele>119.40000152587890625</ele>
        <time>2017-01-15T11:30:08.000Z</time>
        <extensions>
          <ns3:TrackPointExtension/>
        </extensions>
      </trkpt>
      <trkpt lat="51.7458269186317920684814453125" lon="39.38005018047988414764404296875">
        <ele>119.40000152587890625</ele>
        <time>2017-01-15T11:30:09.000Z</time>
        <extensions>
          <ns3:TrackPointExtension/>
        </extensions>
      </trkpt>
      <trkpt lat="51.74580872990190982818603515625" lon="39.37997960485517978668212890625">
        <ele>119.40000152587890625</ele>
        <time>2017-01-15T11:30:10.000Z</time>
        <extensions>
          <ns3:TrackPointExtension/>
        </extensions>
      </trkpt>
      <trkpt lat="51.7454205639660358428955078125" lon="39.378839917480945587158203125">
        <ele>118.40000152587890625</ele>
        <time>2017-01-15T11:30:26.000Z</time>
        <extensions>
          <ns3:TrackPointExtension/>
        </extensions>
      </trkpt>
      <trkpt lat="51.7450517602264881134033203125" lon="39.377709366381168365478515625">
        <ele>116.8000030517578125</ele>
        <time>2017-01-15T11:30:42.000Z</time>
        <extensions>
          <ns3:TrackPointExtension/>
        </extensions>
      </trkpt>
      <trkpt lat="51.744585223495960235595703125" lon="39.3763343989849090576171875">
        <ele>115.59999847412109375</ele>
        <time>2017-01-15T11:31:01.000Z</time>
        <extensions>
          <ns3:TrackPointExtension/>
        </extensions>
      </trkpt>
      <trkpt lat="51.74416269175708293914794921875" lon="39.3750523030757904052734375">
        <ele>114.1999969482421875</ele>
        <time>2017-01-15T11:31:19.000Z</time>
        <extensions>
          <ns3:TrackPointExtension/>
        </extensions>
      </trkpt>
      <trkpt lat="51.74371275119483470916748046875" lon="39.37367909587919712066650390625">
        <ele>114.8000030517578125</ele>
        <time>2017-01-15T11:31:37.000Z</time>
        <extensions>
          <ns3:TrackPointExtension/>
        </extensions>
      </trkpt>
      <trkpt lat="51.74325895495712757110595703125" lon="39.37233681790530681610107421875">
        <ele>114.40000152587890625</ele>
        <time>2017-01-15T11:31:55.000Z</time>
        <extensions>
          <ns3:TrackPointExtension/>
        </extensions>
      </trkpt>
      <trkpt lat="51.74301646649837493896484375" lon="39.37159250490367412567138671875">
        <ele>113.40000152587890625</ele>
        <time>2017-01-15T11:32:05.000Z</time>
        <extensions>
          <ns3:TrackPointExtension/>
        </extensions>
      </trkpt>
      <trkpt lat="51.7429898120462894439697265625" lon="39.37152293510735034942626953125">
        <ele>113.1999969482421875</ele>
        <time>2017-01-15T11:32:06.000Z</time>
        <extensions>
          <ns3:TrackPointExtension/>
        </extensions>
      </trkpt>
      <trkpt lat="51.742941699922084808349609375" lon="39.3713845498859882354736328125">
        <ele>112.8000030517578125</ele>
        <time>2017-01-15T11:32:08.000Z</time>
        <extensions>
          <ns3:TrackPointExtension/>
        </extensions>
      </trkpt>
      <trkpt lat="51.7429180629551410675048828125" lon="39.3713104538619518280029296875">
        <ele>112.8000030517578125</ele>
        <time>2017-01-15T11:32:09.000Z</time>
        <extensions>
          <ns3:TrackPointExtension/>
        </extensions>
      </trkpt>
      <trkpt lat="51.742558144032955169677734375" lon="39.37021963298320770263671875">
        <ele>112.40000152587890625</ele>
        <time>2017-01-15T11:32:24.000Z</time>
        <extensions>
          <ns3:TrackPointExtension/>
        </extensions>
      </trkpt>
      <trkpt lat="51.74248027615249156951904296875" lon="39.3700005300343036651611328125">
        <ele>112</ele>
        <time>2017-01-15T11:32:27.000Z</time>
        <extensions>
          <ns3:TrackPointExtension/>
        </extensions>
      </trkpt>
      <trkpt lat="51.742460243403911590576171875" lon="39.36993154697120189666748046875">
        <ele>111.8000030517578125</ele>
        <time>2017-01-15T11:32:28.000Z</time>
        <extensions>
          <ns3:TrackPointExtension/>
        </extensions>
      </trkpt>
      <trkpt lat="51.74236066639423370361328125" lon="39.36965963803231716156005859375">
        <ele>111.40000152587890625</ele>
        <time>2017-01-15T11:32:32.000Z</time>
        <extensions>
          <ns3:TrackPointExtension/>
        </extensions>
      </trkpt>
      <trkpt lat="51.742337532341480255126953125" lon="39.36959157697856426239013671875">
        <ele>111.40000152587890625</ele>
        <time>2017-01-15T11:32:33.000Z</time>
        <extensions>
          <ns3:TrackPointExtension/>
        </extensions>
      </trkpt>
      <trkpt lat="51.742317415773868560791015625" lon="39.36952636577188968658447265625">
        <ele>111.40000152587890625</ele>
        <time>2017-01-15T11:32:34.000Z</time>
        <extensions>
          <ns3:TrackPointExtension/>
        </extensions>
      </trkpt>
      <trkpt lat="51.74225228838622570037841796875" lon="39.3693192489445209503173828125">
        <ele>111.1999969482421875</ele>
        <time>2017-01-15T11:32:37.000Z</time>
        <extensions>
          <ns3:TrackPointExtension/>
        </extensions>
      </trkpt>
      <trkpt lat="51.7422307468950748443603515625" lon="39.36925445683300495147705078125">
        <ele>111.1999969482421875</ele>
        <time>2017-01-15T11:32:38.000Z</time>
        <extensions>
          <ns3:TrackPointExtension/>
        </extensions>
      </trkpt>
      <trkpt lat="51.74221582710742950439453125" lon="39.36919368803501129150390625">
        <ele>111.1999969482421875</ele>
        <time>2017-01-15T11:32:39.000Z</time>
        <extensions>
          <ns3:TrackPointExtension/>
        </extensions>
      </trkpt>
      <trkpt lat="51.741864793002605438232421875" lon="39.3681954033672809600830078125">
        <ele>110.8000030517578125</ele>
        <time>2017-01-15T11:32:56.000Z</time>
        <extensions>
          <ns3:TrackPointExtension/>
        </extensions>
      </trkpt>
      <trkpt lat="51.74181860871613025665283203125" lon="39.36802080832421779632568359375">
        <ele>110.8000030517578125</ele>
        <time>2017-01-15T11:32:59.000Z</time>
        <extensions>
          <ns3:TrackPointExtension/>
        </extensions>
      </trkpt>
      <trkpt lat="51.7418049462139606475830078125" lon="39.367964230477809906005859375">
        <ele>110.8000030517578125</ele>
        <time>2017-01-15T11:33:00.000Z</time>
        <extensions>
          <ns3:TrackPointExtension/>
        </extensions>
      </trkpt>
      <trkpt lat="51.74179472029209136962890625" lon="39.3679006956517696380615234375">
        <ele>110.8000030517578125</ele>
        <time>2017-01-15T11:33:01.000Z</time>
        <extensions>
          <ns3:TrackPointExtension/>
        </extensions>
      </trkpt>
      <trkpt lat="51.74174870364367961883544921875" lon="39.3676576204597949981689453125">
        <ele>110.8000030517578125</ele>
        <time>2017-01-15T11:33:05.000Z</time>
        <extensions>
          <ns3:TrackPointExtension/>
        </extensions>
      </trkpt>
      <trkpt lat="51.7417429201304912567138671875" lon="39.36759450472891330718994140625">
        <ele>110.8000030517578125</ele>
        <time>2017-01-15T11:33:06.000Z</time>
        <extensions>
          <ns3:TrackPointExtension/>
        </extensions>
      </trkpt>
      <trkpt lat="51.741701848804950714111328125" lon="39.36739794909954071044921875">
        <ele>110.59999847412109375</ele>
        <time>2017-01-15T11:33:09.000Z</time>
        <extensions>
          <ns3:TrackPointExtension/>
        </extensions>
      </trkpt>
      <trkpt lat="51.74168516881763935089111328125" lon="39.367330558598041534423828125">
        <ele>110.40000152587890625</ele>
        <time>2017-01-15T11:33:10.000Z</time>
        <extensions>
          <ns3:TrackPointExtension/>
        </extensions>
      </trkpt>
      <trkpt lat="51.74167410470545291900634765625" lon="39.36726291663944721221923828125">
        <ele>110.40000152587890625</ele>
        <time>2017-01-15T11:33:11.000Z</time>
        <extensions>
          <ns3:TrackPointExtension/>
        </extensions>
      </trkpt>
      <trkpt lat="51.74166253767907619476318359375" lon="39.3671962805092334747314453125">
        <ele>110.1999969482421875</ele>
        <time>2017-01-15T11:33:12.000Z</time>
        <extensions>
          <ns3:TrackPointExtension/>
        </extensions>
      </trkpt>
      <trkpt lat="51.7416500486433506011962890625" lon="39.367130734026432037353515625">
        <ele>110.1999969482421875</ele>
        <time>2017-01-15T11:33:13.000Z</time>
        <extensions>
          <ns3:TrackPointExtension/>
        </extensions>
      </trkpt>
      <trkpt lat="51.74146086908876895904541015625" lon="39.36596372164785861968994140625">
        <ele>108</ele>
        <time>2017-01-15T11:33:30.000Z</time>
        <extensions>
          <ns3:TrackPointExtension/>
        </extensions>
      </trkpt>
      <trkpt lat="51.741176135838031768798828125" lon="39.36461205594241619110107421875">
        <ele>107.8000030517578125</ele>
        <time>2017-01-15T11:33:49.000Z</time>
        <extensions>
          <ns3:TrackPointExtension/>
        </extensions>
      </trkpt>
      <trkpt lat="51.74110011197626590728759765625" lon="39.3643476068973541259765625">
        <ele>108</ele>
        <time>2017-01-15T11:33:53.000Z</time>
        <extensions>
          <ns3:TrackPointExtension/>
        </extensions>
      </trkpt>
      <trkpt lat="51.74107982777059078216552734375" lon="39.364280886948108673095703125">
        <ele>108</ele>
        <time>2017-01-15T11:33:54.000Z</time>
        <extensions>
          <ns3:TrackPointExtension/>
        </extensions>
      </trkpt>
      <trkpt lat="51.74106474034488201141357421875" lon="39.364214502274990081787109375">
        <ele>108</ele>
        <time>2017-01-15T11:33:55.000Z</time>
        <extensions>
          <ns3:TrackPointExtension/>
        </extensions>
      </trkpt>
      <trkpt lat="51.74098678864538669586181640625" lon="39.363938234746456146240234375">
        <ele>108</ele>
        <time>2017-01-15T11:33:59.000Z</time>
        <extensions>
          <ns3:TrackPointExtension/>
        </extensions>
      </trkpt>
      <trkpt lat="51.740970276296138763427734375" lon="39.36387277208268642425537109375">
        <ele>108</ele>
        <time>2017-01-15T11:34:00.000Z</time>
        <extensions>
          <ns3:TrackPointExtension/>
        </extensions>
      </trkpt>
      <trkpt lat="51.74088955856859683990478515625" lon="39.36359616927802562713623046875">
        <ele>108</ele>
        <time>2017-01-15T11:34:04.000Z</time>
        <extensions>
          <ns3:TrackPointExtension/>
        </extensions>
      </trkpt>
      <trkpt lat="51.74087338149547576904296875" lon="39.363529197871685028076171875">
        <ele>107.8000030517578125</ele>
        <time>2017-01-15T11:34:05.000Z</time>
        <extensions>
          <ns3:TrackPointExtension/>
        </extensions>
      </trkpt>
      <trkpt lat="51.74057641066610813140869140625" lon="39.3625168316066265106201171875">
        <ele>107.40000152587890625</ele>
        <time>2017-01-15T11:34:19.000Z</time>
        <extensions>
          <ns3:TrackPointExtension/>
        </extensions>
      </trkpt>
      <trkpt lat="51.74055419862270355224609375" lon="39.3624450825154781341552734375">
        <ele>107.40000152587890625</ele>
        <time>2017-01-15T11:34:20.000Z</time>
        <extensions>
          <ns3:TrackPointExtension/>
        </extensions>
      </trkpt>
      <trkpt lat="51.74053567461669445037841796875" lon="39.36236386187374591827392578125">
        <ele>107.40000152587890625</ele>
        <time>2017-01-15T11:34:21.000Z</time>
        <extensions>
          <ns3:TrackPointExtension/>
        </extensions>
      </trkpt>
      <trkpt lat="51.74039519391953945159912109375" lon="39.36188542284071445465087890625">
        <ele>107.40000152587890625</ele>
        <time>2017-01-15T11:34:27.000Z</time>
        <extensions>
          <ns3:TrackPointExtension/>
        </extensions>
      </trkpt>
      <trkpt lat="51.7403719760477542877197265625" lon="39.36180897988379001617431640625">
        <ele>107.1999969482421875</ele>
        <time>2017-01-15T11:34:28.000Z</time>
        <extensions>
          <ns3:TrackPointExtension/>
        </extensions>
      </trkpt>
      <trkpt lat="51.7400680482387542724609375" lon="39.36074280180037021636962890625">
        <ele>105</ele>
        <time>2017-01-15T11:34:42.000Z</time>
        <extensions>
          <ns3:TrackPointExtension/>
        </extensions>
      </trkpt>
      <trkpt lat="51.7398616857826709747314453125" lon="39.360068142414093017578125">
        <ele>103.8000030517578125</ele>
        <time>2017-01-15T11:34:51.000Z</time>
        <extensions>
          <ns3:TrackPointExtension/>
        </extensions>
      </trkpt>
      <trkpt lat="51.7398429103195667266845703125" lon="39.3599943816661834716796875">
        <ele>103.59999847412109375</ele>
        <time>2017-01-15T11:34:52.000Z</time>
        <extensions>
          <ns3:TrackPointExtension/>
        </extensions>
      </trkpt>
      <trkpt lat="51.73951777629554271697998046875" lon="39.35880825854837894439697265625">
        <ele>103</ele>
        <time>2017-01-15T11:35:07.000Z</time>
        <extensions>
          <ns3:TrackPointExtension/>
        </extensions>
      </trkpt>
      <trkpt lat="51.73935617320239543914794921875" lon="39.3582011573016643524169921875">
        <ele>102.8000030517578125</ele>
        <time>2017-01-15T11:35:15.000Z</time>
        <extensions>
          <ns3:TrackPointExtension/>
        </extensions>
      </trkpt>
      <trkpt lat="51.73933672718703746795654296875" lon="39.358120523393154144287109375">
        <ele>102.59999847412109375</ele>
        <time>2017-01-15T11:35:16.000Z</time>
        <extensions>
          <ns3:TrackPointExtension/>
        </extensions>
      </trkpt>
      <trkpt lat="51.7391918040812015533447265625" lon="39.3575735203921794891357421875">
        <ele>103</ele>
        <time>2017-01-15T11:35:23.000Z</time>
        <extensions>
          <ns3:TrackPointExtension/>
        </extensions>
      </trkpt>
      <trkpt lat="51.7391710169613361358642578125" lon="39.3574994243681430816650390625">
        <ele>103</ele>
        <time>2017-01-15T11:35:24.000Z</time>
        <extensions>
          <ns3:TrackPointExtension/>
        </extensions>
      </trkpt>
      <trkpt lat="51.739155761897563934326171875" lon="39.357420466840267181396484375">
        <ele>103</ele>
        <time>2017-01-15T11:35:25.000Z</time>
        <extensions>
          <ns3:TrackPointExtension/>
        </extensions>
      </trkpt>
      <trkpt lat="51.73895568586885929107666015625" lon="39.35664824210107326507568359375">
        <ele>103</ele>
        <time>2017-01-15T11:35:35.000Z</time>
        <extensions>
          <ns3:TrackPointExtension/>
        </extensions>
      </trkpt>
      <trkpt lat="51.7389393411576747894287109375" lon="39.35656995512545108795166015625">
        <ele>103</ele>
        <time>2017-01-15T11:35:36.000Z</time>
        <extensions>
          <ns3:TrackPointExtension/>
        </extensions>
      </trkpt>
      <trkpt lat="51.738705150783061981201171875" lon="39.3557750992476940155029296875">
        <ele>102.59999847412109375</ele>
        <time>2017-01-15T11:35:46.000Z</time>
        <extensions>
          <ns3:TrackPointExtension/>
        </extensions>
      </trkpt>
      <trkpt lat="51.73867992125451564788818359375" lon="39.3556976504623889923095703125">
        <ele>102.59999847412109375</ele>
        <time>2017-01-15T11:35:47.000Z</time>
        <extensions>
          <ns3:TrackPointExtension/>
        </extensions>
      </trkpt>
      <trkpt lat="51.73850859515368938446044921875" lon="39.35515626333653926849365234375">
        <ele>102.1999969482421875</ele>
        <time>2017-01-15T11:35:54.000Z</time>
        <extensions>
          <ns3:TrackPointExtension/>
        </extensions>
      </trkpt>
      <trkpt lat="51.73847816884517669677734375" lon="39.35509356670081615447998046875">
        <ele>102</ele>
        <time>2017-01-15T11:35:55.000Z</time>
        <extensions>
          <ns3:TrackPointExtension/>
        </extensions>
      </trkpt>
      <trkpt lat="51.73843768425285816192626953125" lon="39.355046711862087249755859375">
        <ele>102</ele>
        <time>2017-01-15T11:35:56.000Z</time>
        <extensions>
          <ns3:TrackPointExtension/>
        </extensions>
      </trkpt>
      <trkpt lat="51.73839225433766841888427734375" lon="39.3550193868577480316162109375">
        <ele>101.8000030517578125</ele>
        <time>2017-01-15T11:35:57.000Z</time>
        <extensions>
          <ns3:TrackPointExtension/>
        </extensions>
      </trkpt>
      <trkpt lat="51.73834146000444889068603515625" lon="39.35501108877360820770263671875">
        <ele>101.8000030517578125</ele>
        <time>2017-01-15T11:35:58.000Z</time>
        <extensions>
          <ns3:TrackPointExtension/>
        </extensions>
      </trkpt>
      <trkpt lat="51.73829284496605396270751953125" lon="39.355025254189968109130859375">
        <ele>101.8000030517578125</ele>
        <time>2017-01-15T11:35:59.000Z</time>
        <extensions>
          <ns3:TrackPointExtension/>
        </extensions>
      </trkpt>
      <trkpt lat="51.7382468283176422119140625" lon="39.35505065135657787322998046875">
        <ele>101.8000030517578125</ele>
        <time>2017-01-15T11:36:00.000Z</time>
        <extensions>
          <ns3:TrackPointExtension/>
        </extensions>
      </trkpt>
      <trkpt lat="51.7382017336785793304443359375" lon="39.35507998801767826080322265625">
        <ele>101.8000030517578125</ele>
        <time>2017-01-15T11:36:01.000Z</time>
        <extensions>
          <ns3:TrackPointExtension/>
        </extensions>
      </trkpt>
      <trkpt lat="51.73815823160111904144287109375" lon="39.35511318035423755645751953125">
        <ele>101.8000030517578125</ele>
        <time>2017-01-15T11:36:02.000Z</time>
        <extensions>
          <ns3:TrackPointExtension/>
        </extensions>
      </trkpt>
      <trkpt lat="51.73725332133471965789794921875" lon="39.355873502790927886962890625">
        <ele>103.59999847412109375</ele>
        <time>2017-01-15T11:36:24.000Z</time>
        <extensions>
          <ns3:TrackPointExtension/>
        </extensions>
      </trkpt>
      <trkpt lat="51.7368542589247226715087890625" lon="39.35621120966970920562744140625">
        <ele>103.40000152587890625</ele>
        <time>2017-01-15T11:36:34.000Z</time>
        <extensions>
          <ns3:TrackPointExtension/>
        </extensions>
      </trkpt>
      <trkpt lat="51.7368126846849918365478515625" lon="39.356244318187236785888671875">
        <ele>103.40000152587890625</ele>
        <time>2017-01-15T11:36:35.000Z</time>
        <extensions>
          <ns3:TrackPointExtension/>
        </extensions>
      </trkpt>
      <trkpt lat="51.73677521757781505584716796875" lon="39.3562790192663669586181640625">
        <ele>103.40000152587890625</ele>
        <time>2017-01-15T11:36:36.000Z</time>
        <extensions>
          <ns3:TrackPointExtension/>
        </extensions>
      </trkpt>
      <trkpt lat="51.73657572828233242034912109375" lon="39.356454201042652130126953125">
        <ele>103.40000152587890625</ele>
        <time>2017-01-15T11:36:41.000Z</time>
        <extensions>
          <ns3:TrackPointExtension/>
        </extensions>
      </trkpt>
      <trkpt lat="51.73653633333742618560791015625" lon="39.35648940503597259521484375">
        <ele>103.40000152587890625</ele>
        <time>2017-01-15T11:36:42.000Z</time>
        <extensions>
          <ns3:TrackPointExtension/>
        </extensions>
      </trkpt>
      <trkpt lat="51.73629309050738811492919921875" lon="39.356692247092723846435546875">
        <ele>104</ele>
        <time>2017-01-15T11:36:48.000Z</time>
        <extensions>
          <ns3:TrackPointExtension/>
        </extensions>
      </trkpt>
      <trkpt lat="51.73625268973410129547119140625" lon="39.3567286245524883270263671875">
        <ele>104</ele>
        <time>2017-01-15T11:36:49.000Z</time>
        <extensions>
          <ns3:TrackPointExtension/>
        </extensions>
      </trkpt>
      <trkpt lat="51.73608421348035335540771484375" lon="39.356862567365169525146484375">
        <ele>104.40000152587890625</ele>
        <time>2017-01-15T11:36:53.000Z</time>
        <extensions>
          <ns3:TrackPointExtension/>
        </extensions>
      </trkpt>
      <trkpt lat="51.7360420525074005126953125" lon="39.3568942509591579437255859375">
        <ele>104.40000152587890625</ele>
        <time>2017-01-15T11:36:54.000Z</time>
        <extensions>
          <ns3:TrackPointExtension/>
        </extensions>
      </trkpt>
      <trkpt lat="51.7360033281147480010986328125" lon="39.35692786239087581634521484375">
        <ele>104.59999847412109375</ele>
        <time>2017-01-15T11:36:55.000Z</time>
        <extensions>
          <ns3:TrackPointExtension/>
        </extensions>
      </trkpt>
      <trkpt lat="51.735840551555156707763671875" lon="39.35706012882292270660400390625">
        <ele>105</ele>
        <time>2017-01-15T11:36:59.000Z</time>
        <extensions>
          <ns3:TrackPointExtension/>
        </extensions>
      </trkpt>
      <trkpt lat="51.7357988096773624420166015625" lon="39.35709214769303798675537109375">
        <ele>105</ele>
        <time>2017-01-15T11:37:00.000Z</time>
        <extensions>
          <ns3:TrackPointExtension/>
        </extensions>
      </trkpt>
      <trkpt lat="51.73576067201793193817138671875" lon="39.35712751932442188262939453125">
        <ele>105.1999969482421875</ele>
        <time>2017-01-15T11:37:01.000Z</time>
        <extensions>
          <ns3:TrackPointExtension/>
        </extensions>
      </trkpt>
      <trkpt lat="51.73572228290140628814697265625" lon="39.35716138221323490142822265625">
        <ele>105.1999969482421875</ele>
        <time>2017-01-15T11:37:02.000Z</time>
        <extensions>
          <ns3:TrackPointExtension/>
        </extensions>
      </trkpt>
      <trkpt lat="51.73568121157586574554443359375" lon="39.3571946583688259124755859375">
        <ele>105.1999969482421875</ele>
        <time>2017-01-15T11:37:03.000Z</time>
        <extensions>
          <ns3:TrackPointExtension/>
        </extensions>
      </trkpt>
      <trkpt lat="51.73526798374950885772705078125" lon="39.35752071440219879150390625">
        <ele>105.40000152587890625</ele>
        <time>2017-01-15T11:37:14.000Z</time>
        <extensions>
          <ns3:TrackPointExtension/>
        </extensions>
      </trkpt>
      <trkpt lat="51.73505927436053752899169921875" lon="39.3576828204095363616943359375">
        <ele>105.1999969482421875</ele>
        <time>2017-01-15T11:37:19.000Z</time>
        <extensions>
          <ns3:TrackPointExtension/>
        </extensions>
      </trkpt>
      <trkpt lat="51.7347165383398532867431640625" lon="39.35795749537646770477294921875">
        <ele>104.8000030517578125</ele>
        <time>2017-01-15T11:37:27.000Z</time>
        <extensions>
          <ns3:TrackPointExtension/>
        </extensions>
      </trkpt>
      <trkpt lat="51.73403500579297542572021484375" lon="39.3586494214832782745361328125">
        <ele>103</ele>
        <time>2017-01-15T11:37:44.000Z</time>
        <extensions>
          <ns3:TrackPointExtension/>
        </extensions>
      </trkpt>
      <trkpt lat="51.733997203409671783447265625" lon="39.358693175017833709716796875">
        <ele>103.1999969482421875</ele>
        <time>2017-01-15T11:37:45.000Z</time>
        <extensions>
          <ns3:TrackPointExtension/>
        </extensions>
      </trkpt>
      <trkpt lat="51.73371800221502780914306640625" lon="39.35897254385054111480712890625">
        <ele>104.1999969482421875</ele>
        <time>2017-01-15T11:37:52.000Z</time>
        <extensions>
          <ns3:TrackPointExtension/>
        </extensions>
      </trkpt>
      <trkpt lat="51.73367341049015522003173828125" lon="39.3589950911700725555419921875">
        <ele>104.40000152587890625</ele>
        <time>2017-01-15T11:37:53.000Z</time>
        <extensions>
          <ns3:TrackPointExtension/>
        </extensions>
      </trkpt>
      <trkpt lat="51.7336278967559337615966796875" lon="39.35900104232132434844970703125">
        <ele>104.40000152587890625</ele>
        <time>2017-01-15T11:37:54.000Z</time>
        <extensions>
          <ns3:TrackPointExtension/>
        </extensions>
      </trkpt>
      <trkpt lat="51.7335839755833148956298828125" lon="39.35898763127624988555908203125">
        <ele>104.59999847412109375</ele>
        <time>2017-01-15T11:37:55.000Z</time>
        <extensions>
          <ns3:TrackPointExtension/>
        </extensions>
      </trkpt>
      <trkpt lat="51.73354734666645526885986328125" lon="39.35895527713000774383544921875">
        <ele>104.8000030517578125</ele>
        <time>2017-01-15T11:37:56.000Z</time>
        <extensions>
          <ns3:TrackPointExtension/>
        </extensions>
      </trkpt>
      <trkpt lat="51.73351599834859371185302734375" lon="39.35890900902450084686279296875">
        <ele>104.8000030517578125</ele>
        <time>2017-01-15T11:37:57.000Z</time>
        <extensions>
          <ns3:TrackPointExtension/>
        </extensions>
      </trkpt>
      <trkpt lat="51.733490936458110809326171875" lon="39.35885620303452014923095703125">
        <ele>105</ele>
        <time>2017-01-15T11:37:58.000Z</time>
        <extensions>
          <ns3:TrackPointExtension/>
        </extensions>
      </trkpt>
      <trkpt lat="51.7334686405956745147705078125" lon="39.35879685916006565093994140625">
        <ele>105</ele>
        <time>2017-01-15T11:37:59.000Z</time>
        <extensions>
          <ns3:TrackPointExtension/>
        </extensions>
      </trkpt>
      <trkpt lat="51.7333891801536083221435546875" lon="39.35851891525089740753173828125">
        <ele>105.40000152587890625</ele>
        <time>2017-01-15T11:38:03.000Z</time>
        <extensions>
          <ns3:TrackPointExtension/>
        </extensions>
      </trkpt>
      <trkpt lat="51.73319547437131404876708984375" lon="39.35732013545930385589599609375">
        <ele>107</ele>
        <time>2017-01-15T11:38:19.000Z</time>
        <extensions>
          <ns3:TrackPointExtension/>
        </extensions>
      </trkpt>
      <trkpt lat="51.7331881821155548095703125" lon="39.357249476015567779541015625">
        <ele>107.1999969482421875</ele>
        <time>2017-01-15T11:38:20.000Z</time>
        <extensions>
          <ns3:TrackPointExtension/>
        </extensions>
      </trkpt>
      <trkpt lat="51.7331685684621334075927734375" lon="39.3570189736783504486083984375">
        <ele>107.1999969482421875</ele>
        <time>2017-01-15T11:38:23.000Z</time>
        <extensions>
          <ns3:TrackPointExtension/>
        </extensions>
      </trkpt>
      <trkpt lat="51.73311685211956501007080078125" lon="39.35663449577987194061279296875">
        <ele>107.8000030517578125</ele>
        <time>2017-01-15T11:38:28.000Z</time>
        <extensions>
          <ns3:TrackPointExtension/>
        </extensions>
      </trkpt>
      <trkpt lat="51.73310629092156887054443359375" lon="39.3565559573471546173095703125">
        <ele>107.8000030517578125</ele>
        <time>2017-01-15T11:38:29.000Z</time>
        <extensions>
          <ns3:TrackPointExtension/>
        </extensions>
      </trkpt>
      <trkpt lat="51.73309925012290477752685546875" lon="39.35646886937320232391357421875">
        <ele>108</ele>
        <time>2017-01-15T11:38:30.000Z</time>
        <extensions>
          <ns3:TrackPointExtension/>
        </extensions>
      </trkpt>
      <trkpt lat="51.7329094000160694122314453125" lon="39.35519012622535228729248046875">
        <ele>108.40000152587890625</ele>
        <time>2017-01-15T11:38:45.000Z</time>
        <extensions>
          <ns3:TrackPointExtension/>
        </extensions>
      </trkpt>
      <trkpt lat="51.73284284770488739013671875" lon="39.35476248152554035186767578125">
        <ele>108</ele>
        <time>2017-01-15T11:38:50.000Z</time>
        <extensions>
          <ns3:TrackPointExtension/>
        </extensions>
      </trkpt>
      <trkpt lat="51.7328265868127346038818359375" lon="39.35467354953289031982421875">
        <ele>107.8000030517578125</ele>
        <time>2017-01-15T11:38:51.000Z</time>
        <extensions>
          <ns3:TrackPointExtension/>
        </extensions>
      </trkpt>
      <trkpt lat="51.73281644470989704132080078125" lon="39.3545831926167011260986328125">
        <ele>107.59999847412109375</ele>
        <time>2017-01-15T11:38:52.000Z</time>
        <extensions>
          <ns3:TrackPointExtension/>
        </extensions>
      </trkpt>
      <trkpt lat="51.73278995789587497711181640625" lon="39.3544004671275615692138671875">
        <ele>107.40000152587890625</ele>
        <time>2017-01-15T11:38:54.000Z</time>
        <extensions>
          <ns3:TrackPointExtension/>
        </extensions>
      </trkpt>
      <trkpt lat="51.73277956433594226837158203125" lon="39.354308433830738067626953125">
        <ele>107.59999847412109375</ele>
        <time>2017-01-15T11:38:55.000Z</time>
        <extensions>
          <ns3:TrackPointExtension/>
        </extensions>
      </trkpt>
      <trkpt lat="51.732771433889865875244140625" lon="39.354222603142261505126953125">
        <ele>107.59999847412109375</ele>
        <time>2017-01-15T11:38:56.000Z</time>
        <extensions>
          <ns3:TrackPointExtension/>
        </extensions>
      </trkpt>
      <trkpt lat="51.73265752382576465606689453125" lon="39.35351592488586902618408203125">
        <ele>107.40000152587890625</ele>
        <time>2017-01-15T11:39:04.000Z</time>
        <extensions>
          <ns3:TrackPointExtension/>
        </extensions>
      </trkpt>
      <trkpt lat="51.7326411791145801544189453125" lon="39.35343981720507144927978515625">
        <ele>107.40000152587890625</ele>
        <time>2017-01-15T11:39:05.000Z</time>
        <extensions>
          <ns3:TrackPointExtension/>
        </extensions>
      </trkpt>
      <trkpt lat="51.73263153992593288421630859375" lon="39.35336002148687839508056640625">
        <ele>107.40000152587890625</ele>
        <time>2017-01-15T11:39:06.000Z</time>
        <extensions>
          <ns3:TrackPointExtension/>
        </extensions>
      </trkpt>
      <trkpt lat="51.7324691824615001678466796875" lon="39.35227976180613040924072265625">
        <ele>107</ele>
        <time>2017-01-15T11:39:19.000Z</time>
        <extensions>
          <ns3:TrackPointExtension/>
        </extensions>
      </trkpt>
      <trkpt lat="51.73245367594063282012939453125" lon="39.3522047437727451324462890625">
        <ele>106.8000030517578125</ele>
        <time>2017-01-15T11:39:20.000Z</time>
        <extensions>
          <ns3:TrackPointExtension/>
        </extensions>
      </trkpt>
      <trkpt lat="51.7324416898190975189208984375" lon="39.352135844528675079345703125">
        <ele>106.8000030517578125</ele>
        <time>2017-01-15T11:39:21.000Z</time>
        <extensions>
          <ns3:TrackPointExtension/>
        </extensions>
      </trkpt>
      <trkpt lat="51.73243037424981594085693359375" lon="39.352062754333019256591796875">
        <ele>106.8000030517578125</ele>
        <time>2017-01-15T11:39:22.000Z</time>
        <extensions>
          <ns3:TrackPointExtension/>
        </extensions>
      </trkpt>
      <trkpt lat="51.732418723404407501220703125" lon="39.351986311376094818115234375">
        <ele>106.8000030517578125</ele>
        <time>2017-01-15T11:39:23.000Z</time>
        <extensions>
          <ns3:TrackPointExtension/>
        </extensions>
      </trkpt>
      <trkpt lat="51.73240455798804759979248046875" lon="39.35191045515239238739013671875">
        <ele>106.8000030517578125</ele>
        <time>2017-01-15T11:39:24.000Z</time>
        <extensions>
          <ns3:TrackPointExtension/>
        </extensions>
      </trkpt>
      <trkpt lat="51.7322318069636821746826171875" lon="39.3508814089000225067138671875">
        <ele>105.1999969482421875</ele>
        <time>2017-01-15T11:39:38.000Z</time>
        <extensions>
          <ns3:TrackPointExtension/>
        </extensions>
      </trkpt>
      <trkpt lat="51.732130385935306549072265625" lon="39.3503825180232524871826171875">
        <ele>105</ele>
        <time>2017-01-15T11:39:47.000Z</time>
        <extensions>
          <ns3:TrackPointExtension/>
        </extensions>
      </trkpt>
      <trkpt lat="51.732112951576709747314453125" lon="39.3502836115658283233642578125">
        <ele>104.8000030517578125</ele>
        <time>2017-01-15T11:39:52.000Z</time>
        <extensions>
          <ns3:TrackPointExtension/>
        </extensions>
      </trkpt>
      <trkpt lat="51.73210917972028255462646484375" lon="39.35025737620890140533447265625">
        <ele>104.8000030517578125</ele>
        <time>2017-01-15T11:39:53.000Z</time>
        <extensions>
          <ns3:TrackPointExtension/>
        </extensions>
      </trkpt>
      <trkpt lat="51.73209342174232006072998046875" lon="39.3502272851765155792236328125">
        <ele>104.8000030517578125</ele>
        <time>2017-01-15T11:39:54.000Z</time>
        <extensions>
          <ns3:TrackPointExtension/>
        </extensions>
      </trkpt>
      <trkpt lat="51.73207037150859832763671875" lon="39.35020029544830322265625">
        <ele>104.8000030517578125</ele>
        <time>2017-01-15T11:39:55.000Z</time>
        <extensions>
          <ns3:TrackPointExtension/>
        </extensions>
      </trkpt>
      <trkpt lat="51.7320455610752105712890625" lon="39.35017808340489864349365234375">
        <ele>104.8000030517578125</ele>
        <time>2017-01-15T11:39:56.000Z</time>
        <extensions>
          <ns3:TrackPointExtension/>
        </extensions>
      </trkpt>
      <trkpt lat="51.73201412893831729888916015625" lon="39.35015679337084293365478515625">
        <ele>105</ele>
        <time>2017-01-15T11:39:57.000Z</time>
        <extensions>
          <ns3:TrackPointExtension/>
        </extensions>
      </trkpt>
      <trkpt lat="51.7319800145924091339111328125" lon="39.35013952665030956268310546875">
        <ele>105</ele>
        <time>2017-01-15T11:39:58.000Z</time>
        <extensions>
          <ns3:TrackPointExtension/>
        </extensions>
      </trkpt>
      <trkpt lat="51.73190164379775524139404296875" lon="39.35011723078787326812744140625">
        <ele>105.1999969482421875</ele>
        <time>2017-01-15T11:40:00.000Z</time>
        <extensions>
          <ns3:TrackPointExtension/>
        </extensions>
      </trkpt>
      <trkpt lat="51.7314881645143032073974609375" lon="39.3500769138336181640625">
        <ele>106.59999847412109375</ele>
        <time>2017-01-15T11:40:09.000Z</time>
        <extensions>
          <ns3:TrackPointExtension/>
        </extensions>
      </trkpt>
      <trkpt lat="51.731251962482929229736328125" lon="39.34999686665832996368408203125">
        <ele>106.59999847412109375</ele>
        <time>2017-01-15T11:40:14.000Z</time>
        <extensions>
          <ns3:TrackPointExtension/>
        </extensions>
      </trkpt>
      <trkpt lat="51.73120343126356601715087890625" lon="39.34997574426233768463134765625">
        <ele>106.59999847412109375</ele>
        <time>2017-01-15T11:40:15.000Z</time>
        <extensions>
          <ns3:TrackPointExtension/>
        </extensions>
      </trkpt>
      <trkpt lat="51.7311577498912811279296875" lon="39.3499590642750263214111328125">
        <ele>106.59999847412109375</ele>
        <time>2017-01-15T11:40:16.000Z</time>
        <extensions>
          <ns3:TrackPointExtension/>
        </extensions>
      </trkpt>
      <trkpt lat="51.73074401915073394775390625" lon="39.34969763271510601043701171875">
        <ele>106.40000152587890625</ele>
        <time>2017-01-15T11:40:25.000Z</time>
        <extensions>
          <ns3:TrackPointExtension/>
        </extensions>
      </trkpt>
      <trkpt lat="51.73070085234940052032470703125" lon="39.34966527856886386871337890625">
        <ele>106.40000152587890625</ele>
        <time>2017-01-15T11:40:26.000Z</time>
        <extensions>
          <ns3:TrackPointExtension/>
        </extensions>
      </trkpt>
      <trkpt lat="51.7306588590145111083984375" lon="39.3496405519545078277587890625">
        <ele>106.59999847412109375</ele>
        <time>2017-01-15T11:40:27.000Z</time>
        <extensions>
          <ns3:TrackPointExtension/>
        </extensions>
      </trkpt>
      <trkpt lat="51.730569340288639068603515625" lon="39.34956016950309276580810546875">
        <ele>106.59999847412109375</ele>
        <time>2017-01-15T11:40:29.000Z</time>
        <extensions>
          <ns3:TrackPointExtension/>
        </extensions>
      </trkpt>
      <trkpt lat="51.73027304001152515411376953125" lon="39.349142499268054962158203125">
        <ele>107.59999847412109375</ele>
        <time>2017-01-15T11:40:37.000Z</time>
        <extensions>
          <ns3:TrackPointExtension/>
        </extensions>
      </trkpt>
      <trkpt lat="51.73023917712271213531494140625" lon="39.34908508323132991790771484375">
        <ele>107.59999847412109375</ele>
        <time>2017-01-15T11:40:38.000Z</time>
        <extensions>
          <ns3:TrackPointExtension/>
        </extensions>
      </trkpt>
      <trkpt lat="51.7301090061664581298828125" lon="39.348852820694446563720703125">
        <ele>108</ele>
        <time>2017-01-15T11:40:42.000Z</time>
        <extensions>
          <ns3:TrackPointExtension/>
        </extensions>
      </trkpt>
      <trkpt lat="51.72985629178583621978759765625" lon="39.3482142873108386993408203125">
        <ele>109.40000152587890625</ele>
        <time>2017-01-15T11:40:52.000Z</time>
        <extensions>
          <ns3:TrackPointExtension/>
        </extensions>
      </trkpt>
      <trkpt lat="51.72977046109735965728759765625" lon="39.34767658822238445281982421875">
        <ele>109.8000030517578125</ele>
        <time>2017-01-15T11:40:59.000Z</time>
        <extensions>
          <ns3:TrackPointExtension/>
        </extensions>
      </trkpt>
      <trkpt lat="51.729687564074993133544921875" lon="39.346755333244800567626953125">
        <ele>110</ele>
        <time>2017-01-15T11:41:11.000Z</time>
        <extensions>
          <ns3:TrackPointExtension/>
        </extensions>
      </trkpt>
      <trkpt lat="51.729606427252292633056640625" lon="39.34566291980445384979248046875">
        <ele>109.8000030517578125</ele>
        <time>2017-01-15T11:41:25.000Z</time>
        <extensions>
          <ns3:TrackPointExtension/>
        </extensions>
      </trkpt>
      <trkpt lat="51.72950173728168010711669921875" lon="39.34446279890835285186767578125">
        <ele>109.40000152587890625</ele>
        <time>2017-01-15T11:41:40.000Z</time>
        <extensions>
          <ns3:TrackPointExtension/>
        </extensions>
      </trkpt>
      <trkpt lat="51.7294215224683284759521484375" lon="39.3436615727841854095458984375">
        <ele>109.40000152587890625</ele>
        <time>2017-01-15T11:41:50.000Z</time>
        <extensions>
          <ns3:TrackPointExtension/>
        </extensions>
      </trkpt>
      <trkpt lat="51.7293866537511348724365234375" lon="39.34301138855516910552978515625">
        <ele>109</ele>
        <time>2017-01-15T11:41:58.000Z</time>
        <extensions>
          <ns3:TrackPointExtension/>
        </extensions>
      </trkpt>
      <trkpt lat="51.7293792776763439178466796875" lon="39.342927150428295135498046875">
        <ele>109</ele>
        <time>2017-01-15T11:41:59.000Z</time>
        <extensions>
          <ns3:TrackPointExtension/>
        </extensions>
      </trkpt>
      <trkpt lat="51.7293011583387851715087890625" lon="39.3418775685131549835205078125">
        <ele>108.8000030517578125</ele>
        <time>2017-01-15T11:42:12.000Z</time>
        <extensions>
          <ns3:TrackPointExtension/>
        </extensions>
      </trkpt>
      <trkpt lat="51.72919630073010921478271484375" lon="39.34025089256465435028076171875">
        <ele>110.40000152587890625</ele>
        <time>2017-01-15T11:42:31.000Z</time>
        <extensions>
          <ns3:TrackPointExtension/>
        </extensions>
      </trkpt>
      <trkpt lat="51.7291854880750179290771484375" lon="39.34015517123043537139892578125">
        <ele>110.1999969482421875</ele>
        <time>2017-01-15T11:42:32.000Z</time>
        <extensions>
          <ns3:TrackPointExtension/>
        </extensions>
      </trkpt>
      <trkpt lat="51.7291811294853687286376953125" lon="39.34007034637033939361572265625">
        <ele>110</ele>
        <time>2017-01-15T11:42:33.000Z</time>
        <extensions>
          <ns3:TrackPointExtension/>
        </extensions>
      </trkpt>
      <trkpt lat="51.7291818000376224517822265625" lon="39.33997915126383304595947265625">
        <ele>110</ele>
        <time>2017-01-15T11:42:34.000Z</time>
        <extensions>
          <ns3:TrackPointExtension/>
        </extensions>
      </trkpt>
      <trkpt lat="51.72908247448503971099853515625" lon="39.338305704295635223388671875">
        <ele>107.8000030517578125</ele>
        <time>2017-01-15T11:42:53.000Z</time>
        <extensions>
          <ns3:TrackPointExtension/>
        </extensions>
      </trkpt>
      <trkpt lat="51.72907769680023193359375" lon="39.338222555816173553466796875">
        <ele>107.8000030517578125</ele>
        <time>2017-01-15T11:42:54.000Z</time>
        <extensions>
          <ns3:TrackPointExtension/>
        </extensions>
      </trkpt>
      <trkpt lat="51.72907928936183452606201171875" lon="39.33814049698412418365478515625">
        <ele>107.59999847412109375</ele>
        <time>2017-01-15T11:42:55.000Z</time>
        <extensions>
          <ns3:TrackPointExtension/>
        </extensions>
      </trkpt>
      <trkpt lat="51.72907945699989795684814453125" lon="39.33805500157177448272705078125">
        <ele>107.59999847412109375</ele>
        <time>2017-01-15T11:42:56.000Z</time>
        <extensions>
          <ns3:TrackPointExtension/>
        </extensions>
      </trkpt>
      <trkpt lat="51.72908079810440540313720703125" lon="39.33797017671167850494384765625">
        <ele>107.40000152587890625</ele>
        <time>2017-01-15T11:42:57.000Z</time>
        <extensions>
          <ns3:TrackPointExtension/>
        </extensions>
      </trkpt>
      <trkpt lat="51.7290973104536533355712890625" lon="39.33771184645593166351318359375">
        <ele>107.1999969482421875</ele>
        <time>2017-01-15T11:43:00.000Z</time>
        <extensions>
          <ns3:TrackPointExtension/>
        </extensions>
      </trkpt>
      <trkpt lat="51.72912689857184886932373046875" lon="39.3375471420586109161376953125">
        <ele>107.1999969482421875</ele>
        <time>2017-01-15T11:43:02.000Z</time>
        <extensions>
          <ns3:TrackPointExtension/>
        </extensions>
      </trkpt>
      <trkpt lat="51.7291683889925479888916015625" lon="39.33738964609801769256591796875">
        <ele>107.1999969482421875</ele>
        <time>2017-01-15T11:43:04.000Z</time>
        <extensions>
          <ns3:TrackPointExtension/>
        </extensions>
      </trkpt>
      <trkpt lat="51.72962553799152374267578125" lon="39.33613386936485767364501953125">
        <ele>108</ele>
        <time>2017-01-15T11:43:21.000Z</time>
        <extensions>
          <ns3:TrackPointExtension/>
        </extensions>
      </trkpt>
      <trkpt lat="51.72967524267733097076416015625" lon="39.335987605154514312744140625">
        <ele>108</ele>
        <time>2017-01-15T11:43:23.000Z</time>
        <extensions>
          <ns3:TrackPointExtension/>
        </extensions>
      </trkpt>
      <trkpt lat="51.7298027314245700836181640625" lon="39.33542895130813121795654296875">
        <ele>109.1999969482421875</ele>
        <time>2017-01-15T11:43:30.000Z</time>
        <extensions>
          <ns3:TrackPointExtension/>
        </extensions>
      </trkpt>
      <trkpt lat="51.72984279692173004150390625" lon="39.334355480968952178955078125">
        <ele>109.59999847412109375</ele>
        <time>2017-01-15T11:43:45.000Z</time>
        <extensions>
          <ns3:TrackPointExtension/>
        </extensions>
      </trkpt>
      <trkpt lat="51.729751266539096832275390625" lon="39.33284330181777477264404296875">
        <ele>106</ele>
        <time>2017-01-15T11:44:05.000Z</time>
        <extensions>
          <ns3:TrackPointExtension/>
        </extensions>
      </trkpt>
      <trkpt lat="51.7297772504389286041259765625" lon="39.33224885724484920501708984375">
        <ele>104.8000030517578125</ele>
        <time>2017-01-15T11:44:12.000Z</time>
        <extensions>
          <ns3:TrackPointExtension/>
        </extensions>
      </trkpt>
      <trkpt lat="51.729791164398193359375" lon="39.3321673013269901275634765625">
        <ele>104.8000030517578125</ele>
        <time>2017-01-15T11:44:13.000Z</time>
        <extensions>
          <ns3:TrackPointExtension/>
        </extensions>
      </trkpt>
      <trkpt lat="51.7301262728869915008544921875" lon="39.3307115323841571807861328125">
        <ele>104.40000152587890625</ele>
        <time>2017-01-15T11:44:32.000Z</time>
        <extensions>
          <ns3:TrackPointExtension/>
        </extensions>
      </trkpt>
      <trkpt lat="51.73070118762552738189697265625" lon="39.3295001797378063201904296875">
        <ele>105</ele>
        <time>2017-01-15T11:44:51.000Z</time>
        <extensions>
          <ns3:TrackPointExtension/>
        </extensions>
      </trkpt>
      <trkpt lat="51.731258332729339599609375" lon="39.3285097740590572357177734375">
        <ele>101.8000030517578125</ele>
        <time>2017-01-15T11:45:08.000Z</time>
        <extensions>
          <ns3:TrackPointExtension/>
        </extensions>
      </trkpt>
      <trkpt lat="51.7314402200281620025634765625" lon="39.32771508581936359405517578125">
        <ele>100.59999847412109375</ele>
        <time>2017-01-15T11:45:20.000Z</time>
        <extensions>
          <ns3:TrackPointExtension/>
        </extensions>
      </trkpt>
      <trkpt lat="51.7315359413623809814453125" lon="39.3262617476284503936767578125">
        <ele>100</ele>
        <time>2017-01-15T11:45:39.000Z</time>
        <extensions>
          <ns3:TrackPointExtension/>
        </extensions>
      </trkpt>
      <trkpt lat="51.73154926858842372894287109375" lon="39.32618237100541591644287109375">
        <ele>100</ele>
        <time>2017-01-15T11:45:40.000Z</time>
        <extensions>
          <ns3:TrackPointExtension/>
        </extensions>
      </trkpt>
      <trkpt lat="51.731559745967388153076171875" lon="39.32610592804849147796630859375">
        <ele>100</ele>
        <time>2017-01-15T11:45:41.000Z</time>
        <extensions>
          <ns3:TrackPointExtension/>
        </extensions>
      </trkpt>
      <trkpt lat="51.73158849589526653289794921875" lon="39.32574366219341754913330078125">
        <ele>99.8000030517578125</ele>
        <time>2017-01-15T11:45:46.000Z</time>
        <extensions>
          <ns3:TrackPointExtension/>
        </extensions>
      </trkpt>
      <trkpt lat="51.731648929417133331298828125" lon="39.32489289902150630950927734375">
        <ele>100</ele>
        <time>2017-01-15T11:45:57.000Z</time>
        <extensions>
          <ns3:TrackPointExtension/>
        </extensions>
      </trkpt>
      <trkpt lat="51.731653623282909393310546875" lon="39.32482324540615081787109375">
        <ele>100</ele>
        <time>2017-01-15T11:45:58.000Z</time>
        <extensions>
          <ns3:TrackPointExtension/>
        </extensions>
      </trkpt>
      <trkpt lat="51.7316618375480175018310546875" lon="39.3247395940124988555908203125">
        <ele>100</ele>
        <time>2017-01-15T11:45:59.000Z</time>
        <extensions>
          <ns3:TrackPointExtension/>
        </extensions>
      </trkpt>
      <trkpt lat="51.7317627556622028350830078125" lon="39.32338960468769073486328125">
        <ele>100.59999847412109375</ele>
        <time>2017-01-15T11:46:17.000Z</time>
        <extensions>
          <ns3:TrackPointExtension/>
        </extensions>
      </trkpt>
      <trkpt lat="51.7317677848041057586669921875" lon="39.3233143351972103118896484375">
        <ele>100.59999847412109375</ele>
        <time>2017-01-15T11:46:18.000Z</time>
        <extensions>
          <ns3:TrackPointExtension/>
        </extensions>
      </trkpt>
      <trkpt lat="51.73177876509726047515869140625" lon="39.323234371840953826904296875">
        <ele>100.40000152587890625</ele>
        <time>2017-01-15T11:46:19.000Z</time>
        <extensions>
          <ns3:TrackPointExtension/>
        </extensions>
      </trkpt>
      <trkpt lat="51.73179812729358673095703125" lon="39.32292868383228778839111328125">
        <ele>100</ele>
        <time>2017-01-15T11:46:23.000Z</time>
        <extensions>
          <ns3:TrackPointExtension/>
        </extensions>
      </trkpt>
      <trkpt lat="51.73180223442614078521728515625" lon="39.322850815951824188232421875">
        <ele>100</ele>
        <time>2017-01-15T11:46:24.000Z</time>
        <extensions>
          <ns3:TrackPointExtension/>
        </extensions>
      </trkpt>
      <trkpt lat="51.73181128688156604766845703125" lon="39.32276842184364795684814453125">
        <ele>100</ele>
        <time>2017-01-15T11:46:25.000Z</time>
        <extensions>
          <ns3:TrackPointExtension/>
        </extensions>
      </trkpt>
      <trkpt lat="51.7319166474044322967529296875" lon="39.32126051746308803558349609375">
        <ele>102.1999969482421875</ele>
        <time>2017-01-15T11:46:44.000Z</time>
        <extensions>
          <ns3:TrackPointExtension/>
        </extensions>
      </trkpt>
      <trkpt lat="51.73188957385718822479248046875" lon="39.32087042368948459625244140625">
        <ele>103.40000152587890625</ele>
        <time>2017-01-15T11:46:49.000Z</time>
        <extensions>
          <ns3:TrackPointExtension/>
        </extensions>
      </trkpt>
      <trkpt lat="51.73179988749325275421142578125" lon="39.32049709372222423553466796875">
        <ele>104.59999847412109375</ele>
        <time>2017-01-15T11:46:54.000Z</time>
        <extensions>
          <ns3:TrackPointExtension/>
        </extensions>
      </trkpt>
      <trkpt lat="51.73177935183048248291015625" lon="39.32042115367949008941650390625">
        <ele>105</ele>
        <time>2017-01-15T11:46:55.000Z</time>
        <extensions>
          <ns3:TrackPointExtension/>
        </extensions>
      </trkpt>
      <trkpt lat="51.731469221413135528564453125" lon="39.3198552913963794708251953125">
        <ele>106.8000030517578125</ele>
        <time>2017-01-15T11:47:05.000Z</time>
        <extensions>
          <ns3:TrackPointExtension/>
        </extensions>
      </trkpt>
      <trkpt lat="51.731137298047542572021484375" lon="39.31954373605549335479736328125">
        <ele>108.40000152587890625</ele>
        <time>2017-01-15T11:47:13.000Z</time>
        <extensions>
          <ns3:TrackPointExtension/>
        </extensions>
      </trkpt>
      <trkpt lat="51.73108792863786220550537109375" lon="39.31951322592794895172119140625">
        <ele>108.59999847412109375</ele>
        <time>2017-01-15T11:47:14.000Z</time>
        <extensions>
          <ns3:TrackPointExtension/>
        </extensions>
      </trkpt>
      <trkpt lat="51.730427183210849761962890625" lon="39.319230504333972930908203125">
        <ele>110.40000152587890625</ele>
        <time>2017-01-15T11:47:28.000Z</time>
        <extensions>
          <ns3:TrackPointExtension/>
        </extensions>
      </trkpt>
      <trkpt lat="51.730380244553089141845703125" lon="39.3192155845463275909423828125">
        <ele>110.40000152587890625</ele>
        <time>2017-01-15T11:47:29.000Z</time>
        <extensions>
          <ns3:TrackPointExtension/>
        </extensions>
      </trkpt>
      <trkpt lat="51.729387156665325164794921875" lon="39.31900343857705593109130859375">
        <ele>111.59999847412109375</ele>
        <time>2017-01-15T11:47:50.000Z</time>
        <extensions>
          <ns3:TrackPointExtension/>
        </extensions>
      </trkpt>
      <trkpt lat="51.7291539721190929412841796875" lon="39.3189661391079425811767578125">
        <ele>111.8000030517578125</ele>
        <time>2017-01-15T11:47:55.000Z</time>
        <extensions>
          <ns3:TrackPointExtension/>
        </extensions>
      </trkpt>
      <trkpt lat="51.72910762019455432891845703125" lon="39.3189619481563568115234375">
        <ele>112</ele>
        <time>2017-01-15T11:47:56.000Z</time>
        <extensions>
          <ns3:TrackPointExtension/>
        </extensions>
      </trkpt>
      <trkpt lat="51.728912405669689178466796875" lon="39.318930096924304962158203125">
        <ele>112.1999969482421875</ele>
        <time>2017-01-15T11:48:00.000Z</time>
        <extensions>
          <ns3:TrackPointExtension/>
        </extensions>
      </trkpt>
      <trkpt lat="51.7288663052022457122802734375" lon="39.318928085267543792724609375">
        <ele>112.1999969482421875</ele>
        <time>2017-01-15T11:48:01.000Z</time>
        <extensions>
          <ns3:TrackPointExtension/>
        </extensions>
      </trkpt>
      <trkpt lat="51.7287184484302997589111328125" lon="39.318888187408447265625">
        <ele>112.40000152587890625</ele>
        <time>2017-01-15T11:48:04.000Z</time>
        <extensions>
          <ns3:TrackPointExtension/>
        </extensions>
      </trkpt>
      <trkpt lat="51.72866857610642910003662109375" lon="39.318879134953022003173828125">
        <ele>112.40000152587890625</ele>
        <time>2017-01-15T11:48:05.000Z</time>
        <extensions>
          <ns3:TrackPointExtension/>
        </extensions>
      </trkpt>
      <trkpt lat="51.72862012870609760284423828125" lon="39.31887871585786342620849609375">
        <ele>112.59999847412109375</ele>
        <time>2017-01-15T11:48:06.000Z</time>
        <extensions>
          <ns3:TrackPointExtension/>
        </extensions>
      </trkpt>
      <trkpt lat="51.728433631360530853271484375" lon="39.31882389821112155914306640625">
        <ele>112.8000030517578125</ele>
        <time>2017-01-15T11:48:10.000Z</time>
        <extensions>
          <ns3:TrackPointExtension/>
        </extensions>
      </trkpt>
      <trkpt lat="51.72838962636888027191162109375" lon="39.3188115768134593963623046875">
        <ele>112.8000030517578125</ele>
        <time>2017-01-15T11:48:11.000Z</time>
        <extensions>
          <ns3:TrackPointExtension/>
        </extensions>
      </trkpt>
      <trkpt lat="51.7283483035862445831298828125" lon="39.31880847550928592681884765625">
        <ele>112.8000030517578125</ele>
        <time>2017-01-15T11:48:12.000Z</time>
        <extensions>
          <ns3:TrackPointExtension/>
        </extensions>
      </trkpt>
      <trkpt lat="51.727926693856716156005859375" lon="39.3187220580875873565673828125">
        <ele>113</ele>
        <time>2017-01-15T11:48:22.000Z</time>
        <extensions>
          <ns3:TrackPointExtension/>
        </extensions>
      </trkpt>
      <trkpt lat="51.727759726345539093017578125" lon="39.31868928484618663787841796875">
        <ele>113</ele>
        <time>2017-01-15T11:48:26.000Z</time>
        <extensions>
          <ns3:TrackPointExtension/>
        </extensions>
      </trkpt>
      <trkpt lat="51.72771588899195194244384765625" lon="39.31868542917072772979736328125">
        <ele>113</ele>
        <time>2017-01-15T11:48:27.000Z</time>
        <extensions>
          <ns3:TrackPointExtension/>
        </extensions>
      </trkpt>
      <trkpt lat="51.72729612328112125396728515625" lon="39.318594820797443389892578125">
        <ele>113</ele>
        <time>2017-01-15T11:48:37.000Z</time>
        <extensions>
          <ns3:TrackPointExtension/>
        </extensions>
      </trkpt>
      <trkpt lat="51.7272526212036609649658203125" lon="39.31859515607357025146484375">
        <ele>113</ele>
        <time>2017-01-15T11:48:38.000Z</time>
        <extensions>
          <ns3:TrackPointExtension/>
        </extensions>
      </trkpt>
      <trkpt lat="51.72675314359366893768310546875" lon="39.318474791944026947021484375">
        <ele>112.40000152587890625</ele>
        <time>2017-01-15T11:48:50.000Z</time>
        <extensions>
          <ns3:TrackPointExtension/>
        </extensions>
      </trkpt>
      <trkpt lat="51.7263453640043735504150390625" lon="39.31838535703718662261962890625">
        <ele>112</ele>
        <time>2017-01-15T11:49:02.000Z</time>
        <extensions>
          <ns3:TrackPointExtension/>
        </extensions>
      </trkpt>
      <trkpt lat="51.72614629380404949188232421875" lon="39.31798470206558704376220703125">
        <ele>112.40000152587890625</ele>
        <time>2017-01-15T11:49:13.000Z</time>
        <extensions>
          <ns3:TrackPointExtension/>
        </extensions>
      </trkpt>
      <trkpt lat="51.7262648977339267730712890625" lon="39.3167948909103870391845703125">
        <ele>113.8000030517578125</ele>
        <time>2017-01-15T11:49:31.000Z</time>
        <extensions>
          <ns3:TrackPointExtension/>
        </extensions>
      </trkpt>
      <trkpt lat="51.7264107428491115570068359375" lon="39.31531087495386600494384765625">
        <ele>114.40000152587890625</ele>
        <time>2017-01-15T11:49:52.000Z</time>
        <extensions>
          <ns3:TrackPointExtension/>
        </extensions>
      </trkpt>
      <trkpt lat="51.72650973312556743621826171875" lon="39.3142843432724475860595703125">
        <ele>113</ele>
        <time>2017-01-15T11:50:09.000Z</time>
        <extensions>
          <ns3:TrackPointExtension/>
        </extensions>
      </trkpt>
      <trkpt lat="51.7266239784657955169677734375" lon="39.313059747219085693359375">
        <ele>111.59999847412109375</ele>
        <time>2017-01-15T11:50:29.000Z</time>
        <extensions>
          <ns3:TrackPointExtension/>
        </extensions>
      </trkpt>
      <trkpt lat="51.72675817273557186126708984375" lon="39.311701543629169464111328125">
        <ele>111.8000030517578125</ele>
        <time>2017-01-15T11:50:50.000Z</time>
        <extensions>
          <ns3:TrackPointExtension/>
        </extensions>
      </trkpt>
      <trkpt lat="51.72688222490251064300537109375" lon="39.3103854171931743621826171875">
        <ele>113.1999969482421875</ele>
        <time>2017-01-15T11:51:10.000Z</time>
        <extensions>
          <ns3:TrackPointExtension/>
        </extensions>
      </trkpt>
      <trkpt lat="51.726953722536563873291015625" lon="39.30954898707568645477294921875">
        <ele>115.40000152587890625</ele>
        <time>2017-01-15T11:51:22.000Z</time>
        <extensions>
          <ns3:TrackPointExtension/>
        </extensions>
      </trkpt>
      <trkpt lat="51.7270363681018352508544921875" lon="39.30875102989375591278076171875">
        <ele>116.8000030517578125</ele>
        <time>2017-01-15T11:51:33.000Z</time>
        <extensions>
          <ns3:TrackPointExtension/>
        </extensions>
      </trkpt>
      <trkpt lat="51.7271237075328826904296875" lon="39.30790211074054241180419921875">
        <ele>117.8000030517578125</ele>
        <time>2017-01-15T11:51:44.000Z</time>
        <extensions>
          <ns3:TrackPointExtension/>
        </extensions>
      </trkpt>
      <trkpt lat="51.727186739444732666015625" lon="39.30722585879266262054443359375">
        <ele>118.1999969482421875</ele>
        <time>2017-01-15T11:51:53.000Z</time>
        <extensions>
          <ns3:TrackPointExtension/>
        </extensions>
      </trkpt>
      <trkpt lat="51.72719009220600128173828125" lon="39.3071520142257213592529296875">
        <ele>118</ele>
        <time>2017-01-15T11:51:54.000Z</time>
        <extensions>
          <ns3:TrackPointExtension/>
        </extensions>
      </trkpt>
      <trkpt lat="51.72729746438562870025634765625" lon="39.30608977563679218292236328125">
        <ele>116.40000152587890625</ele>
        <time>2017-01-15T11:52:07.000Z</time>
        <extensions>
          <ns3:TrackPointExtension/>
        </extensions>
      </trkpt>
      <trkpt lat="51.72731003724038600921630859375" lon="39.3060046993196010589599609375">
        <ele>116.1999969482421875</ele>
        <time>2017-01-15T11:52:08.000Z</time>
        <extensions>
          <ns3:TrackPointExtension/>
        </extensions>
      </trkpt>
      <trkpt lat="51.727353036403656005859375" lon="39.30559725500643253326416015625">
        <ele>115.40000152587890625</ele>
        <time>2017-01-15T11:52:13.000Z</time>
        <extensions>
          <ns3:TrackPointExtension/>
        </extensions>
      </trkpt>
      <trkpt lat="51.72736435197293758392333984375" lon="39.30551092140376567840576171875">
        <ele>115.1999969482421875</ele>
        <time>2017-01-15T11:52:14.000Z</time>
        <extensions>
          <ns3:TrackPointExtension/>
        </extensions>
      </trkpt>
      <trkpt lat="51.7273946106433868408203125" lon="39.3051056563854217529296875">
        <ele>115.1999969482421875</ele>
        <time>2017-01-15T11:52:19.000Z</time>
        <extensions>
          <ns3:TrackPointExtension/>
        </extensions>
      </trkpt>
      <trkpt lat="51.72739871777594089508056640625" lon="39.3050283752381801605224609375">
        <ele>115.1999969482421875</ele>
        <time>2017-01-15T11:52:20.000Z</time>
        <extensions>
          <ns3:TrackPointExtension/>
        </extensions>
      </trkpt>
      <trkpt lat="51.72751732170581817626953125" lon="39.30392389185726642608642578125">
        <ele>115.59999847412109375</ele>
        <time>2017-01-15T11:52:33.000Z</time>
        <extensions>
          <ns3:TrackPointExtension/>
        </extensions>
      </trkpt>
      <trkpt lat="51.72753014601767063140869140625" lon="39.30383319966495037078857421875">
        <ele>115.8000030517578125</ele>
        <time>2017-01-15T11:52:34.000Z</time>
        <extensions>
          <ns3:TrackPointExtension/>
        </extensions>
      </trkpt>
      <trkpt lat="51.72756518237292766571044921875" lon="39.3034116737544536590576171875">
        <ele>115.59999847412109375</ele>
        <time>2017-01-15T11:52:39.000Z</time>
        <extensions>
          <ns3:TrackPointExtension/>
        </extensions>
      </trkpt>
      <trkpt lat="51.72756987623870372772216796875" lon="39.30333196185529232025146484375">
        <ele>115.59999847412109375</ele>
        <time>2017-01-15T11:52:40.000Z</time>
        <extensions>
          <ns3:TrackPointExtension/>
        </extensions>
      </trkpt>
      <trkpt lat="51.7276003025472164154052734375" lon="39.30306994356215000152587890625">
        <ele>115.40000152587890625</ele>
        <time>2017-01-15T11:52:43.000Z</time>
        <extensions>
          <ns3:TrackPointExtension/>
        </extensions>
      </trkpt>
      <trkpt lat="51.7276118695735931396484375" lon="39.30298813618719577789306640625">
        <ele>115.40000152587890625</ele>
        <time>2017-01-15T11:52:44.000Z</time>
        <extensions>
          <ns3:TrackPointExtension/>
        </extensions>
      </trkpt>
      <trkpt lat="51.72761715017259120941162109375" lon="39.30291152559220790863037109375">
        <ele>115.1999969482421875</ele>
        <time>2017-01-15T11:52:45.000Z</time>
        <extensions>
          <ns3:TrackPointExtension/>
        </extensions>
      </trkpt>
      <trkpt lat="51.7276432178914546966552734375" lon="39.30265872739255428314208984375">
        <ele>115</ele>
        <time>2017-01-15T11:52:48.000Z</time>
        <extensions>
          <ns3:TrackPointExtension/>
        </extensions>
      </trkpt>
      <trkpt lat="51.72765470109879970550537109375" lon="39.30257323198020458221435546875">
        <ele>115</ele>
        <time>2017-01-15T11:52:49.000Z</time>
        <extensions>
          <ns3:TrackPointExtension/>
        </extensions>
      </trkpt>
      <trkpt lat="51.72768269665539264678955078125" lon="39.30219219066202640533447265625">
        <ele>115</ele>
        <time>2017-01-15T11:52:54.000Z</time>
        <extensions>
          <ns3:TrackPointExtension/>
        </extensions>
      </trkpt>
      <trkpt lat="51.72768604941666126251220703125" lon="39.30211792699992656707763671875">
        <ele>114.8000030517578125</ele>
        <time>2017-01-15T11:52:55.000Z</time>
        <extensions>
          <ns3:TrackPointExtension/>
        </extensions>
      </trkpt>
      <trkpt lat="51.7277575470507144927978515625" lon="39.30145458318293094635009765625">
        <ele>114.59999847412109375</ele>
        <time>2017-01-15T11:53:03.000Z</time>
        <extensions>
          <ns3:TrackPointExtension/>
        </extensions>
      </trkpt>
      <trkpt lat="51.72776919789612293243408203125" lon="39.30136757902801036834716796875">
        <ele>114.59999847412109375</ele>
        <time>2017-01-15T11:53:04.000Z</time>
        <extensions>
          <ns3:TrackPointExtension/>
        </extensions>
      </trkpt>
      <trkpt lat="51.72786508686840534210205078125" lon="39.30025697685778141021728515625">
        <ele>115.1999969482421875</ele>
        <time>2017-01-15T11:53:18.000Z</time>
        <extensions>
          <ns3:TrackPointExtension/>
        </extensions>
      </trkpt>
      <trkpt lat="51.72790087759494781494140625" lon="39.299420379102230072021484375">
        <ele>115</ele>
        <time>2017-01-15T11:53:29.000Z</time>
        <extensions>
          <ns3:TrackPointExtension/>
        </extensions>
      </trkpt>
      <trkpt lat="51.727877072989940643310546875" lon="39.29807600565254688262939453125">
        <ele>113.8000030517578125</ele>
        <time>2017-01-15T11:53:47.000Z</time>
        <extensions>
          <ns3:TrackPointExtension/>
        </extensions>
      </trkpt>
      <trkpt lat="51.727814376354217529296875" lon="39.29712264798581600189208984375">
        <ele>112.59999847412109375</ele>
        <time>2017-01-15T11:54:00.000Z</time>
        <extensions>
          <ns3:TrackPointExtension/>
        </extensions>
      </trkpt>
      <trkpt lat="51.727801300585269927978515625" lon="39.297056011855602264404296875">
        <ele>112.59999847412109375</ele>
        <time>2017-01-15T11:54:01.000Z</time>
        <extensions>
          <ns3:TrackPointExtension/>
        </extensions>
      </trkpt>
      <trkpt lat="51.72778193838894367218017578125" lon="39.2969946563243865966796875">
        <ele>112.59999847412109375</ele>
        <time>2017-01-15T11:54:02.000Z</time>
        <extensions>
          <ns3:TrackPointExtension/>
        </extensions>
      </trkpt>
      <trkpt lat="51.72775696031749248504638671875" lon="39.2969384975731372833251953125">
        <ele>112.59999847412109375</ele>
        <time>2017-01-15T11:54:03.000Z</time>
        <extensions>
          <ns3:TrackPointExtension/>
        </extensions>
      </trkpt>
      <trkpt lat="51.727725528180599212646484375" lon="39.29689097218215465545654296875">
        <ele>112.40000152587890625</ele>
        <time>2017-01-15T11:54:04.000Z</time>
        <extensions>
          <ns3:TrackPointExtension/>
        </extensions>
      </trkpt>
      <trkpt lat="51.72769032418727874755859375" lon="39.296854846179485321044921875">
        <ele>112.40000152587890625</ele>
        <time>2017-01-15T11:54:05.000Z</time>
        <extensions>
          <ns3:TrackPointExtension/>
        </extensions>
      </trkpt>
      <trkpt lat="51.7276505939662456512451171875" lon="39.29682777263224124908447265625">
        <ele>112.40000152587890625</ele>
        <time>2017-01-15T11:54:06.000Z</time>
        <extensions>
          <ns3:TrackPointExtension/>
        </extensions>
      </trkpt>
      <trkpt lat="51.727608852088451385498046875" lon="39.29680564440786838531494140625">
        <ele>112.59999847412109375</ele>
        <time>2017-01-15T11:54:07.000Z</time>
        <extensions>
          <ns3:TrackPointExtension/>
        </extensions>
      </trkpt>
      <trkpt lat="51.727567613124847412109375" lon="39.29678821004927158355712890625">
        <ele>112.59999847412109375</ele>
        <time>2017-01-15T11:54:08.000Z</time>
        <extensions>
          <ns3:TrackPointExtension/>
        </extensions>
      </trkpt>
      <trkpt lat="51.72752402722835540771484375" lon="39.29677396081387996673583984375">
        <ele>112.59999847412109375</ele>
        <time>2017-01-15T11:54:09.000Z</time>
        <extensions>
          <ns3:TrackPointExtension/>
        </extensions>
      </trkpt>
      <trkpt lat="51.7274802736937999725341796875" lon="39.2967624776065349578857421875">
        <ele>112.59999847412109375</ele>
        <time>2017-01-15T11:54:10.000Z</time>
        <extensions>
          <ns3:TrackPointExtension/>
        </extensions>
      </trkpt>
      <trkpt lat="51.7263275943696498870849609375" lon="39.29646559059619903564453125">
        <ele>110.8000030517578125</ele>
        <time>2017-01-15T11:54:35.000Z</time>
        <extensions>
          <ns3:TrackPointExtension/>
        </extensions>
      </trkpt>
      <trkpt lat="51.725204922258853912353515625" lon="39.2961579747498035430908203125">
        <ele>108.40000152587890625</ele>
        <time>2017-01-15T11:54:58.000Z</time>
        <extensions>
          <ns3:TrackPointExtension/>
        </extensions>
      </trkpt>
      <trkpt lat="51.72399952076375484466552734375" lon="39.29584256373345851898193359375">
        <ele>107.59999847412109375</ele>
        <time>2017-01-15T11:55:23.000Z</time>
        <extensions>
          <ns3:TrackPointExtension/>
        </extensions>
      </trkpt>
      <trkpt lat="51.7230935208499431610107421875" lon="39.2955838143825531005859375">
        <ele>108.8000030517578125</ele>
        <time>2017-01-15T11:55:43.000Z</time>
        <extensions>
          <ns3:TrackPointExtension/>
        </extensions>
      </trkpt>
      <trkpt lat="51.7222714237868785858154296875" lon="39.295370914041996002197265625">
        <ele>109</ele>
        <time>2017-01-15T11:56:01.000Z</time>
        <extensions>
          <ns3:TrackPointExtension/>
        </extensions>
      </trkpt>
      <trkpt lat="51.7212617397308349609375" lon="39.295127503573894500732421875">
        <ele>107.1999969482421875</ele>
        <time>2017-01-15T11:56:23.000Z</time>
        <extensions>
          <ns3:TrackPointExtension/>
        </extensions>
      </trkpt>
      <trkpt lat="51.72039111144840717315673828125" lon="39.2949033714830875396728515625">
        <ele>107.59999847412109375</ele>
        <time>2017-01-15T11:56:42.000Z</time>
        <extensions>
          <ns3:TrackPointExtension/>
        </extensions>
      </trkpt>
      <trkpt lat="51.7203457653522491455078125" lon="39.29489339701831340789794921875">
        <ele>107.59999847412109375</ele>
        <time>2017-01-15T11:56:43.000Z</time>
        <extensions>
          <ns3:TrackPointExtension/>
        </extensions>
      </trkpt>
      <trkpt lat="51.720294468104839324951171875" lon="39.29489314556121826171875">
        <ele>107.59999847412109375</ele>
        <time>2017-01-15T11:56:44.000Z</time>
        <extensions>
          <ns3:TrackPointExtension/>
        </extensions>
      </trkpt>
      <trkpt lat="51.71941009350121021270751953125" lon="39.29463070817291736602783203125">
        <ele>108</ele>
        <time>2017-01-15T11:57:04.000Z</time>
        <extensions>
          <ns3:TrackPointExtension/>
        </extensions>
      </trkpt>
      <trkpt lat="51.718912459909915924072265625" lon="39.29450430907309055328369140625">
        <ele>108.59999847412109375</ele>
        <time>2017-01-15T11:57:15.000Z</time>
        <extensions>
          <ns3:TrackPointExtension/>
        </extensions>
      </trkpt>
      <trkpt lat="51.71886317431926727294921875" lon="39.29449005983769893646240234375">
        <ele>108.8000030517578125</ele>
        <time>2017-01-15T11:57:16.000Z</time>
        <extensions>
          <ns3:TrackPointExtension/>
        </extensions>
      </trkpt>
      <trkpt lat="51.71881296671926975250244140625" lon="39.29448318667709827423095703125">
        <ele>109.1999969482421875</ele>
        <time>2017-01-15T11:57:17.000Z</time>
        <extensions>
          <ns3:TrackPointExtension/>
        </extensions>
      </trkpt>
      <trkpt lat="51.71797611750662326812744140625" lon="39.29424011148512363433837890625">
        <ele>111.40000152587890625</ele>
        <time>2017-01-15T11:57:35.000Z</time>
        <extensions>
          <ns3:TrackPointExtension/>
        </extensions>
      </trkpt>
      <trkpt lat="51.71755819581449031829833984375" lon="39.2941376008093357086181640625">
        <ele>111.1999969482421875</ele>
        <time>2017-01-15T11:57:44.000Z</time>
        <extensions>
          <ns3:TrackPointExtension/>
        </extensions>
      </trkpt>
      <trkpt lat="51.7175118438899517059326171875" lon="39.294129051268100738525390625">
        <ele>111.1999969482421875</ele>
        <time>2017-01-15T11:57:45.000Z</time>
        <extensions>
          <ns3:TrackPointExtension/>
        </extensions>
      </trkpt>
      <trkpt lat="51.71673106960952281951904296875" lon="39.293919838964939117431640625">
        <ele>112.1999969482421875</ele>
        <time>2017-01-15T11:58:02.000Z</time>
        <extensions>
          <ns3:TrackPointExtension/>
        </extensions>
      </trkpt>
      <trkpt lat="51.7166941054165363311767578125" lon="39.29390852339565753936767578125">
        <ele>112.1999969482421875</ele>
        <time>2017-01-15T11:58:03.000Z</time>
        <extensions>
          <ns3:TrackPointExtension/>
        </extensions>
      </trkpt>
      <trkpt lat="51.71665127389132976531982421875" lon="39.293905086815357208251953125">
        <ele>112.1999969482421875</ele>
        <time>2017-01-15T11:58:04.000Z</time>
        <extensions>
          <ns3:TrackPointExtension/>
        </extensions>
      </trkpt>
      <trkpt lat="51.715767569839954376220703125" lon="39.29368539713323116302490234375">
        <ele>111.1999969482421875</ele>
        <time>2017-01-15T11:58:23.000Z</time>
        <extensions>
          <ns3:TrackPointExtension/>
        </extensions>
      </trkpt>
      <trkpt lat="51.71571694314479827880859375" lon="39.2936692200601100921630859375">
        <ele>111</ele>
        <time>2017-01-15T11:58:24.000Z</time>
        <extensions>
          <ns3:TrackPointExtension/>
        </extensions>
      </trkpt>
      <trkpt lat="51.71566891483962535858154296875" lon="39.29365865886211395263671875">
        <ele>111</ele>
        <time>2017-01-15T11:58:25.000Z</time>
        <extensions>
          <ns3:TrackPointExtension/>
        </extensions>
      </trkpt>
      <trkpt lat="51.71562440693378448486328125" lon="39.29365354590117931365966796875">
        <ele>111</ele>
        <time>2017-01-15T11:58:26.000Z</time>
        <extensions>
          <ns3:TrackPointExtension/>
        </extensions>
      </trkpt>
      <trkpt lat="51.71481362544000148773193359375" lon="39.29346629418432712554931640625">
        <ele>110.40000152587890625</ele>
        <time>2017-01-15T11:58:44.000Z</time>
        <extensions>
          <ns3:TrackPointExtension/>
        </extensions>
      </trkpt>
      <trkpt lat="51.714015416800975799560546875" lon="39.29325406439602375030517578125">
        <ele>109.8000030517578125</ele>
        <time>2017-01-15T11:59:02.000Z</time>
        <extensions>
          <ns3:TrackPointExtension/>
        </extensions>
      </trkpt>
      <trkpt lat="51.71320371329784393310546875" lon="39.293050803244113922119140625">
        <ele>109.59999847412109375</ele>
        <time>2017-01-15T11:59:20.000Z</time>
        <extensions>
          <ns3:TrackPointExtension/>
        </extensions>
      </trkpt>
      <trkpt lat="51.71249284408986568450927734375" lon="39.292855001986026763916015625">
        <ele>110</ele>
        <time>2017-01-15T11:59:36.000Z</time>
        <extensions>
          <ns3:TrackPointExtension/>
        </extensions>
      </trkpt>
      <trkpt lat="51.7115749418735504150390625" lon="39.29260916076600551605224609375">
        <ele>110.40000152587890625</ele>
        <time>2017-01-15T11:59:57.000Z</time>
        <extensions>
          <ns3:TrackPointExtension/>
        </extensions>
      </trkpt>
      <trkpt lat="51.710820235311985015869140625" lon="39.29241755045950412750244140625">
        <ele>110</ele>
        <time>2017-01-15T12:00:15.000Z</time>
        <extensions>
          <ns3:TrackPointExtension/>
        </extensions>
      </trkpt>
      <trkpt lat="51.70995782129466533660888671875" lon="39.29220448248088359832763671875">
        <ele>111.8000030517578125</ele>
        <time>2017-01-15T12:00:35.000Z</time>
        <extensions>
          <ns3:TrackPointExtension/>
        </extensions>
      </trkpt>
      <trkpt lat="51.709135472774505615234375" lon="39.292006753385066986083984375">
        <ele>112</ele>
        <time>2017-01-15T12:00:55.000Z</time>
        <extensions>
          <ns3:TrackPointExtension/>
        </extensions>
      </trkpt>
      <trkpt lat="51.708184294402599334716796875" lon="39.291748590767383575439453125">
        <ele>113.1999969482421875</ele>
        <time>2017-01-15T12:01:17.000Z</time>
        <extensions>
          <ns3:TrackPointExtension/>
        </extensions>
      </trkpt>
      <trkpt lat="51.7070522345602512359619140625" lon="39.2914637736976146697998046875">
        <ele>113.59999847412109375</ele>
        <time>2017-01-15T12:01:42.000Z</time>
        <extensions>
          <ns3:TrackPointExtension/>
        </extensions>
      </trkpt>
      <trkpt lat="51.7062673531472682952880859375" lon="39.2912681400775909423828125">
        <ele>114</ele>
        <time>2017-01-15T12:02:00.000Z</time>
        <extensions>
          <ns3:TrackPointExtension/>
        </extensions>
      </trkpt>
      <trkpt lat="51.7054841481149196624755859375" lon="39.29107166826725006103515625">
        <ele>114.1999969482421875</ele>
        <time>2017-01-15T12:02:17.000Z</time>
        <extensions>
          <ns3:TrackPointExtension/>
        </extensions>
      </trkpt>
      <trkpt lat="51.70454395003616809844970703125" lon="39.29083689115941524505615234375">
        <ele>115</ele>
        <time>2017-01-15T12:02:38.000Z</time>
        <extensions>
          <ns3:TrackPointExtension/>
        </extensions>
      </trkpt>
      <trkpt lat="51.70416810549795627593994140625" lon="39.2907372303307056427001953125">
        <ele>115</ele>
        <time>2017-01-15T12:02:47.000Z</time>
        <extensions>
          <ns3:TrackPointExtension/>
        </extensions>
      </trkpt>
      <trkpt lat="51.70352571643888950347900390625" lon="39.2905769683420658111572265625">
        <ele>114.40000152587890625</ele>
        <time>2017-01-15T12:03:02.000Z</time>
        <extensions>
          <ns3:TrackPointExtension/>
        </extensions>
      </trkpt>
      <trkpt lat="51.70325749553740024566650390625" lon="39.290498010814189910888671875">
        <ele>114.1999969482421875</ele>
        <time>2017-01-15T12:03:08.000Z</time>
        <extensions>
          <ns3:TrackPointExtension/>
        </extensions>
      </trkpt>
      <trkpt lat="51.7025223188102245330810546875" lon="39.28988336585462093353271484375">
        <ele>113.59999847412109375</ele>
        <time>2017-01-15T12:03:26.000Z</time>
        <extensions>
          <ns3:TrackPointExtension/>
        </extensions>
      </trkpt>
      <trkpt lat="51.7021642439067363739013671875" lon="39.2889163456857204437255859375">
        <ele>113.8000030517578125</ele>
        <time>2017-01-15T12:03:42.000Z</time>
        <extensions>
          <ns3:TrackPointExtension/>
        </extensions>
      </trkpt>
      <trkpt lat="51.7021226696670055389404296875" lon="39.28787958808243274688720703125">
        <ele>114.59999847412109375</ele>
        <time>2017-01-15T12:03:57.000Z</time>
        <extensions>
          <ns3:TrackPointExtension/>
        </extensions>
      </trkpt>
      <trkpt lat="51.7022302933037281036376953125" lon="39.28642784245312213897705078125">
        <ele>114.1999969482421875</ele>
        <time>2017-01-15T12:04:16.000Z</time>
        <extensions>
          <ns3:TrackPointExtension/>
        </extensions>
      </trkpt>
      <trkpt lat="51.70238192193210124969482421875" lon="39.284676946699619293212890625">
        <ele>112.1999969482421875</ele>
        <time>2017-01-15T12:04:38.000Z</time>
        <extensions>
          <ns3:TrackPointExtension/>
        </extensions>
      </trkpt>
      <trkpt lat="51.7025052197277545928955078125" lon="39.28312051109969615936279296875">
        <ele>112.1999969482421875</ele>
        <time>2017-01-15T12:04:57.000Z</time>
        <extensions>
          <ns3:TrackPointExtension/>
        </extensions>
      </trkpt>
      <trkpt lat="51.70265031047165393829345703125" lon="39.28142242133617401123046875">
        <ele>111.59999847412109375</ele>
        <time>2017-01-15T12:05:18.000Z</time>
        <extensions>
          <ns3:TrackPointExtension/>
        </extensions>
      </trkpt>
      <trkpt lat="51.70278542675077915191650390625" lon="39.2797562666237354278564453125">
        <ele>109.40000152587890625</ele>
        <time>2017-01-15T12:05:38.000Z</time>
        <extensions>
          <ns3:TrackPointExtension/>
        </extensions>
      </trkpt>
      <trkpt lat="51.70289196074008941650390625" lon="39.278442151844501495361328125">
        <ele>107.8000030517578125</ele>
        <time>2017-01-15T12:05:52.000Z</time>
        <extensions>
          <ns3:TrackPointExtension/>
        </extensions>
      </trkpt>
      <trkpt lat="51.7029730975627899169921875" lon="39.2775927297770977020263671875">
        <ele>107.59999847412109375</ele>
        <time>2017-01-15T12:06:01.000Z</time>
        <extensions>
          <ns3:TrackPointExtension/>
        </extensions>
      </trkpt>
      <trkpt lat="51.70300318859517574310302734375" lon="39.27732794545590877532958984375">
        <ele>107.40000152587890625</ele>
        <time>2017-01-15T12:06:04.000Z</time>
        <extensions>
          <ns3:TrackPointExtension/>
        </extensions>
      </trkpt>
      <trkpt lat="51.70302917249500751495361328125" lon="39.277171790599822998046875">
        <ele>107.40000152587890625</ele>
        <time>2017-01-15T12:06:06.000Z</time>
        <extensions>
          <ns3:TrackPointExtension/>
        </extensions>
      </trkpt>
      <trkpt lat="51.70303948223590850830078125" lon="39.2770237661898136138916015625">
        <ele>107.40000152587890625</ele>
        <time>2017-01-15T12:06:08.000Z</time>
        <extensions>
          <ns3:TrackPointExtension/>
        </extensions>
      </trkpt>
      <trkpt lat="51.70303973369300365447998046875" lon="39.27694640122354030609130859375">
        <ele>107.40000152587890625</ele>
        <time>2017-01-15T12:06:09.000Z</time>
        <extensions>
          <ns3:TrackPointExtension/>
        </extensions>
      </trkpt>
      <trkpt lat="51.70307611115276813507080078125" lon="39.2762603424489498138427734375">
        <ele>106.40000152587890625</ele>
        <time>2017-01-15T12:06:22.000Z</time>
        <extensions>
          <ns3:TrackPointExtension/>
        </extensions>
      </trkpt>
      <trkpt lat="51.70310075394809246063232421875" lon="39.275612421333789825439453125">
        <ele>106.1999969482421875</ele>
        <time>2017-01-15T12:06:38.000Z</time>
        <extensions>
          <ns3:TrackPointExtension/>
        </extensions>
      </trkpt>
      <trkpt lat="51.703104190528392791748046875" lon="39.2754000239074230194091796875">
        <ele>106.1999969482421875</ele>
        <time>2017-01-15T12:06:49.000Z</time>
        <extensions>
          <ns3:TrackPointExtension/>
        </extensions>
      </trkpt>
      <trkpt lat="51.703107543289661407470703125" lon="39.27530832588672637939453125">
        <ele>106.1999969482421875</ele>
        <time>2017-01-15T12:07:32.000Z</time>
        <extensions>
          <ns3:TrackPointExtension/>
        </extensions>
      </trkpt>
      <trkpt lat="51.70310653746128082275390625" lon="39.2752726189792156219482421875">
        <ele>106.1999969482421875</ele>
        <time>2017-01-15T12:07:33.000Z</time>
        <extensions>
          <ns3:TrackPointExtension/>
        </extensions>
      </trkpt>
      <trkpt lat="51.703100502490997314453125" lon="39.2752310447394847869873046875">
        <ele>106.1999969482421875</ele>
        <time>2017-01-15T12:07:34.000Z</time>
        <extensions>
          <ns3:TrackPointExtension/>
        </extensions>
      </trkpt>
      <trkpt lat="51.70309136621654033660888671875" lon="39.27519089542329311370849609375">
        <ele>106.1999969482421875</ele>
        <time>2017-01-15T12:07:35.000Z</time>
        <extensions>
          <ns3:TrackPointExtension/>
        </extensions>
      </trkpt>
      <trkpt lat="51.70307912863790988922119140625" lon="39.27515284158289432525634765625">
        <ele>106.1999969482421875</ele>
        <time>2017-01-15T12:07:36.000Z</time>
        <extensions>
          <ns3:TrackPointExtension/>
        </extensions>
      </trkpt>
      <trkpt lat="51.7030611075460910797119140625" lon="39.2751157097518444061279296875">
        <ele>106.40000152587890625</ele>
        <time>2017-01-15T12:07:37.000Z</time>
        <extensions>
          <ns3:TrackPointExtension/>
        </extensions>
      </trkpt>
      <trkpt lat="51.7030369676649570465087890625" lon="39.27508243359625339508056640625">
        <ele>106.40000152587890625</ele>
        <time>2017-01-15T12:07:38.000Z</time>
        <extensions>
          <ns3:TrackPointExtension/>
        </extensions>
      </trkpt>
      <trkpt lat="51.7030081339180469512939453125" lon="39.27505494095385074615478515625">
        <ele>106.40000152587890625</ele>
        <time>2017-01-15T12:07:39.000Z</time>
        <extensions>
          <ns3:TrackPointExtension/>
        </extensions>
      </trkpt>
      <trkpt lat="51.7029746063053607940673828125" lon="39.275034405291080474853515625">
        <ele>106.59999847412109375</ele>
        <time>2017-01-15T12:07:40.000Z</time>
        <extensions>
          <ns3:TrackPointExtension/>
        </extensions>
      </trkpt>
      <trkpt lat="51.70294024050235748291015625" lon="39.27501688711345195770263671875">
        <ele>106.59999847412109375</ele>
        <time>2017-01-15T12:07:41.000Z</time>
        <extensions>
          <ns3:TrackPointExtension/>
        </extensions>
      </trkpt>
      <trkpt lat="51.70224563218653202056884765625" lon="39.274788312613964080810546875">
        <ele>108</ele>
        <time>2017-01-15T12:08:00.000Z</time>
        <extensions>
          <ns3:TrackPointExtension/>
        </extensions>
      </trkpt>
      <trkpt lat="51.7015195079147815704345703125" lon="39.27448648028075695037841796875">
        <ele>111</ele>
        <time>2017-01-15T12:08:21.000Z</time>
        <extensions>
          <ns3:TrackPointExtension/>
        </extensions>
      </trkpt>
      <trkpt lat="51.7013458348810672760009765625" lon="39.27435270510613918304443359375">
        <ele>110.40000152587890625</ele>
        <time>2017-01-15T12:08:34.000Z</time>
        <extensions>
          <ns3:TrackPointExtension/>
        </extensions>
      </trkpt>
      <trkpt lat="51.701346337795257568359375" lon="39.2743516154587268829345703125">
        <ele>110.40000152587890625</ele>
        <time>2017-01-15T12:08:35.000Z</time>
        <extensions>
          <ns3:TrackPointExtension/>
        </extensions>
      </trkpt>
      <trkpt lat="51.70129260979592800140380859375" lon="39.2742731608450412750244140625">
        <ele>110.1999969482421875</ele>
        <time>2017-01-15T12:08:48.000Z</time>
        <extensions>
          <ns3:TrackPointExtension/>
        </extensions>
      </trkpt>
      <trkpt lat="51.7007135041058063507080078125" lon="39.2739462666213512420654296875">
        <ele>108</ele>
        <time>2017-01-15T12:09:05.000Z</time>
        <extensions>
          <ns3:TrackPointExtension/>
        </extensions>
      </trkpt>
      <trkpt lat="51.70021218247711658477783203125" lon="39.27346338517963886260986328125">
        <ele>108.1999969482421875</ele>
        <time>2017-01-15T12:09:22.000Z</time>
        <extensions>
          <ns3:TrackPointExtension/>
        </extensions>
      </trkpt>
      <trkpt lat="51.70019005425274372100830078125" lon="39.27339348010718822479248046875">
        <ele>108.1999969482421875</ele>
        <time>2017-01-15T12:09:25.000Z</time>
        <extensions>
          <ns3:TrackPointExtension/>
        </extensions>
      </trkpt>
      <trkpt lat="51.700178571045398712158203125" lon="39.27337604574859142303466796875">
        <ele>108.40000152587890625</ele>
        <time>2017-01-15T12:09:26.000Z</time>
        <extensions>
          <ns3:TrackPointExtension/>
        </extensions>
      </trkpt>
      <trkpt lat="51.7001656629145145416259765625" lon="39.273358024656772613525390625">
        <ele>108.40000152587890625</ele>
        <time>2017-01-15T12:09:27.000Z</time>
        <extensions>
          <ns3:TrackPointExtension/>
        </extensions>
      </trkpt>
      <trkpt lat="51.69980918057262897491455078125" lon="39.2731229960918426513671875">
        <ele>108.8000030517578125</ele>
        <time>2017-01-15T12:09:40.000Z</time>
        <extensions>
          <ns3:TrackPointExtension/>
        </extensions>
      </trkpt>
      <trkpt lat="51.69945948757231235504150390625" lon="39.27286575548350811004638671875">
        <ele>109.8000030517578125</ele>
        <time>2017-01-15T12:09:53.000Z</time>
        <extensions>
          <ns3:TrackPointExtension/>
        </extensions>
      </trkpt>
      <trkpt lat="51.699182800948619842529296875" lon="39.2727801762521266937255859375">
        <ele>110.59999847412109375</ele>
        <time>2017-01-15T12:10:04.000Z</time>
        <extensions>
          <ns3:TrackPointExtension/>
        </extensions>
      </trkpt>
      <trkpt lat="51.69864862225949764251708984375" lon="39.27237574942409992218017578125">
        <ele>110.59999847412109375</ele>
        <time>2017-01-15T12:10:20.000Z</time>
        <extensions>
          <ns3:TrackPointExtension/>
        </extensions>
      </trkpt>
      <trkpt lat="51.698469333350658416748046875" lon="39.27225018851459026336669921875">
        <ele>110.40000152587890625</ele>
        <time>2017-01-15T12:10:25.000Z</time>
        <extensions>
          <ns3:TrackPointExtension/>
        </extensions>
      </trkpt>
      <trkpt lat="51.69791956432163715362548828125" lon="39.27189328707754611968994140625">
        <ele>110.59999847412109375</ele>
        <time>2017-01-15T12:10:41.000Z</time>
        <extensions>
          <ns3:TrackPointExtension/>
        </extensions>
      </trkpt>
      <trkpt lat="51.69772795401513576507568359375" lon="39.2717659659683704376220703125">
        <ele>111.1999969482421875</ele>
        <time>2017-01-15T12:10:52.000Z</time>
        <extensions>
          <ns3:TrackPointExtension/>
        </extensions>
      </trkpt>
      <trkpt lat="51.697472222149372100830078125" lon="39.27158952690660953521728515625">
        <ele>111.8000030517578125</ele>
        <time>2017-01-15T12:11:04.000Z</time>
        <extensions>
          <ns3:TrackPointExtension/>
        </extensions>
      </trkpt>
      <trkpt lat="51.69722202233970165252685546875" lon="39.271412752568721771240234375">
        <ele>111.8000030517578125</ele>
        <time>2017-01-15T12:11:14.000Z</time>
        <extensions>
          <ns3:TrackPointExtension/>
        </extensions>
      </trkpt>
      <trkpt lat="51.69679638929665088653564453125" lon="39.27110170014202594757080078125">
        <ele>111.40000152587890625</ele>
        <time>2017-01-15T12:11:28.000Z</time>
        <extensions>
          <ns3:TrackPointExtension/>
        </extensions>
      </trkpt>
      <trkpt lat="51.6965352930128574371337890625" lon="39.27090589888393878936767578125">
        <ele>111</ele>
        <time>2017-01-15T12:11:39.000Z</time>
        <extensions>
          <ns3:TrackPointExtension/>
        </extensions>
      </trkpt>
      <trkpt lat="51.696275956928730010986328125" lon="39.27071579732000827789306640625">
        <ele>110</ele>
        <time>2017-01-15T12:11:49.000Z</time>
        <extensions>
          <ns3:TrackPointExtension/>
        </extensions>
      </trkpt>
      <trkpt lat="51.696225665509700775146484375" lon="39.27069283090531826019287109375">
        <ele>109.8000030517578125</ele>
        <time>2017-01-15T12:11:52.000Z</time>
        <extensions>
          <ns3:TrackPointExtension/>
        </extensions>
      </trkpt>
      <trkpt lat="51.69621619395911693572998046875" lon="39.27067539654672145843505859375">
        <ele>109.8000030517578125</ele>
        <time>2017-01-15T12:11:53.000Z</time>
        <extensions>
          <ns3:TrackPointExtension/>
        </extensions>
      </trkpt>
      <trkpt lat="51.69621451757848262786865234375" lon="39.27064798772335052490234375">
        <ele>109.8000030517578125</ele>
        <time>2017-01-15T12:11:54.000Z</time>
        <extensions>
          <ns3:TrackPointExtension/>
        </extensions>
      </trkpt>
      <trkpt lat="51.69622139073908329010009765625" lon="39.27061622031033039093017578125">
        <ele>109.8000030517578125</ele>
        <time>2017-01-15T12:11:55.000Z</time>
        <extensions>
          <ns3:TrackPointExtension/>
        </extensions>
      </trkpt>
      <trkpt lat="51.69622893445193767547607421875" lon="39.270584285259246826171875">
        <ele>110</ele>
        <time>2017-01-15T12:11:56.000Z</time>
        <extensions>
          <ns3:TrackPointExtension/>
        </extensions>
      </trkpt>
      <trkpt lat="51.69622893445193767547607421875" lon="39.27055570296943187713623046875">
        <ele>110</ele>
        <time>2017-01-15T12:11:57.000Z</time>
        <extensions>
          <ns3:TrackPointExtension/>
        </extensions>
      </trkpt>
      <trkpt lat="51.69644652865827083587646484375" lon="39.2699249647557735443115234375">
        <ele>110.8000030517578125</ele>
        <time>2017-01-15T12:12:11.000Z</time>
        <extensions>
          <ns3:TrackPointExtension/>
        </extensions>
      </trkpt>
      <trkpt lat="51.69663964770734310150146484375" lon="39.2692249082028865814208984375">
        <ele>111</ele>
        <time>2017-01-15T12:12:24.000Z</time>
        <extensions>
          <ns3:TrackPointExtension/>
        </extensions>
      </trkpt>
      <trkpt lat="51.6966476105153560638427734375" lon="39.268827103078365325927734375">
        <ele>111</ele>
        <time>2017-01-15T12:12:32.000Z</time>
        <extensions>
          <ns3:TrackPointExtension/>
        </extensions>
      </trkpt>
      <trkpt lat="51.6967136599123477935791015625" lon="39.26824648864567279815673828125">
        <ele>109.8000030517578125</ele>
        <time>2017-01-15T12:12:43.000Z</time>
        <extensions>
          <ns3:TrackPointExtension/>
        </extensions>
      </trkpt>
      <trkpt lat="51.69683041982352733612060546875" lon="39.2677872441709041595458984375">
        <ele>108.1999969482421875</ele>
        <time>2017-01-15T12:12:54.000Z</time>
        <extensions>
          <ns3:TrackPointExtension/>
        </extensions>
      </trkpt>
      <trkpt lat="51.6968222893774509429931640625" lon="39.2677500285208225250244140625">
        <ele>108.1999969482421875</ele>
        <time>2017-01-15T12:12:55.000Z</time>
        <extensions>
          <ns3:TrackPointExtension/>
        </extensions>
      </trkpt>
      <trkpt lat="51.696807704865932464599609375" lon="39.2677111364901065826416015625">
        <ele>108.1999969482421875</ele>
        <time>2017-01-15T12:12:56.000Z</time>
        <extensions>
          <ns3:TrackPointExtension/>
        </extensions>
      </trkpt>
      <trkpt lat="51.69674475677311420440673828125" lon="39.26764198578894138336181640625">
        <ele>108.40000152587890625</ele>
        <time>2017-01-15T12:12:59.000Z</time>
        <extensions>
          <ns3:TrackPointExtension/>
        </extensions>
      </trkpt>
      <trkpt lat="51.69672430492937564849853515625" lon="39.26762136630713939666748046875">
        <ele>108.40000152587890625</ele>
        <time>2017-01-15T12:13:00.000Z</time>
        <extensions>
          <ns3:TrackPointExtension/>
        </extensions>
      </trkpt>
      <trkpt lat="51.69633957557380199432373046875" lon="39.2673010937869548797607421875">
        <ele>108.40000152587890625</ele>
        <time>2017-01-15T12:13:14.000Z</time>
        <extensions>
          <ns3:TrackPointExtension/>
        </extensions>
      </trkpt>
      <trkpt lat="51.69596507214009761810302734375" lon="39.26700177602469921112060546875">
        <ele>108</ele>
        <time>2017-01-15T12:13:26.000Z</time>
        <extensions>
          <ns3:TrackPointExtension/>
        </extensions>
      </trkpt>
      <trkpt lat="51.69567137025296688079833984375" lon="39.26679432392120361328125">
        <ele>107.8000030517578125</ele>
        <time>2017-01-15T12:13:37.000Z</time>
        <extensions>
          <ns3:TrackPointExtension/>
        </extensions>
      </trkpt>
      <trkpt lat="51.69526820071041584014892578125" lon="39.2664991132915019989013671875">
        <ele>107</ele>
        <time>2017-01-15T12:13:50.000Z</time>
        <extensions>
          <ns3:TrackPointExtension/>
        </extensions>
      </trkpt>
      <trkpt lat="51.6950842179358005523681640625" lon="39.2663683556020259857177734375">
        <ele>106.59999847412109375</ele>
        <time>2017-01-15T12:13:56.000Z</time>
        <extensions>
          <ns3:TrackPointExtension/>
        </extensions>
      </trkpt>
      <trkpt lat="51.69507424347102642059326171875" lon="39.26633298397064208984375">
        <ele>106.40000152587890625</ele>
        <time>2017-01-15T12:13:57.000Z</time>
        <extensions>
          <ns3:TrackPointExtension/>
        </extensions>
      </trkpt>
      <trkpt lat="51.6950708068907260894775390625" lon="39.26629568450152873992919921875">
        <ele>106.40000152587890625</ele>
        <time>2017-01-15T12:13:58.000Z</time>
        <extensions>
          <ns3:TrackPointExtension/>
        </extensions>
      </trkpt>
      <trkpt lat="51.69507541693747043609619140625" lon="39.26626198925077915191650390625">
        <ele>106.40000152587890625</ele>
        <time>2017-01-15T12:13:59.000Z</time>
        <extensions>
          <ns3:TrackPointExtension/>
        </extensions>
      </trkpt>
      <trkpt lat="51.69508262537419795989990234375" lon="39.26623399369418621063232421875">
        <ele>106.40000152587890625</ele>
        <time>2017-01-15T12:14:00.000Z</time>
        <extensions>
          <ns3:TrackPointExtension/>
        </extensions>
      </trkpt>
      <trkpt lat="51.69508815743029117584228515625" lon="39.2662101052701473236083984375">
        <ele>106.40000152587890625</ele>
        <time>2017-01-15T12:14:01.000Z</time>
        <extensions>
          <ns3:TrackPointExtension/>
        </extensions>
      </trkpt>
      <trkpt lat="51.69509201310575008392333984375" lon="39.26618856377899646759033203125">
        <ele>106.40000152587890625</ele>
        <time>2017-01-15T12:14:02.000Z</time>
        <extensions>
          <ns3:TrackPointExtension/>
        </extensions>
      </trkpt>
      <trkpt lat="51.6950915940105915069580078125" lon="39.26616735756397247314453125">
        <ele>106.40000152587890625</ele>
        <time>2017-01-15T12:14:03.000Z</time>
        <extensions>
          <ns3:TrackPointExtension/>
        </extensions>
      </trkpt>
      <trkpt lat="51.695087738335132598876953125" lon="39.2661474086344242095947265625">
        <ele>106.1999969482421875</ele>
        <time>2017-01-15T12:14:04.000Z</time>
        <extensions>
          <ns3:TrackPointExtension/>
        </extensions>
      </trkpt>
      <trkpt lat="51.69506485573947429656982421875" lon="39.2661197483539581298828125">
        <ele>106.1999969482421875</ele>
        <time>2017-01-15T12:14:12.000Z</time>
        <extensions>
          <ns3:TrackPointExtension/>
        </extensions>
      </trkpt>
    </trkseg>
  </trk>
</gpx>
